<?xml version="1.0" encoding="UTF-8"?>
<gpx xmlns="http://www.topografix.com/GPX/1/1" version="1.1" xmlns:xsi="http://www.w3.org/2001/XMLSchema-instance" xsi:schemaLocation="http://www.topografix.com/GPX/1/1 http://www.topografix.com/GPX/1/1/gpx.xsd" creator="MotionXGPSFull 18.1 Build 4319R">
<trk>
<name><![CDATA[VTT - Sion - Anzère]]></name>
<desc><![CDATA[7 mai 2012  5:05 pm]]></desc>
<trkseg>
<trkpt lat="46.2320239" lon="7.3590241">
<ele>602.222</ele>
<time>2012-05-07T15:06:09.722Z</time>
</trkpt>
<trkpt lat="46.2321119" lon="7.3589958">
<ele>601.945</ele>
<time>2012-05-07T15:06:16.409Z</time>
</trkpt>
<trkpt lat="46.2322168" lon="7.3589660">
<ele>601.841</ele>
<time>2012-05-07T15:06:21.207Z</time>
</trkpt>
<trkpt lat="46.2323270" lon="7.3589486">
<ele>601.842</ele>
<time>2012-05-07T15:06:25.255Z</time>
</trkpt>
<trkpt lat="46.2324371" lon="7.3589833">
<ele>600.542</ele>
<time>2012-05-07T15:06:28.870Z</time>
</trkpt>
<trkpt lat="46.2325398" lon="7.3589525">
<ele>595.214</ele>
<time>2012-05-07T15:06:31.988Z</time>
</trkpt>
<trkpt lat="46.2325290" lon="7.3588227">
<ele>584.191</ele>
<time>2012-05-07T15:06:34.536Z</time>
</trkpt>
<trkpt lat="46.2325617" lon="7.3586830">
<ele>569.759</ele>
<time>2012-05-07T15:06:37.243Z</time>
</trkpt>
<trkpt lat="46.2326434" lon="7.3586068">
<ele>555.144</ele>
<time>2012-05-07T15:06:39.797Z</time>
</trkpt>
<trkpt lat="46.2327386" lon="7.3585469">
<ele>542.726</ele>
<time>2012-05-07T15:06:42.481Z</time>
</trkpt>
<trkpt lat="46.2328414" lon="7.3584488">
<ele>535.116</ele>
<time>2012-05-07T15:06:45.643Z</time>
</trkpt>
<trkpt lat="46.2329513" lon="7.3583581">
<ele>532.932</ele>
<time>2012-05-07T15:06:48.895Z</time>
</trkpt>
<trkpt lat="46.2330653" lon="7.3582682">
<ele>533.621</ele>
<time>2012-05-07T15:06:52.201Z</time>
</trkpt>
<trkpt lat="46.2331416" lon="7.3581974">
<ele>535.096</ele>
<time>2012-05-07T15:06:54.514Z</time>
</trkpt>
<trkpt lat="46.2332414" lon="7.3581203">
<ele>536.655</ele>
<time>2012-05-07T15:06:57.475Z</time>
</trkpt>
<trkpt lat="46.2333155" lon="7.3582023">
<ele>538.225</ele>
<time>2012-05-07T15:06:59.977Z</time>
</trkpt>
<trkpt lat="46.2333608" lon="7.3583598">
<ele>538.962</ele>
<time>2012-05-07T15:07:03.224Z</time>
</trkpt>
<trkpt lat="46.2334416" lon="7.3584634">
<ele>538.381</ele>
<time>2012-05-07T15:07:06.374Z</time>
</trkpt>
<trkpt lat="46.2335367" lon="7.3584521">
<ele>537.819</ele>
<time>2012-05-07T15:07:09.176Z</time>
</trkpt>
<trkpt lat="46.2336660" lon="7.3583995">
<ele>538.654</ele>
<time>2012-05-07T15:07:12.967Z</time>
</trkpt>
<trkpt lat="46.2337601" lon="7.3583762">
<ele>540.796</ele>
<time>2012-05-07T15:07:15.519Z</time>
</trkpt>
<trkpt lat="46.2338854" lon="7.3583193">
<ele>543.068</ele>
<time>2012-05-07T15:07:18.861Z</time>
</trkpt>
<trkpt lat="46.2339988" lon="7.3582735">
<ele>544.360</ele>
<time>2012-05-07T15:07:21.772Z</time>
</trkpt>
<trkpt lat="46.2341123" lon="7.3582422">
<ele>544.683</ele>
<time>2012-05-07T15:07:24.624Z</time>
</trkpt>
<trkpt lat="46.2342189" lon="7.3582165">
<ele>544.720</ele>
<time>2012-05-07T15:07:27.318Z</time>
</trkpt>
<trkpt lat="46.2343308" lon="7.3581673">
<ele>544.756</ele>
<time>2012-05-07T15:07:30.315Z</time>
</trkpt>
<trkpt lat="46.2344382" lon="7.3581042">
<ele>544.671</ele>
<time>2012-05-07T15:07:33.418Z</time>
</trkpt>
<trkpt lat="46.2345446" lon="7.3580198">
<ele>544.437</ele>
<time>2012-05-07T15:07:36.805Z</time>
</trkpt>
<trkpt lat="46.2346603" lon="7.3579715">
<ele>544.416</ele>
<time>2012-05-07T15:07:40.280Z</time>
</trkpt>
<trkpt lat="46.2347696" lon="7.3579049">
<ele>545.030</ele>
<time>2012-05-07T15:07:43.770Z</time>
</trkpt>
<trkpt lat="46.2348802" lon="7.3578954">
<ele>545.868</ele>
<time>2012-05-07T15:07:47.083Z</time>
</trkpt>
<trkpt lat="46.2349779" lon="7.3578928">
<ele>546.353</ele>
<time>2012-05-07T15:07:50.253Z</time>
</trkpt>
<trkpt lat="46.2350691" lon="7.3579892">
<ele>546.656</ele>
<time>2012-05-07T15:07:54.383Z</time>
</trkpt>
<trkpt lat="46.2351068" lon="7.3581093">
<ele>546.952</ele>
<time>2012-05-07T15:07:57.961Z</time>
</trkpt>
<trkpt lat="46.2351530" lon="7.3582494">
<ele>546.682</ele>
<time>2012-05-07T15:08:02.478Z</time>
</trkpt>
<trkpt lat="46.2351841" lon="7.3583757">
<ele>543.980</ele>
<time>2012-05-07T15:08:06.599Z</time>
</trkpt>
<trkpt lat="46.2352240" lon="7.3585210">
<ele>538.537</ele>
<time>2012-05-07T15:08:11.704Z</time>
</trkpt>
<trkpt lat="46.2352701" lon="7.3587075">
<ele>533.483</ele>
<time>2012-05-07T15:08:17.729Z</time>
</trkpt>
<trkpt lat="46.2353023" lon="7.3588460">
<ele>531.116</ele>
<time>2012-05-07T15:08:21.098Z</time>
</trkpt>
<trkpt lat="46.2353539" lon="7.3590470">
<ele>530.714</ele>
<time>2012-05-07T15:08:25.166Z</time>
</trkpt>
<trkpt lat="46.2354088" lon="7.3592334">
<ele>531.134</ele>
<time>2012-05-07T15:08:28.676Z</time>
</trkpt>
<trkpt lat="46.2354769" lon="7.3594179">
<ele>531.652</ele>
<time>2012-05-07T15:08:32.141Z</time>
</trkpt>
<trkpt lat="46.2355216" lon="7.3595459">
<ele>531.969</ele>
<time>2012-05-07T15:08:34.457Z</time>
</trkpt>
<trkpt lat="46.2355680" lon="7.3597437">
<ele>532.060</ele>
<time>2012-05-07T15:08:37.820Z</time>
</trkpt>
<trkpt lat="46.2356009" lon="7.3599233">
<ele>532.038</ele>
<time>2012-05-07T15:08:40.948Z</time>
</trkpt>
<trkpt lat="46.2356229" lon="7.3600763">
<ele>531.894</ele>
<time>2012-05-07T15:08:43.946Z</time>
</trkpt>
<trkpt lat="46.2356299" lon="7.3602150">
<ele>531.531</ele>
<time>2012-05-07T15:08:46.744Z</time>
</trkpt>
<trkpt lat="46.2356676" lon="7.3603931">
<ele>530.964</ele>
<time>2012-05-07T15:08:50.776Z</time>
</trkpt>
<trkpt lat="46.2357075" lon="7.3605629">
<ele>530.304</ele>
<time>2012-05-07T15:08:54.411Z</time>
</trkpt>
<trkpt lat="46.2357898" lon="7.3606532">
<ele>529.722</ele>
<time>2012-05-07T15:08:57.196Z</time>
</trkpt>
<trkpt lat="46.2359194" lon="7.3605809">
<ele>529.390</ele>
<time>2012-05-07T15:09:00.710Z</time>
</trkpt>
<trkpt lat="46.2360168" lon="7.3605254">
<ele>529.388</ele>
<time>2012-05-07T15:09:03.288Z</time>
</trkpt>
<trkpt lat="46.2361344" lon="7.3604724">
<ele>529.883</ele>
<time>2012-05-07T15:09:06.393Z</time>
</trkpt>
<trkpt lat="46.2362466" lon="7.3604438">
<ele>531.101</ele>
<time>2012-05-07T15:09:09.367Z</time>
</trkpt>
<trkpt lat="46.2363491" lon="7.3604368">
<ele>532.724</ele>
<time>2012-05-07T15:09:12.109Z</time>
</trkpt>
<trkpt lat="46.2364461" lon="7.3604026">
<ele>533.991</ele>
<time>2012-05-07T15:09:14.877Z</time>
</trkpt>
<trkpt lat="46.2365593" lon="7.3603445">
<ele>534.686</ele>
<time>2012-05-07T15:09:18.298Z</time>
</trkpt>
<trkpt lat="46.2366502" lon="7.3602812">
<ele>537.458</ele>
<time>2012-05-07T15:09:21.188Z</time>
</trkpt>
<trkpt lat="46.2367785" lon="7.3602400">
<ele>544.130</ele>
<time>2012-05-07T15:09:24.934Z</time>
</trkpt>
<trkpt lat="46.2368679" lon="7.3602544">
<ele>551.673</ele>
<time>2012-05-07T15:09:27.493Z</time>
</trkpt>
<trkpt lat="46.2369717" lon="7.3602884">
<ele>556.499</ele>
<time>2012-05-07T15:09:30.523Z</time>
</trkpt>
<trkpt lat="46.2370905" lon="7.3603058">
<ele>558.379</ele>
<time>2012-05-07T15:09:33.934Z</time>
</trkpt>
<trkpt lat="46.2371974" lon="7.3603189">
<ele>558.417</ele>
<time>2012-05-07T15:09:37.001Z</time>
</trkpt>
<trkpt lat="46.2372942" lon="7.3603158">
<ele>557.345</ele>
<time>2012-05-07T15:09:39.780Z</time>
</trkpt>
<trkpt lat="46.2373988" lon="7.3602967">
<ele>554.062</ele>
<time>2012-05-07T15:09:42.810Z</time>
</trkpt>
<trkpt lat="46.2374942" lon="7.3602889">
<ele>548.708</ele>
<time>2012-05-07T15:09:45.565Z</time>
</trkpt>
<trkpt lat="46.2375922" lon="7.3602850">
<ele>544.201</ele>
<time>2012-05-07T15:09:48.404Z</time>
</trkpt>
<trkpt lat="46.2377054" lon="7.3602484">
<ele>542.337</ele>
<time>2012-05-07T15:09:51.794Z</time>
</trkpt>
<trkpt lat="46.2378211" lon="7.3602011">
<ele>542.526</ele>
<time>2012-05-07T15:09:55.351Z</time>
</trkpt>
<trkpt lat="46.2379062" lon="7.3601591">
<ele>545.520</ele>
<time>2012-05-07T15:09:58.055Z</time>
</trkpt>
<trkpt lat="46.2379959" lon="7.3601085">
<ele>551.355</ele>
<time>2012-05-07T15:10:00.999Z</time>
</trkpt>
<trkpt lat="46.2380983" lon="7.3600662">
<ele>557.892</ele>
<time>2012-05-07T15:10:04.317Z</time>
</trkpt>
<trkpt lat="46.2382176" lon="7.3600830">
<ele>563.249</ele>
<time>2012-05-07T15:10:08.102Z</time>
</trkpt>
<trkpt lat="46.2383232" lon="7.3601047">
<ele>566.504</ele>
<time>2012-05-07T15:10:11.502Z</time>
</trkpt>
<trkpt lat="46.2384322" lon="7.3600576">
<ele>567.426</ele>
<time>2012-05-07T15:10:15.170Z</time>
</trkpt>
<trkpt lat="46.2385281" lon="7.3600265">
<ele>566.838</ele>
<time>2012-05-07T15:10:18.348Z</time>
</trkpt>
<trkpt lat="46.2386257" lon="7.3599821">
<ele>565.478</ele>
<time>2012-05-07T15:10:21.634Z</time>
</trkpt>
<trkpt lat="46.2387170" lon="7.3599677">
<ele>564.164</ele>
<time>2012-05-07T15:10:24.593Z</time>
</trkpt>
<trkpt lat="46.2388334" lon="7.3599357">
<ele>563.366</ele>
<time>2012-05-07T15:10:28.435Z</time>
</trkpt>
<trkpt lat="46.2389275" lon="7.3599020">
<ele>563.033</ele>
<time>2012-05-07T15:10:31.587Z</time>
</trkpt>
<trkpt lat="46.2390124" lon="7.3598525">
<ele>563.009</ele>
<time>2012-05-07T15:10:34.556Z</time>
</trkpt>
<trkpt lat="46.2391190" lon="7.3598416">
<ele>563.088</ele>
<time>2012-05-07T15:10:38.018Z</time>
</trkpt>
<trkpt lat="46.2392139" lon="7.3598546">
<ele>562.731</ele>
<time>2012-05-07T15:10:41.107Z</time>
</trkpt>
<trkpt lat="46.2393079" lon="7.3598608">
<ele>561.554</ele>
<time>2012-05-07T15:10:44.160Z</time>
</trkpt>
<trkpt lat="46.2394003" lon="7.3598683">
<ele>560.008</ele>
<time>2012-05-07T15:10:47.157Z</time>
</trkpt>
<trkpt lat="46.2395055" lon="7.3598846">
<ele>558.808</ele>
<time>2012-05-07T15:10:50.581Z</time>
</trkpt>
<trkpt lat="46.2396201" lon="7.3598864">
<ele>558.346</ele>
<time>2012-05-07T15:10:54.315Z</time>
</trkpt>
<trkpt lat="46.2397214" lon="7.3599110">
<ele>558.608</ele>
<time>2012-05-07T15:10:57.686Z</time>
</trkpt>
<trkpt lat="46.2398423" lon="7.3599491">
<ele>559.697</ele>
<time>2012-05-07T15:11:01.738Z</time>
</trkpt>
<trkpt lat="46.2399383" lon="7.3600071">
<ele>562.173</ele>
<time>2012-05-07T15:11:05.184Z</time>
</trkpt>
<trkpt lat="46.2400326" lon="7.3600395">
<ele>566.324</ele>
<time>2012-05-07T15:11:08.479Z</time>
</trkpt>
<trkpt lat="46.2401228" lon="7.3600673">
<ele>571.068</ele>
<time>2012-05-07T15:11:11.684Z</time>
</trkpt>
<trkpt lat="46.2402132" lon="7.3601034">
<ele>574.515</ele>
<time>2012-05-07T15:11:14.995Z</time>
</trkpt>
<trkpt lat="46.2403145" lon="7.3601377">
<ele>575.851</ele>
<time>2012-05-07T15:11:18.720Z</time>
</trkpt>
<trkpt lat="46.2404170" lon="7.3601871">
<ele>575.219</ele>
<time>2012-05-07T15:11:22.652Z</time>
</trkpt>
<trkpt lat="46.2405127" lon="7.3602235">
<ele>573.803</ele>
<time>2012-05-07T15:11:26.275Z</time>
</trkpt>
<trkpt lat="46.2406052" lon="7.3602571">
<ele>573.478</ele>
<time>2012-05-07T15:11:29.743Z</time>
</trkpt>
<trkpt lat="46.2407109" lon="7.3602984">
<ele>574.292</ele>
<time>2012-05-07T15:11:33.681Z</time>
</trkpt>
<trkpt lat="46.2408146" lon="7.3603505">
<ele>575.233</ele>
<time>2012-05-07T15:11:37.582Z</time>
</trkpt>
<trkpt lat="46.2409132" lon="7.3604076">
<ele>576.642</ele>
<time>2012-05-07T15:11:41.331Z</time>
</trkpt>
<trkpt lat="46.2410053" lon="7.3604537">
<ele>578.896</ele>
<time>2012-05-07T15:11:44.787Z</time>
</trkpt>
<trkpt lat="46.2411135" lon="7.3605514">
<ele>581.255</ele>
<time>2012-05-07T15:11:49.316Z</time>
</trkpt>
<trkpt lat="46.2412116" lon="7.3606330">
<ele>582.693</ele>
<time>2012-05-07T15:11:53.332Z</time>
</trkpt>
<trkpt lat="46.2413127" lon="7.3607041">
<ele>583.102</ele>
<time>2012-05-07T15:11:57.369Z</time>
</trkpt>
<trkpt lat="46.2414130" lon="7.3607658">
<ele>582.207</ele>
<time>2012-05-07T15:12:01.302Z</time>
</trkpt>
<trkpt lat="46.2415229" lon="7.3608211">
<ele>579.695</ele>
<time>2012-05-07T15:12:05.481Z</time>
</trkpt>
<trkpt lat="46.2416145" lon="7.3608874">
<ele>576.786</ele>
<time>2012-05-07T15:12:09.180Z</time>
</trkpt>
<trkpt lat="46.2417005" lon="7.3609336">
<ele>574.813</ele>
<time>2012-05-07T15:12:12.492Z</time>
</trkpt>
<trkpt lat="46.2418141" lon="7.3609228">
<ele>573.730</ele>
<time>2012-05-07T15:12:16.490Z</time>
</trkpt>
<trkpt lat="46.2419165" lon="7.3609964">
<ele>573.253</ele>
<time>2012-05-07T15:12:20.440Z</time>
</trkpt>
<trkpt lat="46.2419299" lon="7.3611377">
<ele>573.203</ele>
<time>2012-05-07T15:12:23.806Z</time>
</trkpt>
<trkpt lat="46.2419396" lon="7.3612965">
<ele>573.301</ele>
<time>2012-05-07T15:12:27.532Z</time>
</trkpt>
<trkpt lat="46.2419700" lon="7.3614371">
<ele>573.670</ele>
<time>2012-05-07T15:12:30.966Z</time>
</trkpt>
<trkpt lat="46.2420207" lon="7.3615743">
<ele>574.526</ele>
<time>2012-05-07T15:12:34.627Z</time>
</trkpt>
<trkpt lat="46.2420878" lon="7.3616826">
<ele>575.740</ele>
<time>2012-05-07T15:12:38.100Z</time>
</trkpt>
<trkpt lat="46.2421730" lon="7.3617884">
<ele>577.049</ele>
<time>2012-05-07T15:12:41.994Z</time>
</trkpt>
<trkpt lat="46.2422668" lon="7.3618853">
<ele>578.202</ele>
<time>2012-05-07T15:12:45.961Z</time>
</trkpt>
<trkpt lat="46.2423705" lon="7.3619590">
<ele>579.234</ele>
<time>2012-05-07T15:12:49.903Z</time>
</trkpt>
<trkpt lat="46.2424698" lon="7.3620185">
<ele>580.793</ele>
<time>2012-05-07T15:12:53.564Z</time>
</trkpt>
<trkpt lat="46.2425714" lon="7.3620778">
<ele>583.296</ele>
<time>2012-05-07T15:12:57.335Z</time>
</trkpt>
<trkpt lat="46.2426575" lon="7.3621228">
<ele>586.417</ele>
<time>2012-05-07T15:13:00.531Z</time>
</trkpt>
<trkpt lat="46.2427566" lon="7.3621615">
<ele>589.283</ele>
<time>2012-05-07T15:13:04.218Z</time>
</trkpt>
<trkpt lat="46.2428510" lon="7.3621823">
<ele>592.264</ele>
<time>2012-05-07T15:13:07.679Z</time>
</trkpt>
<trkpt lat="46.2429469" lon="7.3621984">
<ele>597.190</ele>
<time>2012-05-07T15:13:11.205Z</time>
</trkpt>
<trkpt lat="46.2430519" lon="7.3622671">
<ele>604.344</ele>
<time>2012-05-07T15:13:15.481Z</time>
</trkpt>
<trkpt lat="46.2431456" lon="7.3623403">
<ele>611.128</ele>
<time>2012-05-07T15:13:19.481Z</time>
</trkpt>
<trkpt lat="46.2432392" lon="7.3623786">
<ele>615.066</ele>
<time>2012-05-07T15:13:23.114Z</time>
</trkpt>
<trkpt lat="46.2433341" lon="7.3624004">
<ele>616.093</ele>
<time>2012-05-07T15:13:26.669Z</time>
</trkpt>
<trkpt lat="46.2434252" lon="7.3624179">
<ele>614.175</ele>
<time>2012-05-07T15:13:30.017Z</time>
</trkpt>
<trkpt lat="46.2435144" lon="7.3624381">
<ele>608.135</ele>
<time>2012-05-07T15:13:33.258Z</time>
</trkpt>
<trkpt lat="46.2436036" lon="7.3624642">
<ele>599.234</ele>
<time>2012-05-07T15:13:36.483Z</time>
</trkpt>
<trkpt lat="46.2437184" lon="7.3625080">
<ele>591.043</ele>
<time>2012-05-07T15:13:40.629Z</time>
</trkpt>
<trkpt lat="46.2438041" lon="7.3625502">
<ele>585.755</ele>
<time>2012-05-07T15:13:43.765Z</time>
</trkpt>
<trkpt lat="46.2439095" lon="7.3626195">
<ele>583.470</ele>
<time>2012-05-07T15:13:47.743Z</time>
</trkpt>
<trkpt lat="46.2440097" lon="7.3627034">
<ele>583.148</ele>
<time>2012-05-07T15:13:51.716Z</time>
</trkpt>
<trkpt lat="46.2441065" lon="7.3627937">
<ele>583.556</ele>
<time>2012-05-07T15:13:55.663Z</time>
</trkpt>
<trkpt lat="46.2441979" lon="7.3628937">
<ele>584.067</ele>
<time>2012-05-07T15:13:59.594Z</time>
</trkpt>
<trkpt lat="46.2442862" lon="7.3629949">
<ele>584.650</ele>
<time>2012-05-07T15:14:03.466Z</time>
</trkpt>
<trkpt lat="46.2443761" lon="7.3630936">
<ele>585.406</ele>
<time>2012-05-07T15:14:07.369Z</time>
</trkpt>
<trkpt lat="46.2444603" lon="7.3631839">
<ele>586.411</ele>
<time>2012-05-07T15:14:11.036Z</time>
</trkpt>
<trkpt lat="46.2445424" lon="7.3632734">
<ele>587.669</ele>
<time>2012-05-07T15:14:14.706Z</time>
</trkpt>
<trkpt lat="46.2446166" lon="7.3633540">
<ele>588.974</ele>
<time>2012-05-07T15:14:18.104Z</time>
</trkpt>
<trkpt lat="46.2446933" lon="7.3634302">
<ele>590.022</ele>
<time>2012-05-07T15:14:21.618Z</time>
</trkpt>
<trkpt lat="46.2447690" lon="7.3635103">
<ele>590.724</ele>
<time>2012-05-07T15:14:25.288Z</time>
</trkpt>
<trkpt lat="46.2448456" lon="7.3635918">
<ele>591.271</ele>
<time>2012-05-07T15:14:29.107Z</time>
</trkpt>
<trkpt lat="46.2449207" lon="7.3636802">
<ele>591.828</ele>
<time>2012-05-07T15:14:33.052Z</time>
</trkpt>
<trkpt lat="46.2450010" lon="7.3637547">
<ele>592.517</ele>
<time>2012-05-07T15:14:36.949Z</time>
</trkpt>
<trkpt lat="46.2451057" lon="7.3638112">
<ele>593.453</ele>
<time>2012-05-07T15:14:41.520Z</time>
</trkpt>
<trkpt lat="46.2452123" lon="7.3638425">
<ele>594.522</ele>
<time>2012-05-07T15:14:46.000Z</time>
</trkpt>
<trkpt lat="46.2453025" lon="7.3638416">
<ele>595.536</ele>
<time>2012-05-07T15:14:49.744Z</time>
</trkpt>
<trkpt lat="46.2454118" lon="7.3638254">
<ele>596.773</ele>
<time>2012-05-07T15:14:54.305Z</time>
</trkpt>
<trkpt lat="46.2455065" lon="7.3638034">
<ele>599.149</ele>
<time>2012-05-07T15:14:58.319Z</time>
</trkpt>
<trkpt lat="46.2456011" lon="7.3637749">
<ele>603.085</ele>
<time>2012-05-07T15:15:02.361Z</time>
</trkpt>
<trkpt lat="46.2455029" lon="7.3638258">
<ele>607.770</ele>
<time>2012-05-07T15:15:06.672Z</time>
</trkpt>
<trkpt lat="46.2454128" lon="7.3638745">
<ele>611.931</ele>
<time>2012-05-07T15:15:11.286Z</time>
</trkpt>
<trkpt lat="46.2453182" lon="7.3639027">
<ele>614.688</ele>
<time>2012-05-07T15:15:16.144Z</time>
</trkpt>
<trkpt lat="46.2452038" lon="7.3639371">
<ele>624.825</ele>
<time>2012-05-07T15:15:22.160Z</time>
</trkpt>
<trkpt lat="46.2451079" lon="7.3639922">
<ele>648.290</ele>
<time>2012-05-07T15:15:26.575Z</time>
</trkpt>
<trkpt lat="46.2450211" lon="7.3640769">
<ele>671.988</ele>
<time>2012-05-07T15:15:30.916Z</time>
</trkpt>
<trkpt lat="46.2449220" lon="7.3641082">
<ele>683.122</ele>
<time>2012-05-07T15:15:35.118Z</time>
</trkpt>
<trkpt lat="46.2448202" lon="7.3641128">
<ele>683.063</ele>
<time>2012-05-07T15:15:39.403Z</time>
</trkpt>
<trkpt lat="46.2447261" lon="7.3640823">
<ele>676.736</ele>
<time>2012-05-07T15:15:43.504Z</time>
</trkpt>
<trkpt lat="46.2446388" lon="7.3640261">
<ele>670.316</ele>
<time>2012-05-07T15:15:47.524Z</time>
</trkpt>
<trkpt lat="46.2445319" lon="7.3640208">
<ele>665.558</ele>
<time>2012-05-07T15:15:51.923Z</time>
</trkpt>
<trkpt lat="46.2444330" lon="7.3640048">
<ele>660.601</ele>
<time>2012-05-07T15:15:56.044Z</time>
</trkpt>
<trkpt lat="46.2443449" lon="7.3639741">
<ele>656.496</ele>
<time>2012-05-07T15:15:59.911Z</time>
</trkpt>
<trkpt lat="46.2442653" lon="7.3639106">
<ele>652.965</ele>
<time>2012-05-07T15:16:03.802Z</time>
</trkpt>
<trkpt lat="46.2441905" lon="7.3638232">
<ele>647.479</ele>
<time>2012-05-07T15:16:08.063Z</time>
</trkpt>
<trkpt lat="46.2441090" lon="7.3637614">
<ele>641.469</ele>
<time>2012-05-07T15:16:12.163Z</time>
</trkpt>
<trkpt lat="46.2440310" lon="7.3636952">
<ele>637.953</ele>
<time>2012-05-07T15:16:16.247Z</time>
</trkpt>
<trkpt lat="46.2439333" lon="7.3636197">
<ele>637.021</ele>
<time>2012-05-07T15:16:21.410Z</time>
</trkpt>
<trkpt lat="46.2438367" lon="7.3635575">
<ele>637.323</ele>
<time>2012-05-07T15:16:26.470Z</time>
</trkpt>
<trkpt lat="46.2437467" lon="7.3635155">
<ele>637.805</ele>
<time>2012-05-07T15:16:31.022Z</time>
</trkpt>
<trkpt lat="46.2436426" lon="7.3635323">
<ele>637.885</ele>
<time>2012-05-07T15:16:36.079Z</time>
</trkpt>
<trkpt lat="46.2435372" lon="7.3635333">
<ele>637.368</ele>
<time>2012-05-07T15:16:41.181Z</time>
</trkpt>
<trkpt lat="46.2434366" lon="7.3635258">
<ele>636.177</ele>
<time>2012-05-07T15:16:46.048Z</time>
</trkpt>
<trkpt lat="46.2433332" lon="7.3635065">
<ele>634.560</ele>
<time>2012-05-07T15:16:51.074Z</time>
</trkpt>
<trkpt lat="46.2432233" lon="7.3634746">
<ele>633.447</ele>
<time>2012-05-07T15:16:56.464Z</time>
</trkpt>
<trkpt lat="46.2431157" lon="7.3634422">
<ele>633.309</ele>
<time>2012-05-07T15:17:01.749Z</time>
</trkpt>
<trkpt lat="46.2430164" lon="7.3634528">
<ele>633.532</ele>
<time>2012-05-07T15:17:06.548Z</time>
</trkpt>
<trkpt lat="46.2429246" lon="7.3635273">
<ele>633.739</ele>
<time>2012-05-07T15:17:11.576Z</time>
</trkpt>
<trkpt lat="46.2429000" lon="7.3636560">
<ele>634.015</ele>
<time>2012-05-07T15:17:15.913Z</time>
</trkpt>
<trkpt lat="46.2429430" lon="7.3637910">
<ele>634.330</ele>
<time>2012-05-07T15:17:20.743Z</time>
</trkpt>
<trkpt lat="46.2430398" lon="7.3638556">
<ele>634.707</ele>
<time>2012-05-07T15:17:25.875Z</time>
</trkpt>
<trkpt lat="46.2431328" lon="7.3638427">
<ele>635.272</ele>
<time>2012-05-07T15:17:30.551Z</time>
</trkpt>
<trkpt lat="46.2432351" lon="7.3638012">
<ele>636.124</ele>
<time>2012-05-07T15:17:35.930Z</time>
</trkpt>
<trkpt lat="46.2433428" lon="7.3637707">
<ele>637.444</ele>
<time>2012-05-07T15:17:41.253Z</time>
</trkpt>
<trkpt lat="46.2434332" lon="7.3637659">
<ele>639.062</ele>
<time>2012-05-07T15:17:45.455Z</time>
</trkpt>
<trkpt lat="46.2435230" lon="7.3637944">
<ele>640.905</ele>
<time>2012-05-07T15:17:49.611Z</time>
</trkpt>
<trkpt lat="46.2436094" lon="7.3638533">
<ele>642.979</ele>
<time>2012-05-07T15:17:53.855Z</time>
</trkpt>
<trkpt lat="46.2437003" lon="7.3639304">
<ele>644.612</ele>
<time>2012-05-07T15:17:58.540Z</time>
</trkpt>
<trkpt lat="46.2437789" lon="7.3640213">
<ele>645.249</ele>
<time>2012-05-07T15:18:03.047Z</time>
</trkpt>
<trkpt lat="46.2438474" lon="7.3641318">
<ele>645.130</ele>
<time>2012-05-07T15:18:07.657Z</time>
</trkpt>
<trkpt lat="46.2439163" lon="7.3642485">
<ele>644.612</ele>
<time>2012-05-07T15:18:12.452Z</time>
</trkpt>
<trkpt lat="46.2439857" lon="7.3643594">
<ele>644.124</ele>
<time>2012-05-07T15:18:17.201Z</time>
</trkpt>
<trkpt lat="46.2440746" lon="7.3644426">
<ele>643.904</ele>
<time>2012-05-07T15:18:22.142Z</time>
</trkpt>
<trkpt lat="46.2441764" lon="7.3644972">
<ele>644.064</ele>
<time>2012-05-07T15:18:27.200Z</time>
</trkpt>
<trkpt lat="46.2442835" lon="7.3645175">
<ele>644.789</ele>
<time>2012-05-07T15:18:32.205Z</time>
</trkpt>
<trkpt lat="46.2443929" lon="7.3645196">
<ele>646.046</ele>
<time>2012-05-07T15:18:37.280Z</time>
</trkpt>
<trkpt lat="46.2445014" lon="7.3645469">
<ele>647.728</ele>
<time>2012-05-07T15:18:42.364Z</time>
</trkpt>
<trkpt lat="46.2444911" lon="7.3646876">
<ele>649.599</ele>
<time>2012-05-07T15:18:46.828Z</time>
</trkpt>
<trkpt lat="46.2443808" lon="7.3647042">
<ele>651.191</ele>
<time>2012-05-07T15:18:51.814Z</time>
</trkpt>
<trkpt lat="46.2442738" lon="7.3646924">
<ele>652.371</ele>
<time>2012-05-07T15:18:56.633Z</time>
</trkpt>
<trkpt lat="46.2441676" lon="7.3646580">
<ele>653.272</ele>
<time>2012-05-07T15:19:02.422Z</time>
</trkpt>
<trkpt lat="46.2440687" lon="7.3646199">
<ele>653.843</ele>
<time>2012-05-07T15:19:08.332Z</time>
</trkpt>
<trkpt lat="46.2439734" lon="7.3645724">
<ele>654.208</ele>
<time>2012-05-07T15:19:13.477Z</time>
</trkpt>
<trkpt lat="46.2438764" lon="7.3645134">
<ele>654.617</ele>
<time>2012-05-07T15:19:18.465Z</time>
</trkpt>
<trkpt lat="46.2437761" lon="7.3644554">
<ele>655.134</ele>
<time>2012-05-07T15:19:23.543Z</time>
</trkpt>
<trkpt lat="46.2436736" lon="7.3644418">
<ele>655.866</ele>
<time>2012-05-07T15:19:28.407Z</time>
</trkpt>
<trkpt lat="46.2435846" lon="7.3645207">
<ele>656.973</ele>
<time>2012-05-07T15:19:33.347Z</time>
</trkpt>
<trkpt lat="46.2435699" lon="7.3646722">
<ele>658.234</ele>
<time>2012-05-07T15:19:38.338Z</time>
</trkpt>
<trkpt lat="46.2436327" lon="7.3647974">
<ele>659.500</ele>
<time>2012-05-07T15:19:43.379Z</time>
</trkpt>
<trkpt lat="46.2437264" lon="7.3648437">
<ele>660.883</ele>
<time>2012-05-07T15:19:48.111Z</time>
</trkpt>
<trkpt lat="46.2438216" lon="7.3648676">
<ele>662.484</ele>
<time>2012-05-07T15:19:52.890Z</time>
</trkpt>
<trkpt lat="46.2439148" lon="7.3649319">
<ele>664.189</ele>
<time>2012-05-07T15:19:58.039Z</time>
</trkpt>
<trkpt lat="46.2439913" lon="7.3650336">
<ele>666.011</ele>
<time>2012-05-07T15:20:03.109Z</time>
</trkpt>
<trkpt lat="46.2440600" lon="7.3651415">
<ele>668.238</ele>
<time>2012-05-07T15:20:07.893Z</time>
</trkpt>
<trkpt lat="46.2441364" lon="7.3652189">
<ele>670.636</ele>
<time>2012-05-07T15:20:12.246Z</time>
</trkpt>
<trkpt lat="46.2442326" lon="7.3652906">
<ele>672.357</ele>
<time>2012-05-07T15:20:17.324Z</time>
</trkpt>
<trkpt lat="46.2443223" lon="7.3653499">
<ele>673.167</ele>
<time>2012-05-07T15:20:21.971Z</time>
</trkpt>
<trkpt lat="46.2444039" lon="7.3654056">
<ele>673.477</ele>
<time>2012-05-07T15:20:26.245Z</time>
</trkpt>
<trkpt lat="46.2444888" lon="7.3654680">
<ele>673.955</ele>
<time>2012-05-07T15:20:30.806Z</time>
</trkpt>
<trkpt lat="46.2445892" lon="7.3655252">
<ele>674.888</ele>
<time>2012-05-07T15:20:36.028Z</time>
</trkpt>
<trkpt lat="46.2446746" lon="7.3655869">
<ele>675.802</ele>
<time>2012-05-07T15:20:40.633Z</time>
</trkpt>
<trkpt lat="46.2447604" lon="7.3656761">
<ele>676.572</ele>
<time>2012-05-07T15:20:45.702Z</time>
</trkpt>
<trkpt lat="46.2448254" lon="7.3657884">
<ele>677.516</ele>
<time>2012-05-07T15:20:50.552Z</time>
</trkpt>
<trkpt lat="46.2448470" lon="7.3659168">
<ele>678.510</ele>
<time>2012-05-07T15:20:54.969Z</time>
</trkpt>
<trkpt lat="46.2448133" lon="7.3660635">
<ele>679.337</ele>
<time>2012-05-07T15:21:00.250Z</time>
</trkpt>
<trkpt lat="46.2447438" lon="7.3661727">
<ele>680.130</ele>
<time>2012-05-07T15:21:05.352Z</time>
</trkpt>
<trkpt lat="46.2446697" lon="7.3662847">
<ele>680.994</ele>
<time>2012-05-07T15:21:10.671Z</time>
</trkpt>
<trkpt lat="46.2446432" lon="7.3664324">
<ele>682.043</ele>
<time>2012-05-07T15:21:15.942Z</time>
</trkpt>
<trkpt lat="46.2446696" lon="7.3665634">
<ele>683.554</ele>
<time>2012-05-07T15:21:20.680Z</time>
</trkpt>
<trkpt lat="46.2447337" lon="7.3666626">
<ele>685.610</ele>
<time>2012-05-07T15:21:25.392Z</time>
</trkpt>
<trkpt lat="46.2448171" lon="7.3667268">
<ele>687.644</ele>
<time>2012-05-07T15:21:30.178Z</time>
</trkpt>
<trkpt lat="46.2449044" lon="7.3667886">
<ele>689.562</ele>
<time>2012-05-07T15:21:35.181Z</time>
</trkpt>
<trkpt lat="46.2449991" lon="7.3668619">
<ele>691.594</ele>
<time>2012-05-07T15:21:40.765Z</time>
</trkpt>
<trkpt lat="46.2450554" lon="7.3669752">
<ele>693.177</ele>
<time>2012-05-07T15:21:45.781Z</time>
</trkpt>
<trkpt lat="46.2450806" lon="7.3671155">
<ele>693.789</ele>
<time>2012-05-07T15:21:50.972Z</time>
</trkpt>
<trkpt lat="46.2450547" lon="7.3672614">
<ele>693.821</ele>
<time>2012-05-07T15:21:56.204Z</time>
</trkpt>
<trkpt lat="46.2450216" lon="7.3673845">
<ele>693.711</ele>
<time>2012-05-07T15:22:00.628Z</time>
</trkpt>
<trkpt lat="46.2449985" lon="7.3675308">
<ele>693.642</ele>
<time>2012-05-07T15:22:05.627Z</time>
</trkpt>
<trkpt lat="46.2449647" lon="7.3676535">
<ele>694.054</ele>
<time>2012-05-07T15:22:10.056Z</time>
</trkpt>
<trkpt lat="46.2449188" lon="7.3677976">
<ele>695.612</ele>
<time>2012-05-07T15:22:15.402Z</time>
</trkpt>
<trkpt lat="46.2448887" lon="7.3679352">
<ele>698.328</ele>
<time>2012-05-07T15:22:20.248Z</time>
</trkpt>
<trkpt lat="46.2448746" lon="7.3680812">
<ele>701.194</ele>
<time>2012-05-07T15:22:25.173Z</time>
</trkpt>
<trkpt lat="46.2448806" lon="7.3682272">
<ele>703.209</ele>
<time>2012-05-07T15:22:30.030Z</time>
</trkpt>
<trkpt lat="46.2449016" lon="7.3683786">
<ele>704.230</ele>
<time>2012-05-07T15:22:35.044Z</time>
</trkpt>
<trkpt lat="46.2449294" lon="7.3685041">
<ele>704.620</ele>
<time>2012-05-07T15:22:39.239Z</time>
</trkpt>
<trkpt lat="46.2449749" lon="7.3686402">
<ele>704.655</ele>
<time>2012-05-07T15:22:44.024Z</time>
</trkpt>
<trkpt lat="46.2450206" lon="7.3687629">
<ele>704.570</ele>
<time>2012-05-07T15:22:48.443Z</time>
</trkpt>
<trkpt lat="46.2450709" lon="7.3689188">
<ele>704.470</ele>
<time>2012-05-07T15:22:53.881Z</time>
</trkpt>
<trkpt lat="46.2451180" lon="7.3690666">
<ele>704.370</ele>
<time>2012-05-07T15:22:58.908Z</time>
</trkpt>
<trkpt lat="46.2451746" lon="7.3692076">
<ele>704.297</ele>
<time>2012-05-07T15:23:03.702Z</time>
</trkpt>
<trkpt lat="46.2452264" lon="7.3693496">
<ele>704.271</ele>
<time>2012-05-07T15:23:08.008Z</time>
</trkpt>
<trkpt lat="46.2452867" lon="7.3694808">
<ele>704.290</ele>
<time>2012-05-07T15:23:12.004Z</time>
</trkpt>
<trkpt lat="46.2453498" lon="7.3696158">
<ele>704.406</ele>
<time>2012-05-07T15:23:16.030Z</time>
</trkpt>
<trkpt lat="46.2454210" lon="7.3697523">
<ele>704.627</ele>
<time>2012-05-07T15:23:20.232Z</time>
</trkpt>
<trkpt lat="46.2454762" lon="7.3698556">
<ele>704.870</ele>
<time>2012-05-07T15:23:23.464Z</time>
</trkpt>
<trkpt lat="46.2455347" lon="7.3700012">
<ele>705.132</ele>
<time>2012-05-07T15:23:27.664Z</time>
</trkpt>
<trkpt lat="46.2455887" lon="7.3701436">
<ele>705.472</ele>
<time>2012-05-07T15:23:31.691Z</time>
</trkpt>
<trkpt lat="46.2456491" lon="7.3702725">
<ele>705.842</ele>
<time>2012-05-07T15:23:35.487Z</time>
</trkpt>
<trkpt lat="46.2457037" lon="7.3704034">
<ele>706.268</ele>
<time>2012-05-07T15:23:39.131Z</time>
</trkpt>
<trkpt lat="46.2457563" lon="7.3705328">
<ele>706.789</ele>
<time>2012-05-07T15:23:42.683Z</time>
</trkpt>
<trkpt lat="46.2458013" lon="7.3706662">
<ele>707.310</ele>
<time>2012-05-07T15:23:46.208Z</time>
</trkpt>
<trkpt lat="46.2458344" lon="7.3708010">
<ele>707.860</ele>
<time>2012-05-07T15:23:49.659Z</time>
</trkpt>
<trkpt lat="46.2458835" lon="7.3709173">
<ele>708.522</ele>
<time>2012-05-07T15:23:53.013Z</time>
</trkpt>
<trkpt lat="46.2459461" lon="7.3710246">
<ele>709.293</ele>
<time>2012-05-07T15:23:56.520Z</time>
</trkpt>
<trkpt lat="46.2460121" lon="7.3711198">
<ele>710.168</ele>
<time>2012-05-07T15:23:59.924Z</time>
</trkpt>
<trkpt lat="46.2460745" lon="7.3712144">
<ele>711.087</ele>
<time>2012-05-07T15:24:03.278Z</time>
</trkpt>
<trkpt lat="46.2461498" lon="7.3712982">
<ele>712.075</ele>
<time>2012-05-07T15:24:06.876Z</time>
</trkpt>
<trkpt lat="46.2462343" lon="7.3713589">
<ele>713.067</ele>
<time>2012-05-07T15:24:10.548Z</time>
</trkpt>
<trkpt lat="46.2463311" lon="7.3714000">
<ele>713.783</ele>
<time>2012-05-07T15:24:14.577Z</time>
</trkpt>
<trkpt lat="46.2464384" lon="7.3714523">
<ele>714.167</ele>
<time>2012-05-07T15:24:19.206Z</time>
</trkpt>
<trkpt lat="46.2465351" lon="7.3714895">
<ele>714.386</ele>
<time>2012-05-07T15:24:23.356Z</time>
</trkpt>
<trkpt lat="46.2466217" lon="7.3715459">
<ele>714.642</ele>
<time>2012-05-07T15:24:27.338Z</time>
</trkpt>
<trkpt lat="46.2467123" lon="7.3716140">
<ele>715.313</ele>
<time>2012-05-07T15:24:31.632Z</time>
</trkpt>
<trkpt lat="46.2467982" lon="7.3716888">
<ele>716.580</ele>
<time>2012-05-07T15:24:35.826Z</time>
</trkpt>
<trkpt lat="46.2468812" lon="7.3717823">
<ele>718.029</ele>
<time>2012-05-07T15:24:40.219Z</time>
</trkpt>
<trkpt lat="46.2469389" lon="7.3718821">
<ele>719.122</ele>
<time>2012-05-07T15:24:43.974Z</time>
</trkpt>
<trkpt lat="46.2469971" lon="7.3719930">
<ele>719.724</ele>
<time>2012-05-07T15:24:47.985Z</time>
</trkpt>
<trkpt lat="46.2470529" lon="7.3721097">
<ele>720.156</ele>
<time>2012-05-07T15:24:52.043Z</time>
</trkpt>
<trkpt lat="46.2471119" lon="7.3722231">
<ele>720.728</ele>
<time>2012-05-07T15:24:56.092Z</time>
</trkpt>
<trkpt lat="46.2471724" lon="7.3723415">
<ele>721.421</ele>
<time>2012-05-07T15:25:00.303Z</time>
</trkpt>
<trkpt lat="46.2472312" lon="7.3724556">
<ele>722.145</ele>
<time>2012-05-07T15:25:04.388Z</time>
</trkpt>
<trkpt lat="46.2472929" lon="7.3725673">
<ele>722.778</ele>
<time>2012-05-07T15:25:08.477Z</time>
</trkpt>
<trkpt lat="46.2473507" lon="7.3726821">
<ele>723.265</ele>
<time>2012-05-07T15:25:12.497Z</time>
</trkpt>
<trkpt lat="46.2474123" lon="7.3727975">
<ele>723.821</ele>
<time>2012-05-07T15:25:16.571Z</time>
</trkpt>
<trkpt lat="46.2474772" lon="7.3729254">
<ele>724.540</ele>
<time>2012-05-07T15:25:20.976Z</time>
</trkpt>
<trkpt lat="46.2475368" lon="7.3730397">
<ele>725.364</ele>
<time>2012-05-07T15:25:24.953Z</time>
</trkpt>
<trkpt lat="46.2475950" lon="7.3731578">
<ele>726.183</ele>
<time>2012-05-07T15:25:28.976Z</time>
</trkpt>
<trkpt lat="46.2476497" lon="7.3732736">
<ele>727.135</ele>
<time>2012-05-07T15:25:32.836Z</time>
</trkpt>
<trkpt lat="46.2477063" lon="7.3733807">
<ele>728.354</ele>
<time>2012-05-07T15:25:36.497Z</time>
</trkpt>
<trkpt lat="46.2477680" lon="7.3734855">
<ele>729.500</ele>
<time>2012-05-07T15:25:40.220Z</time>
</trkpt>
<trkpt lat="46.2478352" lon="7.3735927">
<ele>730.223</ele>
<time>2012-05-07T15:25:44.142Z</time>
</trkpt>
<trkpt lat="46.2479019" lon="7.3737057">
<ele>730.586</ele>
<time>2012-05-07T15:25:48.207Z</time>
</trkpt>
<trkpt lat="46.2479785" lon="7.3738099">
<ele>730.726</ele>
<time>2012-05-07T15:25:52.412Z</time>
</trkpt>
<trkpt lat="46.2480680" lon="7.3739035">
<ele>730.868</ele>
<time>2012-05-07T15:25:56.890Z</time>
</trkpt>
<trkpt lat="46.2481506" lon="7.3739868">
<ele>731.167</ele>
<time>2012-05-07T15:26:00.990Z</time>
</trkpt>
<trkpt lat="46.2482309" lon="7.3740623">
<ele>731.692</ele>
<time>2012-05-07T15:26:04.850Z</time>
</trkpt>
<trkpt lat="46.2483118" lon="7.3741328">
<ele>732.367</ele>
<time>2012-05-07T15:26:08.613Z</time>
</trkpt>
<trkpt lat="46.2483954" lon="7.3742033">
<ele>733.029</ele>
<time>2012-05-07T15:26:12.407Z</time>
</trkpt>
<trkpt lat="46.2484743" lon="7.3742838">
<ele>733.686</ele>
<time>2012-05-07T15:26:16.124Z</time>
</trkpt>
<trkpt lat="46.2485581" lon="7.3743602">
<ele>734.391</ele>
<time>2012-05-07T15:26:19.927Z</time>
</trkpt>
<trkpt lat="46.2486372" lon="7.3744323">
<ele>735.174</ele>
<time>2012-05-07T15:26:23.585Z</time>
</trkpt>
<trkpt lat="46.2487171" lon="7.3745101">
<ele>736.113</ele>
<time>2012-05-07T15:26:27.441Z</time>
</trkpt>
<trkpt lat="46.2487966" lon="7.3745821">
<ele>737.162</ele>
<time>2012-05-07T15:26:31.253Z</time>
</trkpt>
<trkpt lat="46.2488650" lon="7.3746689">
<ele>738.087</ele>
<time>2012-05-07T15:26:34.951Z</time>
</trkpt>
<trkpt lat="46.2489346" lon="7.3747615">
<ele>738.725</ele>
<time>2012-05-07T15:26:38.771Z</time>
</trkpt>
<trkpt lat="46.2489974" lon="7.3748599">
<ele>739.167</ele>
<time>2012-05-07T15:26:42.521Z</time>
</trkpt>
<trkpt lat="46.2490572" lon="7.3749610">
<ele>739.585</ele>
<time>2012-05-07T15:26:46.270Z</time>
</trkpt>
<trkpt lat="46.2491056" lon="7.3750745">
<ele>739.988</ele>
<time>2012-05-07T15:26:50.075Z</time>
</trkpt>
<trkpt lat="46.2491593" lon="7.3751845">
<ele>740.622</ele>
<time>2012-05-07T15:26:53.961Z</time>
</trkpt>
<trkpt lat="46.2492129" lon="7.3752951">
<ele>741.688</ele>
<time>2012-05-07T15:26:57.891Z</time>
</trkpt>
<trkpt lat="46.2492672" lon="7.3754071">
<ele>742.824</ele>
<time>2012-05-07T15:27:01.930Z</time>
</trkpt>
<trkpt lat="46.2493226" lon="7.3755208">
<ele>743.587</ele>
<time>2012-05-07T15:27:06.094Z</time>
</trkpt>
<trkpt lat="46.2493727" lon="7.3756378">
<ele>744.009</ele>
<time>2012-05-07T15:27:10.241Z</time>
</trkpt>
<trkpt lat="46.2494272" lon="7.3757553">
<ele>744.376</ele>
<time>2012-05-07T15:27:14.485Z</time>
</trkpt>
<trkpt lat="46.2494769" lon="7.3758666">
<ele>744.906</ele>
<time>2012-05-07T15:27:18.405Z</time>
</trkpt>
<trkpt lat="46.2495379" lon="7.3759967">
<ele>745.586</ele>
<time>2012-05-07T15:27:23.002Z</time>
</trkpt>
<trkpt lat="46.2495974" lon="7.3761224">
<ele>746.304</ele>
<time>2012-05-07T15:27:27.410Z</time>
</trkpt>
<trkpt lat="46.2496587" lon="7.3762544">
<ele>747.046</ele>
<time>2012-05-07T15:27:31.978Z</time>
</trkpt>
<trkpt lat="46.2497197" lon="7.3763828">
<ele>747.917</ele>
<time>2012-05-07T15:27:36.447Z</time>
</trkpt>
<trkpt lat="46.2497824" lon="7.3765152">
<ele>748.970</ele>
<time>2012-05-07T15:27:41.099Z</time>
</trkpt>
<trkpt lat="46.2498482" lon="7.3766459">
<ele>750.088</ele>
<time>2012-05-07T15:27:45.875Z</time>
</trkpt>
<trkpt lat="46.2499043" lon="7.3767486">
<ele>751.133</ele>
<time>2012-05-07T15:27:49.820Z</time>
</trkpt>
<trkpt lat="46.2499607" lon="7.3768503">
<ele>752.058</ele>
<time>2012-05-07T15:27:53.807Z</time>
</trkpt>
<trkpt lat="46.2500194" lon="7.3769552">
<ele>752.852</ele>
<time>2012-05-07T15:27:57.976Z</time>
</trkpt>
<trkpt lat="46.2500788" lon="7.3770597">
<ele>753.527</ele>
<time>2012-05-07T15:28:02.178Z</time>
</trkpt>
<trkpt lat="46.2501397" lon="7.3771566">
<ele>754.163</ele>
<time>2012-05-07T15:28:06.232Z</time>
</trkpt>
<trkpt lat="46.2501984" lon="7.3772588">
<ele>754.837</ele>
<time>2012-05-07T15:28:10.320Z</time>
</trkpt>
<trkpt lat="46.2502564" lon="7.3773602">
<ele>755.551</ele>
<time>2012-05-07T15:28:14.320Z</time>
</trkpt>
<trkpt lat="46.2503132" lon="7.3774652">
<ele>756.244</ele>
<time>2012-05-07T15:28:18.347Z</time>
</trkpt>
<trkpt lat="46.2503673" lon="7.3775719">
<ele>756.874</ele>
<time>2012-05-07T15:28:22.308Z</time>
</trkpt>
<trkpt lat="46.2504202" lon="7.3776788">
<ele>757.485</ele>
<time>2012-05-07T15:28:26.207Z</time>
</trkpt>
<trkpt lat="46.2504824" lon="7.3778120">
<ele>758.131</ele>
<time>2012-05-07T15:28:30.981Z</time>
</trkpt>
<trkpt lat="46.2505428" lon="7.3779436">
<ele>758.793</ele>
<time>2012-05-07T15:28:35.696Z</time>
</trkpt>
<trkpt lat="46.2506052" lon="7.3780761">
<ele>759.432</ele>
<time>2012-05-07T15:28:40.496Z</time>
</trkpt>
<trkpt lat="46.2506644" lon="7.3782107">
<ele>760.085</ele>
<time>2012-05-07T15:28:45.277Z</time>
</trkpt>
<trkpt lat="46.2507113" lon="7.3783224">
<ele>760.820</ele>
<time>2012-05-07T15:28:49.187Z</time>
</trkpt>
<trkpt lat="46.2507610" lon="7.3784318">
<ele>761.639</ele>
<time>2012-05-07T15:28:53.097Z</time>
</trkpt>
<trkpt lat="46.2508250" lon="7.3785644">
<ele>762.493</ele>
<time>2012-05-07T15:28:57.979Z</time>
</trkpt>
<trkpt lat="46.2508750" lon="7.3786725">
<ele>763.335</ele>
<time>2012-05-07T15:29:01.936Z</time>
</trkpt>
<trkpt lat="46.2509367" lon="7.3788073">
<ele>764.125</ele>
<time>2012-05-07T15:29:06.856Z</time>
</trkpt>
<trkpt lat="46.2509851" lon="7.3789169">
<ele>764.874</ele>
<time>2012-05-07T15:29:10.814Z</time>
</trkpt>
<trkpt lat="46.2510366" lon="7.3790252">
<ele>765.627</ele>
<time>2012-05-07T15:29:14.794Z</time>
</trkpt>
<trkpt lat="46.2510852" lon="7.3791351">
<ele>766.390</ele>
<time>2012-05-07T15:29:18.728Z</time>
</trkpt>
<trkpt lat="46.2511468" lon="7.3792702">
<ele>767.135</ele>
<time>2012-05-07T15:29:23.592Z</time>
</trkpt>
<trkpt lat="46.2511967" lon="7.3793829">
<ele>767.861</ele>
<time>2012-05-07T15:29:27.608Z</time>
</trkpt>
<trkpt lat="46.2512460" lon="7.3794933">
<ele>768.579</ele>
<time>2012-05-07T15:29:31.544Z</time>
</trkpt>
<trkpt lat="46.2513062" lon="7.3796276">
<ele>769.326</ele>
<time>2012-05-07T15:29:36.329Z</time>
</trkpt>
<trkpt lat="46.2513579" lon="7.3797385">
<ele>770.092</ele>
<time>2012-05-07T15:29:40.317Z</time>
</trkpt>
<trkpt lat="46.2514218" lon="7.3798687">
<ele>770.836</ele>
<time>2012-05-07T15:29:45.066Z</time>
</trkpt>
<trkpt lat="46.2514751" lon="7.3799806">
<ele>771.597</ele>
<time>2012-05-07T15:29:49.103Z</time>
</trkpt>
<trkpt lat="46.2515333" lon="7.3801045">
<ele>772.419</ele>
<time>2012-05-07T15:29:53.557Z</time>
</trkpt>
<trkpt lat="46.2515957" lon="7.3802465">
<ele>773.256</ele>
<time>2012-05-07T15:29:58.583Z</time>
</trkpt>
<trkpt lat="46.2516552" lon="7.3803577">
<ele>774.157</ele>
<time>2012-05-07T15:30:02.801Z</time>
</trkpt>
<trkpt lat="46.2517206" lon="7.3804784">
<ele>775.255</ele>
<time>2012-05-07T15:30:07.406Z</time>
</trkpt>
<trkpt lat="46.2517856" lon="7.3805981">
<ele>776.371</ele>
<time>2012-05-07T15:30:11.976Z</time>
</trkpt>
<trkpt lat="46.2518600" lon="7.3807283">
<ele>777.188</ele>
<time>2012-05-07T15:30:16.983Z</time>
</trkpt>
<trkpt lat="46.2519293" lon="7.3808427">
<ele>777.672</ele>
<time>2012-05-07T15:30:21.291Z</time>
</trkpt>
<trkpt lat="46.2519941" lon="7.3809445">
<ele>777.981</ele>
<time>2012-05-07T15:30:25.059Z</time>
</trkpt>
<trkpt lat="46.2520555" lon="7.3810469">
<ele>778.314</ele>
<time>2012-05-07T15:30:28.678Z</time>
</trkpt>
<trkpt lat="46.2521207" lon="7.3811443">
<ele>778.848</ele>
<time>2012-05-07T15:30:32.252Z</time>
</trkpt>
<trkpt lat="46.2521954" lon="7.3812636">
<ele>779.559</ele>
<time>2012-05-07T15:30:36.427Z</time>
</trkpt>
<trkpt lat="46.2522561" lon="7.3813595">
<ele>780.402</ele>
<time>2012-05-07T15:30:39.753Z</time>
</trkpt>
<trkpt lat="46.2523195" lon="7.3814567">
<ele>781.295</ele>
<time>2012-05-07T15:30:43.173Z</time>
</trkpt>
<trkpt lat="46.2523820" lon="7.3815562">
<ele>782.133</ele>
<time>2012-05-07T15:30:46.677Z</time>
</trkpt>
<trkpt lat="46.2524428" lon="7.3816548">
<ele>782.924</ele>
<time>2012-05-07T15:30:50.202Z</time>
</trkpt>
<trkpt lat="46.2525076" lon="7.3817564">
<ele>783.655</ele>
<time>2012-05-07T15:30:53.996Z</time>
</trkpt>
<trkpt lat="46.2525733" lon="7.3818553">
<ele>784.323</ele>
<time>2012-05-07T15:30:57.863Z</time>
</trkpt>
<trkpt lat="46.2526374" lon="7.3819590">
<ele>785.056</ele>
<time>2012-05-07T15:31:01.867Z</time>
</trkpt>
<trkpt lat="46.2527026" lon="7.3820604">
<ele>785.894</ele>
<time>2012-05-07T15:31:05.907Z</time>
</trkpt>
<trkpt lat="46.2527662" lon="7.3821604">
<ele>786.745</ele>
<time>2012-05-07T15:31:09.887Z</time>
</trkpt>
<trkpt lat="46.2528322" lon="7.3822656">
<ele>787.529</ele>
<time>2012-05-07T15:31:14.051Z</time>
</trkpt>
<trkpt lat="46.2528980" lon="7.3823734">
<ele>788.241</ele>
<time>2012-05-07T15:31:18.244Z</time>
</trkpt>
<trkpt lat="46.2529660" lon="7.3824684">
<ele>788.953</ele>
<time>2012-05-07T15:31:22.201Z</time>
</trkpt>
<trkpt lat="46.2530394" lon="7.3825508">
<ele>789.821</ele>
<time>2012-05-07T15:31:26.073Z</time>
</trkpt>
<trkpt lat="46.2531160" lon="7.3826349">
<ele>790.805</ele>
<time>2012-05-07T15:31:30.076Z</time>
</trkpt>
<trkpt lat="46.2531958" lon="7.3827086">
<ele>791.576</ele>
<time>2012-05-07T15:31:34.010Z</time>
</trkpt>
<trkpt lat="46.2532785" lon="7.3827807">
<ele>792.013</ele>
<time>2012-05-07T15:31:38.010Z</time>
</trkpt>
<trkpt lat="46.2533581" lon="7.3828441">
<ele>792.348</ele>
<time>2012-05-07T15:31:41.744Z</time>
</trkpt>
<trkpt lat="46.2534494" lon="7.3828984">
<ele>792.730</ele>
<time>2012-05-07T15:31:45.766Z</time>
</trkpt>
<trkpt lat="46.2535390" lon="7.3829414">
<ele>793.292</ele>
<time>2012-05-07T15:31:49.611Z</time>
</trkpt>
<trkpt lat="46.2536322" lon="7.3829867">
<ele>794.279</ele>
<time>2012-05-07T15:31:53.643Z</time>
</trkpt>
<trkpt lat="46.2537239" lon="7.3830323">
<ele>796.139</ele>
<time>2012-05-07T15:31:57.632Z</time>
</trkpt>
<trkpt lat="46.2538227" lon="7.3830995">
<ele>798.665</ele>
<time>2012-05-07T15:32:02.126Z</time>
</trkpt>
<trkpt lat="46.2539154" lon="7.3831647">
<ele>800.701</ele>
<time>2012-05-07T15:32:06.406Z</time>
</trkpt>
<trkpt lat="46.2540047" lon="7.3832335">
<ele>801.538</ele>
<time>2012-05-07T15:32:10.678Z</time>
</trkpt>
<trkpt lat="46.2540906" lon="7.3833063">
<ele>801.642</ele>
<time>2012-05-07T15:32:14.930Z</time>
</trkpt>
<trkpt lat="46.2541707" lon="7.3833833">
<ele>801.759</ele>
<time>2012-05-07T15:32:19.059Z</time>
</trkpt>
<trkpt lat="46.2542521" lon="7.3834766">
<ele>802.268</ele>
<time>2012-05-07T15:32:23.501Z</time>
</trkpt>
<trkpt lat="46.2543318" lon="7.3835718">
<ele>802.918</ele>
<time>2012-05-07T15:32:27.873Z</time>
</trkpt>
<trkpt lat="46.2544042" lon="7.3836698">
<ele>803.356</ele>
<time>2012-05-07T15:32:31.981Z</time>
</trkpt>
<trkpt lat="46.2544686" lon="7.3837700">
<ele>803.579</ele>
<time>2012-05-07T15:32:35.839Z</time>
</trkpt>
<trkpt lat="46.2545326" lon="7.3838727">
<ele>803.752</ele>
<time>2012-05-07T15:32:39.684Z</time>
</trkpt>
<trkpt lat="46.2545929" lon="7.3839732">
<ele>804.018</ele>
<time>2012-05-07T15:32:43.361Z</time>
</trkpt>
<trkpt lat="46.2546573" lon="7.3841034">
<ele>804.420</ele>
<time>2012-05-07T15:32:47.766Z</time>
</trkpt>
<trkpt lat="46.2547086" lon="7.3842146">
<ele>804.948</ele>
<time>2012-05-07T15:32:51.450Z</time>
</trkpt>
<trkpt lat="46.2547681" lon="7.3843451">
<ele>805.610</ele>
<time>2012-05-07T15:32:55.761Z</time>
</trkpt>
<trkpt lat="46.2548260" lon="7.3844740">
<ele>806.412</ele>
<time>2012-05-07T15:33:00.011Z</time>
</trkpt>
<trkpt lat="46.2548783" lon="7.3846056">
<ele>807.341</ele>
<time>2012-05-07T15:33:04.241Z</time>
</trkpt>
<trkpt lat="46.2549320" lon="7.3847359">
<ele>808.340</ele>
<time>2012-05-07T15:33:08.518Z</time>
</trkpt>
<trkpt lat="46.2549843" lon="7.3848647">
<ele>809.310</ele>
<time>2012-05-07T15:33:12.796Z</time>
</trkpt>
<trkpt lat="46.2550399" lon="7.3849912">
<ele>810.219</ele>
<time>2012-05-07T15:33:17.186Z</time>
</trkpt>
<trkpt lat="46.2550958" lon="7.3851129">
<ele>811.061</ele>
<time>2012-05-07T15:33:21.546Z</time>
</trkpt>
<trkpt lat="46.2551665" lon="7.3852290">
<ele>811.916</ele>
<time>2012-05-07T15:33:26.319Z</time>
</trkpt>
<trkpt lat="46.2552521" lon="7.3853269">
<ele>812.963</ele>
<time>2012-05-07T15:33:31.329Z</time>
</trkpt>
<trkpt lat="46.2553530" lon="7.3853967">
<ele>814.148</ele>
<time>2012-05-07T15:33:36.562Z</time>
</trkpt>
<trkpt lat="46.2554464" lon="7.3854842">
<ele>815.139</ele>
<time>2012-05-07T15:33:41.828Z</time>
</trkpt>
<trkpt lat="46.2555460" lon="7.3855500">
<ele>815.855</ele>
<time>2012-05-07T15:33:47.011Z</time>
</trkpt>
<trkpt lat="46.2556426" lon="7.3856269">
<ele>816.549</ele>
<time>2012-05-07T15:33:52.246Z</time>
</trkpt>
<trkpt lat="46.2557137" lon="7.3857079">
<ele>817.348</ele>
<time>2012-05-07T15:33:56.563Z</time>
</trkpt>
<trkpt lat="46.2557840" lon="7.3858270">
<ele>818.143</ele>
<time>2012-05-07T15:34:01.647Z</time>
</trkpt>
<trkpt lat="46.2558482" lon="7.3859587">
<ele>818.889</ele>
<time>2012-05-07T15:34:06.772Z</time>
</trkpt>
<trkpt lat="46.2558985" lon="7.3860896">
<ele>819.696</ele>
<time>2012-05-07T15:34:11.457Z</time>
</trkpt>
<trkpt lat="46.2559506" lon="7.3862302">
<ele>820.573</ele>
<time>2012-05-07T15:34:16.387Z</time>
</trkpt>
<trkpt lat="46.2560033" lon="7.3863730">
<ele>821.422</ele>
<time>2012-05-07T15:34:21.358Z</time>
</trkpt>
<trkpt lat="46.2560839" lon="7.3864847">
<ele>822.189</ele>
<time>2012-05-07T15:34:26.331Z</time>
</trkpt>
<trkpt lat="46.2561847" lon="7.3865366">
<ele>822.903</ele>
<time>2012-05-07T15:34:31.143Z</time>
</trkpt>
<trkpt lat="46.2562738" lon="7.3864866">
<ele>823.721</ele>
<time>2012-05-07T15:34:35.430Z</time>
</trkpt>
<trkpt lat="46.2563485" lon="7.3863761">
<ele>824.743</ele>
<time>2012-05-07T15:34:40.224Z</time>
</trkpt>
<trkpt lat="46.2563785" lon="7.3862319">
<ele>825.911</ele>
<time>2012-05-07T15:34:44.925Z</time>
</trkpt>
<trkpt lat="46.2563789" lon="7.3860762">
<ele>827.460</ele>
<time>2012-05-07T15:34:49.778Z</time>
</trkpt>
<trkpt lat="46.2563498" lon="7.3859386">
<ele>829.306</ele>
<time>2012-05-07T15:34:54.276Z</time>
</trkpt>
<trkpt lat="46.2563281" lon="7.3858063">
<ele>830.752</ele>
<time>2012-05-07T15:34:58.554Z</time>
</trkpt>
<trkpt lat="46.2563182" lon="7.3856675">
<ele>831.492</ele>
<time>2012-05-07T15:35:03.008Z</time>
</trkpt>
<trkpt lat="46.2563105" lon="7.3855341">
<ele>831.922</ele>
<time>2012-05-07T15:35:07.377Z</time>
</trkpt>
<trkpt lat="46.2563034" lon="7.3854036">
<ele>832.546</ele>
<time>2012-05-07T15:35:11.704Z</time>
</trkpt>
<trkpt lat="46.2562956" lon="7.3852688">
<ele>833.503</ele>
<time>2012-05-07T15:35:16.099Z</time>
</trkpt>
<trkpt lat="46.2562985" lon="7.3851123">
<ele>834.461</ele>
<time>2012-05-07T15:35:21.015Z</time>
</trkpt>
<trkpt lat="46.2563046" lon="7.3849659">
<ele>835.253</ele>
<time>2012-05-07T15:35:25.535Z</time>
</trkpt>
<trkpt lat="46.2563171" lon="7.3848269">
<ele>835.947</ele>
<time>2012-05-07T15:35:29.864Z</time>
</trkpt>
<trkpt lat="46.2563272" lon="7.3846918">
<ele>836.471</ele>
<time>2012-05-07T15:35:34.102Z</time>
</trkpt>
<trkpt lat="46.2563366" lon="7.3845466">
<ele>836.931</ele>
<time>2012-05-07T15:35:38.640Z</time>
</trkpt>
<trkpt lat="46.2563454" lon="7.3844086">
<ele>837.666</ele>
<time>2012-05-07T15:35:42.959Z</time>
</trkpt>
<trkpt lat="46.2563272" lon="7.3842631">
<ele>838.591</ele>
<time>2012-05-07T15:35:47.586Z</time>
</trkpt>
<trkpt lat="46.2563115" lon="7.3841137">
<ele>839.886</ele>
<time>2012-05-07T15:35:52.243Z</time>
</trkpt>
<trkpt lat="46.2563061" lon="7.3839821">
<ele>841.802</ele>
<time>2012-05-07T15:35:56.216Z</time>
</trkpt>
<trkpt lat="46.2562979" lon="7.3838270">
<ele>843.706</ele>
<time>2012-05-07T15:36:00.900Z</time>
</trkpt>
<trkpt lat="46.2562875" lon="7.3836773">
<ele>844.918</ele>
<time>2012-05-07T15:36:05.512Z</time>
</trkpt>
<trkpt lat="46.2562860" lon="7.3835280">
<ele>845.489</ele>
<time>2012-05-07T15:36:10.145Z</time>
</trkpt>
<trkpt lat="46.2562788" lon="7.3833859">
<ele>845.687</ele>
<time>2012-05-07T15:36:14.584Z</time>
</trkpt>
<trkpt lat="46.2563078" lon="7.3832311">
<ele>845.854</ele>
<time>2012-05-07T15:36:19.622Z</time>
</trkpt>
<trkpt lat="46.2563516" lon="7.3831159">
<ele>846.066</ele>
<time>2012-05-07T15:36:23.764Z</time>
</trkpt>
<trkpt lat="46.2564011" lon="7.3829803">
<ele>846.272</ele>
<time>2012-05-07T15:36:28.578Z</time>
</trkpt>
<trkpt lat="46.2564647" lon="7.3828458">
<ele>846.546</ele>
<time>2012-05-07T15:36:33.710Z</time>
</trkpt>
<trkpt lat="46.2565203" lon="7.3827388">
<ele>847.257</ele>
<time>2012-05-07T15:36:37.903Z</time>
</trkpt>
<trkpt lat="46.2565872" lon="7.3826441">
<ele>848.482</ele>
<time>2012-05-07T15:36:42.127Z</time>
</trkpt>
<trkpt lat="46.2566758" lon="7.3825520">
<ele>849.619</ele>
<time>2012-05-07T15:36:47.085Z</time>
</trkpt>
<trkpt lat="46.2567708" lon="7.3824898">
<ele>850.292</ele>
<time>2012-05-07T15:36:51.795Z</time>
</trkpt>
<trkpt lat="46.2568698" lon="7.3824432">
<ele>850.780</ele>
<time>2012-05-07T15:36:56.367Z</time>
</trkpt>
<trkpt lat="46.2569770" lon="7.3824067">
<ele>851.240</ele>
<time>2012-05-07T15:37:01.046Z</time>
</trkpt>
<trkpt lat="46.2570680" lon="7.3823994">
<ele>851.586</ele>
<time>2012-05-07T15:37:04.841Z</time>
</trkpt>
<trkpt lat="46.2571588" lon="7.3823981">
<ele>851.792</ele>
<time>2012-05-07T15:37:08.629Z</time>
</trkpt>
<trkpt lat="46.2572582" lon="7.3824150">
<ele>852.207</ele>
<time>2012-05-07T15:37:12.890Z</time>
</trkpt>
<trkpt lat="46.2573511" lon="7.3824380">
<ele>853.288</ele>
<time>2012-05-07T15:37:16.998Z</time>
</trkpt>
<trkpt lat="46.2574513" lon="7.3824616">
<ele>854.972</ele>
<time>2012-05-07T15:37:21.390Z</time>
</trkpt>
<trkpt lat="46.2575442" lon="7.3824901">
<ele>856.628</ele>
<time>2012-05-07T15:37:25.468Z</time>
</trkpt>
<trkpt lat="46.2576447" lon="7.3825121">
<ele>857.922</ele>
<time>2012-05-07T15:37:29.810Z</time>
</trkpt>
<trkpt lat="46.2577572" lon="7.3825050">
<ele>859.020</ele>
<time>2012-05-07T15:37:34.555Z</time>
</trkpt>
<trkpt lat="46.2578632" lon="7.3824792">
<ele>859.962</ele>
<time>2012-05-07T15:37:39.016Z</time>
</trkpt>
<trkpt lat="46.2579542" lon="7.3824394">
<ele>860.670</ele>
<time>2012-05-07T15:37:42.906Z</time>
</trkpt>
<trkpt lat="46.2580579" lon="7.3824112">
<ele>861.320</ele>
<time>2012-05-07T15:37:47.167Z</time>
</trkpt>
<trkpt lat="46.2581732" lon="7.3823761">
<ele>862.130</ele>
<time>2012-05-07T15:37:51.905Z</time>
</trkpt>
<trkpt lat="46.2582662" lon="7.3823600">
<ele>864.008</ele>
<time>2012-05-07T15:37:55.662Z</time>
</trkpt>
<trkpt lat="46.2583794" lon="7.3823767">
<ele>867.232</ele>
<time>2012-05-07T15:38:00.212Z</time>
</trkpt>
<trkpt lat="46.2584879" lon="7.3824335">
<ele>870.129</ele>
<time>2012-05-07T15:38:04.787Z</time>
</trkpt>
<trkpt lat="46.2585880" lon="7.3825190">
<ele>871.389</ele>
<time>2012-05-07T15:38:09.398Z</time>
</trkpt>
<trkpt lat="46.2586706" lon="7.3826074">
<ele>871.504</ele>
<time>2012-05-07T15:38:13.481Z</time>
</trkpt>
<trkpt lat="46.2587512" lon="7.3827096">
<ele>870.413</ele>
<time>2012-05-07T15:38:17.647Z</time>
</trkpt>
<trkpt lat="46.2588244" lon="7.3828047">
<ele>868.062</ele>
<time>2012-05-07T15:38:21.419Z</time>
</trkpt>
<trkpt lat="46.2588994" lon="7.3828904">
<ele>865.800</ele>
<time>2012-05-07T15:38:25.137Z</time>
</trkpt>
<trkpt lat="46.2589827" lon="7.3829707">
<ele>864.769</ele>
<time>2012-05-07T15:38:29.088Z</time>
</trkpt>
<trkpt lat="46.2590696" lon="7.3830374">
<ele>864.688</ele>
<time>2012-05-07T15:38:32.984Z</time>
</trkpt>
<trkpt lat="46.2591634" lon="7.3831066">
<ele>865.132</ele>
<time>2012-05-07T15:38:37.119Z</time>
</trkpt>
<trkpt lat="46.2592451" lon="7.3831673">
<ele>865.775</ele>
<time>2012-05-07T15:38:40.694Z</time>
</trkpt>
<trkpt lat="46.2593324" lon="7.3832303">
<ele>866.355</ele>
<time>2012-05-07T15:38:44.473Z</time>
</trkpt>
<trkpt lat="46.2594178" lon="7.3832993">
<ele>867.093</ele>
<time>2012-05-07T15:38:48.256Z</time>
</trkpt>
<trkpt lat="46.2595076" lon="7.3833663">
<ele>868.188</ele>
<time>2012-05-07T15:38:52.164Z</time>
</trkpt>
<trkpt lat="46.2595936" lon="7.3834645">
<ele>869.295</ele>
<time>2012-05-07T15:38:56.423Z</time>
</trkpt>
<trkpt lat="46.2596536" lon="7.3835625">
<ele>870.201</ele>
<time>2012-05-07T15:38:59.950Z</time>
</trkpt>
<trkpt lat="46.2597142" lon="7.3836965">
<ele>871.145</ele>
<time>2012-05-07T15:39:04.263Z</time>
</trkpt>
<trkpt lat="46.2597593" lon="7.3838330">
<ele>872.116</ele>
<time>2012-05-07T15:39:08.378Z</time>
</trkpt>
<trkpt lat="46.2597961" lon="7.3839762">
<ele>872.927</ele>
<time>2012-05-07T15:39:12.581Z</time>
</trkpt>
<trkpt lat="46.2598158" lon="7.3841075">
<ele>873.521</ele>
<time>2012-05-07T15:39:16.357Z</time>
</trkpt>
<trkpt lat="46.2598268" lon="7.3842631">
<ele>874.033</ele>
<time>2012-05-07T15:39:20.950Z</time>
</trkpt>
<trkpt lat="46.2598403" lon="7.3844159">
<ele>874.673</ele>
<time>2012-05-07T15:39:25.600Z</time>
</trkpt>
<trkpt lat="46.2598584" lon="7.3845652">
<ele>875.941</ele>
<time>2012-05-07T15:39:30.234Z</time>
</trkpt>
<trkpt lat="46.2598634" lon="7.3847177">
<ele>877.911</ele>
<time>2012-05-07T15:39:34.956Z</time>
</trkpt>
<trkpt lat="46.2598618" lon="7.3848760">
<ele>879.910</ele>
<time>2012-05-07T15:39:39.867Z</time>
</trkpt>
<trkpt lat="46.2598549" lon="7.3850229">
<ele>881.693</ele>
<time>2012-05-07T15:39:44.436Z</time>
</trkpt>
<trkpt lat="46.2598513" lon="7.3851761">
<ele>883.459</ele>
<time>2012-05-07T15:39:49.205Z</time>
</trkpt>
<trkpt lat="46.2598860" lon="7.3853217">
<ele>884.937</ele>
<time>2012-05-07T15:39:53.990Z</time>
</trkpt>
<trkpt lat="46.2599331" lon="7.3854583">
<ele>885.867</ele>
<time>2012-05-07T15:39:58.724Z</time>
</trkpt>
<trkpt lat="46.2599950" lon="7.3855733">
<ele>886.277</ele>
<time>2012-05-07T15:40:03.250Z</time>
</trkpt>
<trkpt lat="46.2600825" lon="7.3856565">
<ele>886.378</ele>
<time>2012-05-07T15:40:07.944Z</time>
</trkpt>
<trkpt lat="46.2601832" lon="7.3857301">
<ele>886.614</ele>
<time>2012-05-07T15:40:12.974Z</time>
</trkpt>
<trkpt lat="46.2602837" lon="7.3858149">
<ele>887.174</ele>
<time>2012-05-07T15:40:18.152Z</time>
</trkpt>
<trkpt lat="46.2603957" lon="7.3857889">
<ele>887.764</ele>
<time>2012-05-07T15:40:23.215Z</time>
</trkpt>
<trkpt lat="46.2604748" lon="7.3857101">
<ele>888.238</ele>
<time>2012-05-07T15:40:27.475Z</time>
</trkpt>
<trkpt lat="46.2605465" lon="7.3856305">
<ele>888.838</ele>
<time>2012-05-07T15:40:31.429Z</time>
</trkpt>
<trkpt lat="46.2606606" lon="7.3855325">
<ele>889.641</ele>
<time>2012-05-07T15:40:37.163Z</time>
</trkpt>
<trkpt lat="46.2607509" lon="7.3854825">
<ele>890.719</ele>
<time>2012-05-07T15:40:41.257Z</time>
</trkpt>
<trkpt lat="46.2608521" lon="7.3854397">
<ele>892.153</ele>
<time>2012-05-07T15:40:45.550Z</time>
</trkpt>
<trkpt lat="46.2609540" lon="7.3853576">
<ele>893.505</ele>
<time>2012-05-07T15:40:50.102Z</time>
</trkpt>
<trkpt lat="46.2610577" lon="7.3852890">
<ele>894.248</ele>
<time>2012-05-07T15:40:54.338Z</time>
</trkpt>
<trkpt lat="46.2611623" lon="7.3852305">
<ele>894.459</ele>
<time>2012-05-07T15:40:58.222Z</time>
</trkpt>
<trkpt lat="46.2612634" lon="7.3851762">
<ele>894.940</ele>
<time>2012-05-07T15:41:02.041Z</time>
</trkpt>
<trkpt lat="46.2613678" lon="7.3851073">
<ele>896.188</ele>
<time>2012-05-07T15:41:06.197Z</time>
</trkpt>
<trkpt lat="46.2614620" lon="7.3850434">
<ele>897.771</ele>
<time>2012-05-07T15:41:09.863Z</time>
</trkpt>
<trkpt lat="46.2615536" lon="7.3850141">
<ele>900.028</ele>
<time>2012-05-07T15:41:13.016Z</time>
</trkpt>
<trkpt lat="46.2616467" lon="7.3850170">
<ele>903.269</ele>
<time>2012-05-07T15:41:16.028Z</time>
</trkpt>
<trkpt lat="46.2617454" lon="7.3850575">
<ele>906.015</ele>
<time>2012-05-07T15:41:19.262Z</time>
</trkpt>
<trkpt lat="46.2618420" lon="7.3851290">
<ele>907.157</ele>
<time>2012-05-07T15:41:22.666Z</time>
</trkpt>
<trkpt lat="46.2619192" lon="7.3852036">
<ele>905.951</ele>
<time>2012-05-07T15:41:25.573Z</time>
</trkpt>
<trkpt lat="46.2619361" lon="7.3853406">
<ele>902.319</ele>
<time>2012-05-07T15:41:28.600Z</time>
</trkpt>
<trkpt lat="46.2620342" lon="7.3854227">
<ele>898.600</ele>
<time>2012-05-07T15:41:32.280Z</time>
</trkpt>
<trkpt lat="46.2621219" lon="7.3855317">
<ele>896.813</ele>
<time>2012-05-07T15:41:36.290Z</time>
</trkpt>
<trkpt lat="46.2621923" lon="7.3856288">
<ele>896.513</ele>
<time>2012-05-07T15:41:39.933Z</time>
</trkpt>
<trkpt lat="46.2622594" lon="7.3857263">
<ele>896.493</ele>
<time>2012-05-07T15:41:43.983Z</time>
</trkpt>
<trkpt lat="46.2623111" lon="7.3858389">
<ele>896.041</ele>
<time>2012-05-07T15:41:48.315Z</time>
</trkpt>
<trkpt lat="46.2623675" lon="7.3859448">
<ele>895.432</ele>
<time>2012-05-07T15:41:53.042Z</time>
</trkpt>
<trkpt lat="46.2624534" lon="7.3859876">
<ele>895.104</ele>
<time>2012-05-07T15:41:57.674Z</time>
</trkpt>
<trkpt lat="46.2625449" lon="7.3859939">
<ele>895.019</ele>
<time>2012-05-07T15:42:01.928Z</time>
</trkpt>
<trkpt lat="46.2626480" lon="7.3860212">
<ele>895.029</ele>
<time>2012-05-07T15:42:06.177Z</time>
</trkpt>
<trkpt lat="46.2627487" lon="7.3860388">
<ele>895.051</ele>
<time>2012-05-07T15:42:10.080Z</time>
</trkpt>
<trkpt lat="46.2628549" lon="7.3860188">
<ele>895.064</ele>
<time>2012-05-07T15:42:14.044Z</time>
</trkpt>
<trkpt lat="46.2629562" lon="7.3859822">
<ele>895.901</ele>
<time>2012-05-07T15:42:17.778Z</time>
</trkpt>
<trkpt lat="46.2630450" lon="7.3859312">
<ele>898.400</ele>
<time>2012-05-07T15:42:21.118Z</time>
</trkpt>
<trkpt lat="46.2631300" lon="7.3858869">
<ele>901.757</ele>
<time>2012-05-07T15:42:24.256Z</time>
</trkpt>
<trkpt lat="46.2632083" lon="7.3858154">
<ele>904.601</ele>
<time>2012-05-07T15:42:27.507Z</time>
</trkpt>
<trkpt lat="46.2632949" lon="7.3857033">
<ele>906.726</ele>
<time>2012-05-07T15:42:31.754Z</time>
</trkpt>
<trkpt lat="46.2633630" lon="7.3856055">
<ele>908.281</ele>
<time>2012-05-07T15:42:35.350Z</time>
</trkpt>
<trkpt lat="46.2634368" lon="7.3854939">
<ele>909.157</ele>
<time>2012-05-07T15:42:39.460Z</time>
</trkpt>
<trkpt lat="46.2635033" lon="7.3853554">
<ele>909.374</ele>
<time>2012-05-07T15:42:44.144Z</time>
</trkpt>
<trkpt lat="46.2635457" lon="7.3852160">
<ele>909.175</ele>
<time>2012-05-07T15:42:48.754Z</time>
</trkpt>
<trkpt lat="46.2635773" lon="7.3850839">
<ele>908.760</ele>
<time>2012-05-07T15:42:53.200Z</time>
</trkpt>
<trkpt lat="46.2636259" lon="7.3849331">
<ele>908.393</ele>
<time>2012-05-07T15:42:58.692Z</time>
</trkpt>
<trkpt lat="46.2636282" lon="7.3847712">
<ele>908.235</ele>
<time>2012-05-07T15:43:04.171Z</time>
</trkpt>
<trkpt lat="46.2636317" lon="7.3846188">
<ele>908.619</ele>
<time>2012-05-07T15:43:09.233Z</time>
</trkpt>
<trkpt lat="46.2636397" lon="7.3844767">
<ele>910.407</ele>
<time>2012-05-07T15:43:13.889Z</time>
</trkpt>
<trkpt lat="46.2636386" lon="7.3843293">
<ele>913.583</ele>
<time>2012-05-07T15:43:18.562Z</time>
</trkpt>
<trkpt lat="46.2636249" lon="7.3841972">
<ele>916.574</ele>
<time>2012-05-07T15:43:22.801Z</time>
</trkpt>
<trkpt lat="46.2636148" lon="7.3840678">
<ele>918.240</ele>
<time>2012-05-07T15:43:27.007Z</time>
</trkpt>
<trkpt lat="46.2636035" lon="7.3839338">
<ele>918.733</ele>
<time>2012-05-07T15:43:31.283Z</time>
</trkpt>
<trkpt lat="46.2636057" lon="7.3837902">
<ele>918.380</ele>
<time>2012-05-07T15:43:35.664Z</time>
</trkpt>
<trkpt lat="46.2635828" lon="7.3836437">
<ele>917.573</ele>
<time>2012-05-07T15:43:40.154Z</time>
</trkpt>
<trkpt lat="46.2635484" lon="7.3835196">
<ele>916.849</ele>
<time>2012-05-07T15:43:44.164Z</time>
</trkpt>
<trkpt lat="46.2635136" lon="7.3833873">
<ele>916.392</ele>
<time>2012-05-07T15:43:48.471Z</time>
</trkpt>
<trkpt lat="46.2634920" lon="7.3832455">
<ele>916.171</ele>
<time>2012-05-07T15:43:52.891Z</time>
</trkpt>
<trkpt lat="46.2634638" lon="7.3830944">
<ele>916.157</ele>
<time>2012-05-07T15:43:57.565Z</time>
</trkpt>
<trkpt lat="46.2634365" lon="7.3829586">
<ele>916.236</ele>
<time>2012-05-07T15:44:01.735Z</time>
</trkpt>
<trkpt lat="46.2634141" lon="7.3828159">
<ele>916.543</ele>
<time>2012-05-07T15:44:06.042Z</time>
</trkpt>
<trkpt lat="46.2633819" lon="7.3826764">
<ele>917.215</ele>
<time>2012-05-07T15:44:10.321Z</time>
</trkpt>
<trkpt lat="46.2633563" lon="7.3825444">
<ele>917.934</ele>
<time>2012-05-07T15:44:14.242Z</time>
</trkpt>
<trkpt lat="46.2633268" lon="7.3824036">
<ele>918.401</ele>
<time>2012-05-07T15:44:18.403Z</time>
</trkpt>
<trkpt lat="46.2632953" lon="7.3822649">
<ele>918.688</ele>
<time>2012-05-07T15:44:22.510Z</time>
</trkpt>
<trkpt lat="46.2632609" lon="7.3821424">
<ele>918.920</ele>
<time>2012-05-07T15:44:26.197Z</time>
</trkpt>
<trkpt lat="46.2632225" lon="7.3820084">
<ele>919.170</ele>
<time>2012-05-07T15:44:30.220Z</time>
</trkpt>
<trkpt lat="46.2632078" lon="7.3818672">
<ele>919.505</ele>
<time>2012-05-07T15:44:34.178Z</time>
</trkpt>
<trkpt lat="46.2632062" lon="7.3817201">
<ele>920.137</ele>
<time>2012-05-07T15:44:38.283Z</time>
</trkpt>
<trkpt lat="46.2632166" lon="7.3815641">
<ele>921.534</ele>
<time>2012-05-07T15:44:42.712Z</time>
</trkpt>
<trkpt lat="46.2632316" lon="7.3814327">
<ele>923.563</ele>
<time>2012-05-07T15:44:46.493Z</time>
</trkpt>
<trkpt lat="46.2632672" lon="7.3812853">
<ele>925.239</ele>
<time>2012-05-07T15:44:50.910Z</time>
</trkpt>
<trkpt lat="46.2632893" lon="7.3811295">
<ele>926.283</ele>
<time>2012-05-07T15:44:55.349Z</time>
</trkpt>
<trkpt lat="46.2633178" lon="7.3809995">
<ele>927.323</ele>
<time>2012-05-07T15:44:59.144Z</time>
</trkpt>
<trkpt lat="46.2633638" lon="7.3808809">
<ele>928.689</ele>
<time>2012-05-07T15:45:02.916Z</time>
</trkpt>
<trkpt lat="46.2634029" lon="7.3807491">
<ele>930.397</ele>
<time>2012-05-07T15:45:06.832Z</time>
</trkpt>
<trkpt lat="46.2634449" lon="7.3806048">
<ele>932.687</ele>
<time>2012-05-07T15:45:11.117Z</time>
</trkpt>
<trkpt lat="46.2634773" lon="7.3804636">
<ele>935.284</ele>
<time>2012-05-07T15:45:15.223Z</time>
</trkpt>
<trkpt lat="46.2634961" lon="7.3803209">
<ele>937.174</ele>
<time>2012-05-07T15:45:19.264Z</time>
</trkpt>
<trkpt lat="46.2635044" lon="7.3801679">
<ele>937.921</ele>
<time>2012-05-07T15:45:23.536Z</time>
</trkpt>
<trkpt lat="46.2635065" lon="7.3800076">
<ele>938.001</ele>
<time>2012-05-07T15:45:28.013Z</time>
</trkpt>
<trkpt lat="46.2635029" lon="7.3798565">
<ele>937.694</ele>
<time>2012-05-07T15:45:32.374Z</time>
</trkpt>
<trkpt lat="46.2634928" lon="7.3797088">
<ele>937.166</ele>
<time>2012-05-07T15:45:36.785Z</time>
</trkpt>
<trkpt lat="46.2635011" lon="7.3795495">
<ele>936.674</ele>
<time>2012-05-07T15:45:41.715Z</time>
</trkpt>
<trkpt lat="46.2635117" lon="7.3793859">
<ele>936.360</ele>
<time>2012-05-07T15:45:46.902Z</time>
</trkpt>
<trkpt lat="46.2635100" lon="7.3792471">
<ele>936.264</ele>
<time>2012-05-07T15:45:51.368Z</time>
</trkpt>
<trkpt lat="46.2635272" lon="7.3790924">
<ele>936.349</ele>
<time>2012-05-07T15:45:56.437Z</time>
</trkpt>
<trkpt lat="46.2635512" lon="7.3789552">
<ele>936.844</ele>
<time>2012-05-07T15:46:00.992Z</time>
</trkpt>
<trkpt lat="46.2635765" lon="7.3788256">
<ele>937.953</ele>
<time>2012-05-07T15:46:05.363Z</time>
</trkpt>
<trkpt lat="46.2636113" lon="7.3786987">
<ele>939.184</ele>
<time>2012-05-07T15:46:09.842Z</time>
</trkpt>
<trkpt lat="46.2636451" lon="7.3785712">
<ele>939.962</ele>
<time>2012-05-07T15:46:14.315Z</time>
</trkpt>
<trkpt lat="46.2636847" lon="7.3784514">
<ele>940.335</ele>
<time>2012-05-07T15:46:18.583Z</time>
</trkpt>
<trkpt lat="46.2637304" lon="7.3783369">
<ele>940.839</ele>
<time>2012-05-07T15:46:22.768Z</time>
</trkpt>
<trkpt lat="46.2638162" lon="7.3784193">
<ele>941.828</ele>
<time>2012-05-07T15:46:27.416Z</time>
</trkpt>
<trkpt lat="46.2638499" lon="7.3785521">
<ele>942.979</ele>
<time>2012-05-07T15:46:31.806Z</time>
</trkpt>
<trkpt lat="46.2638840" lon="7.3786743">
<ele>943.849</ele>
<time>2012-05-07T15:46:36.101Z</time>
</trkpt>
<trkpt lat="46.2639162" lon="7.3787999">
<ele>944.376</ele>
<time>2012-05-07T15:46:40.876Z</time>
</trkpt>
<trkpt lat="46.2639563" lon="7.3789336">
<ele>944.747</ele>
<time>2012-05-07T15:46:46.330Z</time>
</trkpt>
<trkpt lat="46.2639945" lon="7.3790616">
<ele>945.161</ele>
<time>2012-05-07T15:46:51.861Z</time>
</trkpt>
<trkpt lat="46.2640270" lon="7.3791859">
<ele>945.541</ele>
<time>2012-05-07T15:46:56.771Z</time>
</trkpt>
<trkpt lat="46.2640648" lon="7.3793204">
<ele>945.855</ele>
<time>2012-05-07T15:47:01.791Z</time>
</trkpt>
<trkpt lat="46.2641104" lon="7.3794489">
<ele>946.252</ele>
<time>2012-05-07T15:47:06.700Z</time>
</trkpt>
<trkpt lat="46.2641639" lon="7.3795687">
<ele>947.246</ele>
<time>2012-05-07T15:47:11.629Z</time>
</trkpt>
<trkpt lat="46.2642160" lon="7.3796757">
<ele>949.062</ele>
<time>2012-05-07T15:47:16.267Z</time>
</trkpt>
<trkpt lat="46.2642719" lon="7.3798038">
<ele>950.955</ele>
<time>2012-05-07T15:47:21.901Z</time>
</trkpt>
<trkpt lat="46.2643155" lon="7.3799181">
<ele>952.203</ele>
<time>2012-05-07T15:47:26.940Z</time>
</trkpt>
<trkpt lat="46.2643637" lon="7.3800552">
<ele>952.916</ele>
<time>2012-05-07T15:47:32.938Z</time>
</trkpt>
<trkpt lat="46.2644185" lon="7.3801636">
<ele>953.316</ele>
<time>2012-05-07T15:47:38.183Z</time>
</trkpt>
<trkpt lat="46.2644770" lon="7.3802638">
<ele>953.598</ele>
<time>2012-05-07T15:47:43.329Z</time>
</trkpt>
<trkpt lat="46.2645311" lon="7.3803723">
<ele>953.930</ele>
<time>2012-05-07T15:47:48.601Z</time>
</trkpt>
<trkpt lat="46.2645873" lon="7.3804754">
<ele>954.308</ele>
<time>2012-05-07T15:47:53.776Z</time>
</trkpt>
<trkpt lat="46.2646542" lon="7.3805958">
<ele>954.641</ele>
<time>2012-05-07T15:47:59.841Z</time>
</trkpt>
<trkpt lat="46.2647085" lon="7.3806999">
<ele>955.020</ele>
<time>2012-05-07T15:48:04.930Z</time>
</trkpt>
<trkpt lat="46.2647675" lon="7.3807999">
<ele>955.545</ele>
<time>2012-05-07T15:48:10.022Z</time>
</trkpt>
<trkpt lat="46.2648246" lon="7.3809089">
<ele>956.181</ele>
<time>2012-05-07T15:48:15.304Z</time>
</trkpt>
<trkpt lat="46.2648772" lon="7.3810169">
<ele>956.903</ele>
<time>2012-05-07T15:48:20.420Z</time>
</trkpt>
<trkpt lat="46.2649403" lon="7.3811397">
<ele>957.616</ele>
<time>2012-05-07T15:48:26.337Z</time>
</trkpt>
<trkpt lat="46.2649931" lon="7.3812487">
<ele>958.448</ele>
<time>2012-05-07T15:48:31.456Z</time>
</trkpt>
<trkpt lat="46.2650417" lon="7.3813642">
<ele>959.572</ele>
<time>2012-05-07T15:48:36.623Z</time>
</trkpt>
<trkpt lat="46.2650868" lon="7.3814813">
<ele>960.663</ele>
<time>2012-05-07T15:48:41.725Z</time>
</trkpt>
<trkpt lat="46.2651443" lon="7.3816075">
<ele>961.345</ele>
<time>2012-05-07T15:48:47.456Z</time>
</trkpt>
<trkpt lat="46.2651799" lon="7.3817400">
<ele>961.981</ele>
<time>2012-05-07T15:48:52.823Z</time>
</trkpt>
<trkpt lat="46.2652117" lon="7.3818663">
<ele>963.012</ele>
<time>2012-05-07T15:48:57.904Z</time>
</trkpt>
<trkpt lat="46.2652397" lon="7.3819979">
<ele>964.391</ele>
<time>2012-05-07T15:49:03.171Z</time>
</trkpt>
<trkpt lat="46.2652712" lon="7.3821210">
<ele>965.945</ele>
<time>2012-05-07T15:49:08.280Z</time>
</trkpt>
<trkpt lat="46.2653160" lon="7.3822588">
<ele>967.730</ele>
<time>2012-05-07T15:49:14.316Z</time>
</trkpt>
<trkpt lat="46.2653497" lon="7.3823860">
<ele>969.863</ele>
<time>2012-05-07T15:49:19.697Z</time>
</trkpt>
<trkpt lat="46.2653863" lon="7.3825160">
<ele>972.100</ele>
<time>2012-05-07T15:49:25.164Z</time>
</trkpt>
<trkpt lat="46.2654187" lon="7.3826386">
<ele>973.730</ele>
<time>2012-05-07T15:49:30.190Z</time>
</trkpt>
<trkpt lat="46.2654605" lon="7.3827759">
<ele>974.505</ele>
<time>2012-05-07T15:49:35.849Z</time>
</trkpt>
<trkpt lat="46.2655074" lon="7.3829124">
<ele>974.828</ele>
<time>2012-05-07T15:49:41.530Z</time>
</trkpt>
<trkpt lat="46.2655523" lon="7.3830334">
<ele>974.963</ele>
<time>2012-05-07T15:49:46.637Z</time>
</trkpt>
<trkpt lat="46.2655982" lon="7.3831681">
<ele>975.070</ele>
<time>2012-05-07T15:49:52.264Z</time>
</trkpt>
<trkpt lat="46.2656496" lon="7.3832915">
<ele>975.381</ele>
<time>2012-05-07T15:49:57.687Z</time>
</trkpt>
<trkpt lat="46.2657057" lon="7.3833947">
<ele>975.885</ele>
<time>2012-05-07T15:50:02.597Z</time>
</trkpt>
<trkpt lat="46.2657613" lon="7.3835003">
<ele>976.348</ele>
<time>2012-05-07T15:50:07.562Z</time>
</trkpt>
<trkpt lat="46.2658153" lon="7.3836069">
<ele>976.866</ele>
<time>2012-05-07T15:50:12.541Z</time>
</trkpt>
<trkpt lat="46.2658725" lon="7.3837193">
<ele>977.602</ele>
<time>2012-05-07T15:50:17.833Z</time>
</trkpt>
<trkpt lat="46.2659307" lon="7.3838219">
<ele>978.402</ele>
<time>2012-05-07T15:50:22.859Z</time>
</trkpt>
<trkpt lat="46.2659968" lon="7.3839177">
<ele>979.143</ele>
<time>2012-05-07T15:50:27.970Z</time>
</trkpt>
<trkpt lat="46.2660632" lon="7.3840142">
<ele>979.939</ele>
<time>2012-05-07T15:50:33.091Z</time>
</trkpt>
<trkpt lat="46.2661346" lon="7.3841068">
<ele>980.817</ele>
<time>2012-05-07T15:50:38.289Z</time>
</trkpt>
<trkpt lat="46.2662055" lon="7.3842004">
<ele>981.691</ele>
<time>2012-05-07T15:50:43.404Z</time>
</trkpt>
<trkpt lat="46.2662793" lon="7.3842904">
<ele>982.383</ele>
<time>2012-05-07T15:50:48.234Z</time>
</trkpt>
<trkpt lat="46.2663502" lon="7.3843743">
<ele>982.777</ele>
<time>2012-05-07T15:50:52.504Z</time>
</trkpt>
<trkpt lat="46.2664203" lon="7.3844574">
<ele>983.058</ele>
<time>2012-05-07T15:50:56.523Z</time>
</trkpt>
<trkpt lat="46.2665083" lon="7.3845625">
<ele>983.472</ele>
<time>2012-05-07T15:51:01.379Z</time>
</trkpt>
<trkpt lat="46.2665842" lon="7.3846582">
<ele>983.947</ele>
<time>2012-05-07T15:51:05.587Z</time>
</trkpt>
<trkpt lat="46.2666601" lon="7.3847607">
<ele>984.445</ele>
<time>2012-05-07T15:51:09.902Z</time>
</trkpt>
<trkpt lat="46.2667237" lon="7.3848672">
<ele>985.023</ele>
<time>2012-05-07T15:51:13.947Z</time>
</trkpt>
<trkpt lat="46.2667985" lon="7.3849612">
<ele>985.815</ele>
<time>2012-05-07T15:51:18.047Z</time>
</trkpt>
<trkpt lat="46.2668671" lon="7.3850469">
<ele>987.031</ele>
<time>2012-05-07T15:51:21.742Z</time>
</trkpt>
<trkpt lat="46.2669448" lon="7.3851364">
<ele>988.386</ele>
<time>2012-05-07T15:51:25.784Z</time>
</trkpt>
<trkpt lat="46.2670291" lon="7.3852403">
<ele>989.354</ele>
<time>2012-05-07T15:51:30.450Z</time>
</trkpt>
<trkpt lat="46.2670961" lon="7.3853280">
<ele>989.905</ele>
<time>2012-05-07T15:51:34.402Z</time>
</trkpt>
<trkpt lat="46.2671663" lon="7.3854178">
<ele>990.214</ele>
<time>2012-05-07T15:51:38.529Z</time>
</trkpt>
<trkpt lat="46.2672330" lon="7.3855057">
<ele>990.341</ele>
<time>2012-05-07T15:51:42.472Z</time>
</trkpt>
<trkpt lat="46.2673155" lon="7.3856148">
<ele>990.571</ele>
<time>2012-05-07T15:51:47.353Z</time>
</trkpt>
<trkpt lat="46.2673823" lon="7.3857026">
<ele>991.300</ele>
<time>2012-05-07T15:51:51.302Z</time>
</trkpt>
<trkpt lat="46.2674598" lon="7.3857998">
<ele>992.446</ele>
<time>2012-05-07T15:51:55.786Z</time>
</trkpt>
<trkpt lat="46.2675368" lon="7.3859038">
<ele>993.538</ele>
<time>2012-05-07T15:52:00.397Z</time>
</trkpt>
<trkpt lat="46.2676110" lon="7.3860135">
<ele>994.300</ele>
<time>2012-05-07T15:52:05.036Z</time>
</trkpt>
<trkpt lat="46.2676805" lon="7.3861308">
<ele>994.810</ele>
<time>2012-05-07T15:52:09.724Z</time>
</trkpt>
<trkpt lat="46.2677496" lon="7.3862463">
<ele>995.237</ele>
<time>2012-05-07T15:52:14.452Z</time>
</trkpt>
<trkpt lat="46.2678156" lon="7.3863595">
<ele>995.733</ele>
<time>2012-05-07T15:52:19.119Z</time>
</trkpt>
<trkpt lat="46.2678839" lon="7.3864769">
<ele>996.553</ele>
<time>2012-05-07T15:52:24.008Z</time>
</trkpt>
<trkpt lat="46.2679500" lon="7.3865914">
<ele>997.746</ele>
<time>2012-05-07T15:52:28.789Z</time>
</trkpt>
<trkpt lat="46.2680084" lon="7.3866907">
<ele>998.999</ele>
<time>2012-05-07T15:52:32.980Z</time>
</trkpt>
<trkpt lat="46.2680731" lon="7.3868122">
<ele>999.989</ele>
<time>2012-05-07T15:52:37.914Z</time>
</trkpt>
<trkpt lat="46.2681380" lon="7.3869401">
<ele>1000.674</ele>
<time>2012-05-07T15:52:43.022Z</time>
</trkpt>
<trkpt lat="46.2681954" lon="7.3870666">
<ele>1001.256</ele>
<time>2012-05-07T15:52:47.895Z</time>
</trkpt>
<trkpt lat="46.2682571" lon="7.3871953">
<ele>1001.861</ele>
<time>2012-05-07T15:52:52.908Z</time>
</trkpt>
<trkpt lat="46.2683170" lon="7.3873238">
<ele>1002.456</ele>
<time>2012-05-07T15:52:57.842Z</time>
</trkpt>
<trkpt lat="46.2683743" lon="7.3874542">
<ele>1003.016</ele>
<time>2012-05-07T15:53:02.773Z</time>
</trkpt>
<trkpt lat="46.2684236" lon="7.3875635">
<ele>1003.580</ele>
<time>2012-05-07T15:53:06.951Z</time>
</trkpt>
<trkpt lat="46.2684727" lon="7.3876780">
<ele>1004.221</ele>
<time>2012-05-07T15:53:11.264Z</time>
</trkpt>
<trkpt lat="46.2685326" lon="7.3878138">
<ele>1004.940</ele>
<time>2012-05-07T15:53:16.428Z</time>
</trkpt>
<trkpt lat="46.2685809" lon="7.3879247">
<ele>1005.791</ele>
<time>2012-05-07T15:53:20.629Z</time>
</trkpt>
<trkpt lat="46.2686292" lon="7.3880354">
<ele>1007.014</ele>
<time>2012-05-07T15:53:24.798Z</time>
</trkpt>
<trkpt lat="46.2686787" lon="7.3881477">
<ele>1008.531</ele>
<time>2012-05-07T15:53:29.001Z</time>
</trkpt>
<trkpt lat="46.2687401" lon="7.3882808">
<ele>1009.885</ele>
<time>2012-05-07T15:53:34.024Z</time>
</trkpt>
<trkpt lat="46.2687999" lon="7.3884157">
<ele>1010.868</ele>
<time>2012-05-07T15:53:38.997Z</time>
</trkpt>
<trkpt lat="46.2688584" lon="7.3885457">
<ele>1011.648</ele>
<time>2012-05-07T15:53:43.746Z</time>
</trkpt>
<trkpt lat="46.2689177" lon="7.3886736">
<ele>1012.421</ele>
<time>2012-05-07T15:53:48.432Z</time>
</trkpt>
<trkpt lat="46.2689870" lon="7.3887939">
<ele>1013.273</ele>
<time>2012-05-07T15:53:53.202Z</time>
</trkpt>
<trkpt lat="46.2690846" lon="7.3888401">
<ele>1014.157</ele>
<time>2012-05-07T15:53:57.726Z</time>
</trkpt>
<trkpt lat="46.2691792" lon="7.3887736">
<ele>1015.039</ele>
<time>2012-05-07T15:54:02.392Z</time>
</trkpt>
<trkpt lat="46.2692336" lon="7.3886581">
<ele>1015.937</ele>
<time>2012-05-07T15:54:06.739Z</time>
</trkpt>
<trkpt lat="46.2692563" lon="7.3885268">
<ele>1016.825</ele>
<time>2012-05-07T15:54:11.051Z</time>
</trkpt>
<trkpt lat="46.2692423" lon="7.3883767">
<ele>1017.680</ele>
<time>2012-05-07T15:54:16.047Z</time>
</trkpt>
<trkpt lat="46.2692261" lon="7.3882258">
<ele>1018.442</ele>
<time>2012-05-07T15:54:21.228Z</time>
</trkpt>
<trkpt lat="46.2692260" lon="7.3880802">
<ele>1019.006</ele>
<time>2012-05-07T15:54:26.104Z</time>
</trkpt>
<trkpt lat="46.2692270" lon="7.3879412">
<ele>1019.461</ele>
<time>2012-05-07T15:54:30.593Z</time>
</trkpt>
<trkpt lat="46.2692146" lon="7.3877872">
<ele>1020.283</ele>
<time>2012-05-07T15:54:35.507Z</time>
</trkpt>
<trkpt lat="46.2692047" lon="7.3876573">
<ele>1021.603</ele>
<time>2012-05-07T15:54:39.598Z</time>
</trkpt>
<trkpt lat="46.2691955" lon="7.3875061">
<ele>1022.792</ele>
<time>2012-05-07T15:54:44.281Z</time>
</trkpt>
<trkpt lat="46.2691897" lon="7.3873477">
<ele>1023.358</ele>
<time>2012-05-07T15:54:49.133Z</time>
</trkpt>
<trkpt lat="46.2691776" lon="7.3871942">
<ele>1023.498</ele>
<time>2012-05-07T15:54:53.846Z</time>
</trkpt>
<trkpt lat="46.2691671" lon="7.3870444">
<ele>1023.578</ele>
<time>2012-05-07T15:54:58.462Z</time>
</trkpt>
<trkpt lat="46.2691495" lon="7.3869044">
<ele>1023.929</ele>
<time>2012-05-07T15:55:02.854Z</time>
</trkpt>
<trkpt lat="46.2691203" lon="7.3867708">
<ele>1024.710</ele>
<time>2012-05-07T15:55:07.183Z</time>
</trkpt>
<trkpt lat="46.2690813" lon="7.3866470">
<ele>1025.742</ele>
<time>2012-05-07T15:55:11.395Z</time>
</trkpt>
<trkpt lat="46.2690358" lon="7.3865320">
<ele>1026.679</ele>
<time>2012-05-07T15:55:15.543Z</time>
</trkpt>
<trkpt lat="46.2689859" lon="7.3864189">
<ele>1027.376</ele>
<time>2012-05-07T15:55:19.828Z</time>
</trkpt>
<trkpt lat="46.2689314" lon="7.3863070">
<ele>1027.911</ele>
<time>2012-05-07T15:55:24.339Z</time>
</trkpt>
<trkpt lat="46.2688761" lon="7.3861974">
<ele>1028.446</ele>
<time>2012-05-07T15:55:28.949Z</time>
</trkpt>
<trkpt lat="46.2688252" lon="7.3860859">
<ele>1029.048</ele>
<time>2012-05-07T15:55:33.589Z</time>
</trkpt>
<trkpt lat="46.2687777" lon="7.3859676">
<ele>1029.657</ele>
<time>2012-05-07T15:55:38.403Z</time>
</trkpt>
<trkpt lat="46.2687330" lon="7.3858506">
<ele>1030.300</ele>
<time>2012-05-07T15:55:43.129Z</time>
</trkpt>
<trkpt lat="46.2687003" lon="7.3857227">
<ele>1031.085</ele>
<time>2012-05-07T15:55:47.944Z</time>
</trkpt>
<trkpt lat="46.2686844" lon="7.3855908">
<ele>1031.949</ele>
<time>2012-05-07T15:55:52.660Z</time>
</trkpt>
<trkpt lat="46.2686807" lon="7.3854436">
<ele>1032.765</ele>
<time>2012-05-07T15:55:57.846Z</time>
</trkpt>
<trkpt lat="46.2686760" lon="7.3853030">
<ele>1033.534</ele>
<time>2012-05-07T15:56:02.809Z</time>
</trkpt>
<trkpt lat="46.2686791" lon="7.3851558">
<ele>1034.566</ele>
<time>2012-05-07T15:56:08.070Z</time>
</trkpt>
<trkpt lat="46.2686827" lon="7.3850125">
<ele>1036.123</ele>
<time>2012-05-07T15:56:13.304Z</time>
</trkpt>
<trkpt lat="46.2686902" lon="7.3848564">
<ele>1037.960</ele>
<time>2012-05-07T15:56:19.064Z</time>
</trkpt>
<trkpt lat="46.2686762" lon="7.3847123">
<ele>1039.905</ele>
<time>2012-05-07T15:56:24.401Z</time>
</trkpt>
<trkpt lat="46.2686582" lon="7.3845578">
<ele>1041.816</ele>
<time>2012-05-07T15:56:30.255Z</time>
</trkpt>
<trkpt lat="46.2686389" lon="7.3844053">
<ele>1043.193</ele>
<time>2012-05-07T15:56:36.269Z</time>
</trkpt>
<trkpt lat="46.2686185" lon="7.3842687">
<ele>1043.894</ele>
<time>2012-05-07T15:56:41.657Z</time>
</trkpt>
<trkpt lat="46.2685903" lon="7.3841396">
<ele>1044.213</ele>
<time>2012-05-07T15:56:46.658Z</time>
</trkpt>
<trkpt lat="46.2685467" lon="7.3840209">
<ele>1044.309</ele>
<time>2012-05-07T15:56:51.338Z</time>
</trkpt>
<trkpt lat="46.2684918" lon="7.3838970">
<ele>1044.291</ele>
<time>2012-05-07T15:56:56.178Z</time>
</trkpt>
<trkpt lat="46.2684318" lon="7.3837707">
<ele>1044.267</ele>
<time>2012-05-07T15:57:00.986Z</time>
</trkpt>
<trkpt lat="46.2683702" lon="7.3836413">
<ele>1044.347</ele>
<time>2012-05-07T15:57:05.783Z</time>
</trkpt>
<trkpt lat="46.2683120" lon="7.3835257">
<ele>1044.635</ele>
<time>2012-05-07T15:57:10.141Z</time>
</trkpt>
<trkpt lat="46.2682595" lon="7.3834105">
<ele>1045.174</ele>
<time>2012-05-07T15:57:14.422Z</time>
</trkpt>
<trkpt lat="46.2682062" lon="7.3832956">
<ele>1045.818</ele>
<time>2012-05-07T15:57:18.816Z</time>
</trkpt>
<trkpt lat="46.2681514" lon="7.3831881">
<ele>1046.433</ele>
<time>2012-05-07T15:57:23.157Z</time>
</trkpt>
<trkpt lat="46.2681011" lon="7.3830779">
<ele>1047.170</ele>
<time>2012-05-07T15:57:27.575Z</time>
</trkpt>
<trkpt lat="46.2680497" lon="7.3829579">
<ele>1048.155</ele>
<time>2012-05-07T15:57:32.462Z</time>
</trkpt>
<trkpt lat="46.2679992" lon="7.3828374">
<ele>1049.255</ele>
<time>2012-05-07T15:57:37.460Z</time>
</trkpt>
<trkpt lat="46.2679481" lon="7.3827267">
<ele>1050.422</ele>
<time>2012-05-07T15:57:42.256Z</time>
</trkpt>
<trkpt lat="46.2678991" lon="7.3826119">
<ele>1051.541</ele>
<time>2012-05-07T15:57:47.170Z</time>
</trkpt>
<trkpt lat="46.2678577" lon="7.3824959">
<ele>1052.394</ele>
<time>2012-05-07T15:57:51.971Z</time>
</trkpt>
<trkpt lat="46.2678226" lon="7.3823650">
<ele>1053.196</ele>
<time>2012-05-07T15:57:57.143Z</time>
</trkpt>
<trkpt lat="46.2678116" lon="7.3822166">
<ele>1054.282</ele>
<time>2012-05-07T15:58:02.581Z</time>
</trkpt>
<trkpt lat="46.2678217" lon="7.3820725">
<ele>1055.532</ele>
<time>2012-05-07T15:58:07.809Z</time>
</trkpt>
<trkpt lat="46.2678254" lon="7.3819341">
<ele>1056.616</ele>
<time>2012-05-07T15:58:12.849Z</time>
</trkpt>
<trkpt lat="46.2677938" lon="7.3817981">
<ele>1057.325</ele>
<time>2012-05-07T15:58:18.129Z</time>
</trkpt>
<trkpt lat="46.2677797" lon="7.3816691">
<ele>1057.672</ele>
<time>2012-05-07T15:58:22.946Z</time>
</trkpt>
<trkpt lat="46.2677692" lon="7.3815225">
<ele>1057.946</ele>
<time>2012-05-07T15:58:28.317Z</time>
</trkpt>
<trkpt lat="46.2677658" lon="7.3813847">
<ele>1058.520</ele>
<time>2012-05-07T15:58:33.303Z</time>
</trkpt>
<trkpt lat="46.2677685" lon="7.3812379">
<ele>1059.451</ele>
<time>2012-05-07T15:58:38.638Z</time>
</trkpt>
<trkpt lat="46.2677628" lon="7.3810945">
<ele>1060.575</ele>
<time>2012-05-07T15:58:43.956Z</time>
</trkpt>
<trkpt lat="46.2677561" lon="7.3809573">
<ele>1062.039</ele>
<time>2012-05-07T15:58:49.175Z</time>
</trkpt>
<trkpt lat="46.2677603" lon="7.3808259">
<ele>1063.756</ele>
<time>2012-05-07T15:58:54.288Z</time>
</trkpt>
<trkpt lat="46.2677730" lon="7.3806824">
<ele>1065.100</ele>
<time>2012-05-07T15:58:59.936Z</time>
</trkpt>
<trkpt lat="46.2677867" lon="7.3805309">
<ele>1065.904</ele>
<time>2012-05-07T15:59:05.921Z</time>
</trkpt>
<trkpt lat="46.2677986" lon="7.3803923">
<ele>1066.558</ele>
<time>2012-05-07T15:59:11.414Z</time>
</trkpt>
<trkpt lat="46.2678671" lon="7.3802878">
<ele>1067.186</ele>
<time>2012-05-07T15:59:17.094Z</time>
</trkpt>
<trkpt lat="46.2679629" lon="7.3803252">
<ele>1067.796</ele>
<time>2012-05-07T15:59:22.713Z</time>
</trkpt>
<trkpt lat="46.2680173" lon="7.3804303">
<ele>1068.414</ele>
<time>2012-05-07T15:59:27.717Z</time>
</trkpt>
<trkpt lat="46.2680562" lon="7.3805493">
<ele>1069.014</ele>
<time>2012-05-07T15:59:32.663Z</time>
</trkpt>
<trkpt lat="46.2680900" lon="7.3806994">
<ele>1069.706</ele>
<time>2012-05-07T15:59:38.665Z</time>
</trkpt>
<trkpt lat="46.2681152" lon="7.3808404">
<ele>1070.587</ele>
<time>2012-05-07T15:59:44.135Z</time>
</trkpt>
<trkpt lat="46.2681419" lon="7.3809866">
<ele>1071.405</ele>
<time>2012-05-07T15:59:49.315Z</time>
</trkpt>
<trkpt lat="46.2681689" lon="7.3811364">
<ele>1071.946</ele>
<time>2012-05-07T15:59:54.280Z</time>
</trkpt>
<trkpt lat="46.2682007" lon="7.3812874">
<ele>1072.567</ele>
<time>2012-05-07T15:59:59.226Z</time>
</trkpt>
<trkpt lat="46.2682353" lon="7.3814408">
<ele>1073.849</ele>
<time>2012-05-07T16:00:04.270Z</time>
</trkpt>
<trkpt lat="46.2682644" lon="7.3815908">
<ele>1075.686</ele>
<time>2012-05-07T16:00:09.126Z</time>
</trkpt>
<trkpt lat="46.2682966" lon="7.3817476">
<ele>1077.311</ele>
<time>2012-05-07T16:00:14.218Z</time>
</trkpt>
<trkpt lat="46.2683368" lon="7.3818939">
<ele>1078.194</ele>
<time>2012-05-07T16:00:19.098Z</time>
</trkpt>
<trkpt lat="46.2683727" lon="7.3820295">
<ele>1078.722</ele>
<time>2012-05-07T16:00:23.565Z</time>
</trkpt>
<trkpt lat="46.2684241" lon="7.3821524">
<ele>1079.459</ele>
<time>2012-05-07T16:00:27.967Z</time>
</trkpt>
<trkpt lat="46.2684865" lon="7.3822773">
<ele>1080.366</ele>
<time>2012-05-07T16:00:32.678Z</time>
</trkpt>
<trkpt lat="46.2685431" lon="7.3823849">
<ele>1081.288</ele>
<time>2012-05-07T16:00:36.829Z</time>
</trkpt>
<trkpt lat="46.2686057" lon="7.3824864">
<ele>1082.126</ele>
<time>2012-05-07T16:00:41.008Z</time>
</trkpt>
<trkpt lat="46.2686833" lon="7.3825912">
<ele>1082.667</ele>
<time>2012-05-07T16:00:45.731Z</time>
</trkpt>
<trkpt lat="46.2687585" lon="7.3826740">
<ele>1083.012</ele>
<time>2012-05-07T16:00:49.948Z</time>
</trkpt>
<trkpt lat="46.2688343" lon="7.3827541">
<ele>1083.387</ele>
<time>2012-05-07T16:00:54.150Z</time>
</trkpt>
<trkpt lat="46.2689159" lon="7.3828347">
<ele>1083.766</ele>
<time>2012-05-07T16:00:58.611Z</time>
</trkpt>
<trkpt lat="46.2689910" lon="7.3829248">
<ele>1084.009</ele>
<time>2012-05-07T16:01:03.104Z</time>
</trkpt>
<trkpt lat="46.2690626" lon="7.3830124">
<ele>1084.181</ele>
<time>2012-05-07T16:01:07.588Z</time>
</trkpt>
<trkpt lat="46.2691373" lon="7.3830971">
<ele>1085.002</ele>
<time>2012-05-07T16:01:12.346Z</time>
</trkpt>
<trkpt lat="46.2692120" lon="7.3831852">
<ele>1087.122</ele>
<time>2012-05-07T16:01:17.374Z</time>
</trkpt>
<trkpt lat="46.2692951" lon="7.3832823">
<ele>1089.744</ele>
<time>2012-05-07T16:01:23.203Z</time>
</trkpt>
<trkpt lat="46.2693785" lon="7.3833355">
<ele>1091.585</ele>
<time>2012-05-07T16:01:28.357Z</time>
</trkpt>
<trkpt lat="46.2694576" lon="7.3834040">
<ele>1092.489</ele>
<time>2012-05-07T16:01:33.651Z</time>
</trkpt>
<trkpt lat="46.2695463" lon="7.3835002">
<ele>1092.869</ele>
<time>2012-05-07T16:01:39.906Z</time>
</trkpt>
<trkpt lat="46.2696244" lon="7.3835952">
<ele>1092.967</ele>
<time>2012-05-07T16:01:45.631Z</time>
</trkpt>
<trkpt lat="46.2697002" lon="7.3836964">
<ele>1092.982</ele>
<time>2012-05-07T16:01:51.471Z</time>
</trkpt>
<trkpt lat="46.2697809" lon="7.3837831">
<ele>1093.196</ele>
<time>2012-05-07T16:01:57.177Z</time>
</trkpt>
<trkpt lat="46.2698578" lon="7.3838636">
<ele>1093.703</ele>
<time>2012-05-07T16:02:02.489Z</time>
</trkpt>
<trkpt lat="46.2699364" lon="7.3839459">
<ele>1094.246</ele>
<time>2012-05-07T16:02:07.900Z</time>
</trkpt>
<trkpt lat="46.2700041" lon="7.3840388">
<ele>1094.638</ele>
<time>2012-05-07T16:02:13.139Z</time>
</trkpt>
<trkpt lat="46.2700821" lon="7.3841417">
<ele>1094.913</ele>
<time>2012-05-07T16:02:19.008Z</time>
</trkpt>
<trkpt lat="46.2701519" lon="7.3842330">
<ele>1095.331</ele>
<time>2012-05-07T16:02:24.152Z</time>
</trkpt>
<trkpt lat="46.2702247" lon="7.3843261">
<ele>1096.286</ele>
<time>2012-05-07T16:02:29.452Z</time>
</trkpt>
<trkpt lat="46.2702938" lon="7.3844254">
<ele>1097.643</ele>
<time>2012-05-07T16:02:34.813Z</time>
</trkpt>
<trkpt lat="46.2703651" lon="7.3845165">
<ele>1098.810</ele>
<time>2012-05-07T16:02:40.058Z</time>
</trkpt>
<trkpt lat="46.2704335" lon="7.3846133">
<ele>1099.644</ele>
<time>2012-05-07T16:02:45.247Z</time>
</trkpt>
<trkpt lat="46.2705001" lon="7.3847152">
<ele>1100.303</ele>
<time>2012-05-07T16:02:50.374Z</time>
</trkpt>
<trkpt lat="46.2705695" lon="7.3848086">
<ele>1100.858</ele>
<time>2012-05-07T16:02:55.291Z</time>
</trkpt>
<trkpt lat="46.2706570" lon="7.3848705">
<ele>1101.394</ele>
<time>2012-05-07T16:03:00.303Z</time>
</trkpt>
<trkpt lat="46.2707650" lon="7.3848275">
<ele>1101.980</ele>
<time>2012-05-07T16:03:06.052Z</time>
</trkpt>
<trkpt lat="46.2708465" lon="7.3847342">
<ele>1102.645</ele>
<time>2012-05-07T16:03:11.378Z</time>
</trkpt>
<trkpt lat="46.2708515" lon="7.3845978">
<ele>1103.758</ele>
<time>2012-05-07T16:03:16.277Z</time>
</trkpt>
<trkpt lat="46.2708528" lon="7.3844661">
<ele>1105.368</ele>
<time>2012-05-07T16:03:21.067Z</time>
</trkpt>
<trkpt lat="46.2708441" lon="7.3843073">
<ele>1106.784</ele>
<time>2012-05-07T16:03:26.822Z</time>
</trkpt>
<trkpt lat="46.2708577" lon="7.3841464">
<ele>1107.500</ele>
<time>2012-05-07T16:03:32.379Z</time>
</trkpt>
<trkpt lat="46.2708813" lon="7.3840167">
<ele>1107.634</ele>
<time>2012-05-07T16:03:36.672Z</time>
</trkpt>
<trkpt lat="46.2709190" lon="7.3838849">
<ele>1107.509</ele>
<time>2012-05-07T16:03:41.171Z</time>
</trkpt>
<trkpt lat="46.2709675" lon="7.3837471">
<ele>1107.452</ele>
<time>2012-05-07T16:03:46.047Z</time>
</trkpt>
<trkpt lat="46.2710244" lon="7.3836103">
<ele>1107.572</ele>
<time>2012-05-07T16:03:51.113Z</time>
</trkpt>
<trkpt lat="46.2710900" lon="7.3834849">
<ele>1107.790</ele>
<time>2012-05-07T16:03:56.162Z</time>
</trkpt>
<trkpt lat="46.2711420" lon="7.3833544">
<ele>1108.068</ele>
<time>2012-05-07T16:04:01.029Z</time>
</trkpt>
<trkpt lat="46.2711933" lon="7.3832439">
<ele>1108.569</ele>
<time>2012-05-07T16:04:05.344Z</time>
</trkpt>
<trkpt lat="46.2712484" lon="7.3831163">
<ele>1109.482</ele>
<time>2012-05-07T16:04:10.250Z</time>
</trkpt>
<trkpt lat="46.2713100" lon="7.3829892">
<ele>1110.575</ele>
<time>2012-05-07T16:04:15.402Z</time>
</trkpt>
<trkpt lat="46.2713585" lon="7.3828531">
<ele>1111.785</ele>
<time>2012-05-07T16:04:20.731Z</time>
</trkpt>
<trkpt lat="46.2713945" lon="7.3827061">
<ele>1113.306</ele>
<time>2012-05-07T16:04:26.397Z</time>
</trkpt>
<trkpt lat="46.2714140" lon="7.3825662">
<ele>1114.832</ele>
<time>2012-05-07T16:04:31.720Z</time>
</trkpt>
<trkpt lat="46.2714226" lon="7.3824271">
<ele>1115.932</ele>
<time>2012-05-07T16:04:37.047Z</time>
</trkpt>
<trkpt lat="46.2714269" lon="7.3822940">
<ele>1116.699</ele>
<time>2012-05-07T16:04:42.184Z</time>
</trkpt>
<trkpt lat="46.2714396" lon="7.3821426">
<ele>1117.328</ele>
<time>2012-05-07T16:04:47.980Z</time>
</trkpt>
<trkpt lat="46.2714505" lon="7.3820059">
<ele>1117.949</ele>
<time>2012-05-07T16:04:53.095Z</time>
</trkpt>
<trkpt lat="46.2714745" lon="7.3818646">
<ele>1118.668</ele>
<time>2012-05-07T16:04:58.419Z</time>
</trkpt>
<trkpt lat="46.2715236" lon="7.3817161">
<ele>1119.644</ele>
<time>2012-05-07T16:05:04.380Z</time>
</trkpt>
<trkpt lat="46.2715677" lon="7.3815836">
<ele>1121.025</ele>
<time>2012-05-07T16:05:09.625Z</time>
</trkpt>
<trkpt lat="46.2716291" lon="7.3814541">
<ele>1122.565</ele>
<time>2012-05-07T16:05:15.092Z</time>
</trkpt>
<trkpt lat="46.2716723" lon="7.3813227">
<ele>1124.019</ele>
<time>2012-05-07T16:05:20.030Z</time>
</trkpt>
<trkpt lat="46.2717144" lon="7.3811862">
<ele>1125.822</ele>
<time>2012-05-07T16:05:25.067Z</time>
</trkpt>
<trkpt lat="46.2717719" lon="7.3810815">
<ele>1128.112</ele>
<time>2012-05-07T16:05:29.657Z</time>
</trkpt>
<trkpt lat="46.2718411" lon="7.3809883">
<ele>1130.280</ele>
<time>2012-05-07T16:05:34.530Z</time>
</trkpt>
<trkpt lat="46.2719129" lon="7.3809099">
<ele>1131.825</ele>
<time>2012-05-07T16:05:39.308Z</time>
</trkpt>
<trkpt lat="46.2719573" lon="7.3807792">
<ele>1132.603</ele>
<time>2012-05-07T16:05:44.865Z</time>
</trkpt>
<trkpt lat="46.2719977" lon="7.3806569">
<ele>1132.610</ele>
<time>2012-05-07T16:05:50.063Z</time>
</trkpt>
<trkpt lat="46.2720546" lon="7.3805424">
<ele>1132.140</ele>
<time>2012-05-07T16:05:55.275Z</time>
</trkpt>
<trkpt lat="46.2721182" lon="7.3804130">
<ele>1131.611</ele>
<time>2012-05-07T16:06:00.804Z</time>
</trkpt>
<trkpt lat="46.2721803" lon="7.3802957">
<ele>1131.149</ele>
<time>2012-05-07T16:06:05.629Z</time>
</trkpt>
<trkpt lat="46.2722434" lon="7.3801707">
<ele>1130.673</ele>
<time>2012-05-07T16:06:10.560Z</time>
</trkpt>
<trkpt lat="46.2723042" lon="7.3800553">
<ele>1130.317</ele>
<time>2012-05-07T16:06:15.176Z</time>
</trkpt>
<trkpt lat="46.2723520" lon="7.3799341">
<ele>1130.184</ele>
<time>2012-05-07T16:06:19.676Z</time>
</trkpt>
<trkpt lat="46.2723882" lon="7.3798068">
<ele>1130.361</ele>
<time>2012-05-07T16:06:24.218Z</time>
</trkpt>
<trkpt lat="46.2723964" lon="7.3796669">
<ele>1130.870</ele>
<time>2012-05-07T16:06:29.000Z</time>
</trkpt>
<trkpt lat="46.2723945" lon="7.3795205">
<ele>1131.524</ele>
<time>2012-05-07T16:06:34.114Z</time>
</trkpt>
<trkpt lat="46.2723911" lon="7.3793699">
<ele>1132.162</ele>
<time>2012-05-07T16:06:39.418Z</time>
</trkpt>
<trkpt lat="46.2724039" lon="7.3792197">
<ele>1132.674</ele>
<time>2012-05-07T16:06:44.709Z</time>
</trkpt>
<trkpt lat="46.2724266" lon="7.3790825">
<ele>1133.097</ele>
<time>2012-05-07T16:06:49.552Z</time>
</trkpt>
<trkpt lat="46.2724714" lon="7.3789443">
<ele>1133.816</ele>
<time>2012-05-07T16:06:54.684Z</time>
</trkpt>
<trkpt lat="46.2725413" lon="7.3788297">
<ele>1135.014</ele>
<time>2012-05-07T16:06:59.775Z</time>
</trkpt>
<trkpt lat="46.2726082" lon="7.3787200">
<ele>1136.321</ele>
<time>2012-05-07T16:07:04.669Z</time>
</trkpt>
<trkpt lat="46.2726827" lon="7.3786092">
<ele>1137.234</ele>
<time>2012-05-07T16:07:09.886Z</time>
</trkpt>
<trkpt lat="46.2727671" lon="7.3785339">
<ele>1137.859</ele>
<time>2012-05-07T16:07:14.720Z</time>
</trkpt>
<trkpt lat="46.2728571" lon="7.3784848">
<ele>1138.756</ele>
<time>2012-05-07T16:07:19.417Z</time>
</trkpt>
<trkpt lat="46.2729511" lon="7.3784540">
<ele>1140.510</ele>
<time>2012-05-07T16:07:24.185Z</time>
</trkpt>
<trkpt lat="46.2730513" lon="7.3784303">
<ele>1143.480</ele>
<time>2012-05-07T16:07:29.235Z</time>
</trkpt>
<trkpt lat="46.2731535" lon="7.3784215">
<ele>1147.047</ele>
<time>2012-05-07T16:07:34.537Z</time>
</trkpt>
<trkpt lat="46.2732591" lon="7.3784081">
<ele>1150.298</ele>
<time>2012-05-07T16:07:40.324Z</time>
</trkpt>
<trkpt lat="46.2733616" lon="7.3783948">
<ele>1152.941</ele>
<time>2012-05-07T16:07:46.056Z</time>
</trkpt>
<trkpt lat="46.2734715" lon="7.3783801">
<ele>1154.742</ele>
<time>2012-05-07T16:07:52.008Z</time>
</trkpt>
<trkpt lat="46.2735768" lon="7.3783621">
<ele>1155.682</ele>
<time>2012-05-07T16:07:57.484Z</time>
</trkpt>
<trkpt lat="46.2736745" lon="7.3783352">
<ele>1156.182</ele>
<time>2012-05-07T16:08:02.471Z</time>
</trkpt>
<trkpt lat="46.2737665" lon="7.3782897">
<ele>1156.464</ele>
<time>2012-05-07T16:08:07.294Z</time>
</trkpt>
<trkpt lat="46.2738582" lon="7.3782176">
<ele>1156.707</ele>
<time>2012-05-07T16:08:12.558Z</time>
</trkpt>
<trkpt lat="46.2739529" lon="7.3781394">
<ele>1157.222</ele>
<time>2012-05-07T16:08:18.289Z</time>
</trkpt>
<trkpt lat="46.2740304" lon="7.3780553">
<ele>1158.214</ele>
<time>2012-05-07T16:08:23.590Z</time>
</trkpt>
<trkpt lat="46.2740991" lon="7.3779596">
<ele>1159.485</ele>
<time>2012-05-07T16:08:28.912Z</time>
</trkpt>
<trkpt lat="46.2741563" lon="7.3778491">
<ele>1160.531</ele>
<time>2012-05-07T16:08:34.205Z</time>
</trkpt>
<trkpt lat="46.2741989" lon="7.3777267">
<ele>1161.044</ele>
<time>2012-05-07T16:08:39.387Z</time>
</trkpt>
<trkpt lat="46.2742357" lon="7.3776071">
<ele>1161.133</ele>
<time>2012-05-07T16:08:44.349Z</time>
</trkpt>
<trkpt lat="46.2742784" lon="7.3774879">
<ele>1161.118</ele>
<time>2012-05-07T16:08:49.564Z</time>
</trkpt>
<trkpt lat="46.2743292" lon="7.3773734">
<ele>1161.048</ele>
<time>2012-05-07T16:08:54.875Z</time>
</trkpt>
<trkpt lat="46.2743951" lon="7.3772467">
<ele>1160.781</ele>
<time>2012-05-07T16:09:00.963Z</time>
</trkpt>
<trkpt lat="46.2744703" lon="7.3771473">
<ele>1160.411</ele>
<time>2012-05-07T16:09:06.546Z</time>
</trkpt>
<trkpt lat="46.2745506" lon="7.3770779">
<ele>1160.178</ele>
<time>2012-05-07T16:09:11.651Z</time>
</trkpt>
<trkpt lat="46.2746343" lon="7.3770074">
<ele>1160.185</ele>
<time>2012-05-07T16:09:16.857Z</time>
</trkpt>
<trkpt lat="46.2747252" lon="7.3769629">
<ele>1160.426</ele>
<time>2012-05-07T16:09:21.943Z</time>
</trkpt>
<trkpt lat="46.2748177" lon="7.3769372">
<ele>1160.742</ele>
<time>2012-05-07T16:09:26.846Z</time>
</trkpt>
<trkpt lat="46.2749117" lon="7.3769401">
<ele>1161.567</ele>
<time>2012-05-07T16:09:31.693Z</time>
</trkpt>
<trkpt lat="46.2750034" lon="7.3769571">
<ele>1163.502</ele>
<time>2012-05-07T16:09:36.486Z</time>
</trkpt>
<trkpt lat="46.2751059" lon="7.3769775">
<ele>1166.234</ele>
<time>2012-05-07T16:09:41.862Z</time>
</trkpt>
<trkpt lat="46.2752005" lon="7.3769922">
<ele>1168.757</ele>
<time>2012-05-07T16:09:46.778Z</time>
</trkpt>
<trkpt lat="46.2752964" lon="7.3770145">
<ele>1170.409</ele>
<time>2012-05-07T16:09:51.706Z</time>
</trkpt>
<trkpt lat="46.2753999" lon="7.3770456">
<ele>1171.280</ele>
<time>2012-05-07T16:09:57.012Z</time>
</trkpt>
<trkpt lat="46.2755012" lon="7.3770683">
<ele>1171.848</ele>
<time>2012-05-07T16:10:02.141Z</time>
</trkpt>
<trkpt lat="46.2755964" lon="7.3770827">
<ele>1172.232</ele>
<time>2012-05-07T16:10:06.922Z</time>
</trkpt>
<trkpt lat="46.2756871" lon="7.3770939">
<ele>1172.487</ele>
<time>2012-05-07T16:10:11.419Z</time>
</trkpt>
<trkpt lat="46.2757899" lon="7.3771102">
<ele>1172.740</ele>
<time>2012-05-07T16:10:16.494Z</time>
</trkpt>
<trkpt lat="46.2758842" lon="7.3771312">
<ele>1173.100</ele>
<time>2012-05-07T16:10:21.190Z</time>
</trkpt>
<trkpt lat="46.2759940" lon="7.3771251">
<ele>1173.885</ele>
<time>2012-05-07T16:10:26.706Z</time>
</trkpt>
<trkpt lat="46.2760855" lon="7.3770999">
<ele>1175.861</ele>
<time>2012-05-07T16:10:31.587Z</time>
</trkpt>
<trkpt lat="46.2761852" lon="7.3770342">
<ele>1179.609</ele>
<time>2012-05-07T16:10:37.594Z</time>
</trkpt>
<trkpt lat="46.2762807" lon="7.3769709">
<ele>1184.352</ele>
<time>2012-05-07T16:10:43.611Z</time>
</trkpt>
<trkpt lat="46.2763601" lon="7.3768691">
<ele>1188.301</ele>
<time>2012-05-07T16:10:49.722Z</time>
</trkpt>
<trkpt lat="46.2764146" lon="7.3767645">
<ele>1190.514</ele>
<time>2012-05-07T16:10:55.100Z</time>
</trkpt>
<trkpt lat="46.2764675" lon="7.3766463">
<ele>1191.346</ele>
<time>2012-05-07T16:11:00.871Z</time>
</trkpt>
<trkpt lat="46.2765178" lon="7.3765236">
<ele>1191.646</ele>
<time>2012-05-07T16:11:06.629Z</time>
</trkpt>
<trkpt lat="46.2765720" lon="7.3764026">
<ele>1191.979</ele>
<time>2012-05-07T16:11:12.372Z</time>
</trkpt>
<trkpt lat="46.2766196" lon="7.3762878">
<ele>1192.324</ele>
<time>2012-05-07T16:11:17.587Z</time>
</trkpt>
<trkpt lat="46.2766713" lon="7.3761664">
<ele>1192.880</ele>
<time>2012-05-07T16:11:23.136Z</time>
</trkpt>
<trkpt lat="46.2767221" lon="7.3760505">
<ele>1193.983</ele>
<time>2012-05-07T16:11:28.492Z</time>
</trkpt>
<trkpt lat="46.2767993" lon="7.3759479">
<ele>1195.166</ele>
<time>2012-05-07T16:11:34.280Z</time>
</trkpt>
<trkpt lat="46.2768897" lon="7.3759377">
<ele>1195.807</ele>
<time>2012-05-07T16:11:39.214Z</time>
</trkpt>
<trkpt lat="46.2769559" lon="7.3760419">
<ele>1195.886</ele>
<time>2012-05-07T16:11:44.529Z</time>
</trkpt>
<trkpt lat="46.2769738" lon="7.3761794">
<ele>1195.438</ele>
<time>2012-05-07T16:11:49.869Z</time>
</trkpt>
<trkpt lat="46.2769593" lon="7.3763175">
<ele>1194.635</ele>
<time>2012-05-07T16:11:55.318Z</time>
</trkpt>
<trkpt lat="46.2769327" lon="7.3764607">
<ele>1193.951</ele>
<time>2012-05-07T16:12:01.068Z</time>
</trkpt>
<trkpt lat="46.2769148" lon="7.3765979">
<ele>1193.466</ele>
<time>2012-05-07T16:12:06.194Z</time>
</trkpt>
<trkpt lat="46.2768890" lon="7.3767421">
<ele>1192.887</ele>
<time>2012-05-07T16:12:11.363Z</time>
</trkpt>
<trkpt lat="46.2768606" lon="7.3768735">
<ele>1192.548</ele>
<time>2012-05-07T16:12:16.038Z</time>
</trkpt>
<trkpt lat="46.2768369" lon="7.3770071">
<ele>1192.865</ele>
<time>2012-05-07T16:12:20.756Z</time>
</trkpt>
<trkpt lat="46.2768101" lon="7.3771549">
<ele>1193.484</ele>
<time>2012-05-07T16:12:26.025Z</time>
</trkpt>
<trkpt lat="46.2767626" lon="7.3772971">
<ele>1193.924</ele>
<time>2012-05-07T16:12:31.505Z</time>
</trkpt>
<trkpt lat="46.2766961" lon="7.3774087">
<ele>1194.143</ele>
<time>2012-05-07T16:12:36.635Z</time>
</trkpt>
<trkpt lat="46.2766437" lon="7.3775391">
<ele>1194.670</ele>
<time>2012-05-07T16:12:41.735Z</time>
</trkpt>
<trkpt lat="46.2765791" lon="7.3776462">
<ele>1195.965</ele>
<time>2012-05-07T16:12:46.409Z</time>
</trkpt>
<trkpt lat="46.2764916" lon="7.3777524">
<ele>1197.489</ele>
<time>2012-05-07T16:12:51.639Z</time>
</trkpt>
<trkpt lat="46.2764036" lon="7.3778518">
<ele>1198.631</ele>
<time>2012-05-07T16:12:56.375Z</time>
</trkpt>
<trkpt lat="46.2763141" lon="7.3779541">
<ele>1199.433</ele>
<time>2012-05-07T16:13:00.944Z</time>
</trkpt>
<trkpt lat="46.2762291" lon="7.3780338">
<ele>1199.999</ele>
<time>2012-05-07T16:13:04.893Z</time>
</trkpt>
<trkpt lat="46.2761496" lon="7.3780967">
<ele>1200.377</ele>
<time>2012-05-07T16:13:08.395Z</time>
</trkpt>
<trkpt lat="46.2760516" lon="7.3781774">
<ele>1200.597</ele>
<time>2012-05-07T16:13:12.680Z</time>
</trkpt>
<trkpt lat="46.2759652" lon="7.3782861">
<ele>1200.655</ele>
<time>2012-05-07T16:13:16.948Z</time>
</trkpt>
<trkpt lat="46.2758934" lon="7.3784221">
<ele>1200.610</ele>
<time>2012-05-07T16:13:21.279Z</time>
</trkpt>
<trkpt lat="46.2758353" lon="7.3785592">
<ele>1200.509</ele>
<time>2012-05-07T16:13:25.275Z</time>
</trkpt>
<trkpt lat="46.2757869" lon="7.3787068">
<ele>1200.504</ele>
<time>2012-05-07T16:13:29.279Z</time>
</trkpt>
<trkpt lat="46.2757438" lon="7.3788628">
<ele>1200.708</ele>
<time>2012-05-07T16:13:33.357Z</time>
</trkpt>
<trkpt lat="46.2756990" lon="7.3789810">
<ele>1201.117</ele>
<time>2012-05-07T16:13:36.623Z</time>
</trkpt>
<trkpt lat="46.2756756" lon="7.3791245">
<ele>1201.628</ele>
<time>2012-05-07T16:13:40.237Z</time>
</trkpt>
<trkpt lat="46.2756444" lon="7.3792674">
<ele>1202.023</ele>
<time>2012-05-07T16:13:43.922Z</time>
</trkpt>
<trkpt lat="46.2756008" lon="7.3793880">
<ele>1202.175</ele>
<time>2012-05-07T16:13:47.233Z</time>
</trkpt>
<trkpt lat="46.2755498" lon="7.3795006">
<ele>1202.112</ele>
<time>2012-05-07T16:13:50.484Z</time>
</trkpt>
<trkpt lat="46.2755021" lon="7.3796362">
<ele>1201.903</ele>
<time>2012-05-07T16:13:54.162Z</time>
</trkpt>
<trkpt lat="46.2754809" lon="7.3797925">
<ele>1201.700</ele>
<time>2012-05-07T16:13:58.042Z</time>
</trkpt>
<trkpt lat="46.2754849" lon="7.3799551">
<ele>1201.606</ele>
<time>2012-05-07T16:14:02.005Z</time>
</trkpt>
<trkpt lat="46.2754796" lon="7.3801275">
<ele>1201.826</ele>
<time>2012-05-07T16:14:06.180Z</time>
</trkpt>
<trkpt lat="46.2754863" lon="7.3802629">
<ele>1202.524</ele>
<time>2012-05-07T16:14:09.445Z</time>
</trkpt>
<trkpt lat="46.2755132" lon="7.3804325">
<ele>1203.648</ele>
<time>2012-05-07T16:14:13.609Z</time>
</trkpt>
<trkpt lat="46.2755298" lon="7.3806051">
<ele>1204.918</ele>
<time>2012-05-07T16:14:17.766Z</time>
</trkpt>
<trkpt lat="46.2755373" lon="7.3807415">
<ele>1205.897</ele>
<time>2012-05-07T16:14:21.017Z</time>
</trkpt>
<trkpt lat="46.2755489" lon="7.3808750">
<ele>1206.461</ele>
<time>2012-05-07T16:14:24.186Z</time>
</trkpt>
<trkpt lat="46.2755568" lon="7.3810141">
<ele>1206.856</ele>
<time>2012-05-07T16:14:27.452Z</time>
</trkpt>
<trkpt lat="46.2755654" lon="7.3811775">
<ele>1207.130</ele>
<time>2012-05-07T16:14:31.278Z</time>
</trkpt>
<trkpt lat="46.2755794" lon="7.3813375">
<ele>1207.392</ele>
<time>2012-05-07T16:14:35.069Z</time>
</trkpt>
<trkpt lat="46.2755913" lon="7.3814732">
<ele>1207.774</ele>
<time>2012-05-07T16:14:38.280Z</time>
</trkpt>
<trkpt lat="46.2756014" lon="7.3816041">
<ele>1208.123</ele>
<time>2012-05-07T16:14:41.368Z</time>
</trkpt>
<trkpt lat="46.2756192" lon="7.3817493">
<ele>1208.369</ele>
<time>2012-05-07T16:14:44.838Z</time>
</trkpt>
<trkpt lat="46.2756314" lon="7.3818889">
<ele>1208.618</ele>
<time>2012-05-07T16:14:48.143Z</time>
</trkpt>
<trkpt lat="46.2756202" lon="7.3820545">
<ele>1209.000</ele>
<time>2012-05-07T16:14:52.055Z</time>
</trkpt>
<trkpt lat="46.2756236" lon="7.3822137">
<ele>1209.543</ele>
<time>2012-05-07T16:14:55.862Z</time>
</trkpt>
<trkpt lat="46.2756542" lon="7.3823393">
<ele>1210.020</ele>
<time>2012-05-07T16:14:59.084Z</time>
</trkpt>
<trkpt lat="46.2756944" lon="7.3824954">
<ele>1210.224</ele>
<time>2012-05-07T16:15:03.066Z</time>
</trkpt>
<trkpt lat="46.2757392" lon="7.3826576">
<ele>1210.325</ele>
<time>2012-05-07T16:15:07.180Z</time>
</trkpt>
<trkpt lat="46.2757740" lon="7.3827815">
<ele>1210.520</ele>
<time>2012-05-07T16:15:10.307Z</time>
</trkpt>
<trkpt lat="46.2758157" lon="7.3829409">
<ele>1210.982</ele>
<time>2012-05-07T16:15:14.275Z</time>
</trkpt>
<trkpt lat="46.2758488" lon="7.3830953">
<ele>1211.742</ele>
<time>2012-05-07T16:15:18.081Z</time>
</trkpt>
<trkpt lat="46.2758775" lon="7.3832312">
<ele>1212.547</ele>
<time>2012-05-07T16:15:21.531Z</time>
</trkpt>
<trkpt lat="46.2758997" lon="7.3833727">
<ele>1213.246</ele>
<time>2012-05-07T16:15:25.178Z</time>
</trkpt>
<trkpt lat="46.2759180" lon="7.3835165">
<ele>1213.934</ele>
<time>2012-05-07T16:15:28.935Z</time>
</trkpt>
<trkpt lat="46.2759245" lon="7.3836701">
<ele>1214.948</ele>
<time>2012-05-07T16:15:32.985Z</time>
</trkpt>
<trkpt lat="46.2759224" lon="7.3838265">
<ele>1216.437</ele>
<time>2012-05-07T16:15:37.245Z</time>
</trkpt>
<trkpt lat="46.2759232" lon="7.3839690">
<ele>1217.859</ele>
<time>2012-05-07T16:15:41.221Z</time>
</trkpt>
<trkpt lat="46.2759379" lon="7.3841179">
<ele>1218.746</ele>
<time>2012-05-07T16:15:45.467Z</time>
</trkpt>
<trkpt lat="46.2759675" lon="7.3842731">
<ele>1219.199</ele>
<time>2012-05-07T16:15:50.001Z</time>
</trkpt>
<trkpt lat="46.2760075" lon="7.3844020">
<ele>1219.357</ele>
<time>2012-05-07T16:15:53.986Z</time>
</trkpt>
<trkpt lat="46.2760579" lon="7.3845405">
<ele>1219.549</ele>
<time>2012-05-07T16:15:58.464Z</time>
</trkpt>
<trkpt lat="46.2761132" lon="7.3846440">
<ele>1220.150</ele>
<time>2012-05-07T16:16:02.285Z</time>
</trkpt>
<trkpt lat="46.2761682" lon="7.3847503">
<ele>1220.989</ele>
<time>2012-05-07T16:16:06.295Z</time>
</trkpt>
<trkpt lat="46.2762220" lon="7.3848703">
<ele>1221.577</ele>
<time>2012-05-07T16:16:10.820Z</time>
</trkpt>
<trkpt lat="46.2762852" lon="7.3850012">
<ele>1221.780</ele>
<time>2012-05-07T16:16:16.056Z</time>
</trkpt>
<trkpt lat="46.2763323" lon="7.3851125">
<ele>1221.938</ele>
<time>2012-05-07T16:16:20.385Z</time>
</trkpt>
<trkpt lat="46.2763925" lon="7.3852453">
<ele>1222.582</ele>
<time>2012-05-07T16:16:25.589Z</time>
</trkpt>
<trkpt lat="46.2764357" lon="7.3853737">
<ele>1223.788</ele>
<time>2012-05-07T16:16:30.194Z</time>
</trkpt>
<trkpt lat="46.2764655" lon="7.3855086">
<ele>1225.187</ele>
<time>2012-05-07T16:16:34.737Z</time>
</trkpt>
<trkpt lat="46.2764736" lon="7.3856465">
<ele>1226.401</ele>
<time>2012-05-07T16:16:39.208Z</time>
</trkpt>
<trkpt lat="46.2764914" lon="7.3857948">
<ele>1227.465</ele>
<time>2012-05-07T16:16:44.162Z</time>
</trkpt>
<trkpt lat="46.2765295" lon="7.3859350">
<ele>1228.541</ele>
<time>2012-05-07T16:16:49.267Z</time>
</trkpt>
<trkpt lat="46.2765732" lon="7.3860677">
<ele>1229.656</ele>
<time>2012-05-07T16:16:54.369Z</time>
</trkpt>
<trkpt lat="46.2766394" lon="7.3861905">
<ele>1230.906</ele>
<time>2012-05-07T16:16:59.785Z</time>
</trkpt>
<trkpt lat="46.2767034" lon="7.3863009">
<ele>1232.283</ele>
<time>2012-05-07T16:17:04.776Z</time>
</trkpt>
<trkpt lat="46.2767676" lon="7.3864167">
<ele>1233.450</ele>
<time>2012-05-07T16:17:09.879Z</time>
</trkpt>
<trkpt lat="46.2768357" lon="7.3865296">
<ele>1234.226</ele>
<time>2012-05-07T16:17:14.964Z</time>
</trkpt>
<trkpt lat="46.2769049" lon="7.3866391">
<ele>1234.590</ele>
<time>2012-05-07T16:17:19.965Z</time>
</trkpt>
<trkpt lat="46.2769694" lon="7.3867481">
<ele>1234.671</ele>
<time>2012-05-07T16:17:24.867Z</time>
</trkpt>
<trkpt lat="46.2770377" lon="7.3868736">
<ele>1234.736</ele>
<time>2012-05-07T16:17:30.402Z</time>
</trkpt>
<trkpt lat="46.2771063" lon="7.3869987">
<ele>1235.063</ele>
<time>2012-05-07T16:17:35.852Z</time>
</trkpt>
<trkpt lat="46.2771846" lon="7.3871020">
<ele>1235.788</ele>
<time>2012-05-07T16:17:40.910Z</time>
</trkpt>
<trkpt lat="46.2772429" lon="7.3872180">
<ele>1236.780</ele>
<time>2012-05-07T16:17:45.571Z</time>
</trkpt>
<trkpt lat="46.2773003" lon="7.3873277">
<ele>1237.694</ele>
<time>2012-05-07T16:17:50.115Z</time>
</trkpt>
<trkpt lat="46.2773703" lon="7.3874327">
<ele>1238.307</ele>
<time>2012-05-07T16:17:55.071Z</time>
</trkpt>
<trkpt lat="46.2774414" lon="7.3875490">
<ele>1238.765</ele>
<time>2012-05-07T16:18:00.471Z</time>
</trkpt>
<trkpt lat="46.2775055" lon="7.3876557">
<ele>1239.422</ele>
<time>2012-05-07T16:18:05.465Z</time>
</trkpt>
<trkpt lat="46.2775774" lon="7.3877520">
<ele>1240.291</ele>
<time>2012-05-07T16:18:10.573Z</time>
</trkpt>
<trkpt lat="46.2776421" lon="7.3878487">
<ele>1241.046</ele>
<time>2012-05-07T16:18:15.567Z</time>
</trkpt>
<trkpt lat="46.2777146" lon="7.3879287">
<ele>1241.754</ele>
<time>2012-05-07T16:18:20.629Z</time>
</trkpt>
<trkpt lat="46.2777872" lon="7.3880177">
<ele>1243.059</ele>
<time>2012-05-07T16:18:26.064Z</time>
</trkpt>
<trkpt lat="46.2778612" lon="7.3881295">
<ele>1245.280</ele>
<time>2012-05-07T16:18:32.067Z</time>
</trkpt>
<trkpt lat="46.2779295" lon="7.3882148">
<ele>1247.858</ele>
<time>2012-05-07T16:18:36.933Z</time>
</trkpt>
<trkpt lat="46.2780052" lon="7.3883211">
<ele>1249.886</ele>
<time>2012-05-07T16:18:42.602Z</time>
</trkpt>
<trkpt lat="46.2780738" lon="7.3884055">
<ele>1250.976</ele>
<time>2012-05-07T16:18:47.571Z</time>
</trkpt>
<trkpt lat="46.2781452" lon="7.3884931">
<ele>1251.385</ele>
<time>2012-05-07T16:18:52.942Z</time>
</trkpt>
<trkpt lat="46.2782244" lon="7.3885753">
<ele>1251.483</ele>
<time>2012-05-07T16:18:58.766Z</time>
</trkpt>
<trkpt lat="46.2783096" lon="7.3886717">
<ele>1251.470</ele>
<time>2012-05-07T16:19:05.396Z</time>
</trkpt>
<trkpt lat="46.2783885" lon="7.3887666">
<ele>1251.844</ele>
<time>2012-05-07T16:19:11.726Z</time>
</trkpt>
<trkpt lat="46.2784684" lon="7.3888536">
<ele>1252.987</ele>
<time>2012-05-07T16:19:17.882Z</time>
</trkpt>
<trkpt lat="46.2785404" lon="7.3889584">
<ele>1254.342</ele>
<time>2012-05-07T16:19:24.115Z</time>
</trkpt>
<trkpt lat="46.2786026" lon="7.3890563">
<ele>1255.269</ele>
<time>2012-05-07T16:19:29.870Z</time>
</trkpt>
<trkpt lat="46.2786862" lon="7.3891548">
<ele>1255.998</ele>
<time>2012-05-07T16:19:36.824Z</time>
</trkpt>
<trkpt lat="46.2787618" lon="7.3892463">
<ele>1256.959</ele>
<time>2012-05-07T16:19:43.155Z</time>
</trkpt>
<trkpt lat="46.2788312" lon="7.3893433">
<ele>1258.150</ele>
<time>2012-05-07T16:19:49.317Z</time>
</trkpt>
<trkpt lat="46.2789025" lon="7.3894494">
<ele>1259.378</ele>
<time>2012-05-07T16:19:55.790Z</time>
</trkpt>
<trkpt lat="46.2789733" lon="7.3895528">
<ele>1260.489</ele>
<time>2012-05-07T16:20:01.925Z</time>
</trkpt>
<trkpt lat="46.2790393" lon="7.3896442">
<ele>1261.579</ele>
<time>2012-05-07T16:20:07.308Z</time>
</trkpt>
<trkpt lat="46.2791056" lon="7.3897351">
<ele>1262.883</ele>
<time>2012-05-07T16:20:12.557Z</time>
</trkpt>
<trkpt lat="46.2791803" lon="7.3898361">
<ele>1264.382</ele>
<time>2012-05-07T16:20:18.354Z</time>
</trkpt>
<trkpt lat="46.2792552" lon="7.3899396">
<ele>1265.786</ele>
<time>2012-05-07T16:20:24.203Z</time>
</trkpt>
<trkpt lat="46.2793397" lon="7.3900289">
<ele>1266.825</ele>
<time>2012-05-07T16:20:30.059Z</time>
</trkpt>
<trkpt lat="46.2794237" lon="7.3901144">
<ele>1267.377</ele>
<time>2012-05-07T16:20:35.716Z</time>
</trkpt>
<trkpt lat="46.2795031" lon="7.3901888">
<ele>1267.640</ele>
<time>2012-05-07T16:20:40.863Z</time>
</trkpt>
<trkpt lat="46.2796010" lon="7.3902230">
<ele>1267.857</ele>
<time>2012-05-07T16:20:46.295Z</time>
</trkpt>
<trkpt lat="46.2797055" lon="7.3902217">
<ele>1268.215</ele>
<time>2012-05-07T16:20:51.879Z</time>
</trkpt>
<trkpt lat="46.2798066" lon="7.3901861">
<ele>1268.892</ele>
<time>2012-05-07T16:20:57.443Z</time>
</trkpt>
<trkpt lat="46.2798983" lon="7.3901245">
<ele>1269.965</ele>
<time>2012-05-07T16:21:02.903Z</time>
</trkpt>
<trkpt lat="46.2799835" lon="7.3900494">
<ele>1271.309</ele>
<time>2012-05-07T16:21:08.311Z</time>
</trkpt>
<trkpt lat="46.2800567" lon="7.3899657">
<ele>1272.534</ele>
<time>2012-05-07T16:21:13.354Z</time>
</trkpt>
<trkpt lat="46.2801041" lon="7.3898519">
<ele>1273.364</ele>
<time>2012-05-07T16:21:18.336Z</time>
</trkpt>
<trkpt lat="46.2801460" lon="7.3897152">
<ele>1273.905</ele>
<time>2012-05-07T16:21:24.065Z</time>
</trkpt>
<trkpt lat="46.2801714" lon="7.3895852">
<ele>1274.328</ele>
<time>2012-05-07T16:21:29.463Z</time>
</trkpt>
<trkpt lat="46.2801952" lon="7.3894460">
<ele>1274.672</ele>
<time>2012-05-07T16:21:35.426Z</time>
</trkpt>
<trkpt lat="46.2802039" lon="7.3892941">
<ele>1274.896</ele>
<time>2012-05-07T16:21:41.810Z</time>
</trkpt>
<trkpt lat="46.2801795" lon="7.3891466">
<ele>1274.942</ele>
<time>2012-05-07T16:21:48.054Z</time>
</trkpt>
<trkpt lat="46.2801586" lon="7.3889972">
<ele>1274.955</ele>
<time>2012-05-07T16:21:54.197Z</time>
</trkpt>
<trkpt lat="46.2801531" lon="7.3888437">
<ele>1275.080</ele>
<time>2012-05-07T16:22:00.279Z</time>
</trkpt>
<trkpt lat="46.2801499" lon="7.3886947">
<ele>1275.403</ele>
<time>2012-05-07T16:22:06.042Z</time>
</trkpt>
<trkpt lat="46.2801462" lon="7.3885486">
<ele>1276.068</ele>
<time>2012-05-07T16:22:11.390Z</time>
</trkpt>
<trkpt lat="46.2801334" lon="7.3884021">
<ele>1277.101</ele>
<time>2012-05-07T16:22:16.519Z</time>
</trkpt>
<trkpt lat="46.2801472" lon="7.3882451">
<ele>1278.271</ele>
<time>2012-05-07T16:22:21.839Z</time>
</trkpt>
<trkpt lat="46.2801576" lon="7.3881038">
<ele>1279.267</ele>
<time>2012-05-07T16:22:26.573Z</time>
</trkpt>
<trkpt lat="46.2801702" lon="7.3879634">
<ele>1280.027</ele>
<time>2012-05-07T16:22:31.307Z</time>
</trkpt>
<trkpt lat="46.2802012" lon="7.3878262">
<ele>1280.821</ele>
<time>2012-05-07T16:22:36.148Z</time>
</trkpt>
<trkpt lat="46.2802415" lon="7.3876869">
<ele>1281.768</ele>
<time>2012-05-07T16:22:41.222Z</time>
</trkpt>
<trkpt lat="46.2802823" lon="7.3875521">
<ele>1282.798</ele>
<time>2012-05-07T16:22:46.152Z</time>
</trkpt>
<trkpt lat="46.2803182" lon="7.3874320">
<ele>1283.866</ele>
<time>2012-05-07T16:22:50.488Z</time>
</trkpt>
<trkpt lat="46.2803495" lon="7.3872962">
<ele>1284.801</ele>
<time>2012-05-07T16:22:55.237Z</time>
</trkpt>
<trkpt lat="46.2803970" lon="7.3871726">
<ele>1285.496</ele>
<time>2012-05-07T16:22:59.979Z</time>
</trkpt>
<trkpt lat="46.2804201" lon="7.3870186">
<ele>1286.287</ele>
<time>2012-05-07T16:23:05.300Z</time>
</trkpt>
<trkpt lat="46.2804118" lon="7.3868644">
<ele>1287.416</ele>
<time>2012-05-07T16:23:10.499Z</time>
</trkpt>
<trkpt lat="46.2804017" lon="7.3867167">
<ele>1288.758</ele>
<time>2012-05-07T16:23:15.426Z</time>
</trkpt>
<trkpt lat="46.2803719" lon="7.3865641">
<ele>1290.025</ele>
<time>2012-05-07T16:23:20.637Z</time>
</trkpt>
<trkpt lat="46.2803419" lon="7.3864219">
<ele>1290.986</ele>
<time>2012-05-07T16:23:25.482Z</time>
</trkpt>
<trkpt lat="46.2803062" lon="7.3863020">
<ele>1291.602</ele>
<time>2012-05-07T16:23:29.706Z</time>
</trkpt>
<trkpt lat="46.2802665" lon="7.3861853">
<ele>1291.964</ele>
<time>2012-05-07T16:23:33.875Z</time>
</trkpt>
<trkpt lat="46.2802107" lon="7.3860499">
<ele>1292.157</ele>
<time>2012-05-07T16:23:38.910Z</time>
</trkpt>
<trkpt lat="46.2801730" lon="7.3859146">
<ele>1292.499</ele>
<time>2012-05-07T16:23:43.590Z</time>
</trkpt>
<trkpt lat="46.2801373" lon="7.3857620">
<ele>1293.183</ele>
<time>2012-05-07T16:23:48.777Z</time>
</trkpt>
<trkpt lat="46.2800951" lon="7.3856223">
<ele>1294.043</ele>
<time>2012-05-07T16:23:53.694Z</time>
</trkpt>
<trkpt lat="46.2800551" lon="7.3854788">
<ele>1294.807</ele>
<time>2012-05-07T16:23:58.684Z</time>
</trkpt>
<trkpt lat="46.2800204" lon="7.3853369">
<ele>1295.423</ele>
<time>2012-05-07T16:24:03.531Z</time>
</trkpt>
<trkpt lat="46.2799827" lon="7.3851936">
<ele>1296.131</ele>
<time>2012-05-07T16:24:08.454Z</time>
</trkpt>
<trkpt lat="46.2799558" lon="7.3850490">
<ele>1297.179</ele>
<time>2012-05-07T16:24:13.260Z</time>
</trkpt>
<trkpt lat="46.2799278" lon="7.3849035">
<ele>1298.394</ele>
<time>2012-05-07T16:24:18.113Z</time>
</trkpt>
<trkpt lat="46.2799080" lon="7.3847552">
<ele>1299.434</ele>
<time>2012-05-07T16:24:22.972Z</time>
</trkpt>
<trkpt lat="46.2798903" lon="7.3846086">
<ele>1300.216</ele>
<time>2012-05-07T16:24:27.775Z</time>
</trkpt>
<trkpt lat="46.2798778" lon="7.3844584">
<ele>1300.877</ele>
<time>2012-05-07T16:24:32.663Z</time>
</trkpt>
<trkpt lat="46.2798598" lon="7.3843131">
<ele>1301.522</ele>
<time>2012-05-07T16:24:37.439Z</time>
</trkpt>
<trkpt lat="46.2798463" lon="7.3841647">
<ele>1302.183</ele>
<time>2012-05-07T16:24:42.283Z</time>
</trkpt>
<trkpt lat="46.2798440" lon="7.3840155">
<ele>1302.835</ele>
<time>2012-05-07T16:24:47.116Z</time>
</trkpt>
<trkpt lat="46.2798337" lon="7.3838660">
<ele>1303.531</ele>
<time>2012-05-07T16:24:52.007Z</time>
</trkpt>
<trkpt lat="46.2798255" lon="7.3837189">
<ele>1304.255</ele>
<time>2012-05-07T16:24:56.838Z</time>
</trkpt>
<trkpt lat="46.2798267" lon="7.3835676">
<ele>1304.895</ele>
<time>2012-05-07T16:25:01.799Z</time>
</trkpt>
<trkpt lat="46.2798468" lon="7.3834177">
<ele>1305.638</ele>
<time>2012-05-07T16:25:06.790Z</time>
</trkpt>
<trkpt lat="46.2798819" lon="7.3832701">
<ele>1306.641</ele>
<time>2012-05-07T16:25:11.865Z</time>
</trkpt>
<trkpt lat="46.2799219" lon="7.3831296">
<ele>1307.662</ele>
<time>2012-05-07T16:25:16.801Z</time>
</trkpt>
<trkpt lat="46.2799685" lon="7.3830040">
<ele>1308.487</ele>
<time>2012-05-07T16:25:21.490Z</time>
</trkpt>
<trkpt lat="46.2800089" lon="7.3828837">
<ele>1309.130</ele>
<time>2012-05-07T16:25:25.988Z</time>
</trkpt>
<trkpt lat="46.2800328" lon="7.3827533">
<ele>1309.851</ele>
<time>2012-05-07T16:25:30.533Z</time>
</trkpt>
<trkpt lat="46.2800577" lon="7.3826257">
<ele>1311.343</ele>
<time>2012-05-07T16:25:34.948Z</time>
</trkpt>
<trkpt lat="46.2800868" lon="7.3825015">
<ele>1313.571</ele>
<time>2012-05-07T16:25:39.324Z</time>
</trkpt>
<trkpt lat="46.2801420" lon="7.3823856">
<ele>1315.650</ele>
<time>2012-05-07T16:25:44.128Z</time>
</trkpt>
<trkpt lat="46.2802117" lon="7.3822930">
<ele>1317.132</ele>
<time>2012-05-07T16:25:48.915Z</time>
</trkpt>
<trkpt lat="46.2803026" lon="7.3822338">
<ele>1318.151</ele>
<time>2012-05-07T16:25:53.976Z</time>
</trkpt>
<trkpt lat="46.2803919" lon="7.3821970">
<ele>1318.745</ele>
<time>2012-05-07T16:25:58.638Z</time>
</trkpt>
<trkpt lat="46.2804986" lon="7.3821839">
<ele>1319.327</ele>
<time>2012-05-07T16:26:03.957Z</time>
</trkpt>
<trkpt lat="46.2805979" lon="7.3821889">
<ele>1320.349</ele>
<time>2012-05-07T16:26:08.862Z</time>
</trkpt>
<trkpt lat="46.2806976" lon="7.3822065">
<ele>1321.917</ele>
<time>2012-05-07T16:26:13.806Z</time>
</trkpt>
<trkpt lat="46.2807918" lon="7.3822322">
<ele>1324.001</ele>
<time>2012-05-07T16:26:18.544Z</time>
</trkpt>
<trkpt lat="46.2808944" lon="7.3822571">
<ele>1326.220</ele>
<time>2012-05-07T16:26:23.698Z</time>
</trkpt>
<trkpt lat="46.2809987" lon="7.3822793">
<ele>1327.777</ele>
<time>2012-05-07T16:26:29.008Z</time>
</trkpt>
<trkpt lat="46.2811059" lon="7.3822750">
<ele>1328.424</ele>
<time>2012-05-07T16:26:34.678Z</time>
</trkpt>
<trkpt lat="46.2812109" lon="7.3822612">
<ele>1328.605</ele>
<time>2012-05-07T16:26:40.519Z</time>
</trkpt>
<trkpt lat="46.2812990" lon="7.3822144">
<ele>1328.805</ele>
<time>2012-05-07T16:26:45.954Z</time>
</trkpt>
<trkpt lat="46.2813873" lon="7.3821487">
<ele>1329.312</ele>
<time>2012-05-07T16:26:51.870Z</time>
</trkpt>
<trkpt lat="46.2814789" lon="7.3820703">
<ele>1330.324</ele>
<time>2012-05-07T16:26:58.299Z</time>
</trkpt>
<trkpt lat="46.2815543" lon="7.3819908">
<ele>1331.617</ele>
<time>2012-05-07T16:27:03.944Z</time>
</trkpt>
<trkpt lat="46.2816412" lon="7.3819017">
<ele>1332.760</ele>
<time>2012-05-07T16:27:10.271Z</time>
</trkpt>
<trkpt lat="46.2817209" lon="7.3818334">
<ele>1333.637</ele>
<time>2012-05-07T16:27:15.677Z</time>
</trkpt>
<trkpt lat="46.2818068" lon="7.3817667">
<ele>1334.327</ele>
<time>2012-05-07T16:27:21.312Z</time>
</trkpt>
<trkpt lat="46.2818619" lon="7.3816611">
<ele>1334.990</ele>
<time>2012-05-07T16:27:26.598Z</time>
</trkpt>
<trkpt lat="46.2819064" lon="7.3815240">
<ele>1335.732</ele>
<time>2012-05-07T16:27:32.611Z</time>
</trkpt>
<trkpt lat="46.2819331" lon="7.3813998">
<ele>1336.537</ele>
<time>2012-05-07T16:27:37.765Z</time>
</trkpt>
<trkpt lat="46.2819348" lon="7.3812592">
<ele>1337.372</ele>
<time>2012-05-07T16:27:43.414Z</time>
</trkpt>
<trkpt lat="46.2819288" lon="7.3811150">
<ele>1338.075</ele>
<time>2012-05-07T16:27:49.230Z</time>
</trkpt>
<trkpt lat="46.2819237" lon="7.3809749">
<ele>1338.627</ele>
<time>2012-05-07T16:27:54.767Z</time>
</trkpt>
<trkpt lat="46.2819363" lon="7.3808305">
<ele>1339.124</ele>
<time>2012-05-07T16:28:00.514Z</time>
</trkpt>
<trkpt lat="46.2819361" lon="7.3806833">
<ele>1339.474</ele>
<time>2012-05-07T16:28:06.408Z</time>
</trkpt>
<trkpt lat="46.2819432" lon="7.3805317">
<ele>1339.661</ele>
<time>2012-05-07T16:28:12.620Z</time>
</trkpt>
<trkpt lat="46.2819402" lon="7.3803824">
<ele>1339.797</ele>
<time>2012-05-07T16:28:19.092Z</time>
</trkpt>
<trkpt lat="46.2820277" lon="7.3803474">
<ele>1340.031</ele>
<time>2012-05-07T16:28:25.431Z</time>
</trkpt>
<trkpt lat="46.2820265" lon="7.3804824">
<ele>1340.600</ele>
<time>2012-05-07T16:28:32.328Z</time>
</trkpt>
<trkpt lat="46.2820163" lon="7.3806384">
<ele>1342.101</ele>
<time>2012-05-07T16:28:39.383Z</time>
</trkpt>
<trkpt lat="46.2820225" lon="7.3807872">
<ele>1344.516</ele>
<time>2012-05-07T16:28:45.581Z</time>
</trkpt>
<trkpt lat="46.2820234" lon="7.3809237">
<ele>1346.628</ele>
<time>2012-05-07T16:28:51.177Z</time>
</trkpt>
<trkpt lat="46.2820369" lon="7.3810617">
<ele>1347.890</ele>
<time>2012-05-07T16:28:56.962Z</time>
</trkpt>
<trkpt lat="46.2820855" lon="7.3811773">
<ele>1348.998</ele>
<time>2012-05-07T16:29:02.719Z</time>
</trkpt>
<trkpt lat="46.2820855" lon="7.3811773">
<ele>1350.089</ele>
<time>2012-05-07T16:29:12.708Z</time>
</trkpt>
<trkpt lat="46.2820855" lon="7.3811773">
<ele>1350.594</ele>
<time>2012-05-07T16:31:06.717Z</time>
</trkpt>
<trkpt lat="46.2822407" lon="7.3813422">
<ele>1350.875</ele>
<time>2012-05-07T16:31:06.717Z</time>
</trkpt>
<trkpt lat="46.2822939" lon="7.3814689">
<ele>1351.745</ele>
<time>2012-05-07T16:31:15.604Z</time>
</trkpt>
<trkpt lat="46.2823373" lon="7.3815993">
<ele>1353.332</ele>
<time>2012-05-07T16:31:22.329Z</time>
</trkpt>
<trkpt lat="46.2823766" lon="7.3817209">
<ele>1355.285</ele>
<time>2012-05-07T16:31:27.870Z</time>
</trkpt>
<trkpt lat="46.2824231" lon="7.3818343">
<ele>1357.000</ele>
<time>2012-05-07T16:31:33.117Z</time>
</trkpt>
<trkpt lat="46.2824662" lon="7.3819625">
<ele>1358.545</ele>
<time>2012-05-07T16:31:38.713Z</time>
</trkpt>
<trkpt lat="46.2825018" lon="7.3820934">
<ele>1360.685</ele>
<time>2012-05-07T16:31:44.153Z</time>
</trkpt>
<trkpt lat="46.2825394" lon="7.3822173">
<ele>1363.015</ele>
<time>2012-05-07T16:31:49.350Z</time>
</trkpt>
<trkpt lat="46.2825780" lon="7.3823368">
<ele>1364.742</ele>
<time>2012-05-07T16:31:54.403Z</time>
</trkpt>
<trkpt lat="46.2826203" lon="7.3824611">
<ele>1365.926</ele>
<time>2012-05-07T16:31:59.704Z</time>
</trkpt>
<trkpt lat="46.2826644" lon="7.3825988">
<ele>1366.710</ele>
<time>2012-05-07T16:32:05.595Z</time>
</trkpt>
<trkpt lat="46.2827004" lon="7.3827371">
<ele>1367.180</ele>
<time>2012-05-07T16:32:11.400Z</time>
</trkpt>
<trkpt lat="46.2827362" lon="7.3828662">
<ele>1367.509</ele>
<time>2012-05-07T16:32:16.935Z</time>
</trkpt>
<trkpt lat="46.2827770" lon="7.3830036">
<ele>1367.942</ele>
<time>2012-05-07T16:32:22.907Z</time>
</trkpt>
<trkpt lat="46.2828165" lon="7.3831382">
<ele>1368.903</ele>
<time>2012-05-07T16:32:28.711Z</time>
</trkpt>
<trkpt lat="46.2828628" lon="7.3832521">
<ele>1370.355</ele>
<time>2012-05-07T16:32:33.922Z</time>
</trkpt>
<trkpt lat="46.2829112" lon="7.3833643">
<ele>1371.581</ele>
<time>2012-05-07T16:32:39.145Z</time>
</trkpt>
<trkpt lat="46.2829638" lon="7.3834993">
<ele>1372.180</ele>
<time>2012-05-07T16:32:45.239Z</time>
</trkpt>
<trkpt lat="46.2830110" lon="7.3836316">
<ele>1372.714</ele>
<time>2012-05-07T16:32:51.041Z</time>
</trkpt>
<trkpt lat="46.2830613" lon="7.3837503">
<ele>1373.727</ele>
<time>2012-05-07T16:32:56.413Z</time>
</trkpt>
<trkpt lat="46.2831131" lon="7.3838715">
<ele>1374.857</ele>
<time>2012-05-07T16:33:01.923Z</time>
</trkpt>
<trkpt lat="46.2831682" lon="7.3839889">
<ele>1375.622</ele>
<time>2012-05-07T16:33:07.493Z</time>
</trkpt>
<trkpt lat="46.2832129" lon="7.3841027">
<ele>1376.139</ele>
<time>2012-05-07T16:33:12.726Z</time>
</trkpt>
<trkpt lat="46.2832595" lon="7.3842266">
<ele>1376.704</ele>
<time>2012-05-07T16:33:18.399Z</time>
</trkpt>
<trkpt lat="46.2833130" lon="7.3843430">
<ele>1377.459</ele>
<time>2012-05-07T16:33:23.962Z</time>
</trkpt>
<trkpt lat="46.2833702" lon="7.3844525">
<ele>1378.679</ele>
<time>2012-05-07T16:33:29.337Z</time>
</trkpt>
<trkpt lat="46.2834313" lon="7.3845603">
<ele>1380.599</ele>
<time>2012-05-07T16:33:34.800Z</time>
</trkpt>
<trkpt lat="46.2835012" lon="7.3846662">
<ele>1382.740</ele>
<time>2012-05-07T16:33:40.663Z</time>
</trkpt>
<trkpt lat="46.2835536" lon="7.3847926">
<ele>1384.277</ele>
<time>2012-05-07T16:33:46.603Z</time>
</trkpt>
<trkpt lat="46.2836201" lon="7.3848955">
<ele>1385.243</ele>
<time>2012-05-07T16:33:52.165Z</time>
</trkpt>
<trkpt lat="46.2836920" lon="7.3850028">
<ele>1386.050</ele>
<time>2012-05-07T16:33:57.948Z</time>
</trkpt>
<trkpt lat="46.2837570" lon="7.3851001">
<ele>1386.764</ele>
<time>2012-05-07T16:34:03.147Z</time>
</trkpt>
<trkpt lat="46.2838311" lon="7.3851913">
<ele>1387.318</ele>
<time>2012-05-07T16:34:08.610Z</time>
</trkpt>
<trkpt lat="46.2839076" lon="7.3852785">
<ele>1387.904</ele>
<time>2012-05-07T16:34:14.085Z</time>
</trkpt>
<trkpt lat="46.2839821" lon="7.3853698">
<ele>1388.893</ele>
<time>2012-05-07T16:34:19.553Z</time>
</trkpt>
<trkpt lat="46.2840614" lon="7.3854509">
<ele>1390.324</ele>
<time>2012-05-07T16:34:25.000Z</time>
</trkpt>
<trkpt lat="46.2841315" lon="7.3855328">
<ele>1391.638</ele>
<time>2012-05-07T16:34:30.071Z</time>
</trkpt>
<trkpt lat="46.2842018" lon="7.3856188">
<ele>1392.533</ele>
<time>2012-05-07T16:34:35.202Z</time>
</trkpt>
<trkpt lat="46.2842774" lon="7.3857103">
<ele>1393.313</ele>
<time>2012-05-07T16:34:40.607Z</time>
</trkpt>
<trkpt lat="46.2843427" lon="7.3858015">
<ele>1394.128</ele>
<time>2012-05-07T16:34:45.512Z</time>
</trkpt>
<trkpt lat="46.2844154" lon="7.3858781">
<ele>1394.769</ele>
<time>2012-05-07T16:34:50.297Z</time>
</trkpt>
<trkpt lat="46.2844979" lon="7.3859577">
<ele>1395.284</ele>
<time>2012-05-07T16:34:55.550Z</time>
</trkpt>
<trkpt lat="46.2845715" lon="7.3860473">
<ele>1396.085</ele>
<time>2012-05-07T16:35:00.738Z</time>
</trkpt>
<trkpt lat="46.2846525" lon="7.3861345">
<ele>1397.152</ele>
<time>2012-05-07T16:35:06.362Z</time>
</trkpt>
<trkpt lat="46.2847225" lon="7.3862510">
<ele>1398.106</ele>
<time>2012-05-07T16:35:12.584Z</time>
</trkpt>
<trkpt lat="46.2847852" lon="7.3863569">
<ele>1399.371</ele>
<time>2012-05-07T16:35:18.426Z</time>
</trkpt>
<trkpt lat="46.2848486" lon="7.3864713">
<ele>1401.561</ele>
<time>2012-05-07T16:35:24.528Z</time>
</trkpt>
<trkpt lat="46.2849132" lon="7.3865881">
<ele>1404.273</ele>
<time>2012-05-07T16:35:30.639Z</time>
</trkpt>
<trkpt lat="46.2849710" lon="7.3866938">
<ele>1407.354</ele>
<time>2012-05-07T16:35:36.120Z</time>
</trkpt>
<trkpt lat="46.2850375" lon="7.3867972">
<ele>1410.872</ele>
<time>2012-05-07T16:35:41.864Z</time>
</trkpt>
<trkpt lat="46.2850878" lon="7.3869057">
<ele>1414.197</ele>
<time>2012-05-07T16:35:47.324Z</time>
</trkpt>
<trkpt lat="46.2851417" lon="7.3870140">
<ele>1416.896</ele>
<time>2012-05-07T16:35:52.937Z</time>
</trkpt>
<trkpt lat="46.2851996" lon="7.3871395">
<ele>1418.943</ele>
<time>2012-05-07T16:35:59.149Z</time>
</trkpt>
<trkpt lat="46.2852617" lon="7.3872469">
<ele>1420.462</ele>
<time>2012-05-07T16:36:04.832Z</time>
</trkpt>
<trkpt lat="46.2853346" lon="7.3873610">
<ele>1421.932</ele>
<time>2012-05-07T16:36:11.084Z</time>
</trkpt>
<trkpt lat="46.2853881" lon="7.3874951">
<ele>1423.851</ele>
<time>2012-05-07T16:36:17.183Z</time>
</trkpt>
<trkpt lat="46.2854435" lon="7.3876238">
<ele>1426.302</ele>
<time>2012-05-07T16:36:23.028Z</time>
</trkpt>
<trkpt lat="46.2855114" lon="7.3877443">
<ele>1428.873</ele>
<time>2012-05-07T16:36:28.969Z</time>
</trkpt>
<trkpt lat="46.2855732" lon="7.3878472">
<ele>1431.050</ele>
<time>2012-05-07T16:36:34.156Z</time>
</trkpt>
<trkpt lat="46.2856332" lon="7.3879658">
<ele>1432.518</ele>
<time>2012-05-07T16:36:39.633Z</time>
</trkpt>
<trkpt lat="46.2856965" lon="7.3880596">
<ele>1433.203</ele>
<time>2012-05-07T16:36:44.433Z</time>
</trkpt>
<trkpt lat="46.2857613" lon="7.3881809">
<ele>1433.602</ele>
<time>2012-05-07T16:36:50.054Z</time>
</trkpt>
<trkpt lat="46.2858199" lon="7.3882969">
<ele>1434.100</ele>
<time>2012-05-07T16:36:55.401Z</time>
</trkpt>
<trkpt lat="46.2858951" lon="7.3883978">
<ele>1434.548</ele>
<time>2012-05-07T16:37:01.004Z</time>
</trkpt>
<trkpt lat="46.2859545" lon="7.3884984">
<ele>1434.750</ele>
<time>2012-05-07T16:37:06.036Z</time>
</trkpt>
<trkpt lat="46.2860109" lon="7.3886191">
<ele>1434.774</ele>
<time>2012-05-07T16:37:11.541Z</time>
</trkpt>
<trkpt lat="46.2860603" lon="7.3887324">
<ele>1434.933</ele>
<time>2012-05-07T16:37:16.560Z</time>
</trkpt>
<trkpt lat="46.2861205" lon="7.3888341">
<ele>1435.573</ele>
<time>2012-05-07T16:37:21.544Z</time>
</trkpt>
<trkpt lat="46.2861692" lon="7.3889444">
<ele>1436.500</ele>
<time>2012-05-07T16:37:26.383Z</time>
</trkpt>
<trkpt lat="46.2862166" lon="7.3890722">
<ele>1437.140</ele>
<time>2012-05-07T16:37:31.762Z</time>
</trkpt>
<trkpt lat="46.2862818" lon="7.3891921">
<ele>1437.298</ele>
<time>2012-05-07T16:37:37.507Z</time>
</trkpt>
<trkpt lat="46.2863438" lon="7.3893035">
<ele>1437.202</ele>
<time>2012-05-07T16:37:43.013Z</time>
</trkpt>
<trkpt lat="46.2864191" lon="7.3893928">
<ele>1437.117</ele>
<time>2012-05-07T16:37:48.581Z</time>
</trkpt>
<trkpt lat="46.2864871" lon="7.3894983">
<ele>1437.140</ele>
<time>2012-05-07T16:37:54.388Z</time>
</trkpt>
<trkpt lat="46.2865403" lon="7.3896126">
<ele>1437.182</ele>
<time>2012-05-07T16:37:59.777Z</time>
</trkpt>
<trkpt lat="46.2866122" lon="7.3897065">
<ele>1437.147</ele>
<time>2012-05-07T16:38:05.153Z</time>
</trkpt>
<trkpt lat="46.2866906" lon="7.3897874">
<ele>1437.059</ele>
<time>2012-05-07T16:38:10.534Z</time>
</trkpt>
<trkpt lat="46.2867526" lon="7.3898903">
<ele>1436.656</ele>
<time>2012-05-07T16:38:15.897Z</time>
</trkpt>
<trkpt lat="46.2868304" lon="7.3899927">
<ele>1435.721</ele>
<time>2012-05-07T16:38:22.069Z</time>
</trkpt>
<trkpt lat="46.2868996" lon="7.3900769">
<ele>1434.712</ele>
<time>2012-05-07T16:38:27.443Z</time>
</trkpt>
<trkpt lat="46.2869821" lon="7.3901663">
<ele>1434.169</ele>
<time>2012-05-07T16:38:33.510Z</time>
</trkpt>
<trkpt lat="46.2870592" lon="7.3902524">
<ele>1434.109</ele>
<time>2012-05-07T16:38:39.131Z</time>
</trkpt>
<trkpt lat="46.2871370" lon="7.3903372">
<ele>1434.634</ele>
<time>2012-05-07T16:38:44.768Z</time>
</trkpt>
<trkpt lat="46.2872170" lon="7.3904011">
<ele>1435.949</ele>
<time>2012-05-07T16:38:50.109Z</time>
</trkpt>
<trkpt lat="46.2873066" lon="7.3904875">
<ele>1437.895</ele>
<time>2012-05-07T16:38:56.453Z</time>
</trkpt>
<trkpt lat="46.2873747" lon="7.3905737">
<ele>1440.395</ele>
<time>2012-05-07T16:39:01.782Z</time>
</trkpt>
<trkpt lat="46.2874499" lon="7.3906877">
<ele>1443.580</ele>
<time>2012-05-07T16:39:08.086Z</time>
</trkpt>
<trkpt lat="46.2875130" lon="7.3907809">
<ele>1447.506</ele>
<time>2012-05-07T16:39:13.199Z</time>
</trkpt>
<trkpt lat="46.2875897" lon="7.3908699">
<ele>1451.748</ele>
<time>2012-05-07T16:39:18.720Z</time>
</trkpt>
<trkpt lat="46.2876644" lon="7.3909432">
<ele>1455.224</ele>
<time>2012-05-07T16:39:23.814Z</time>
</trkpt>
<trkpt lat="46.2877442" lon="7.3910131">
<ele>1457.214</ele>
<time>2012-05-07T16:39:29.120Z</time>
</trkpt>
<trkpt lat="46.2878492" lon="7.3910434">
<ele>1458.019</ele>
<time>2012-05-07T16:39:35.439Z</time>
</trkpt>
<trkpt lat="46.2879271" lon="7.3909711">
<ele>1458.147</ele>
<time>2012-05-07T16:39:41.118Z</time>
</trkpt>
<trkpt lat="46.2879478" lon="7.3908440">
<ele>1457.924</ele>
<time>2012-05-07T16:39:46.675Z</time>
</trkpt>
<trkpt lat="46.2879062" lon="7.3906959">
<ele>1456.656</ele>
<time>2012-05-07T16:39:53.595Z</time>
</trkpt>
<trkpt lat="46.2878474" lon="7.3905636">
<ele>1453.945</ele>
<time>2012-05-07T16:40:00.364Z</time>
</trkpt>
<trkpt lat="46.2877995" lon="7.3904322">
<ele>1450.767</ele>
<time>2012-05-07T16:40:06.337Z</time>
</trkpt>
<trkpt lat="46.2877598" lon="7.3903084">
<ele>1448.195</ele>
<time>2012-05-07T16:40:11.740Z</time>
</trkpt>
<trkpt lat="46.2877204" lon="7.3901775">
<ele>1446.676</ele>
<time>2012-05-07T16:40:17.416Z</time>
</trkpt>
<trkpt lat="46.2876792" lon="7.3900509">
<ele>1446.256</ele>
<time>2012-05-07T16:40:22.942Z</time>
</trkpt>
<trkpt lat="46.2876422" lon="7.3899180">
<ele>1446.374</ele>
<time>2012-05-07T16:40:28.581Z</time>
</trkpt>
<trkpt lat="46.2875970" lon="7.3897794">
<ele>1446.585</ele>
<time>2012-05-07T16:40:34.679Z</time>
</trkpt>
<trkpt lat="46.2875550" lon="7.3896421">
<ele>1447.096</ele>
<time>2012-05-07T16:40:40.854Z</time>
</trkpt>
<trkpt lat="46.2875238" lon="7.3894974">
<ele>1448.473</ele>
<time>2012-05-07T16:40:47.439Z</time>
</trkpt>
<trkpt lat="46.2874766" lon="7.3893535">
<ele>1450.437</ele>
<time>2012-05-07T16:40:54.306Z</time>
</trkpt>
<trkpt lat="46.2874535" lon="7.3892179">
<ele>1452.476</ele>
<time>2012-05-07T16:41:00.142Z</time>
</trkpt>
<trkpt lat="46.2874111" lon="7.3890863">
<ele>1454.433</ele>
<time>2012-05-07T16:41:06.001Z</time>
</trkpt>
<trkpt lat="46.2873804" lon="7.3889631">
<ele>1455.817</ele>
<time>2012-05-07T16:41:11.130Z</time>
</trkpt>
<trkpt lat="46.2873502" lon="7.3888255">
<ele>1456.532</ele>
<time>2012-05-07T16:41:16.701Z</time>
</trkpt>
<trkpt lat="46.2873227" lon="7.3886931">
<ele>1457.104</ele>
<time>2012-05-07T16:41:21.971Z</time>
</trkpt>
<trkpt lat="46.2872975" lon="7.3885637">
<ele>1457.563</ele>
<time>2012-05-07T16:41:27.073Z</time>
</trkpt>
<trkpt lat="46.2872687" lon="7.3884347">
<ele>1457.611</ele>
<time>2012-05-07T16:41:32.193Z</time>
</trkpt>
<trkpt lat="46.2872425" lon="7.3883096">
<ele>1457.402</ele>
<time>2012-05-07T16:41:37.083Z</time>
</trkpt>
<trkpt lat="46.2872176" lon="7.3881843">
<ele>1457.396</ele>
<time>2012-05-07T16:41:41.892Z</time>
</trkpt>
<trkpt lat="46.2871990" lon="7.3880534">
<ele>1457.736</ele>
<time>2012-05-07T16:41:46.787Z</time>
</trkpt>
<trkpt lat="46.2871821" lon="7.3879231">
<ele>1458.309</ele>
<time>2012-05-07T16:41:51.636Z</time>
</trkpt>
<trkpt lat="46.2871769" lon="7.3877894">
<ele>1458.994</ele>
<time>2012-05-07T16:41:56.505Z</time>
</trkpt>
<trkpt lat="46.2871664" lon="7.3876466">
<ele>1459.816</ele>
<time>2012-05-07T16:42:01.695Z</time>
</trkpt>
<trkpt lat="46.2871692" lon="7.3875150">
<ele>1460.857</ele>
<time>2012-05-07T16:42:06.422Z</time>
</trkpt>
<trkpt lat="46.2871869" lon="7.3873704">
<ele>1461.819</ele>
<time>2012-05-07T16:42:11.718Z</time>
</trkpt>
<trkpt lat="46.2871934" lon="7.3872147">
<ele>1462.497</ele>
<time>2012-05-07T16:42:17.474Z</time>
</trkpt>
<trkpt lat="46.2871723" lon="7.3870816">
<ele>1463.151</ele>
<time>2012-05-07T16:42:22.618Z</time>
</trkpt>
<trkpt lat="46.2871334" lon="7.3869388">
<ele>1464.063</ele>
<time>2012-05-07T16:42:28.495Z</time>
</trkpt>
<trkpt lat="46.2870898" lon="7.3868227">
<ele>1465.244</ele>
<time>2012-05-07T16:42:33.732Z</time>
</trkpt>
<trkpt lat="46.2871793" lon="7.3868853">
<ele>1466.291</ele>
<time>2012-05-07T16:42:39.433Z</time>
</trkpt>
<trkpt lat="46.2872070" lon="7.3870364">
<ele>1466.940</ele>
<time>2012-05-07T16:42:45.614Z</time>
</trkpt>
<trkpt lat="46.2872329" lon="7.3871731">
<ele>1467.380</ele>
<time>2012-05-07T16:42:51.100Z</time>
</trkpt>
<trkpt lat="46.2872705" lon="7.3873053">
<ele>1468.122</ele>
<time>2012-05-07T16:42:56.326Z</time>
</trkpt>
<trkpt lat="46.2873009" lon="7.3874407">
<ele>1469.397</ele>
<time>2012-05-07T16:43:01.273Z</time>
</trkpt>
<trkpt lat="46.2873468" lon="7.3875791">
<ele>1470.644</ele>
<time>2012-05-07T16:43:06.407Z</time>
</trkpt>
<trkpt lat="46.2873931" lon="7.3877213">
<ele>1471.366</ele>
<time>2012-05-07T16:43:11.553Z</time>
</trkpt>
<trkpt lat="46.2874266" lon="7.3878628">
<ele>1471.916</ele>
<time>2012-05-07T16:43:16.389Z</time>
</trkpt>
<trkpt lat="46.2874663" lon="7.3880010">
<ele>1472.657</ele>
<time>2012-05-07T16:43:21.205Z</time>
</trkpt>
<trkpt lat="46.2875176" lon="7.3881272">
<ele>1473.525</ele>
<time>2012-05-07T16:43:25.936Z</time>
</trkpt>
<trkpt lat="46.2875587" lon="7.3882598">
<ele>1474.283</ele>
<time>2012-05-07T16:43:30.648Z</time>
</trkpt>
<trkpt lat="46.2876140" lon="7.3883729">
<ele>1475.131</ele>
<time>2012-05-07T16:43:35.168Z</time>
</trkpt>
<trkpt lat="46.2876757" lon="7.3884693">
<ele>1476.279</ele>
<time>2012-05-07T16:43:39.484Z</time>
</trkpt>
<trkpt lat="46.2877475" lon="7.3885700">
<ele>1477.973</ele>
<time>2012-05-07T16:43:44.290Z</time>
</trkpt>
<trkpt lat="46.2878193" lon="7.3886603">
<ele>1480.366</ele>
<time>2012-05-07T16:43:48.901Z</time>
</trkpt>
<trkpt lat="46.2878922" lon="7.3887508">
<ele>1483.537</ele>
<time>2012-05-07T16:43:53.665Z</time>
</trkpt>
<trkpt lat="46.2879589" lon="7.3888584">
<ele>1487.244</ele>
<time>2012-05-07T16:43:58.781Z</time>
</trkpt>
<trkpt lat="46.2880236" lon="7.3889781">
<ele>1490.612</ele>
<time>2012-05-07T16:44:04.263Z</time>
</trkpt>
<trkpt lat="46.2880911" lon="7.3890747">
<ele>1492.833</ele>
<time>2012-05-07T16:44:09.149Z</time>
</trkpt>
<trkpt lat="46.2881810" lon="7.3891663">
<ele>1494.193</ele>
<time>2012-05-07T16:44:14.728Z</time>
</trkpt>
<trkpt lat="46.2882484" lon="7.3892923">
<ele>1495.111</ele>
<time>2012-05-07T16:44:20.299Z</time>
</trkpt>
<trkpt lat="46.2882992" lon="7.3894170">
<ele>1495.689</ele>
<time>2012-05-07T16:44:25.292Z</time>
</trkpt>
<trkpt lat="46.2883614" lon="7.3895262">
<ele>1495.862</ele>
<time>2012-05-07T16:44:30.144Z</time>
</trkpt>
<trkpt lat="46.2884224" lon="7.3896364">
<ele>1495.989</ele>
<time>2012-05-07T16:44:35.016Z</time>
</trkpt>
<trkpt lat="46.2884801" lon="7.3897617">
<ele>1496.558</ele>
<time>2012-05-07T16:44:40.210Z</time>
</trkpt>
<trkpt lat="46.2885396" lon="7.3898902">
<ele>1497.345</ele>
<time>2012-05-07T16:44:45.512Z</time>
</trkpt>
<trkpt lat="46.2886153" lon="7.3899886">
<ele>1497.830</ele>
<time>2012-05-07T16:44:50.591Z</time>
</trkpt>
<trkpt lat="46.2886740" lon="7.3900886">
<ele>1497.971</ele>
<time>2012-05-07T16:44:55.160Z</time>
</trkpt>
<trkpt lat="46.2887536" lon="7.3901921">
<ele>1497.958</ele>
<time>2012-05-07T16:45:00.557Z</time>
</trkpt>
<trkpt lat="46.2888272" lon="7.3902747">
<ele>1498.266</ele>
<time>2012-05-07T16:45:05.191Z</time>
</trkpt>
<trkpt lat="46.2889074" lon="7.3903619">
<ele>1499.484</ele>
<time>2012-05-07T16:45:10.164Z</time>
</trkpt>
<trkpt lat="46.2889987" lon="7.3904497">
<ele>1502.095</ele>
<time>2012-05-07T16:45:15.672Z</time>
</trkpt>
<trkpt lat="46.2890918" lon="7.3905231">
<ele>1505.852</ele>
<time>2012-05-07T16:45:21.101Z</time>
</trkpt>
<trkpt lat="46.2891654" lon="7.3906119">
<ele>1509.424</ele>
<time>2012-05-07T16:45:26.017Z</time>
</trkpt>
<trkpt lat="46.2892427" lon="7.3907165">
<ele>1512.060</ele>
<time>2012-05-07T16:45:31.262Z</time>
</trkpt>
<trkpt lat="46.2893071" lon="7.3908250">
<ele>1514.279</ele>
<time>2012-05-07T16:45:36.176Z</time>
</trkpt>
<trkpt lat="46.2893795" lon="7.3909469">
<ele>1516.111</ele>
<time>2012-05-07T16:45:41.974Z</time>
</trkpt>
<trkpt lat="46.2894500" lon="7.3910414">
<ele>1517.075</ele>
<time>2012-05-07T16:45:47.250Z</time>
</trkpt>
<trkpt lat="46.2895177" lon="7.3911453">
<ele>1517.230</ele>
<time>2012-05-07T16:45:52.775Z</time>
</trkpt>
<trkpt lat="46.2895981" lon="7.3912418">
<ele>1516.921</ele>
<time>2012-05-07T16:45:58.735Z</time>
</trkpt>
<trkpt lat="46.2896676" lon="7.3913361">
<ele>1516.443</ele>
<time>2012-05-07T16:46:04.196Z</time>
</trkpt>
<trkpt lat="46.2897336" lon="7.3914396">
<ele>1516.075</ele>
<time>2012-05-07T16:46:09.863Z</time>
</trkpt>
<trkpt lat="46.2898020" lon="7.3915255">
<ele>1515.928</ele>
<time>2012-05-07T16:46:15.271Z</time>
</trkpt>
<trkpt lat="46.2898831" lon="7.3916109">
<ele>1515.883</ele>
<time>2012-05-07T16:46:21.327Z</time>
</trkpt>
<trkpt lat="46.2899661" lon="7.3917083">
<ele>1515.573</ele>
<time>2012-05-07T16:46:27.774Z</time>
</trkpt>
<trkpt lat="46.2900403" lon="7.3917947">
<ele>1514.846</ele>
<time>2012-05-07T16:46:33.415Z</time>
</trkpt>
<trkpt lat="46.2901192" lon="7.3918919">
<ele>1514.115</ele>
<time>2012-05-07T16:46:39.340Z</time>
</trkpt>
<trkpt lat="46.2901872" lon="7.3919791">
<ele>1513.702</ele>
<time>2012-05-07T16:46:44.281Z</time>
</trkpt>
<trkpt lat="46.2902637" lon="7.3920752">
<ele>1513.278</ele>
<time>2012-05-07T16:46:49.680Z</time>
</trkpt>
<trkpt lat="46.2903266" lon="7.3921801">
<ele>1512.799</ele>
<time>2012-05-07T16:46:54.753Z</time>
</trkpt>
<trkpt lat="46.2903969" lon="7.3922978">
<ele>1512.640</ele>
<time>2012-05-07T16:47:00.425Z</time>
</trkpt>
<trkpt lat="46.2904558" lon="7.3924058">
<ele>1512.803</ele>
<time>2012-05-07T16:47:05.511Z</time>
</trkpt>
<trkpt lat="46.2905229" lon="7.3925166">
<ele>1512.972</ele>
<time>2012-05-07T16:47:11.062Z</time>
</trkpt>
<trkpt lat="46.2906010" lon="7.3926160">
<ele>1513.560</ele>
<time>2012-05-07T16:47:16.833Z</time>
</trkpt>
<trkpt lat="46.2906713" lon="7.3927113">
<ele>1514.972</ele>
<time>2012-05-07T16:47:22.228Z</time>
</trkpt>
<trkpt lat="46.2907545" lon="7.3928079">
<ele>1516.519</ele>
<time>2012-05-07T16:47:28.215Z</time>
</trkpt>
<trkpt lat="46.2908198" lon="7.3929044">
<ele>1517.356</ele>
<time>2012-05-07T16:47:33.391Z</time>
</trkpt>
<trkpt lat="46.2908947" lon="7.3929965">
<ele>1517.545</ele>
<time>2012-05-07T16:47:38.791Z</time>
</trkpt>
<trkpt lat="46.2909580" lon="7.3931016">
<ele>1517.285</ele>
<time>2012-05-07T16:47:44.033Z</time>
</trkpt>
<trkpt lat="46.2910263" lon="7.3932000">
<ele>1516.488</ele>
<time>2012-05-07T16:47:49.237Z</time>
</trkpt>
<trkpt lat="46.2910961" lon="7.3932899">
<ele>1515.351</ele>
<time>2012-05-07T16:47:54.238Z</time>
</trkpt>
<trkpt lat="46.2911655" lon="7.3933743">
<ele>1514.481</ele>
<time>2012-05-07T16:47:59.053Z</time>
</trkpt>
<trkpt lat="46.2912457" lon="7.3934739">
<ele>1514.393</ele>
<time>2012-05-07T16:48:04.620Z</time>
</trkpt>
<trkpt lat="46.2913294" lon="7.3935526">
<ele>1515.125</ele>
<time>2012-05-07T16:48:09.808Z</time>
</trkpt>
<trkpt lat="46.2914291" lon="7.3936007">
<ele>1516.438</ele>
<time>2012-05-07T16:48:15.224Z</time>
</trkpt>
<trkpt lat="46.2915189" lon="7.3936465">
<ele>1518.178</ele>
<time>2012-05-07T16:48:20.085Z</time>
</trkpt>
<trkpt lat="46.2916101" lon="7.3936850">
<ele>1520.376</ele>
<time>2012-05-07T16:48:24.876Z</time>
</trkpt>
<trkpt lat="46.2917033" lon="7.3937173">
<ele>1522.625</ele>
<time>2012-05-07T16:48:29.663Z</time>
</trkpt>
<trkpt lat="46.2917988" lon="7.3937328">
<ele>1524.562</ele>
<time>2012-05-07T16:48:34.450Z</time>
</trkpt>
<trkpt lat="46.2919046" lon="7.3937387">
<ele>1526.312</ele>
<time>2012-05-07T16:48:39.760Z</time>
</trkpt>
<trkpt lat="46.2920058" lon="7.3937412">
<ele>1527.790</ele>
<time>2012-05-07T16:48:44.913Z</time>
</trkpt>
<trkpt lat="46.2921021" lon="7.3937477">
<ele>1528.597</ele>
<time>2012-05-07T16:48:49.880Z</time>
</trkpt>
<trkpt lat="46.2922096" lon="7.3937506">
<ele>1528.892</ele>
<time>2012-05-07T16:48:55.439Z</time>
</trkpt>
<trkpt lat="46.2923060" lon="7.3937546">
<ele>1529.344</ele>
<time>2012-05-07T16:49:00.518Z</time>
</trkpt>
<trkpt lat="46.2924170" lon="7.3937681">
<ele>1530.564</ele>
<time>2012-05-07T16:49:06.490Z</time>
</trkpt>
<trkpt lat="46.2925076" lon="7.3937975">
<ele>1532.378</ele>
<time>2012-05-07T16:49:11.473Z</time>
</trkpt>
<trkpt lat="46.2925927" lon="7.3938417">
<ele>1534.150</ele>
<time>2012-05-07T16:49:16.349Z</time>
</trkpt>
<trkpt lat="46.2926909" lon="7.3938889">
<ele>1535.640</ele>
<time>2012-05-07T16:49:22.044Z</time>
</trkpt>
<trkpt lat="46.2927901" lon="7.3939451">
<ele>1537.155</ele>
<time>2012-05-07T16:49:28.022Z</time>
</trkpt>
<trkpt lat="46.2928887" lon="7.3939792">
<ele>1538.934</ele>
<time>2012-05-07T16:49:33.647Z</time>
</trkpt>
<trkpt lat="46.2929755" lon="7.3940247">
<ele>1540.601</ele>
<time>2012-05-07T16:49:38.598Z</time>
</trkpt>
<trkpt lat="46.2930630" lon="7.3940640">
<ele>1541.565</ele>
<time>2012-05-07T16:49:43.333Z</time>
</trkpt>
<trkpt lat="46.2931561" lon="7.3940925">
<ele>1541.816</ele>
<time>2012-05-07T16:49:48.165Z</time>
</trkpt>
<trkpt lat="46.2932405" lon="7.3941461">
<ele>1541.331</ele>
<time>2012-05-07T16:49:52.811Z</time>
</trkpt>
<trkpt lat="46.2933092" lon="7.3942410">
<ele>1540.156</ele>
<time>2012-05-07T16:49:57.636Z</time>
</trkpt>
<trkpt lat="46.2933516" lon="7.3943625">
<ele>1539.011</ele>
<time>2012-05-07T16:50:02.361Z</time>
</trkpt>
<trkpt lat="46.2933832" lon="7.3944953">
<ele>1538.486</ele>
<time>2012-05-07T16:50:07.009Z</time>
</trkpt>
<trkpt lat="46.2934148" lon="7.3946415">
<ele>1538.647</ele>
<time>2012-05-07T16:50:11.926Z</time>
</trkpt>
<trkpt lat="46.2934568" lon="7.3947603">
<ele>1539.447</ele>
<time>2012-05-07T16:50:16.204Z</time>
</trkpt>
<trkpt lat="46.2935281" lon="7.3948778">
<ele>1540.646</ele>
<time>2012-05-07T16:50:21.307Z</time>
</trkpt>
<trkpt lat="46.2936079" lon="7.3949779">
<ele>1542.125</ele>
<time>2012-05-07T16:50:26.478Z</time>
</trkpt>
<trkpt lat="46.2936906" lon="7.3950476">
<ele>1544.714</ele>
<time>2012-05-07T16:50:31.467Z</time>
</trkpt>
<trkpt lat="46.2937718" lon="7.3951142">
<ele>1548.489</ele>
<time>2012-05-07T16:50:36.495Z</time>
</trkpt>
<trkpt lat="46.2938699" lon="7.3951720">
<ele>1551.679</ele>
<time>2012-05-07T16:50:42.260Z</time>
</trkpt>
<trkpt lat="46.2939689" lon="7.3951957">
<ele>1553.054</ele>
<time>2012-05-07T16:50:47.764Z</time>
</trkpt>
<trkpt lat="46.2940172" lon="7.3953175">
<ele>1553.205</ele>
<time>2012-05-07T16:50:53.638Z</time>
</trkpt>
<trkpt lat="46.2940457" lon="7.3955011">
<ele>1553.261</ele>
<time>2012-05-07T16:51:02.716Z</time>
</trkpt>
<trkpt lat="46.2940457" lon="7.3955011">
<ele>1553.879</ele>
<time>2012-05-07T16:51:18.712Z</time>
</trkpt>
<trkpt lat="46.2940457" lon="7.3955011">
<ele>1554.662</ele>
<time>2012-05-07T16:51:30.713Z</time>
</trkpt>
</trkseg>
</trk>
<extensions>
<fpdata xmlns="http://www.motionx.com/GPX-Extensions/1/1" sfv="9" origin="MotionXGPSFull 18.1 Build 4319R">
<bin enc="base64">
QQIAAAACAAAA/N9pL/np00EBAAAAVmWUj//p00EAAMzfNNW4QCsFAABtqhYAtn+Hc8fR
gkB3cv3SpUqYQAAAAAAVAAAAVlRUIC0gU2lvbiAtIEFuesOocmUAFAAAADcgbWFpIDIw
MTIgIDU6MDUgcG0AAAAAAOhllI//6dNBcttS4u3q00FRGGAAyAlUuBk1bUAsAAAAAQAA
AMsCSgOkbx1AdvDR9bIdR0C2f4dzx9GCQAAAAAAAAD5AAAAAAACATEAAAAAAABB9QAAA
AAAAAAAAAAAAACpcj8L1VHBAkBPiGGDll0ABAAAAk9nU2QinoD8BAAAAAQAAAD6ec09P
CcE/N63WXB2Jwb8BAAAAAQAAAAAAAAAAAAAAAAAAAAAAAAAAAAAAAAAAAAAAAAAAAAAA
AAAAAAAAAAADAAAAAAAAAAAAAAAOAwAAAp+tZP/p00EAAAAAAAAAAAAAAAAAAAAA/yVE
vAEAAAADWwAAAQAAAAECAAAAveSnT5L9p08EuixvOPnp00G6LG84+enTQQAAAHyZCkJA
AAAAAAFA4Gkv+enTQTMYt2T/6dNBAADM3zTVuEAAAAAAASsFAAAAAAAAAAAAAD7+p08+
/qdPbjVuOPnp00EBywJKA6RvHUB28NH1sh1HQLZ/h3PH0YJAAAAAAAAAPkAAAAAAAIBM
QBSNAAANAAAAYGAEAAAAAAAAAAAAAAAAAAAA6D9kDCMDAAAAAAAAAAAAAAAAAAAAAAAA
AEYIE0JAny0aOvnp00EAhxpAmpxvHUAbEs3XtR1HQOYdIF2Oz4JAAAAAAAAAJEB+HV+f
ZF4xQJEPAADrAwAA2wIAAMIAAABSAQAAmpmZmZmZ6z9kDAIDVAAAAAAAAAAAAAAAAAAA
AAAAgFdaCERAxz1NO/np00EAquVZxZRvHUCeTuZHuR1HQPfB4A66zoJAAAAAAAAAJEDM
jh4XaYIjQGITAACmBAAAXgMAAO0AAABMAQAAzczMzMzM7D9kDAIDiAAAAAAAAAAAAAAA
AAAAAAAAgAIohEZANE1QPPnp00EAC7CuNZBvHUD6MhnkvB1HQIZ8r468zoJAAAAAAAAA
JEDtH8FqGj0kQJ8PAADRBAAAmgMAAB0BAABIAQAAzczMzMzM7D9kDAIDswAAAAAAAAAA
AAAAAAAAAAAAAGmMhEhA4aY3Pfnp00EAe+QRU5lvHUCiNf5/wB1HQKZq0IpWxIJAAAAA
AAAAJEDR8/TouPYlQMMLAADmBAAAwwMAAFUBAABAAQAAzczMzMzM7D9kDAID4gAAAAAA
AAAAAAAAAAAAAAAAgFVnBUpAskL/Pfnp00EANTxcPpFvHUAvUKTdwx1HQIJUhgO2mYJA
AAAAAAAAJEC66DuhviUiQJcPAACPBAAAYwMAAE8BAAA9AQAAzczMzMzM7D9kDAID7QAA
AAAAAAAAAAAAAAAAAAAAgBpoBExApFCiPvnp00EAIQaGOm9vHUBnTcKCwx1HQOCWHJiG
QYJAAAAAAAAAJEAAAAAAAAAiQJ8PAADuAwAA3gIAAJQBAAAAAQAAzczMzMzM7D9kDAID
8AAAAAAAAAAAAAAAAAAAAAAAgDbiA05Ai4xPP/np00EAQYNtlkpvHUB5ydKUxB1HQOqg
GwwSzoFAAAAAAAAAFEAAAAAAAAAiQLcLAABwBAAAYQMAAJUBAAA8AQAAMzMzMzMz7z9k
DAID8AAAAAAAAAAAAAAAAAAAAAAAALqfg09AqvzyP/np00EAXJCCoTZvHUCIixpCxx1H
QOoAVa4nWYFAAAAAAAAAJEAAAAAAAAAiQMELAAA5BAAANAMAAJwBAABVAQAAmpmZmZmZ
7T9kDAID/gAAAAAAAAAAAAAAAAAAAAAAANWUglBAX8GeQPnp00EA361X6CZvHUBIVs1g
yh1HQOpKGd7O9YBAAAAAAAAAJEAAAAAAAAAiQLoLAACEBAAAcgMAAKQBAABXAQAAzczM
zMzM7D9kDAIDDAEAAAAAAAAAAAAAAAAAAAAAAK2/QlFA7y5pQfnp00EATyJkMQ1vHUBK
r9W+zR1HQAx1GpXtuIBAAAAAAAAAJEAAAAAAAAAiQLYLAABaBQAAJAQAAKEBAABTAQAA
zczMzMzM7D9kDAIDGgEAAAAAAAAAAAAAAAAAAAAAgCGqAlJAXUM5Qvnp00EAGDxAcPVu
HUDQhf5Y0R1HQGv/EFt0p4BAAAAAAAAAJEAAAAAAAAAiQLkLAACABQAAQwQAAKMBAABQ
AQAAzczMzMzM7D9kDAIDLQEAAAAAAAAAAAAAAAAAAAAAQGItw1JAvd4MQ/np00EAe5/w
3N1uHUBVWsEV1R1HQL9pEwz4rIBAAAAAAAAAJEAAAAAAAAAiQLQLAACmBQAAYgQAAKkB
AABSAQAAzczMzMzM7D9kDAIDOwEAAAAAAAAAAAAAAAAAAAAAALa7glNAduagQ/np00EA
FHvaTctuHUDZkHSV1x1HQIW8X2LEuIBAAAAAAAAAJEAAAAAAAAAiQNIHAADwAwAAEQMA
AKgBAABSAQAAzczMzMzM7D9kDAIDSQEAAAAAAAAAAAAAAAAAAAAAAO4jA1RAHWVeRPnp
00EAhszbFrduHUC+wd3a2h1HQOQDJA89xYBAAAAAAAAAJEDfAK7PUjoiQLQLAADsBAAA
yAMAAJUBAAAEAAAAzczMzMzM7D9kDAIDSQEAAAAAAAAAAAAAAAAAAAAAAHqLwlRAIIL+
RPnp00EAoRxZlcxuHUBH8SZI3R1HQAnWWqDN0YBAAAAAAAAAJEAAAAAAAAAiQLcLAAAO
BAAAEQMAAI4BAAA5AAAAzczMzMzM7D9kDAIDTAEAAAAAAAAAAAAAAAAAAAAAADOKglVA
pE/ORfnp00EAmtZT3PVuHUBDHBPE3h1HQM6qSray14BAAAAAAAAAJEAAAAAAAAAiQLgL
AAAhBQAA9AMAAIgBAABNAAAAzczMzMzM7D9kDAIDUQEAAAAAAAAAAAAAAAAAAAAAgKCH
QlZAze+XRvnp00EAy75RBhFvHUDDWQBq4R1HQEh6XZoM04BAAAAAAAAAJEAjTPV0YlAi
QIgTAACyBAAAZwMAAFkBAAAQAAAAzczMzMzM7D9kDAIDUwEAAAAAAAABAAAAAAAAAAAA
wCiygldALD9LR/np00EARzv4Dw5vHUCTLBWI5B1HQLKnaJCNzoBAAAAAAAAAJEAaDECT
V7AiQLcLAAAmBAAAJQMAAH8BAABYAQAAzczMzMzM7D9kDAIDZAEAAAAAAAAAAAAAAAAA
AAAAwCK/QlhAuuQ9SPnp00EAHuS9RgBvHUB6+W7E6B1HQLYJEZk61YBAAAAAAAAAJEAA
AAAAAAAiQLkLAADWBQAAigQAAJABAABQAQAAzczMzMzM7D9kDAIDZwEAAAAAAAAAAAAA
AAAAAAAAADi8AllAhzjhSPnp00EAZtiTLPpuHUAmOjva6x1HQMTLXVZe5oBAAAAAAAAA
JEAAAAAAAAAiQNsHAAAnBAAAPQMAAJ0BAABRAQAAmZmZmZmZ6z9kDAIDewEAAAAAAAAA
AAAAAAAAAAAAAM5RhFlA7RS3Sfnp00EA9TnmQOtuHUB7G+r07x1HQO9gXTKL+IBAAAAA
AAAAJEAAAAAAAAAiQLYLAAC1BQAAbwQAALABAABOAQAAzczMzMzM7D9kDAIDggEAAAAA
AAAAAAAAAAAAAAAAwPl/Q1pAg25xSvnp00EABLJPQd9uHUAtYQOs8x1HQNhBJVrgAoFA
AAAAAAAAFEAAAAAAAAAiQK4LAAAeBQAA8gMAALUBAABUAQAAmZmZmZmZ7T9kDAIDjgEA
AAAAAAAAAAAAAAAAAAAAgFG7AltA5vUnS/np00EA6/ptDNduHUBkiqlk9x1HQJ/9ELd3
BYFAAAAAAAAAJEDcwt7oCDkiQJ0PAAAGBQAAxgMAALIBAABOAQAAZmZmZmZm7j9kDAID
jgEAAAAAAAAAAAAAAAAAAAAAwOhkAlxAnV/US/np00EAup1UUNBuHUCJbkji+h1HQOru
wP3BBYFAAAAAAAAAFEAAAAAAAAAiQLwLAACyBAAAmAMAAKYBAABXAQAAZmZmZmZm7j9k
DAIDjQEAAAAAAAAAAAAAAAAAAAAAgD/fwlxAviuUTPnp00EAKPyAasNuHUCOSs+M/h1H
QAiTaN4LBoFAAAAAAAAAFEAAAAAAAAAiQLMLAAAVBQAA6wMAAJIBAABaAQAAAAAAAAAA
8D9kDAIDjQEAAAAAAAAAAAAAAAAAAAAAgFmEgl1A3bhaTfnp00EAW6Tm27JuHUC9U0kS
Ah5HQH5RRTpfBYFAAAAAAAAAFEAAAAAAAAAiQMQLAAALBQAA4gMAAIIBAABdAQAAAAAA
AAAA8D9kDAIDlwEAAAAAAAAAAAAAAAAAAAAAgB1xQ15AXn4zTvnp00EAssXhvJxuHUDy
sL+OBR5HQPapST5/A4FAAAAAAAAAJEAj+zgeAYMiQK4LAABGBQAAEwQAAHUBAABXAQAA
mpmZmZmZ7T9kDAIDnwEAAAAAAAAAAAAAAAAAAAAAAHb8Al9A9ekRT/np00EAykUmFJBu
HUAfIvJYCR5HQOcD51JTA4FAAAAAAAAAJED/eYUcpfwiQMULAAA8BQAACgQAAG8BAABf
AQAAzczMzMzM7D9kDAIDpAEAAAAAAAAAAAAAAAAAAAAAwFCjzF9Ar0nxT/np00EAPn05
on5uHUCnwYvuDB5HQPu/TVc+CIFAAAAAAAAAJEC9owkY7QgjQLULAAApBQAA+gMAAGsB
AABaAQAAzczMzMzM7D9kDAIDpwEAAAAAAAAAAAAAAAAAAAAAgAjUQWBAOVXFUPnp00EA
IPF6H3xuHUBf9d6NEB5HQOh6as7xDoFAAAAAAAAAJEC+eNwJbNsiQKcLAADQBAAAsgMA
AGsBAABXAQAAzczMzMzM7D9kDAIDqQEAAAAAAAAAAAAAAAAAAAAAQLg7oWBAsTSQUfnp
00EAtvxEcHtuHUAc363BEx5HQNB0WYzTEoFAAAAAAAAAJEApy+P+iiwjQJATAABABAAA
+wIAACwBAABRAQAAzczMzMzM7D9kDAIDnQEAAAAAAAAAAAAAAAAAAAAAQPt0QWFAYomY
Uvnp00EAPWweuJRuHUC252++Fh5HQNcN1Xg/FYFAAAAAAAAAFEAAAAAAAAAiQEofAADp
BAAAaQIAAPgAAABCAAAAmZmZmZmZ7T9kDAIDhgEAAAAAAAAAAAAAAAAAAAAAQP7uQWJA
0IN9U/np00EAxXF0M7RuHUAhQ3j6Fx5HQNcNl2yeF4FAAAAAAAAAJEAAAAAAAAAiQJIP
AAD3AwAA5QIAAPAAAABBAAAAzczMzMzM7D9kDAIDgAEAAAAAAAAAAAAAAAAAAAAAwOVq
wWJAg5ieVPnp00EAd9pm7dhuHUAwekl+GR5HQElO4tB0FYFAAAAAAAAAJEAAAAAAAAAi
QJ4PAACrBAAAegMAAPIAAAA/AAAAzczMzMzM7D9kDAIDeQEAAAAAAAAAAAAAAAAAAAAA
IKlMQWNALVSmVfnp00EAKT/WB/puHUAnMQ+DGh5HQHSX1SzX/4BAAAAAAAAAJEAAAAAA
AAAiQI8TAAAIBAAAtQIAAM4AAABIAAAAzczMzMzM7D9kDAIDdAEAAAAAAAAAAAAAAAAA
AAAAQP6n4WNAyArtVvnp00EAowT+HyBvHUAm7qnRGx5HQDIZ3ClM1IBAAAAAAAAAJEAA
AAAAAAAiQLkLAACzBAAAmQMAAPgAAABDAAAAzczMzMzM7D9kDAIDagEAAAAAAAAAAAAA
AAAAAAAAgHLNQWRAb6puWPnp00EAGYPSA1FvHUBVBwdVHR5HQEbjJMHdq4BAAAAAAAAA
FEAAAAAAAAAiQK8LAAD1BQAApAQAADgBAABGAAAAMzMzMzMz7z9kDAIDagEAAAAAAAAA
AAAAAAAAAAAAQIdcoWRAqkBGWfnp00EA5wa6VXVvHUBMFmhiHh5HQKBwqL7smIBAAAAA
AAAAFEAAAAAAAAAiQNEHAABlBAAAcQMAAF8BAABEAAAAAAAAAAAA8D9kDAIDagEAAAAA
AAAAAAAAAAAAAAAAYMRa4WRAnqRKWvnp00EArGsxAqpvHUDovqITIB5HQMjx86O2lYBA
AAAAAAAAJEAAAAAAAAAiQMALAAByBgAACwUAAJMBAABEAAAAMzMzMzMz7z9kDAIDcgEA
AAAAAAAAAAAAAAAAAAAAoHXGQWVA+UgrW/np00EAtcoc3tpvHUDabUfgIR5HQFHgte8S
mYBAAAAAAAAAFEAAAAAAAAAiQFIMAAAXBgAAvAQAALABAABCAAAAZmZmZmZm7j9kDAID
fgEAAAAAAAAAAAAAAAAAAAAAAMIVp2VAzAIJXPnp00EAym+RQQtwHUDcKzUbJB5HQGPA
+Jg3nYBAAAAAAAAAJEAAAAAAAAAiQBULAABKBgAA7gQAAL8BAAA8AAAAmpmZmZmZ7T9k
DAIDfgEAAAAAAAAAAAAAAAAAAAAAQP5uAWZANjqdXPnp00EA2qpfyixwHUAKwkiSJR5H
QLjZdfXAn4BAAAAAAAAAJEAAAAAAAAAiQNUHAABPBAAAXwMAAMcBAAA/AAAAzczMzMzM
7D9kDAIDiQEAAAAAAAAAAAAAAAAAAAAAIKuwQWZAMIB0Xfnp00EAjaPHqGBwHUANSkgX
Jx5HQCAj4gx7oIBAAAAAAAAAFEAAAAAAAAAiQK4LAABIBgAA6AQAANEBAABIAAAAmZmZ
mZmZ7T9kDAIDjgEAAAAAAAAAAAAAAAAAAAAAwBcmoWZAXKs8Xvnp00EA9OmouI9wHUCI
OYkrKB5HQFC0kfdNoIBAAAAAAAAAJEAAAAAAAAAiQMMLAACWBQAAVAQAAMwBAABJAAAA
ZmZmZmZm7j9kDAIDlAEAAAAAAAAAAAAAAAAAAAAAYJPDAWdAf5H8Xvnp00EAQqMo1rdw
HUD36bzjKB5HQPt3x5onn4BAAAAAAAAAJEAAAAAAAAAiQLULAACzBAAAmQMAALEBAABQ
AAAAzczMzMzM7D9kDAIDkgEAAAAAAAAAAAAAAAAAAAAA4HubYWdAeKCvX/np00EA9dJ8
NdxwHUBkEKkeKR5HQA5qX/E/nIBAAAAAAAAAJECL35fNt18iQJETAAAvBAAA5gIAAFYB
AABQAAAAzczMzMzM7D9kDAIDgAEAAAAAAAAAAAAAAAAAAAAAAAXsAWhAfq6xYPnp00EA
r7Is5gpxHUAx9+laKh5HQLzBzm+1l4BAAAAAAAAAJEAJp5ZHlaMiQJwPAACaBQAAQAQA
AFIBAABGAAAAzczMzMzM7D9kDAIDfgEAAAAAAAAAAAAAAAAAAAAAIKzUgWhA+EmaYfnp
00EAO40raTdxHUA5fzuqKx5HQLpTxc5ukoBAAAAAAAAAJEAAAAAAAAAiQLILAABlBQAA
LAQAAHABAABDAAAAzczMzMzM7D9kDAIDfgEAAAAAAAAAAAAAAAAAAAAAoMup4WhABo5M
Yvnp00EAE4p2FU9xHUCan2ZcLh5HQGCTdq/FjYBAAAAAAAAAJEAAAAAAAAAiQL4LAAB9
BAAAbQMAAI0BAAAJAAAAzczMzMzM7D9kDAIDigEAAAAAAAAAAAAAAAAAAAAAYDvRQWlA
sm4tY/np00EAoXvoITxxHUBmHiGbMh5HQErOV9Eei4BAAAAAAAAAJEAAAAAAAAAiQLAL
AAAJBgAAtAQAAKsBAABKAQAAzczMzMzM7D9kDAIDnAEAAAAAAAAAAAAAAAAAAAAAgAOh
oWlAhWjSY/np00EA3F/OlC1xHUB7hobMNR5HQO5yt8gai4BAAAAAAAAAJEAAAAAAAAAi
QNYHAACNBAAAkgMAALkBAABXAQAAzczMzMzM7D9kDAIDpgEAAAAAAAAAAAAAAAAAAAAA
oNvZ4WlAzyqZZPnp00EAZ7vyrh9xHUBSlZCmOR5HQKTMomMRj4BAAAAAAAAAJEAAAAAA
AAAiQLYLAABaBQAAIwQAALABAABjAQAAzczMzMzM7D9kDAIDpgEAAAAAAAAAAAAAAAAA
AAAAwH+6QWpAs3dXZfnp00EA3E4ZKxhxHUA4CslTPR5HQIgWtXrOmIBAAAAAAAAAJEAA
AAAAAAAiQLALAAD0BAAAzwMAAKEBAABeAQAAzczMzMzM7D9kDAIDrgEAAAAAAAAAAAAA
AAAAAAAAQOthoWpAr/UGZvnp00EAc3q4VxZxHUA4YNSvQB5HQJIiLobLpYBAAAAAAAAA
JEAAAAAAAAAiQKkPAAB2BAAATgMAAJQBAABnAQAAzczMzMzM7D9kDAIDtQEAAAAAAAAA
AAAAAAAAAAAAAEHHIWtARSK4Zvnp00EAI1zHYQ1xHUBKmVTdQx5HQEqLNwTtr4BAAAAA
AAAAJEDSHSqZZzUiQK8LAABXBAAATQMAAIEBAABjAQAAzczMzMzM7D9kDAIDugEAAAAA
AAAAAAAAAAAAAAAAAHFlgWtAMQ+TZ/np00EABua7Iv5wHUDW/ZGTRx5HQNx6Dw58tYBA
AAAAAAAAFEDxzZxwXTciQJ0PAAA6BQAA8AMAAHQBAAABAAAAmZmZmZmZ7T9kDAIDtAEA
AAAAAAAAAAAAAAAAAAAA4PJYAWxApwdMaPnp00EAMiumkO1wHUDrgJ2NSh5HQLxAwbqp
y4BAAAAAAAAAJEBom6jEVisjQK4LAABiBAAAVgMAAHkBAABkAQAAmpmZmZmZ7T9kDAID
swEAAAAAAAAAAAAAAAAAAAAA4M4FYWxABsw7afnp00EAm+sqw+JwHUA2xAnCTh5HQH7w
7vsJAYFAAAAAAAAAJEBS86cWqcEjQMQLAAC3BQAAcAQAAHkBAABkAQAAzczMzMzM7D9k
DAIDsQEAAAAAAAAAAAAAAAAAAAAAYGOXwWxA/Izfafnp00EA/8fthuZwHUCF+lOwUR5H
QDRqjAFjPYFAAAAAAAAAJED2aS/THbwjQNgHAADpAwAACwMAAHoBAABeAQAAzczMzMzM
7D9kDAIDrQEAAAAAAAAAAAAAAAAAAAAAwKBaB21AP3qhavnp00EARijabu9wHUCxo6gW
VR5HQLQl1Hf+Y4FAAAAAAAAAJEDsPx0l8pcjQKwLAACgBAAAiQMAAHoBAABfAQAAzczM
zMzM7D9kDAIDrQEAAAAAAAAAAAAAAAAAAAAAADxbYW1AE8N7a/np00EATlNt//NwHUB0
OBL7WB5HQJaNq9cHc4FAAAAAAAAAJECe2XTe2WUjQLsLAAAxBQAAAQQAAHgBAABiAQAA
zczMzMzM7D9kDAIDqAEAAAAAAAAAAAAAAAAAAAAAICRuwW1AbRVAbPnp00EAzvOqcPdw
HUDompZ7XB5HQNnndWtWc4FAAAAAAAAAJEDJZAYv9vciQLULAACpBAAAkQMAAHgBAABj
AQAAzczMzMzM7D9kDAIDmAEAAAAAAAAAAAAAAAAAAAAAgEoxIm5AWuXxbPnp00EABpPF
nPZwHUDPme+nXx5HQEp8eqDBaoFAAAAAAAAAJEDp6KJnEZAiQLgLAAA2BAAAMgMAAHcB
AABgAQAAzczMzMzM7D9kDAIDkAEAAAAAAAAAAAAAAAAAAAAAAC4dgm5AL9qzbfnp00EA
4YTHnfFwHUAtltUVYx5HQLMwwWB+UIFAAAAAAAAAJEAAAAAAAAAiQK8LAACWBAAAgQMA
AHYBAABhAQAAzczMzMzM7D9kDAIDkAEAAAAAAAAAAAAAAAAAAAAAwBKd4m5A1S5kbvnp
00EAcI1wle9wHUBAqww2Zh5HQNO9+g6qJYFAAAAAAAAAJEAAAAAAAAAiQMQLAAAnBAAA
JQMAAHYBAABgAQAAzczMzMzM7D9kDAIDjgEAAAAAAAAAAAAAAAAAAAAA4LECQm9A/NYZ
b/np00EAUCEAkO5wHUDruiBsaR5HQHVRY0ObAYFAAAAAAAAAJEDCOlCj+igiQJwPAABD
BAAAJAMAAHIBAABhAQAAzczMzMzM7D9kDAIDiAEAAAAAAAAAAAAAAAAAAAAAoPVTwW9A
Oc3yb/np00EAhU6/8+RwHUDhOSkhbR5HQAjePP+x8oBAAAAAAAAAJEAAAAAAAAAiQLcL
AAAKBQAA4QMAAHABAABkAQAAzczMzMzM7D9kDAIDjwEAAAAAAAAAAAAAAAAAAAAA8Fyt
EHBAj2/WcPnp00EA53tjkNhwHUAGMxXscB5HQDas9YQ19IBAAAAAAAAAJEDSgHGlUgci
QLsPAAA6BQAA8AMAAGkBAABdAQAAzczMzMzM7D9kDAIDkAEAAAAAAAAAAAAAAAAAAAAA
0HBDUXBAtX6Dcfnp00EAEPRVis1wHUDy1IG1cx5HQBlI1EMoDIFAAAAAAAAAFEAFiM+q
Ox4iQJ8LAADoAwAA8gIAAGMBAABcAQAAmZmZmZmZ7T9kDAIDigEAAAAAAAAAAAAAAAAA
AAAAgKW6gHBAMuk/cvnp00EA8L1FScBwHUAwkQ6mdh5HQJfsirPXOoFAAAAAAAAAJED0
llqTEcoiQLcLAAAvBAAALAMAAF0BAABhAQAAmpmZmZmZ7T9kDAIDhwEAAAAAAAAAAAAA
AAAAAAAAEK+ysHBAQVEUc/np00EAFbj1MbVwHUAhQZ0Beh5HQKo1fP0hb4FAAAAAAAAA
JEDuc8pWTSQjQLcLAACiBAAAiwMAAFcBAABbAQAAzczMzMzM7D9kDAIDfAEAAAAAAAAA
AAAAAAAAAAAAEFmy4HBAP4YGdPnp00EAFn8emrlwHUCVlAbqfR5HQErsVxT9mYFAAAAA
AAAAJEAKSldlHOkiQLoLAAA1BQAABQQAAFQBAABeAQAAzczMzMzM7D9kDAIDfAEAAAAA
AAAAAAAAAAAAAAAAIP29EHFAdR3gdPnp00EAts4oTL9wHUDEl4tfgR5HQBnvfZcItIFA
AAAAAAAAJEA6Q6oSOsojQJ0PAACiBAAAcwMAAFABAABbAQAAzczMzMzM7D9kDAIDeAEA
AAAAAAAAAAAAAAAAAAAAYOq1UHFA8+bKdfnp00EAgSf877JwHUDiYDXyhB5HQMOT5Gxo
u4FAAAAAAAAAJEAMrYzA3RIkQKMPAADyBAAAtQMAAEsBAABcAQAAzczMzMzM7D9kDAID
eAEAAAAAAAAAAAAAAAAAAAAAENzPkHFAeEOWdvnp00EAF8iOyqpwHUBNC+oWiB5HQMAt
auyztoFAAAAAAAAAJEC61wf9RuUjQK4LAABGBAAAPwMAAE0BAABaAQAAzczMzMzM7D9k
DAIDeAEAAAAAAAAAAAAAAAAAAAAAcJypwXFAfI5od/np00EAdNnUJ59wHUCGnnBJix5H
QIGx6FfSq4FAAAAAAAAAJEAsXAdpmPIjQLsLAAByBAAAYwMAAFABAABYAQAAzczMzMzM
7D9kDAIDegEAAAAAAAAAAAAAAAAAAAAAcGqg8HFASO8lePnp00EAVrTqXZtwHUCZ215H
jh5HQNbnqjlPoYFAAAAAAAAAJECELgAua5AjQLsLAAD+AwAAAwMAAE0BAABaAQAAzczM
zMzM7D9kDAIDewEAAAAAAAAAAAAAAAAAAAAAUJjFIHJAM9cbefnp00EA7MyT+pJwHUDi
ZZgXkh5HQHAilJLumoFAAAAAAAAAJEDy8iaOhZQjQJgPAAAmBQAA4AMAAEoBAABbAQAA
zczMzMzM7D9kDAIDaQEAAAAAAAAAAAAAAAAAAAAAwAWZYHJAdI7lefnp00EAOrK8I4pw
HUBNYhstlR5HQPxmKC9DmIFAAAAAAAAAJEC6CnTEmiYjQLsLAAA3BAAAMgMAAEsBAABc
AQAAzczMzMzM7D9kDAIDagEAAAAAAAAAAAAAAAAAAAAAAM2ukHJAjpSjevnp00EAU5rG
L31wHUBEIWD1lx5HQCJ5nHoSmIFAAAAAAAAAJED09GNhkKgjQMQLAAD6AwAAAAMAAEsB
AABbAQAAzczMzMzM7D9kDAIDZgEAAAAAAAAAAAAAAAAAAAAAEO3xwHJASiiBe/np00EA
8gqKUHpwHUBy701zmx5HQKf9p92zmIFAAAAAAAAAJEBG5oyPiKkjQK4LAAClBAAAjgMA
AEwBAABjAQAAzczMzMzM7D9kDAIDYwEAAAAAAAAAAAAAAAAAAAAAoFHB8HJAvNVGfPnp
00EAIb6OuX1wHUDNYE2Pnh5HQLj7AhfalYFAAAAAAAAAJECo4t3vZkMjQLgLAAAlBAAA
IwMAAEwBAABnAQAAzczMzMzM7D9kDAIDYwEAAAAAAAAAAAAAAAAAAAAAYEfcIHNA0D8K
ffnp00EA4XvAW39wHUDnKZGkoR5HQJ7xj3FujIFAAAAAAAAAJEDa3Ob7oo0iQKgLAAAY
BAAAGQMAAEsBAABmAQAAzczMzMzM7D9kDAIDYwEAAAAAAAAAAAAAAAAAAAAAEDPJUHNA
egbKffnp00EAWrDJU4FwHUA6mZGrpB5HQO/JJ2YRgIFAAAAAAAAAJEAAAAAAAAAiQNIL
AAAGBAAACQMAAEwBAAABAAAAzczMzMzM7D9kDAIDYAEAAAAAAAAAAAAAAAAAAAAAwBTz
gHNAnCylfvnp00EAVe1lloVwHUCGeaUdqB5HQFgJ4Kx2doFAAAAAAAAAJEDCJ+fSbFoi
QJ8PAACZBAAAawMAAE0BAAAHAAAAzczMzMzM7D9kDAIDZAEAAAAAAAAAAAAAAAAAAAAA
AJLwwHNAXy+Uf/np00EAp9ZNEoZwHUC8ZVbfqx5HQEZ+GpfDcoFAAAAAAAAAJEBusxcU
kgciQJsPAAD8BAAAvQMAAEgBAAAFAAAAzczMzMzM7D9kDAIDXwEAAAAAAAAAAAAAAAAA
AAAAQJLgAHRAROprgPnp00EAPbwuf4xwHUCvnQAxrx5HQCoZMC7ddIFAAAAAAAAAJEAA
AAAAAAAiQJYPAAB3BAAATwMAAEcBAAAKAAAAzczMzMzM7D9kDAIDWwEAAAAAAAAAAAAA
AAAAAAAA0DLLQHRAEj1vgfnp00EArqkyfpZwHUASEl0nsx5HQFcG1TGTfYFAAAAAAAAA
JECb/TV33BEiQMELAABhBQAAKQQAAEsBAAAKAAAAzczMzMzM7D9kDAIDWwEAAAAAAAAA
AAAAAAAAAAAAEC/dcHRAw8dLgvnp00EAzLAntaVwHUAGCZFMth5HQBZA1/dikYFAAAAA
AAAAJEDWPpNqF7oiQJ0PAACGBAAAWwMAAEEBAAAMAAAAzczMzMzM7D9kDAIDYAEAAAAA
AAAAAAAAAAAAAAAA4FXPsHRA8KUeg/np00EAa30+Ma5wHUAsNgdjuR5HQEpni9aXsoFA
AAAAAAAAJEDCKYKCUkYkQKAPAAA2BAAAGQMAADcBAAANAAAAzczMzMzM7D9kDAIDWQEA
AAAAAAAAAAAAAAAAAAAA8MnR8HRAUMnrg/np00EA+587frVwHUC8nGlYvB5HQFApFMKL
2IFAAAAAAAAAJEBao/nXxmYkQLgLAAADBAAACAMAADMBAAAOAAAAzczMzMzM7D9kDAID
UAEAAAAAAAAAAAAAAAAAAAAAYPfWIHVAWa+/hPnp00EAAzMJ9L5wHUBa5b1Ovx5HQGbc
a2Af9IFAAAAAAAAAJEASlDINUQwkQLgLAAAUBAAAFQMAAC8BAAAMAAAAzczMzMzM7D9k
DAIDUwEAAAAAAAAAAAAAAAAAAAAA8CTiUHVAnhuuhfnp00EABB7a8MdwHUBhE/2fwh5H
QNKlPLrP/oFAAAAAAAAAJEAgP/z8398jQJ4PAACFBAAAWwMAACkBAAANAAAAzczMzMzM
7D9kDAIDUwEAAAAAAAAAAAAAAAAAAAAAoOHUkHVAh8Cphvnp00EAd0Mb5NRwHUD1Hhz8
xR5HQDqn+7u/+YFAAAAAAAAAJEDmgh0lhmIjQJwPAACzBAAAgAMAACYBAAASAAAAzczM
zMzM7D9kDAIDTwEAAAAAAAAAAAAAAAAAAAAA0Lux0HVAjp2Rh/np00EAGcqBcN5wHUCE
MCgfyR5HQJcoEzRt7oFAAAAAAAAAJECQkICh5s4iQKUPAABNBAAALQMAACUBAAARAAAA
zczMzMzM7D9kDAIDSgEAAAAAAAAAAAAAAAAAAAAAwBffEHZAt4ZviPnp00EA98geOudw
HUB7plMmzB5HQPhkWDPT64FAAAAAAAAAJEAk89S+SsQiQKgPAAAkBAAACgMAACoBAAAU
AAAAzczMzMzM7D9kDAIDRwEAAAAAAAAAAAAAAAAAAAAAwGP/UHZAC5xrifnp00EAJyiV
DfJwHUA777ydzx5HQIDLCXBW8oFAAAAAAAAAJEBiLKw7aA4iQJ4PAADDBAAAjgMAAC4B
AAAWAAAAzczMzMzM7D9kDAIDQgEAAAAAAAAAAAAAAAAAAAAA4Dr/kHZAUj1livnp00EA
d04IvP9wHUDdtmUD0x5HQOZsT8Tc+YFAAAAAAAAAJEAAAAAAAAAiQJgPAADGBAAAkAMA
ADEBAAAXAAAAzczMzMzM7D9kDAIDPQEAAAAAAAAAAAAAAAAAAAAA4AXY0HZAdzZVi/np
00EA+EHisQ5xHUBcjyM+1h5HQGyE+nUiBYJAAAAAAAAAJEAAAAAAAAAiQJAPAACdBAAA
bwMAADABAAAYAAAAzczMzMzM7D9kDAIDOQEAAAAAAAAAAAAAAAAAAAAAwHKSEHdAiVoy
jPnp00EAojBmxxpxHUDk0gVD2R5HQNB2r3grF4JAAAAAAAAAJEAAAAAAAAAiQKMPAAA9
BAAAHwMAAC0BAAAWAAAAzczMzMzM7D9kDAIDNgEAAAAAAAAAAAAAAAAAAAAAIFWNUHdA
vDxUjfnp00EAcnAWZjRxHUDk7/fO3B5HQFguxMQJKoJAAAAAAAAAJEAAAAAAAAAiQLQL
AACMBQAATQQAADEBAAAVAAAAzczMzMzM7D9kDAIDNwEAAAAAAAAAAAAAAAAAAAAA4AaK
gHdAWEJVjvnp00EAoci/xUlxHUAQxkUF4B5HQAUI2EaKNYJAAAAAAAAAJEAAAAAAAAAi
QLAPAADqBAAArgMAACwBAAAUAAAAzczMzMzM7D9kDAIDPQEAAAAAAAAAAAAAAAAAAAAA
AA7vwHdA4ZxXj/np00EAZ7PWaFxxHUA1sXxV4x5HQPcb2i/QOIJAAAAAAAAAJEAAAAAA
AAAiQJwPAADjBAAAqQMAACoBAAAVAAAAzczMzMzM7D9kDAIDPQEAAAAAAAAAAAAAAAAA
AAAAwM/GAHhA+1tTkPnp00EA4ukSmmxxHUDjN1af5h5HQA5+eNunMYJAAAAAAAAAJEAA
AAAAAAAiQKAPAAC+BAAAiQMAACoBAAASAAAAzczMzMzM7D9kDAIDOwEAAAAAAAAAAAAA
AAAAAAAAYBPSQHhA78Bekfnp00EAHX3fF3txHUCgE1E56h5HQI+NvpuPHYJAAAAAAAAA
JEAAAAAAAAAiQJ4PAAAPBQAAzQMAAC0BAAASAAAAzczMzMzM7D9kDAIDMwEAAAAAAAAA
AAAAAAAAAAAAUKzTgHhAK4dLkvnp00EAsxWhdYxxHUAKapA57R5HQCZSbqZJBoJAAAAA
AAAAJEAAAAAAAAAiQKoPAAB0BAAATAMAACYBAAAfAAAAzczMzMzM7D9kDAIDNgEAAAAA
AAAAAAAAAAAAAAAAEN3zwHhAMHUfk/np00EAWzi5kJhxHUAehnIK8B5HQP4equyA9oFA
AAAAAAAAJEAAAAAAAAAiQLMLAAD8AwAAAgMAAC0BAAAMAAAAzczMzMzM7D9kDAIDNwEA
AAAAAAAAAAAAAAAAAAAAINnj8HhA0loflPnp00EAsdmovJVxHUDdTrXD8x5HQFQLW4/W
7YFAAAAAAAAAJEAAAAAAAAAiQKMPAADzBAAAtgMAADgBAABgAQAAzczMzMzM7D9kDAID
NQEAAAAAAAAAAAAAAAAAAAAA0O3sMHlA+ywclfnp00EAP7OkDalxHUC1UQwf9x5HQEG8
iHsF6oFAAAAAAAAAJEAAAAAAAAAiQIsPAAD5BAAAuwMAADcBAAAyAAAAzczMzMzM7D9k
DAIDNgEAAAAAAAAAAAAAAAAAAAAA8BCUcHlA65vzlfnp00EAq8kvFM5xHUDEJh2P9x5H
QPRfyNCe6YFAAAAAAAAAJEAAAAAAAAAiQJ0PAABJBAAAKQMAAD8BAABUAAAAzczMzMzM
7D9kDAIDNgEAAAAAAAAAAAAAAAAAAAAAUAaHsHlArQ/ilvnp00EAbC7/tPdxHUAzgsTg
9x5HQIG1rSRo6oFAAAAAAAAAJEAAAAAAAAAiQKAPAADLBAAAlAMAAD8BAABRAAAAzczM
zMzM7D9kDAIDNAEAAAAAAAABAAAAAAAAAAAAgEGS8HlAFcy9l/np00EAbObNkxxyHUBS
7iPf+B5HQLjVmIRb7YFAAAAAAAAAJEAAAAAAAAAiQMoLAABuBAAAXwMAAD8BAABFAAAA
zczMzMzM7D9kDAIDPAEAAAAAAAAAAAAAAAAAAAAA4IzhIHpAnRiomPnp00EApa43h0By
HUA2Q+KI+h5HQNbw8Dw09IFAAAAAAAAAJEAAAAAAAAAiQJEPAACtBAAAfAMAADcBAAA8
AAAAzczMzMzM7D9kDAIDPgEAAAAAAAAAAAAAAAAAAAAA0CWVYHpA22KGmfnp00EAP4Kq
7VxyHUDeIRO8/B5HQNxn0onq/YFAAAAAAAAAJEAAAAAAAAAiQJ0PAABfBAAAPAMAADQB
AAAzAAAAzczMzMzM7D9kDAIDPAEAAAAAAAAAAAAAAAAAAAAAIGKRoHpAPph/mvnp00EA
jSmFqnhyHUC7cCGG/x5HQEDPry1lCIJAAAAAAAAAJEAAAAAAAAAiQJ8PAADhBAAApwMA
ADgBAAAuAAAAzczMzMzM7D9kDAIDPQEAAAAAAAAAAAAAAAAAAAAAEA2g4HpAI4h9m/np
00EA/zYXDJJyHUBn4JCZAh9HQLFgHDadEYJAAAAAAAAAJEAAAAAAAAAiQKAPAAADBQAA
wwMAADwBAAAoAAAAzczMzMzM7D9kDAIDPgEAAAAAAAAAAAAAAAAAAAAAMNibIHtA3sd5
nPnp00EAt5fBYaVyHUAf0VD/BR9HQCqEjhDfGYJAAAAAAAAAJEAAAAAAAAAiQKEPAAAG
BQAAxQMAADwBAAAgAAAAzczMzMzM7D9kDAIDPAEAAAAAAAAAAAAAAAAAAAAAgBCXYHtA
7xxknfnp00EAzx6e/LRyHUBBmHxACR9HQDgFzItXJoJAAAAAAAAAJEAAAAAAAAAiQKgP
AACsBAAAewMAADoBAAAYAAAAzczMzMzM7D9kDAIDOAEAAAAAAAAAAAAAAAAAAAAA0OO3
oHtAVHhVnvnp00EAQtuWg8RyHUCea/6TDB9HQBpHVyZeOoJAAAAAAAAAJEAAAAAAAAAi
QIoTAADCBAAAdQMAAC4BAAANAAAAzczMzMzM7D9kDAIDNQEAAAAAAAAAAAAAAAAAAAAA
sMbZ8HtAZ/khn/np00EABLRwUdByHUCff1JmDx9HQHy4z6FVU4JAAAAAAAAAJEAAAAAA
AAAiQJQPAAD7AwAA6QIAACgBAAAVAAAAzczMzMzM7D9kDAIDMQEAAAAAAAAAAAAAAAAA
AAAAoEaaMHxAffcNoPnp00EAJeV1dNpyHUDm5yumEh9HQEhGb/RCaoJAAAAAAAAAJEAA
AAAAAAAiQJsPAAB3BAAATwMAACgBAAARAAAAzczMzMzM7D9kDAIDLwEAAAAAAAAAAAAA
AAAAAAAAcCt9cHxAynHroPnp00EA1zC66t9yHUDpqf29FR9HQEwLSYsdgoJAAAAAAAAA
JEAAAAAAAAAiQKQPAAAmBAAADAMAACMBAAALAAAAzczMzMzM7D9kDAIDLQEAAAAAAAAA
AAAAAAAAAAAAECaMsHxAGhjNofnp00EA5IG5IuRyHUCpL6DiGB9HQHgbteuFqYJAAAAA
AAAAJEAAAAAAAAAiQJ8PAAAyBAAAFgMAABwBAAALAAAAzczMzMzM7D9kDAIDKQEAAAAA
AAAAAAAAAAAAAAAAMKGJ8HxAkcLeovnp00EAsDJiIvZyHUC6xmRTHB9HQNQlkaa/4oJA
AAAAAAAAJEBU0eYsoQ0iQLYLAAACBQAA2wMAAB8BAAAOAAAAzczMzMzM7D9kDAIDLgEA
AAAAAAAAAAAAAAAAAAAAEMmJIH1AHsneo/np00EAVicwVQlzHUDl+4RlHx9HQB+FDiAG
GYNAAAAAAAAAJEAAAAAAAAAiQMALAAChBAAAigMAACABAAANAAAAzczMzMzM7D9kDAID
MgEAAAAAAAAAAAAAAAAAAAAAMPCjUH1AY0/HpPnp00EAsJaZYBNzHUCC+kF2Ih9HQCIK
h1OGOINAAAAAAAAAJEAAAAAAAAAiQLALAAA6BAAANQMAACMBAAAQAAAAzczMzMzM7D9k
DAIDMgEAAAAAAAAAAAAAAAAAAAAAYDuRgH1AFMqqpfnp00EA77zoGRlzHUBRACCSJR9H
QB7q7nu/QINAAAAAAAAAJEAAAAAAAAAiQLQLAAAtBAAAKgMAACcBAAAPAAAAzczMzMzM
7D9kDAIDNwEAAAAAAAAAAAAAAAAAAAAAkJR0sH1AnBKBpvnp00EAD42Wqx1zHUD5vzOO
KB9HQGQFqMNmMYNAAAAAAAAAJEAAAAAAAAAiQNELAAD+AwAAAwMAACwBAAAQAAAAzczM
zMzM7D9kDAIDPAEAAAAAAAAAAAAAAAAAAAAA0NT54H1AropQp/np00EA4ICC+iJzHUAk
5gd7Kx9HQGDRhUoVAYNAAAAAAAAAJEAAAAAAAAAiQKwLAADtAwAA9gIAAC8BAAAQAAAA
zczMzMzM7D9kDAIDOQEAAAAAAAAAAAAAAAAAAAAAkD+YEX5AkOMeqPnp00EAtAiizilz
HUD4kVNnLh9HQNqvI7zfuYJAAAAAAAAAJEAAAAAAAAAiQMALAAD1AwAA+wIAADMBAAAS
AAAAzczMzMzM7D9kDAIDOgEAAAAAAAAAAAAAAAAAAAAA4I/wQH5AREAoqfnp00EApKAQ
SjVzHUC5Q7YpMh9HQC6WhXxYeIJAAAAAAAAAJEAAAAAAAAAiQJ8PAAAoBQAA4gMAADYB
AAASAAAAzczMzMzM7D9kDAIDPQEAAAAAAAAAAAAAAAAAAAAAcOblgH5AN+7wqfnp00EA
4K8TXkBzHUDIWVL5NB9HQHbxBD0JToJAAAAAAAAAJEAAAAAAAAAiQL4LAADwAwAA+AIA
ADkBAAAXAAAAzczMzMzM7D9kDAIDPwEAAAAAAAAAAAAAAAAAAAAAAJEFsX5A+ZPvqvnp
00EAnpwEh1JzHUAd5lJtOB9HQMQ6fODCO4JAAAAAAAAAJEAAAAAAAAAiQJoPAAAIBQAA
xwMAADkBAAAaAAAAzczMzMzM7D9kDAIDQAEAAAAAAAAAAAAAAAAAAAAA4JXy8H5A0NPt
q/np00EA6g11h2hzHUDNQAG2Ox9HQIiXbbQuOYJAAAAAAAAAJEAAAAAAAAAiQJkPAAAJ
BQAAyAMAADoBAAAfAAAAzczMzMzM7D9kDAIDQAEAAAAAAAAAAAAAAAAAAAAA4MrSMH9A
AmfqrPnp00EASjZsMYBzHUAJro7hPh9HQJgM4D9zPIJAAAAAAAAAJEAAAAAAAAAiQJ4P
AAABBQAAwQMAADkBAAAhAAAAzczMzMzM7D9kDAIDQAEAAAAAAAAAAAAAAAAAAAAAkFvT
cH9A0/3lrfnp00EAwLADZZpzHUBlusHgQR9HQJRJTVyIQIJAAAAAAAAAJEAAAAAAAAAi
QKQPAAD8BAAAvQMAADoBAAAlAAAAzczMzMzM7D9kDAIDRAEAAAAAAAAAAAAAAAAAAAAA
0M7isH9AQs/drvnp00EAQFjH8bRzHUD7rnjFRB9HQHIqFzMyRYJAAAAAAAAAJEAAAAAA
AAAiQKEPAADmBAAAqwMAADcBAAAmAAAAzczMzMzM7D9kDAIDSQEAAAAAAAAAAAAAAAAA
AAAAUFQE8n9AcJ7Xr/np00EAbxr/0c5zHUDlSSO3Rx9HQDYGVbc/S4JAAAAAAAAAJEAA
AAAAAAAiQJAPAADoBAAArQMAADUBAAAkAAAAzczMzMzM7D9kDAIDSAEAAAAAAAAAAAAA
AAAAAAAAyC1GGIBA0E7CsPnp00EAcNa9e+ZzHUAA6z55Sh9HQBB8O2pJU4JAAAAAAAAA
JEAAAAAAAAAiQKYPAACOBAAAYgMAAC4BAAAkAAAAzczMzMzM7D9kDAIDTAEAAAAAAAAA
AAAAAAAAAAAAmIJVOIBAeyitsfnp00EAIlIy8f1zHUDAGJUqTR9HQChzPnRZXYJAAAAA
AAAAJEAAAAAAAAAiQJsPAAB5BAAAUQMAACYBAAAlAAAAzczMzMzM7D9kDAIDSgEAAAAA
AAAAAAAAAAAAAAAAmBVRWIBAAaWGsvnp00EAmnYZEBN0HUACjxaZTx9HQFS2VHvKZ4JA
AAAAAAAAJEAAAAAAAAAiQK8PAAAJBAAA8wIAABkBAAAmAAAAzczMzMzM7D9kDAIDRgEA
AAAAAAAAAAAAAAAAAAAAmEN5eIBArYlns/np00EAt9lSCid0HUDDlQwcUh9HQPjX3lss
cIJAAAAAAAAAJEAAAAAAAAAiQKkPAAALBAAA9QIAAA8BAAAhAAAAzczMzMzM7D9kDAID
PQEAAAAAAAAAAAAAAAAAAAAAUKiOmIBAKHBStPnp00EA1ymWDDx0HUB7PlmXVB9HQEoC
Gq3LdYJAAAAAAAAAJEAAAAAAAAAiQJAPAAAUBAAA/gIAAAkBAAAiAAAAzczMzMzM7D9k
DAIDNwEAAAAAAAAAAAAAAAAAAAAAsAFxuIBArtxGtfnp00EAihGJZlF0HUChxwIaVx9H
QM8eq5greoJAAAAAAAAAJEAAAAAAAAAiQJ8PAAAiBAAACQMAAAcBAAAjAAAAzczMzMzM
7D9kDAIDMgEAAAAAAAAAAAAAAAAAAAAAiDxp2IBAaVpDtvnp00EAJZTSlWh0HUCwJyiQ
WR9HQLJ04FOgfoJAAAAAAAAAJEAAAAAAAAAiQKkPAAA2BAAAGQMAAAcBAAAlAAAAzczM
zMzM7D9kDAIDLQEAAAAAAAAAAAAAAAAAAAAAsK98+IBARrg8t/np00EA89ktGnx0HUAV
XsExXB9HQL0TA34ihIJAAAAAAAAAJEAAAAAAAAAiQIwPAAAlBAAADAMAAAcBAAAdAAAA
zczMzMzM7D9kDAIDJwEAAAAAAAAAAAAAAAAAAAAAADxJGIFAvUVhuPnp00EAHV5e6Yp0
HUArE2WfXx9HQHYeqKigi4JAAAAAAAAAJEAAAAAAAAAiQIcTAADbBAAAiQMAAAMBAAAP
AAAAzczMzMzM7D9kDAIDJAEAAAAAAAAAAAAAAAAAAAAA8LhIQIFAMf9/ufnp00EAS1bb
IZN0HUC/Gp8dYx9HQLrMDcItlIJAAAAAAAAAJEAAAAAAAAAiQJQTAAC6BAAAbgMAAAMB
AAAIAAAAzczMzMzM7D9kDAIDHAEAAAAAAAAAAAAAAAAAAAAAUFJnaIFAc5xvuvnp00EA
Sr5/55J0HUBFGccSZh9HQCRn7uJInIJAAAAAAAAAJEAAAAAAAAAiQJoPAADsAwAA3QIA
AAMBAABlAQAAzczMzMzM7D9kDAIDFwEAAAAAAAAAAAAAAAAAAAAA6HxYiIFA632Tu/np
00EArirApo50HUDp4benaR9HQM9YgRcvpoJAAAAAAAAAJEAAAAAAAAAiQJcTAADHBAAA
eAMAAP4AAABXAQAAzczMzMzM7D9kDAIDEgEAAAAAAAAAAAAAAAAAAAAA0BWMsIFAL2OU
vPnp00EA+8Fx4Yh0HUAQmK3BbB9HQCZFX5gxuYJAAAAAAAAAJEAAAAAAAAAiQKQPAAAr
BAAAEAMAAAQBAABQAQAAzczMzMzM7D9kDAIDDgEAAAAAAAAAAAAAAAAAAAAA4KiV0IFA
bh2Xvfnp00EAHNnnZ4F0HUCrIVnbbx9HQDhvLeat2IJAAAAAAAAAJEAAAAAAAAAiQJ8P
AAAzBAAAFwMAAAcBAABcAQAAzczMzMzM7D9kDAIDCwEAAAAAAAAAAAAAAAAAAAAAaBiF
8IFAFAervvnp00EAnZpwvY50HUBZY7CjbB9HQC/VDcYo/oJAAAAAAAAAPkCEd+FPZDZC
QAgnAACJBAAAXwIAAKQAAACJAAAAmZmZmZmZ6z9kDAIDCwEAAAAAAAAAAAAAAAAAAAAA
4PV5QIJA/EfSv/np00EAW3VZh5t0HUA3RcmvaR9HQK/Lo0ByH4NAAAAAAAAAJECGVUlo
WFsoQLcLAAAvBAAALAMAAN4AAACXAAAAZmZmZmZm6j9kDAID9gAAAAAAAAAAAAAAAAAA
AAAASAh2WIJAMToJwfnp00EAToK05aJ0HUAEV2CWZh9HQKg2NwyBNYNAAAAAAAAAPkBy
WAUFxatIQLILAAAyBAAALwMAAPsAAACbAAAAMzMzMzMz6T9kDAID/QAAAAAAAAAAAAAA
AAAAAAAAUDltcIJA7ziKwvnp00EAwuJW7at0HUBfnifWYh9HQIyF0sWYhoNAAAAAAAAA
JEAiNUxQKtctQKAPAAAVBQAA0gMAAAoBAACgAAAAzczMzMzM7D9kDAIDBQEAAAAAAAAA
AAAAAAAAAAAACH1pkIJAndKkw/np00EArN7wYLp0HUCclGWyXx9HQMczbIxSQoRAAAAA
AAAAJEB20L0Am0MsQCMjAAB7BAAASgIAAP0AAACnAAAAzczMzMzM7D9kDAIDCAEAAAAA
AAAAAAAAAAAAAAAAgC1W2IJAoZm6xPnp00EA/vURkdB0HUBEsi7aXB9HQFsqq+Lm/4RA
AAAAAAAAJEBuR+6xxpYqQJ0PAACNBAAAYQMAAP0AAACqAAAAzczMzMzM7D9kDAID/QAA
AAAAAAAAAAAAAAAAAAAAiOJV+IJAFofHxfnp00EAa4AMyNh0HUCzOV2aWR9HQASIBdX4
WIVAAAAAAAAAJECAPKgB5yspQLoPAABpBAAAQwMAAPwAAAC0AAAAzczMzMzM7D9kDAID
/gAAAAAAAAAAAAAAAAAAAAAAKLeNGINAJsTZxvnp00EAADF6/9l0HUC0m5lEVh9HQLNk
UXiAWIVAAAAAAAAAJECl4e+PzK0oQK4LAABtBAAAYAMAAAYBAAC0AAAAzczMzMzM7D9k
DAIDBAEAAAAAAAAAAAAAAAAAAAAAMEmFMINAMEfgx/np00EAsn4l/tF0HUBKT5svUx9H
QC6Kc6ziJYVAAAAAAAAAJECErmqUXZcnQKEPAAAxBAAAFQMAAAUBAAC3AAAAzczMzMzM
7D9kDAIDCgEAAAAAAAAAAAAAAAAAAAAA2OOFUINAlInhyPnp00EAkpTrRMN0HUD6Af9S
UB9HQKx8UHCG8oRAAAAAAAAAJEBQCYGOAwMoQIoPAAAoBAAADgMAAAQBAAC7AAAAzczM
zMzM7D9kDAIDDQEAAAAAAAABAAAAAAAAAAAAUHNScINA9hL7yfnp00EA7rrI3sF0HUDZ
gEDSTB9HQLWdNWp3zIRAAAAAAAAAJEAsRKhlj20mQD4fAACmBAAASwIAAPMAAADAAAAA
zczMzMzM7D9kDAIDBgEAAAAAAAAAAAAAAAAAAAAA2K5QsINAIcsCy/np00EAhi+KrL10
HUAbKTuUSR9HQKKpyk3OpIRAAAAAAAAAJEDRrWx2ZiwlQIsTAABUBAAAFQMAAPIAAAC5
AAAAzczMzMzM7D9kDAIDAgEAAAAAAAAAAAAAAAAAAAAAgA5T2INAZ0r6y/np00EAoHo/
o7V0HUBqpu2xRh9HQD+OMo33g4RAAAAAAAAAJED6tk+/vxglQJ8PAADvAwAA3wIAAPAA
AAC7AAAAZmZmZmZm7j9kDAID/gAAAAAAAAAAAAAAAAAAAAAAQG9R+INAXU3zzPnp00EA
kHqy/aR0HUBdpZ0VRB9HQKBPT363Z4RAAAAAAAAAFEAAAAAAAAAjQKIPAAD0AwAA4wIA
AOsAAAC8AAAAMzMzMzMz7z9kDAIDAAEAAAAAAAAAAAAAAAAAAAAAQCtXGIRAHgsEzvnp
00EAhh5yDo50HUADc4CiQR9HQPruI//VO4RAAAAAAAAAFEAAAAAAAAAjQJETAAAuBAAA
5QIAAOEAAADHAAAAAAAAAAAA8D9kDAIDCgEAAAAAAAAAAAAAAAAAAAAAyIBzQIRAIXAK
z/np00EAysJi2310HUAhsBP3Ph9HQEGPpLS/C4RAAAAAAAAAFECeQsjyrnEiQJAPAAAA
BAAA7QIAAOAAAADMAAAAAAAAAAAA8D9kDAID/wAAAAAAAAAAAAAAAAAAAAAA2JRSYIRA
5MYP0Pnp00EAvRd5gGx0HUBpibxoPB9HQMKXhO2e74NAAAAAAAAAFEAAAAAAAAAiQI0T
AADuAwAAlgIAAN8AAADPAAAAAAAAAAAA8D9kDAID7wAAAAAAAAAAAAAAAAAAAAAAcKlR
iIRAOD1a0fnp00EABMbZu1h0HUBUVOw0OR9HQCL4Waor6INAAAAAAAAAJEAAAAAAAAAi
QHMXAADRBAAAOgMAAN4AAADKAAAAZmZmZmZm7j9kDAID7AAAAAAAAAAAAAAAAAAAAAAA
4CVYuIRAZBie0vnp00EAA7X1aEh0HUAgL54KNh9HQNZdQCKV6oNAAAAAAAAAFEAAAAAA
AAAiQJITAACZBAAAUgMAAN4AAADBAAAAMzMzMzMz7z9kDAID9AAAAAAAAAAAAAAAAAAA
AAAAWHV24IRAL2vB0/np00EAMaa/ZT10HUBoxDsXMx9HQFZFT1pw7oNAAAAAAAAAFEAA
AAAAAAAiQIgTAAAdBAAA0QIAAN8AAAC9AAAAAAAAAAAA8D9kDAID6QAAAAAAAAAAAAAA
AAAAAAAAeAR3CIVAZxEF1fnp00EAOq8azkF0HUA9gmCuLx9HQKy27GMV74NAAAAAAAAA
FEAAAAAAAAAiQH0TAACNBAAASQMAAN8AAAC7AAAAAAAAAAAA8D9kDAID4QAAAAAAAAAA
AAAAAAAAAAAASC9qMIVAJJZL1vnp00EAcX4JE0J0HUCZExg6LB9HQKG22Xvy6oNAAAAA
AAAAFEAAAAAAAAAiQJMTAACVBAAATwMAAOAAAAC7AAAAAAAAAAAA8D9kDAID3AAAAAAA
AAAAAAAAAAAAAAAAQGCFWIVAAxaD1/np00EApZZhG0B0HUCKQHbuKB9HQPWHj15q4YNA
AAAAAAAAFEAAAAAAAAAiQIgTAABhBAAAJAMAAN8AAAC6AAAAAAAAAAAA8D9kDAID4gAA
AAAAAAAAAAAAAAAAAAAA+Lt+gIVAcbfE2Pnp00EA9ENpCTt0HUBilCOLJR9HQIzxSwt6
1INAAAAAAAAAJEAAAAAAAAAiQHcTAACIBAAARQMAAN8AAAC6AAAAmpmZmZmZ7T9kDAID
5QAAAAAAAAAAAAAAAAAAAAAAYPFUqIVAEa8d2vnp00EAbl7AsjJ0HUBNNwLxIR9HQB6Y
KrOSy4NAAAAAAAAAJEAAAAAAAAAiQJoTAADfBAAAjAMAAOMAAAC+AAAAMzMzMzMz7z9k
DAID5gAAAAAAAAAAAAAAAAAAAAAAuLqD0IVA7O5v2/np00EAVjRkNCp0HUCFhTpqHh9H
QMK9+vJ4yoNAAAAAAAAAJEAAAAAAAAAiQHgTAADHBAAAeQMAAOcAAAC9AAAAzczMzMzM
7D9kDAID5QAAAAAAAAAAAAAAAAAAAAAAyC9c+IVApQ6j3Pnp00EAmH9w9Sx0HUCHWFwp
Gx9HQCIFM59BzINAAAAAAAAAFEAAAAAAAAAiQJsTAABUBAAAEwMAAOIAAACxAAAAAAAA
AAAA8D9kDAID4wAAAAAAAAAAAAAAAAAAAAAAUBSIIIZAu9Xk3fnp00EAgxpqf0B0HUDk
iUgnGB9HQLxxRU3pzYNAAAAAAAAAJEAAAAAAAAAiQIYTAACTBAAATgMAANoAAACVAAAA
MzMzMzMz7z9kDAID5gAAAAAAAAAAAAAAAAAAAAAAWCqPSIZACXX63vnp00EAUThuP2J0
HUBhSAtZFx9HQAg6yQAe0INAAAAAAAAAFEAAAAAAAAAiQH0TAAAEBAAAswIAANAAAABp
AAAAZmZmZmZm7j9kDAID5QAAAAAAAAAAAAAAAAAAAAAAaPv+cYZAc4wv4Pnp00EASypp
nYV0HUDzVPTBGB9HQCyA2V+k0oNAAAAAAAAAJEAAAAAAAAAiQJEPAAB3BAAAUAMAANcA
AABGAAAAMzMzMzMz7z9kDAID5wAAAAAAAAABAAAAAAAAAAAAwCNKkIZAJvl34fnp00EA
pOTyj5Z0HUDOSo/tGx9HQESVzAeo1YNAAAAAAAAAJEAAAAAAAAAiQIgTAACiBAAAWgMA
AOIAAAAeAAAAzczMzMzM7D9kDAID7AAAAAAAAAABAAAAAAAAAAAAePhLuIZApkCj4vnp
00EAFHvIL5N0HUA8oqP5Hh9HQO77Y1Ms2oNAAAAAAAAAJEAAAAAAAAAiQLIPAAAPBAAA
+QIAAOoAAAAGAAAAzczMzMzM7D9kDAID7AAAAAAAAAABAAAAAAAAAAAAsPeC2IZAtX/7
4/np00EABYShT4h0HUCsOK1TIh9HQD41+U3+4INAAAAAAAAAJEAAAAAAAAAiQI4TAACe
BAAAVwMAAPIAAABkAQAAzczMzMzM7D9kDAID7gAAAAAAAAABAAAAAAAAAAAAqOqFAIdA
SDJQ5fnp00EAlPSCS4B0HUCAABPbJR9HQMa2GECO64NAAAAAAAAAFEAAAAAAAAAiQHMT
AADFBAAAeAMAAPIAAABkAQAAMzMzMzMz7z9kDAID7wAAAAAAAAAAAAAAAAAAAAAAYBBR
KIdAnyNd5vnp00EAqOJbC390HUConYPRKB9HQMIq+C5/+INAAAAAAAAAFEAAAAAAAAAi
QKgPAADvAwAA3gIAAPEAAABnAQAAMzMzMzMz7z9kDAID8AAAAAAAAAAAAAAAAAAAAAAA
oLluSIdAGRdn5/np00EAmGw4hYZ0HUBGZ0XDKx9HQK6y7t49B4RAAAAAAAAAFEAAAAAA
AAAiQJcPAAAABAAA7QIAAO8AAAAHAAAAAAAAAAAA8D9kDAID8AAAAAAAAAAAAAAAAAAA
AAAAwIlPaIdAJ7R26Pnp00EAGsUG+JV0HUA3veqXLh9HQATktx/UF4RAAAAAAAAAFEAA
AAAAAAAiQJcPAAAnBAAADQMAAPAAAAAQAAAAAAAAAAAA8D9kDAID9AAAAAAAAAAAAAAA
AAAAAAAAMH32iIdAc5Ki6fnp00EAw2WcLqp0HUC48xaSMR9HQOjijoTkJIRAAAAAAAAA
FEAAAAAAAAAiQJ0TAACUBAAATgMAAO0AAAAaAAAAAAAAAAAA8D9kDAID9QAAAAAAAAAA
AAAAAAAAAAAAyGp6sIdAagXD6vnp00EAZKX8/8F0HUDskM4lNB9HQBB1T4n9KYRAAAAA
AAAAFEAAAAAAAAAiQHoTAABgBAAAJAMAAOgAAAAiAAAAAAAAAAAA8D9kDAID9AAAAAAA
AAAAAAAAAAAAAAAAeM1S2IdAOwbq6/np00EAmJQ4+d50HUBzj6hkNh9HQMRM5JYJKYRA
AAAAAAAAFEAAAAAAAAAiQIITAAB2BAAANgMAAOUAAAAuAAAAAAAAAAAA8D9kDAID8gAA
AAAAAAAAAAAAAAAAAAAAaLJGAIhA4esc7fnp00EAPzYskf10HUCLkGimOB9HQH6PmLTl
JIRAAAAAAAAAFEAAAAAAAAAiQIkTAACdBAAAVgMAAOgAAAAwAAAAAAAAAAAA8D9kDAID
8wAAAAAAAAAAAAAAAAAAAAAAiCNPKIhAFeNM7vnp00EA3bgRpBp1HUDdtyjsOh9HQObs
qNT9IIRAAAAAAAAAFEAAAAAAAAAiQIQTAAB/BAAAPQMAAOgAAAAuAAAAAAAAAAAA8D9k
DAID8wAAAAAAAAAAAAAAAAAAAAAA+LDXUIhAyA6J7/np00EAYuMFcjB1HUCSIHTWPR9H
QHENevE7H4RAAAAAAAAAFEAAAAAAAAAiQI8TAACbBAAAVAMAAOcAAAAiAAAAAAAAAAAA
8D9kDAID8wAAAAAAAAAAAAAAAAAAAAAA8DBUeIhAf8nM8Pnp00EAeo5hwD51HUC1wAos
QR9HQEsN3MKCIIRAAAAAAAAAFEAAAAAAAAAiQIYTAAC4BAAAbAMAAOoAAAAWAAAAAAAA
AAAA8D9kDAID8QAAAAAAAAAAAAAAAAAAAAAA6A5JoIhAcR0N8vnp00EAysekFUR1HUCI
0JCuRB9HQAXXujdPJoRAAAAAAAAAJEAAAAAAAAAiQJgTAACyBAAAZwMAAO0AAAALAAAA
ZmZmZmZm7j9kDAID8QAAAAAAAAAAAAAAAAAAAAAAsPl4yIhAjuZR8/np00EAfhTJnkR1
HUAeLgNESB9HQCa/QGBdMIRAAAAAAAAAFEAAAAAAAAAiQIcTAADBBAAAdAMAAPEAAAAF
AAAAmZmZmZmZ7T9kDAID8QAAAAAAAAAAAAAAAAAAAAAAOI108IhA8keX9Pnp00EAMYmO
xUt1HUCIs0jSSx9HQDro9mXTPYRAAAAAAAAAFEAAAAAAAAAiQIcTAADKBAAAewMAAO4A
AAAMAAAAMzMzMzMz7z9kDAID8QAAAAAAAAAAAAAAAAAAAAAAOJ52GIlATP209fnp00EA
8rUIq3B1HUDv3kt8Sx9HQLwUB3DKTIRAAAAAAAAAJEAAAAAAAAAiQEQbAABBBAAAFAIA
AKUAAABzAAAAZmZmZmZm7j9kDAID8AAAAAAAAAAAAAAAAAAAAAAA2DZFUIlAyh/09vnp
00EAUQrKAXV1HUBuTuzeRx9HQDJKo76GWYRAAAAAAAAAJEAAAAAAAAAiQIwTAADSBAAA
ggMAAMcAAACqAAAAMzMzMzMz7z9kDAID6QAAAAAAAAABAAAAAAAAAAAAQIhLeIlADoso
+Pnp00EAzHDm7nF1HUBKzNNcRB9HQNW8tGP3YoRAAAAAAAAAFEAAAAAAAAAiQIUTAACr
BAAAYQMAAOIAAACzAAAAZmZmZmZm7j9kDAID6QAAAAAAAAAAAAAAAAAAAAAA4AJJoIlA
4f+a+fnp00EAIuJJ6Wh1HUCfpGPiQB9HQIrJ58staoRAAAAAAAAAJEAAAAAAAAAiQI0T
AAC6BAAAbgMAAOUAAADAAAAAmpmZmZmZ7T9kDAID6QAAAAAAAAAAAAAAAAAAAAAAeK5W
yIlAD0EV+/np00EAxSlM6151HUDA1W6kPR9HQCZF2KK9boRAAAAAAAAAJEAAAAAAAAAi
QH8TAABzBAAANAMAAOQAAADEAAAAzczMzMzM7D9kDAID6QAAAAAAAAAAAAAAAAAAAAAA
+OTh8IlAroNe/Pnp00EAZ6f6eVJ1HUA9V6CFOh9HQHrrWrKqcYRAAAAAAAAAFEAAAAAA
AAAiQIwTAABhBAAAJAMAAOMAAADHAAAAmZmZmZmZ7T9kDAID6QAAAAAAAAAAAAAAAAAA
AAAAGKtNGIpArMqd/fnp00EAHl/s/0J1HUC7jztXNx9HQIbHf1TvdIRAAAAAAAAAFEAA
AAAAAAAiQJgTAACUBAAATgMAAOMAAADKAAAAAAAAAAAA8D9kDAID6QAAAAAAAAAAAAAA
AAAAAAAAwOJ3QIpA073i/vnp00EA6HI4zTN1HUBLu2cONB9HQApd41cSeYRAAAAAAAAA
JEAAAAAAAAAiQHoTAACxBAAAZwMAAOUAAADJAAAAmpmZmZmZ7T9kDAID6gAAAAAAAAAA
AAAAAAAAAAAAKJVQaIpAIBQaAPrp00EAAiUMPTB1HUBDgQCyMB9HQKZnl1HtfoRAAAAA
AAAAFEAAAAAAAAAiQIkTAAB6BAAAOQMAAOMAAAC5AAAAMzMzMzMz7z9kDAID6QAAAAAA
AAAAAAAAAAAAAAAAgC5akIpASi9WAfrp00EAT/zr5kR1HUABblPHLR9HQJCVZfjHh4RA
AAAAAAAAFEAAAAAAAAAiQJUTAACJBAAARQMAAN4AAACVAAAAAAAAAAAA8D9kDAID5wAA
AAAAAAAAAAAAAAAAAAAAGL16uIpABaaVAvrp00EA3Xq/oWx1HUAcHn9MLR9HQG6kM3Lf
kYRAAAAAAAAAFEAAAAAAAAAiQFwXAACaBAAA+AIAANMAAABdAAAAAAAAAAAA8D9kDAID
4wAAAAAAAAABAAAAAAAAAAAASGpI6IpAqETYA/rp00EAQ+LJco11HUDwnJ9bLx9HQG7e
3jUAnIRAAAAAAAAAJEAAAAAAAAAiQIwTAACmBAAAXgMAANsAAAA3AAAAZmZmZmZm7j9k
DAID5AAAAAAAAAABAAAAAAAAAAAAyNZTEItAVRwHBfrp00EALnPik5l1HUDVkxxtMh9H
QPjgZloRp4RAAAAAAAAAJEAAAAAAAAAiQIQTAABNBAAADQMAAOMAAAAVAAAAzczMzMzM
7D9kDAID4wAAAAAAAAABAAAAAAAAAAAAwCBJOItAM/A4Bvrp00EASvd22J91HUBsTB6M
NR9HQPoasOTfs4RAAAAAAAAAJEAAAAAAAAAiQJwTAAA0BAAA6wIAAOkAAAAPAAAAzczM
zMzM7D9kDAID5AAAAAAAAAAAAAAAAAAAAAAAQPB/YItA8XqCB/rp00EAF8U3tLB1HUBa
orqZOB9HQImOqPaCwYRAAAAAAAAAFEAAAAAAAAAiQIETAAB9BAAAPAMAAOQAAAAfAAAA
AAAAAAAA8D9kDAID4wAAAAAAAAAAAAAAAAAAAAAAyJRviItAYfTGCPrp00EAi0gLX8t1
HUA6n5gbOx9HQBhDZUMW0IRAAAAAAAAAFEAAAAAAAAAiQIMTAACFBAAAQgMAAOQAAAAu
AAAAAAAAAAAA8D9kDAID4wAAAAAAAAAAAAAAAAAAAAAAGDLXsItALyn5Cfrp00EAuPaV
qed1HUBQD19bPR9HQLauTiLn4YRAAAAAAAAAFEAAAAAAAAAiQH8TAABoBAAAKwMAAOQA
AAAwAAAAAAAAAAAA8D9kDAID4gAAAAAAAAAAAAAAAAAAAAAAiFtM2ItAMsUPC/rp00EA
Zg797/t1HUALfo7cPx9HQEOA9UAX9YRAAAAAAAAAJEAAAAAAAAAiQIgTAAAOBAAAvgIA
AN4AAAAmAAAAzczMzMzM7D9kDAID4QAAAAAAAAAAAAAAAAAAAAAAYGJMAIxAtb1UDPrp
00EAkEa1vw52HUAFdaYDQx9HQNLw/mHbAoVAAAAAAAAAFEAAAAAAAAAiQIkTAAC1BAAA
aQMAAN4AAAAcAAAAAAAAAAAA8D9kDAID4gAAAAAAAAAAAAAAAAAAAAAAyGxQKIxAySV+
Dfrp00EAekBwRx52HUBNvuzzRR9HQB2lGGBVCYVAAAAAAAAAFEAAAAAAAAAiQK8PAABJ
BAAAKQMAAN8AAAATAAAAMzMzMzMz7z9kDAID5AAAAAAAAAAAAAAAAAAAAAAA8KGESIxA
EamPDvrp00EAY8IP5Cx2HUBmvoqgSB9HQB552qPQC4VAAAAAAAAAFEAAAAAAAAAiQIIT
AADsAwAAlQIAAOAAAAAUAAAAMzMzMzMz7z9kDAID4gAAAAAAAAAAAAAAAAAAAAAAqCRy
cIxA542zD/rp00EAVzi1PD12HUDoCF9oSx9HQNIKdeGiD4VAAAAAAAAAFEAAAAAAAAAi
QJkPAAAjBAAACgMAAOIAAAAWAAAAAAAAAAAA8D9kDAID5QAAAAAAAAAAAAAAAAAAAAAA
eHVVkIxAFsMBEfrp00EAtI5yPEx2HUBWzpKyTh9HQIIK4oAbF4VAAAAAAAAAFEAAAAAA
AAAiQHIXAACxBAAAEgMAAN4AAAAVAAAAAAAAAAAA8D9kDAID4wAAAAAAAAAAAAAAAAAA
AAAAwCtiwIxAcIQoEvrp00EA5V/yaVx2HUA+VS1/UR9HQLJz6LdpHoVAAAAAAAAAFEAA
AAAAAAAiQIYTAAAnBAAA3QIAANcAAAAbAAAAAAAAAAAA8D9kDAID5AAAAAAAAAAAAAAA
AAAAAAAA8NtX6IxAheVsE/rp00EAgsgry3N2HUA3j+ZOVB9HQKB3YyyTJIVAAAAAAAAA
FEAAAAAAAAAiQIwTAACYBAAAUgMAANgAAAAiAAAAAAAAAAAA8D9kDAID5AAAAAAAAAAA
AAAAAAAAAAAAQCpsEI1Ah1OjFPrp00EAnCK/O5F2HUCAyxRwVh9HQKrxDsogLIVAAAAA
AAAAFEAAAAAAAAAiQIYTAABnBAAAKQMAANoAAAAwAAAAAAAAAAAA8D9kDAID5AAAAAAA
AAAAAAAAAAAAAAAAgNRmOI1A6/u9Ffrp00EAWLcS5rJ2HUBd24olVx9HQLgOd0cUNIVA
AAAAAAAAFEAAAAAAAAAiQIUTAAD5AwAApAIAANYAAABKAAAAAAAAAAAA8D9kDAID4wAA
AAAAAAAAAAAAAAAAAAAA8MVXYI1A3gEQF/rp00EAlFbNXNl2HUD6F+cKVh9HQHB1HTCz
OoVAAAAAAAAAFEAAAAAAAAAiQHUXAACmBAAABAMAANYAAABqAAAAAAAAAAAA8D9kDAID
4AAAAAAAAAABAAAAAAAAAAAAOPNykI1AT4tWGPrp00EAudqh9/V2HUCjkyzEUx9HQEBP
lPcJQYVAAAAAAAAAFEAAAAAAAAAiQG8XAAB1BAAAyAIAANYAAACDAAAAAAAAAAAA8D9k
DAID3QAAAAAAAAABAAAAAAAAAAAAENFvwI1AJ/WqGfrp00EA+bZMWBN3HUDpk5BWUR9H
QMSqwin0R4VAAAAAAAAAFEAAAAAAAAAiQHYXAACpBAAACAMAANIAAAB/AAAAAAAAAAAA
8D9kDAID3AAAAAAAAAAAAAAAAAAAAAAACNWG8I1AY0L8Gvrp00EAQf/+Djp3HUAQA413
UB9HQFQPq21XUIVAAAAAAAAAJEAAAAAAAAAiQGQXAACWBAAA8wIAAM0AAABkAAAAMzMz
MzMz7z9kDAID2QAAAAAAAAAAAAAAAAAAAAAACGXBIY5A8osrHPrp00EA0980Z1x3HUDy
SjJVUR9HQJAKUNBuXIVAAAAAAAAAJEAAAAAAAAAiQIATAAAaBAAAzgIAAM8AAABLAAAA
mpmZmZmZ7T9kDAID0wAAAAAAAAAAAAAAAAAAAAAA+BhMSI5A1hlZHfrp00EAjxF5Z3Z3
HUASL7xuUx9HQNxoWP/hbIVAAAAAAAAAFEAAAAAAAAAiQI4TAAAUBAAAxQIAAM8AAAAv
AAAAZmZmZmZm7j9kDAIDzwAAAAAAAAABAAAAAAAAAAAAkL9bcI5AiVyLHvrp00EAmRO2
OId3HUBHYYEqVh9HQFBawX4mfYVAAAAAAAAAJEAAAAAAAAAiQKwPAAAbBAAAAwMAANEA
AAAaAAAAMzMzMzMz7z9kDAID1AAAAAAAAAABAAAAAAAAAAAA8DuGkI5A7ZLLH/rp00EA
tk01bZd3HUB2MmUHWR9HQDa1lAN+jIVAAAAAAAAAFEAAAAAAAAAiQJIPAAA6BAAAHQMA
ANsAAAAQAAAAMzMzMzMz7z9kDAID2gAAAAAAAAAAAAAAAAAAAAAACPtWsI5AVPswIfrp
00EAViaOo6p3HUDFM8MhXB9HQFgUI7m/nIVAAAAAAAAAFEAAAAAAAAAiQJMTAACrBAAA
YQMAAOEAAAAcAAAAAAAAAAAA8D9kDAID3AAAAAAAAAAAAAAAAAAAAAAA2Mqy2I5A+Ptx
Ivrp00EAevUNVsh3HUDM1OT5XR9HQK5GOjdrqYVAAAAAAAAAFEAAAAAAAAAiQHkTAAAx
BAAA7AIAAN0AAAA2AAAAAAAAAAAA8D9kDAID2gAAAAAAAAAAAAAAAAAAAAAAkB+RAI9A
JTi+I/rp00EAUcGHIu13HUBKpkvNXh9HQNHfw3JQroVAAAAAAAAAFEAAAAAAAAAiQIQT
AABcBAAAIAMAAN4AAABIAAAAAAAAAAAA8D9kDAID2gAAAAAAAAAAAAAAAAAAAAAA+KZJ
KI9AFAsNJfrp00EA2JncXRN4HUBcJ+bzXR9HQB+3u3aQroVAAAAAAAAAFEAAAAAAAAAi
QIEXAACHBAAA3AIAANsAAABjAAAAAAAAAAAA8D9kDAID2QAAAAAAAAABAAAAAAAAAAAA
qLNzWI9AgzYoJvrp00EASUqppzN4HUCe1eTdXB9HQM7Ah1KwrYVAAAAAAAAAFEAAAAAA
AAAiQIATAAD5AwAApQIAAOAAAABrAAAAAAAAAAAA8D9kDAID2gAAAAAAAAAAAAAAAAAA
AAAAmE1ngI9ANhtoJ/rp00EAxB54/1l4HUACBi8cXB9HQMgktE4jrYVAAAAAAAAAFEAA
AAAAAAAiQHUXAACCBAAA2AIAAN4AAABtAAAAAAAAAAAA8D9kDAID2gAAAAAAAAAAAAAA
AAAAAAAAQMtzsI9AAZ2DKPrp00EA+GkRK3p4HUCkkC0BWx9HQGiygyBusIVAAAAAAAAA
JEAAAAAAAAAiQKUPAAD4AwAA5gIAAOMAAABtAAAAZmZmZmZm7j9kDAID3QAAAAAAAAAA
AAAAAAAAAAAASP180I9AibfZKfrp00EA7pqG7594HUBLNAaAWR9HQFKRbBzmvIVAAAAA
AAAAFEAAAAAAAAAiQIYTAADFBAAAdwMAAOsAAABsAAAAAAAAAAAA8D9kDAID4AAAAAAA
AAAAAAAAAAAAAAAAMPN9+I9AEdoPK/rp00EAacRP/sN4HUAee0aDWB9HQGLPlfqf0oVA
AAAAAAAAFEAAAAAAAAAiQIYTAABWBAAAGQMAAOsAAABqAAAAAAAAAAAA8D9kDAID4gAA
AAAAAAAAAAAAAAAAAAAAyLM7EJBAIxRLLPrp00EAGytdSOp4HUCwyqYMWB9HQPLAeJqM
6YVAAAAAAAAAFEAAAAAAAAAiQIsTAABvBAAAMAMAAOoAAABhAAAAAAAAAAAA8D9kDAID
4wAAAAAAAAAAAAAAAAAAAAAAKPQ6JJBAbeiBLfrp00EAeof+jBB5HUA4SFE/WB9HQIfz
dMis+YVAAAAAAAAAFEAAAAAAAAAiQJsPAABlBAAAQQMAAOoAAABZAAAAAAAAAAAA8D9k
DAID6QAAAAAAAAAAAAAAAAAAAAAA9BA9NJBAvs3CLvrp00EACGSKOzh5HUActbHvWB9H
QDF8gBrWAYZAAAAAAAAAFEAAAAAAAAAiQJsPAACkBAAAdAMAAO4AAABPAAAAAAAAAAAA
8D9kDAID7AAAAAAAAAAAAAAAAAAAAAAA/L00RJBAiFHPL/rp00EAv9MhJll5HUDwf2/Y
WR9HQD20Ohf1BIZAAAAAAAAAFEAAAAAAAAAiQKkPAAD2AwAA5AIAAPQAAABJAAAAAAAA
AAAA8D9kDAID6gAAAAAAAAAAAAAAAAAAAAAA9Pg9VJBAKosBMfrp00EAvajuznx5HUCt
379WWx9HQF5KzO48BYZAAAAAAAAAFEAAAAAAAAAiQI8PAACLBAAAYAMAAP4AAABBAAAA
AAAAAAAA8D9kDAID7gAAAAAAAAAAAAAAAAAAAAAAnIwqZJBA1VocMvrp00EAsbSS+5x5
HUBZfc/VXB9HQDpnUE6PBIZAAAAAAAAAFEAAAAAAAAAiQMMLAAAwBAAALQMAABYBAAA9
AAAAAAAAAAAA8D9kDAID+QAAAAAAAAAAAAAAAAAAAAAAsA08cJBADlt4M/rp00EAlfVL
3MV5HUCikKx7Xh9HQL5EWnTCA4ZAAAAAAAAAFEAAAAAAAAAiQJ8PAAAsBQAA5QMAACcB
AAA7AAAAAAAAAAAA8D9kDAID/wAAAAAAAAAAAAAAAAAAAAAArFg8gJBAjRm6NPrp00EA
dCRemOx5HUC1GQYHYB9HQO7RJy32AoZAAAAAAAAAFEAAAAAAAAAiQJcPAADkBAAAqgMA
AC0BAAA+AAAAAAAAAAAA8D9kDAIDBgEAAAAAAAAAAAAAAAAAAAAAOFswkJBArO/sNfrp
00EASi5JjBF6HUCZ4OvhYR9HQPfV0RxhAoZAAAAAAAAAJEAAAAAAAAAiQJ4PAADmBAAA
qwMAADABAAA8AAAAZmZmZmZm7j9kDAIDDgEAAAAAAAAAAAAAAAAAAAAA8EgsoJBA/oAA
N/rp00EAHAF7xTZ6HUBgpmmUYx9HQOSdnDkrAoZAAAAAAAAAJEAAAAAAAAAiQLEPAADT
BAAAmwMAAC0BAAA+AAAAMzMzMzMz7z9kDAIDFgEAAAAAAAAAAAAAAAAAAAAAFOw/sJBA
ekUAOPrp00EAPZ6gL1l6HUBgQgqOZR9HQPLCvrBSAoZAAAAAAAAAFEAAAAAAAAAiQKIP
AAC9BAAAiQMAACgBAAA5AAAAMzMzMzMz7z9kDAIDFwEAAAAAAAAAAAAAAAAAAAAAkGFF
wJBAoegBOfrp00EA8LzCj3x6HUAoGPOeZx9HQCz6VF9AA4ZAAAAAAAAAFEAAAAAAAAAi
QIgPAADlBAAAqwMAACsBAAA5AAAAMzMzMzMz7z9kDAIDIAEAAAAAAAAAAAAAAAAAAAAA
kCY+0JBA9NEOOvrp00EACiG/VaB6HUDNx9L0aR9HQLV4eagEBYZAAAAAAAAAFEAAAAAA
AAAiQKkPAAAkBQAA3gMAADEBAAA1AAAAMzMzMzMz7z9kDAIDJQEAAAAAAAAAAAAAAAAA
AAAApPkz4JBAxKzdOvrp00EAmdRIart6HUATqffDax9HQMX2Cuf1BoZAAAAAAAAAFEAA
AAAAAAAiQMALAADtAwAA9QIAADcBAAA2AAAAAAAAAAAA8D9kDAIDKgEAAAAAAAAAAAAA
AAAAAAAAGOQ+7JBAA3jqO/rp00EAmdbomOF6HUDrhoaubR9HQKB8nCoOCYZAAAAAAAAA
FEAAAAAAAAAiQJsPAAAQBQAAzgMAADwBAAA6AAAAAAAAAAAA8D9kDAIDLAEAAAAAAAAA
AAAAAAAAAAAA2BQ4/JBABz3sPPrp00EAHbMY7gZ7HUAwMQlzbx9HQDjxHBnHC4ZAAAAA
AAAAJEAAAAAAAAAiQKgPAADiBAAApwMAADoBAAA7AAAAZmZmZmZm7j9kDAIDMgEAAAAA
AAAAAAAAAAAAAAAAbHBCDJFA7SffPfrp00EAOl1iuCh7HUA4PLBtcR9HQIZeFQO8DoZA
AAAAAAAAJEAAAAAAAAAiQJ0PAACuBAAAfQMAADIBAAA9AAAAzczMzMzM7D9kDAIDNgEA
AAAAAAAAAAAAAAAAAAAAGHFBHJFA/mLIPvrp00EAusDkBEt7HUCPheA3cx9HQD4hw/Ak
EoZAAAAAAAAAFEAAAAAAAAAiQJAPAACYBAAAawMAACsBAAA8AAAAMzMzMzMz7z9kDAID
NwEAAAAAAAAAAAAAAAAAAAAAhG8xLJFAtbSrP/rp00EAHh+m9Gx7HUAmQYDxdB9HQOAh
JA5PFoZAAAAAAAAAFEAAAAAAAAAiQJ4PAACEBAAAWgMAACgBAAA9AAAAAAAAAAAA8D9k
DAIDNwEAAAAAAAAAAAAAAAAAAAAAlNAtPJFAPlWNQPrp00EAwNFg7I97HUAQzQxrdh9H
QNflTfZ5GoZAAAAAAAAAFEAAAAAAAAAiQKMPAAB2BAAATgMAACQBAABCAAAAAAAAAAAA
8D9kDAIDOQEAAAAAAAAAAAAAAAAAAAAA4JBtTJFAtSdqQfrp00EAt4/IQbN7HUAZyQ6A
dx9HQORjFzLhHoZAAAAAAAAAFEAAAAAAAAAiQDkQAABMBAAAKAMAAB0BAAA/AAAAAAAA
AAAA8D9kDAIDNwEAAAAAAAAAAAAAAAAAAAAACOczXZFAWttAQvrp00EAogANvtF7HUAM
5JwceR9HQJgfN9ssJIZAAAAAAAAAFEAAAAAAAAAiQBAPAAAZBAAABQMAABQBAAA6AAAA
MzMzMzMz7z9kDAIDMgEAAAAAAAAAAAAAAAAAAAAAcIo+bJFAyEAhQ/rp00EAvINP4u17
HUBgla8pex9HQDYPvDZYKoZAAAAAAAAAFEAAAAAAAAAiQJoPAAA4BAAAGwMAAAwBAAAy
AAAAZmZmZmZm7j9kDAIDLgEAAAAAAAAAAAAAAAAAAAAAnJs2fJFA9Sf7Q/rp00EAAe0L
1wZ8HUBvJC5TfR9HQIGLhsxXMYZAAAAAAAAAFEAAAAAAAAAiQKUPAAANBAAA9wIAAAcB
AAAvAAAAMzMzMzMz7z9kDAIDKgEAAAAAAAAAAAAAAAAAAAAAIGs9jJFA28TRRPrp00EA
Akz9ox98HUDSbzlefx9HQJgDCfCyOIZAAAAAAAAAFEAAAAAAAAAiQKIPAADuAwAA3QIA
AAMBAAArAAAAAAAAAAAA8D9kDAIDJwEAAAAAAAAAAAAAAAAAAAAAzCZAnJFARRG4Rfrp
00EAzQvkmjV8HUDfK3HWgR9HQMKP0eqYQIZAAAAAAAAAFEAAAAAAAAAiQKAPAAAiBAAA
CQMAAAEBAAAjAAAAAAAAAAAA8D9kDAIDJAEAAAAAAAAAAAAAAAAAAAAA4OlFrJFAXguj
Rvrp00EA9CJwf0V8HUBSIkmbhB9HQAjmYxqJSIZAAAAAAAAAJEAAAAAAAAAiQJwPAAAa
BAAAAgMAAP4AAAATAAAAmpmZmZmZ7T9kDAIDIQEAAAAAAAAAAAAAAAAAAAAAhKY8vJFA
nuikR/rp00EAyGSwSFB8HUDpGLHGhx9HQC2cHoREToZAAAAAAAAAJEAAAAAAAAAiQJwP
AABiBAAAPgMAAAEBAAASAAAAzczMzMzM7D9kDAIDHwEAAAAAAAAAAAAAAAAAAAAAuPI5
zJFA9jbNSPrp00EAbCubAF58HUDG8nNLix9HQNjgwyNVUYZAAAAAAAAAFEAAAAAAAAAi
QIgTAADtBAAAmAMAAAIBAAASAAAAAAAAAAAA8D9kDAIDFwEAAAAAAAAAAAAAAAAAAAAA
nOQ34JFAKMPWSfrp00EAoyl8vWd8HUDr3nV2jh9HQMSNwYYXU4ZAAAAAAAAAFEAAAAAA
AAAiQKIPAABZBAAANgMAAAEBAAALAAAAZmZmZmZm7j9kDAIDFAEAAAAAAAAAAAAAAAAA
AAAAJHY98JFA1qPVSvrp00EAlvBIh3Z8HUDvyg9NkR9HQLBk0K8jVYZAAAAAAAAAFEAA
AAAAAAAiQKEPAAAhBAAACAMAAAEBAAAVAAAAAAAAAAAA8D9kDAIDEQEAAAAAAAAAAAAA
AAAAAAAAUEw+AJJApXjoS/rp00EANtU0YIh8HUCbxpBElB9HQDPc0IOBWoZAAAAAAAAA
FEAAAAAAAAAiQJwPAABwBAAASQMAAAUBAAAXAAAAMzMzMzMz7z9kDAIDEAEAAAAAAAAA
AAAAAAAAAAAAnF45EJJAxeT0TPrp00EA+xtI/Jt8HUB/5GwVlx9HQLUqxyOkZIZAAAAA
AAAAFEAAAAAAAAAiQKEPAABcBAAAOQMAAAQBAAAcAAAAAAAAAAAA8D9kDAIDDwEAAAAA
AAAAAAAAAAAAAAAAEIE6IJJA9/0NTvrp00EAtue2gLR8HUAPSM3NmR9HQJY5XUA7cIZA
AAAAAAAAJEAAAAAAAAAiQJ4PAACTBAAAZgMAAAUBAAAhAAAAZmZmZmZm7j9kDAIDDwEA
AAAAAAAAAAAAAAAAAAAAjM80MJJAPFP+Tvrp00EAyjQuqc58HUB5LUmxmx9HQCCIXaX6
eIZAAAAAAAAAFEAAAAAAAAAiQJ0PAADoAwAA2QIAAAIBAAArAAAAAAAAAAAA8D9kDAID
DQEAAAAAAAAAAAAAAAAAAAAA3Hs4QJJAFAX/T/rp00EAngbyu+t8HUCnw0CanR9HQHDJ
QTzKfYZAAAAAAAAAFEAAAAAAAAAiQKQPAAAwBAAAFAMAAAMBAAAzAAAAAAAAAAAA8D9k
DAIDDQEAAAAAAAAAAAAAAAAAAAAAgLs8UJJA2sMCUfrp00EA9ZO3VQp9HUD4idVtnx9H
QBMkfoM/gYZAAAAAAAAAFEAAAAAAAAAiQJMPAABEBAAAJQMAAAYBAAA2AAAAAAAAAAAA
8D9kDAIDDQEAAAAAAAAAAAAAAAAAAAAA4MIqYJJAduEFUvrp00EAc1jADyh9HUB/x9Vc
oR9HQP4j9xrShYZAAAAAAAAAFEAAAAAAAAAiQK4PAABEBAAAJQMAAAkBAAA1AAAAAAAA
AAAA8D9kDAIDDQEAAAAAAAAAAAAAAAAAAAAAMEI4cJJAul0TU/rp00EAIAq9GEd9HUB3
+kdYox9HQB+f3nJei4ZAAAAAAAAAFEAAAAAAAAAiQJwPAABtBAAARwMAAA0BAAA0AAAA
AAAAAAAA8D9kDAIDDwEAAAAAAAAAAAAAAAAAAAAAeNQ4gJJANNwYVPrp00EAMmXBAWV9
HUC3ZKpFpR9HQGKpABYokYZAAAAAAAAAFEAAAAAAAAAiQJQPAABHBAAAKAMAAAsBAAA2
AAAAAAAAAAAA8D9kDAIDEAEAAAAAAAAAAAAAAAAAAAAAaJFtkJJAJIQeVfrp00EAGd1+
SYJ9HUCCNt1Kpx9HQDh8bPQ5loZAAAAAAAAAFEAAAAAAAAAiQKwPAABMBAAAKwMAAAwB
AAA0AAAAAAAAAAAA8D9kDAIDEQEAAAAAAAAAAAAAAAAAAAAAGMM8oJJAfcsfVvrp00EA
IWNYYaB9HUBTc6ovqR9HQBKtu3EemoZAAAAAAAAAFEAAAAAAAAAiQJ0PAABFBAAAJQMA
AAwBAAA5AAAAAAAAAAAA8D9kDAIDEQEAAAAAAAAAAAAAAAAAAAAAJJg6sJJA5Y0kV/rp
00EAWUJznr59HUCMGsY0qx9HQFQU+cKQnoZAAAAAAAAAFEAAAAAAAAAiQKUPAABiBAAA
PQMAABEBAAAzAAAAAAAAAAAA8D9kDAIDEQEAAAAAAAAAAAAAAAAAAAAA5CU/wJJAk3A+
WPrp00EAKjwlJuB9HUAHsoJVrR9HQNREvIBSpIZAAAAAAAAAFEAAAAAAAAAiQIMTAADF
BAAAdwMAABQBAAA3AAAAAAAAAAAA8D9kDAIDEQEAAAAAAAAAAAAAAAAAAAAAYDE61JJA
SAA9Wfrp00EAvyIqIf59HUDxf/9Irx9HQDIhSFnqqoZAAAAAAAAAFEAAAAAAAAAiQJ8P
AABOBAAALQMAABIBAAAyAAAAAAAAAAAA8D9kDAIDEQEAAAAAAAAAAAAAAAAAAAAA+Fg6
5JJASH0+Wvrp00EA/QP2FR1+HUACPocxsR9HQLxcDhF2sYZAAAAAAAAAFEAAAAAAAAAi
QKQPAABcBAAAOQMAAA8BAAA3AAAAAAAAAAAA8D9kDAIDEgEAAAAAAAAAAAAAAAAAAAAA
rGw/9JJAeno1W/rp00EAg4NDcDt+HUARo2r8sh9HQAToCdsTuYZAAAAAAAAAFEAAAAAA
AAAiQJgPAAA3BAAAGgMAAA0BAAA1AAAAAAAAAAAA8D9kDAIDEQEAAAAAAAAAAAAAAAAA
AAAARIw3BJNAEcwfXPrp00EA80xRhFd+HUBDyuLWtB9HQB5tANDUwoZAAAAAAAAAFEAA
AAAAAAAiQKcPAAANBAAA9wIAAAkBAAA1AAAAAAAAAAAA8D9kDAIDDwEAAAAAAAAAAAAA
AAAAAAAAOApAFJNAmRYOXfrp00EAqIoc+nJ+HUDR4wXdth9HQGLYB0oAzIZAAAAAAAAA
FEAAAAAAAAAiQJ4PAAAjBAAACgMAAAUBAAAxAAAAAAAAAAAA8D9kDAIDDgEAAAAAAAAA
AAAAAAAAAAAAAEs+JJNA+RoJXvrp00EARxxVFY9+HUBNfS8QuR9HQCfnvjHI0YZAAAAA
AAAAFEAAAAAAAAAiQKAPAABZBAAANgMAAAwBAAAsAAAAAAAAAAAA8D9kDAIDDwEAAAAA
AAAAAAAAAAAAAAAAMJg/NJNAEEQNX/rp00EAbAcvt6x+HUDUZpA/ux9HQMLMD/mv1IZA
AAAAAAAAFEAAAAAAAAAiQKEPAAB3BAAATwMAAA0BAAArAAAAAAAAAAAA8D9kDAIDEQEA
AAAAAAAAAAAAAAAAAAAAoNc/RJNAmlgaYPrp00EAmQDrB8h+HUBh2wvCvR9HQOa4VUnO
1YZAAAAAAAAAFEAAAAAAAAAiQKAPAACSBAAAZQMAABEBAAAoAAAAAAAAAAAA8D9kDAID
EgEAAAAAAAAAAAAAAAAAAAAA+OxAVJNAEfk4Yfrp00EAQJu6juB+HUCDfhKxwB9HQPLy
1H/x1oZAAAAAAAAAFEAAAAAAAAAiQJ0PAADNBAAAlgMAABsBAAAlAAAAAAAAAAAA8D9k
DAIDFAEAAAAAAAAAAAAAAAAAAAAAVCE+ZJNAYl4/Yvrp00EAFc2QY/Z+HUByleRlwx9H
QHqKDdlV2YZAAAAAAAAAFEAAAAAAAAAiQKAPAABgBAAAPAMAABgBAAAiAAAAAAAAAAAA
8D9kDAIDFAEAAAAAAAAAAAAAAAAAAAAAZJ48dJNAhmc2Y/rp00EAxbcLMQp/HUBrXnIH
xh9HQOSkkhOJ3YZAAAAAAAAAFEAAAAAAAAAiQJ4PAAAqBAAADwMAABEBAAAhAAAAAAAA
AAAA8D9kDAIDEwEAAAAAAAAAAAAAAAAAAAAAxDk6hJNAIDgnZPrp00EAUMQMqRx/HUAt
6CCuyB9HQPhf9y/w4oZAAAAAAAAAFEAAAAAAAAAiQKEPAAAbBAAAAwMAAAoBAAAhAAAA
AAAAAAAA8D9kDAIDEwEAAAAAAAAAAAAAAAAAAAAAaKk8lJNAVwwaZfrp00EAO8trKC9/
HUDetoBryx9HQCeBUUI86IZAAAAAAAAAFEAAAAAAAAAiQJ0PAAA1BAAAGQMAAAcBAAAd
AAAAAAAAAAAA8D9kDAIDEgEAAAAAAAAAAAAAAAAAAAAAWFw8pJNA5esHZvrp00EAfaom
QER/HUBt8sABzh9HQD+D1/J77YZAAAAAAAAAFEAAAAAAAAAiQKAPAAAzBAAAFwMAAAoB
AAAhAAAAZmZmZmZm7j9kDAIDEgEAAAAAAAAAAAAAAAAAAAAAaIg6tJNAZU37Zvrp00EA
wq2eRFh/HUDodzPA0B9HQAJ7bkgh84ZAAAAAAAAAFEAAAAAAAAAiQKIPAABOBAAALQMA
AAoBAAAhAAAAZmZmZmZm7j9kDAIDFAEAAAAAAAAAAAAAAAAAAAAAvEI/xJNAa3flZ/rp
00EAHp9oMWt/HUDik0hY0x9HQL5aFqNk+YZAAAAAAAAAJEAAAAAAAAAiQJsPAAARBAAA
+wIAAAkBAAAgAAAAMzMzMzMz7z9kDAIDEwEAAAAAAAAAAAAAAAAAAAAAVIg31JNAAjrc
aPrp00EA6Hheln9/HUDTi1r21R9HQHkYiJTnAIdAAAAAAAAAJEAAAAAAAAAiQKUPAAAw
BAAAFAMAAAYBAAAhAAAAzczMzMzM7D9kDAIDEgEAAAAAAAAAAAAAAAAAAAAAaGE/5JNA
yzTQafrp00EAxN0SdJJ/HUA00U6R2B9HQD4CDuBKCYdAAAAAAAAAJEAAAAAAAAAiQJ0P
AAAUBAAA/QIAAAIBAAAiAAAAzczMzMzM7D9kDAIDEQEAAAAAAAAAAAAAAAAAAAAAuCM8
9JNALNm8avrp00EAepryMql/HUA+m03P2h9HQBf3/VSxEIdAAAAAAAAAJEAAAAAAAAAi
QKEPAAD1AwAA4wIAAAABAAApAAAAzczMzMzM7D9kDAIDEAEAAAAAAAAAAAAAAAAAAAAA
TBg9BJRA61Gxa/rp00EAQfbPeMF/HUDtB2QW3R9HQLggS2PMFYdAAAAAAAAAJEAAAAAA
AAAiQJ0PAAAcBAAAAwMAAP4AAAAsAAAAzczMzMzM7D9kDAIDEAEAAAAAAAAAAAAAAAAA
AAAA4O48FJRApFqhbPrp00EAldm1R9t/HUBIKMsl3x9HQNG5V29WGYdAAAAAAAAAJEAA
AAAAAAAiQJ0PAAAHBAAA8wIAAPgAAAAtAAAAzczMzMzM7D9kDAIDEAEAAAAAAAAAAAAA
AAAAAAAAVA84JJRABUCRbfrp00EANipAx/V/HUCSswQb4R9HQFS9LFGtHIdAAAAAAAAA
JEAAAAAAAAAiQKIPAAD/AwAA7AIAAPcAAAAwAAAAzczMzMzM7D9kDAIDDwEAAAAAAAAA
AAAAAAAAAAAAlN08NJRA482Ebvrp00EAh4UXiBOAHUBGo4ux4h9HQCj6PO/mH4dAAAAA
AAAAJEAAAAAAAAAiQKIPAAACBAAA7wIAAPYAAAA4AAAAzczMzMzM7D9kDAIDDQEAAAAA
AAAAAAAAAAAAAAAAhFFARJRALYR9b/rp00EAlgNcYDCAHUCOP1Nz5B9HQPKpK6P6JIdA
AAAAAAAAJEAAAAAAAAAiQJ0PAAAMBAAA9gIAAPoAAAA2AAAAzczMzMzM7D9kDAIDCwEA
AAAAAAAAAAAAAAAAAAAAuE8+VJRAEgF5cPrp00EAu19aWU2AHUB+B2A15h9HQCbkb8mB
LYdAAAAAAAAAJEAAAAAAAAAiQKIPAAAPBAAA+QIAAP0AAAA3AAAAzczMzMzM7D9kDAID
BwEAAAAAAAAAAAAAAAAAAAAAoLY9ZJRAuIB7cfrp00EAoDV6t2qAHUB7AOX85x9HQDzN
PGqXNodAAAAAAAAAJEAAAAAAAAAiQJ4PAAAdBAAABAMAAP8AAAA2AAAAzczMzMzM7D9k
DAIDBgEAAAAAAAAAAAAAAAAAAAAAoKs9dJRAYQuGcvrp00EA8ykvhoiAHUAb3UDN6R9H
QKPJCaeyPIdAAAAAAAAAJEAAAAAAAAAiQJ8PAAAuBAAAEwMAAAIBAAA2AAAAzczMzMzM
7D9kDAIDBwEAAAAAAAAAAAAAAAAAAAAA3CY8hJRAH3KPc/rp00EAeNwsNaeAHUBVvqZx
6x9HQKzPuGoSQIdAAAAAAAAAJEAAAAAAAAAiQKAPAAAjBAAACgMAAAMBAAA4AAAAzczM
zMzM7D9kDAIDBgEAAAAAAAAAAAAAAAAAAAAAXBc+lJRA3AyfdPrp00EAX176/8WAHUBR
3QM77R9HQOb9xFIBQ4dAAAAAAAAAJEAAAAAAAAAiQJ4PAABBBAAAIgMAAAQBAAA4AAAA
zczMzMzM7D9kDAIDBwEAAAAAAAAAAAAAAAAAAAAAlPU7pJRAte2Zdfrp00EAEmhpLOOA
HUCoIifc7h9HQF50azg/R4dAAAAAAAAAJEAAAAAAAAAiQKUPAAD8AwAA6QIAAAEBAAA5
AAAAzczMzMzM7D9kDAIDBQEAAAAAAAAAAAAAAAAAAAAAONQ/tJRAWCPAdvrp00EAtRX/
RAWBHUCK8+bb8B9HQDTDZtSvTIdAAAAAAAAAJEAAAAAAAAAiQHkTAAC5BAAAbgMAAPwA
AAA4AAAAzczMzMzM7D9kDAIDBAEAAAAAAAAAAAAAAAAAAAAAuHFryJRAeTfad/rp00EA
1gZ6OCaBHUBCwO7O8h9HQJCY5sxuUodAAAAAAAAAJEAAAAAAAAAiQJQTAACUBAAATgMA
APQAAAA3AAAAzczMzMzM7D9kDAIDAgEAAAAAAAAAAAAAAAAAAAAA5PI/3JRAZ5X+ePrp
00EAOC881UiBHUBZSNrQ9B9HQIoDdx5eWIdAAAAAAAAAJEAAAAAAAAAiQIoTAADIBAAA
eQMAAPIAAAA3AAAAzczMzMzM7D9kDAIDAQEAAAAAAAAAAAAAAAAAAAAAWFtB8JRAEJ4c
evrp00EAfy9ufWqBHUAlno7Q9h9HQN5Ls2xWX4dAAAAAAAAAJEAAAAAAAAAiQIMTAACv
BAAAZQMAAO8AAAA3AAAAzczMzMzM7D9kDAID/wAAAAAAAAAAAAAAAAAAAAAA+KU+BJVA
1k5Ge/rp00EAWTg1MY2BHUDEi9Pe+B9HQLC0k+DBZ4dAAAAAAAAAJEAAAAAAAAAiQH0T
AADTBAAAgwMAAO8AAAA3AAAAzczMzMzM7D9kDAID/wAAAAAAAAAAAAAAAAAAAAAAWOBr
GJVA5gd4fPrp00EA9fNpd6+BHUADuKYG+x9HQEQ+J7m0cIdAAAAAAAAAJEAAAAAAAAAi
QJUTAADcBAAAigMAAPIAAAA1AAAAzczMzMzM7D9kDAID/gAAAAAAAAAAAAAAAAAAAAAA
gFA+LJVAEnh0ffrp00EAXqWCZcqBHUCd29Hc/B9HQCoMp9YQeYdAAAAAAAAAJEAAAAAA
AAAiQJoPAADvAwAA3wIAAPUAAAA0AAAAzczMzMzM7D9kDAID/gAAAAAAAAAAAAAAAAAA
AAAAhBE7PJVAMK1zfvrp00EAP9WADuWBHUAf6Rq2/h9HQOkM8kZ3gIdAAAAAAAAAJEAA
AAAAAAAiQKMPAADrAwAA2wIAAPYAAAAzAAAAzczMzMzM7D9kDAID/QAAAAAAAAAAAAAA
AAAAAAAAPB0/TJVAFnZ+f/rp00EAYtbxiACCHUCShw2jACBHQFUBWq/QhodAAAAAAAAA
JEAAAAAAAAAiQJ8PAAAOBAAA+AIAAPgAAAAzAAAAzczMzMzM7D9kDAID/QAAAAAAAAAA
AAAAAAAAAAAA7PI9XJVAR2iLgPrp00EAIQJd7xuCHUDAgtKUAiBHQBLpXRA4jIdAAAAA
AAAAJEAAAAAAAAAiQJ8PAAARBAAA+gIAAPwAAAAyAAAAzczMzMzM7D9kDAID/QAAAAAA
AAAAAAAAAAAAAAAA8CM+bJVAdtOOgfrp00EAmIFgVTWCHUB4n8qTBCBHQMy1vopNkYdA
AAAAAAAAJEAAAAAAAAAiQKIPAADvAwAA3wIAAPoAAAAwAAAAzczMzMzM7D9kDAID/AAA
AAAAAAAAAAAAAAAAAAAAOOtDfJVAF3aUgvrp00EAvowVIVCCHUAWMYSABiBHQCpNrYay
lodAAAAAAAAAJEAAAAAAAAAiQJcPAAD/AwAA7AIAAPkAAAAwAAAAzczMzMzM7D9kDAID
+wAAAAAAAAAAAAAAAAAAAAAAjL03jJVA84CUg/rp00EAq2x3uGqCHUAAoJ9mCCBHQMUa
bSRpnIdAAAAAAAAAJEAAAAAAAAAiQKgPAAD0AwAA4wIAAPgAAAAxAAAAzczMzMzM7D9k
DAID+gAAAAAAAAAAAAAAAAAAAAAAZLQ+nJVAMDCWhPrp00EAXmziPIaCHUB3GVZDCiBH
QESOjdrzoYdAAAAAAAAAJEAAAAAAAAAiQJwPAAACBAAA7gIAAPgAAAAyAAAAzczMzMzM
7D9kDAID+gAAAAAAAAAAAAAAAAAAAAAAcOI7rJVAqbGThfrp00EAopXQNqKCHUA4UscI
DCBHQOCxzm39podAAAAAAAAAJEAAAAAAAAAiQKEPAAD6AwAA5wIAAPgAAAA1AAAAzczM
zMzM7D9kDAID+wAAAAAAAAAAAAAAAAAAAAAAjEY+vJVALUeNhvrp00EAfmvRO76CHUAK
g4jEDSBHQLypmIjhq4dAAAAAAAAAJEAAAAAAAAAiQKAPAADzAwAA4gIAAPkAAAA2AAAA
zczMzMzM7D9kDAID+wAAAAAAAAAAAAAAAAAAAAAAhC5BzJVAWci+h/rp00EATaBQJOGC
HUAOH+jODyBHQPa8XBgNsYdAAAAAAAAAJEAAAAAAAAAiQIgTAADVBAAAhAMAAPgAAAA3
AAAAzczMzMzM7D9kDAID/AAAAAAAAAAAAAAAAAAAAAAA+CJB4JVAAJHsiPrp00EAXIHv
owODHUAobV/JESBHQJ4InGBYtodAAAAAAAAAJEAAAAAAAAAiQIgTAAC/BAAAcgMAAPQA
AAA4AAAAzczMzMzM7D9kDAID/AAAAAAAAAAAAAAAAAAAAAAAoOw99JVAtsEfivrp00EA
/fYnYCaDHUC1q4vUEyBHQN3XxTt1u4dAAAAAAAAAJEAAAAAAAAAiQIYTAADRBAAAgQMA
APQAAAA3AAAAzczMzMzM7D9kDAID/AAAAAAAAAAAAAAAAAAAAAAA4Go9CJZAScFRi/rp
00EAx55SrEmDHUCaYB3FFSBHQMgsNNqtwIdAAAAAAAAAJEAAAAAAAAAiQIYTAADMBAAA
fQMAAPQAAAA5AAAAzczMzMzM7D9kDAID/AAAAAAAAAAAAAAAAAAAAAAAfFw7HJZAyP1L
jPrp00EAvep182aDHUBmwgRPFyBHQHyoPLOOxodAAAAAAAAAJEAAAAAAAAAiQKIPAADu
AwAA3QIAAPUAAAA6AAAAzczMzMzM7D9kDAID/AAAAAAAAAAAAAAAAAAAAAAANOE+LJZA
RzpGjfrp00EAos+hnoODHUAPolvvGCBHQCNnlTEdzYdAAAAAAAAAJEAAAAAAAAAiQKEP
AADuAwAA3gIAAPcAAAA5AAAAzczMzMzM7D9kDAID/AAAAAAAAAAAAAAAAAAAAAAAHKw/
PJZAo6t+jvrp00EAIclLYaaDHUD5hbEIGyBHQL7LUBTx04dAAAAAAAAAJEAAAAAAAAAi
QIYTAADdBAAAiwMAAPcAAAA3AAAAzczMzMzM7D9kDAID+wAAAAAAAAAAAAAAAAAAAAAA
HCI+UJZAzOB7j/rp00EAusK2uMKDHUA5AGmsHCBHQNKJknyu2odAAAAAAAAAJEAAAAAA
AAAiQJ0PAADpAwAA2gIAAPgAAAA3AAAAzczMzMzM7D9kDAID+wAAAAAAAAAAAAAAAAAA
AAAAqIk+YJZA28S2kPrp00EAoBknDeaDHUDYcHKxHiBHQEZDYZMA4YdAAAAAAAAAJEAA
AAAAAAAiQIoTAADbBAAAiQMAAPgAAAA3AAAAzczMzMzM7D9kDAID+wAAAAAAAAAAAAAA
AAAAAAAATMA/dJZAahO0kfrp00EAfB1vygKEHUBJogNIICBHQIomyD/95odAAAAAAAAA
JEAAAAAAAAAiQJ8PAADpAwAA2gIAAPkAAAA4AAAAzczMzMzM7D9kDAID+gAAAAAAAAAA
AAAAAAAAAAAA5Kw/hJZAztiykvrp00EA+oISMB+EHUDxQc73ISBHQGJwrXIE7YdAAAAA
AAAAJEAAAAAAAAAiQKEPAADzAwAA4gIAAPkAAAA3AAAAzczMzMzM7D9kDAID+gAAAAAA
AAAAAAAAAAAAAAAAlB49lJZAkJiuk/rp00EAQhsD/juEHUAwuKePIyBHQA+cNdAe84dA
AAAAAAAAJEAAAAAAAAAiQJ0PAADsAwAA3AIAAPoAAAA4AAAAzczMzMzM7D9kDAID+gAA
AAAAAAAAAAAAAAAAAAAAaKY7pJZA1erllPrp00EA5HGdZ1+EHUBCxxyUJSBHQN06/i4V
+YdAAAAAAAAAJEAAAAAAAAAiQIYTAADdBAAAiwMAAPoAAAA4AAAAzczMzMzM7D9kDAID
+QAAAAAAAAAAAAAAAAAAAAAAvM42uJZAT+nmlfrp00EANPmK83yEHUCO/I42JyBHQJz3
kTvk/odAAAAAAAAAJEAAAAAAAAAiQKYPAAAGBAAA8QIAAPoAAAA4AAAAzczMzMzM7D9k
DAID+gAAAAAAAAAAAAAAAAAAAAAAzA5ByJZAD8rilvrp00EAQnFn5pmEHUCBEBrUKCBH
QEhZy3+iBIhAAAAAAAAAJEAAAAAAAAAiQJoPAADzAwAA4gIAAPkAAAA4AAAAzczMzMzM
7D9kDAID+gAAAAAAAAAAAAAAAAAAAAAAOAs72JZAGQgVmPrp00EAEraQG72EHUDlLWvN
KiBHQD4OWRKbCohAAAAAAAAAJEAAAAAAAAAiQIsTAADQBAAAgAMAAPcAAAA4AAAAzczM
zMzM7D9kDAID+gAAAAAAAAAAAAAAAAAAAAAA+Jg/7JZAYUQUmfrp00EA4F8FK9qEHUB1
7C5/LCBHQBVzZmW8EIhAAAAAAAAAJEAAAAAAAAAiQJ4PAAAFBAAA8QIAAPgAAAA4AAAA
zczMzMzM7D9kDAID+wAAAAAAAAAAAAAAAAAAAAAAZG4+/JZARTJEmvrp00EA0PKOTPyE
HUCQjzaXLiBHQOzOOz6vFohAAAAAAAAAJEAAAAAAAAAiQIQTAADMBAAAfQMAAPcAAAA3
AAAAzczMzMzM7D9kDAID+wAAAAAAAAAAAAAAAAAAAAAAJCM3EJdA9pJGm/rp00EAGV18
oxmFHUBWAAJWMCBHQLqQcr7FHIhAAAAAAAAAJEAAAAAAAAAiQKIPAAAVBAAA/gIAAPgA
AAA2AAAAzczMzMzM7D9kDAID/AAAAAAAAAAAAAAAAAAAAAAAQE09IJdAM6VjnPrp00EA
BsrQHTqFHUC9nA4+MiBHQIlCL8NZI4hAAAAAAAAAJEAAAAAAAAAiQJ4PAACABAAAVwMA
AAEBAAA2AAAAzczMzMzM7D9kDAID/gAAAAAAAAAAAAAAAAAAAAAAdJw7MJdAWVelnfrp
00EAkc5uVF+FHUDM055JNCBHQApFITgMKohAAAAAAAAAJEAAAAAAAAAiQKUPAAAOBQAA
zAMAABABAAA1AAAAzczMzMzM7D9kDAIDBAEAAAAAAAAAAAAAAAAAAAAAEGtBQJdAxUuz
nvrp00EAHdCofXyFHUB0UoI8NiBHQJCfCwRCMYhAAAAAAAAAJEAAAAAAAAAiQKEPAAA6
BAAAHAMAABQBAAAyAAAAzczMzMzM7D9kDAIDBQEAAAAAAAAAAAAAAAAAAAAAWHlCUJdA
6f/Zn/rp00EADaPEH5yFHUDv8SlhOCBHQNK2S3oJOohAAAAAAAAAJEAAAAAAAAAiQJkP
AACcBAAAbgMAABoBAAAzAAAAzczMzMzM7D9kDAIDBwEAAAAAAAAAAAAAAAAAAAAAlOs9
YJdAoXT+oPrp00EAbN7wgbuFHUDPs4KCOiBHQGZM6zD4QohAAAAAAAAAJEAAAAAAAAAi
QJcPAACTBAAAZwMAABwBAAAzAAAAzczMzMzM7D9kDAIDCgEAAAAAAAAAAAAAAAAAAAAA
gN5rcJdAbuE+ovrp00EAqZpvpd2FHUBDRWTyPCBHQCqizgyASYhAAAAAAAAAJEAAAAAA
AAAiQKoPAAAUBQAA0AMAACUBAAA0AAAAzczMzMzM7D9kDAIDDwEAAAAAAAAAAAAAAAAA
AAAAxJY+gJdAIZxSo/rp00EAM0kspPuFHUAz8iM4PyBHQEA5ya1gTYhAAAAAAAAAJEAA
AAAAAAAiQKEPAACTBAAAZgMAACMBAAAyAAAAzczMzMzM7D9kDAIDEgEAAAAAAAAAAAAA
AAAAAAAAULFBkJdANMdDpPrp00EAa6YYUhaGHUAO6vBXQSBHQFDGhxnaT4hAAAAAAAAA
JEAAAAAAAAAiQJsPAAApBAAADgMAABwBAAAvAAAAzczMzMzM7D9kDAIDEwEAAAAAAAAA
AAAAAAAAAAAAMIQsoZdAXV8rpfrp00EAFnHIKDGGHUCInG1aQyBHQCrvsKaDUohAAAAA
AAAAJEAAAAAAAAAiQJ8PAAASBAAA/AIAABMBAAAxAAAAzczMzMzM7D9kDAIDFAEAAAAA
AAAAAAAAAAAAAAAA9K88sJdAGxsQpvrp00EAc6Z2r0qGHUDyKXx9RSBHQPKLsx7JVohA
AAAAAAAAJEAAAAAAAAAiQKEPAAATBAAA/AIAAAwBAAAvAAAAzczMzMzM7D9kDAIDFAEA
AAAAAAAAAAAAAAAAAAAAyEZAwJdATVIbp/rp00EAu9NI92mGHUAq8jrwRyBHQFwlz8V5
XIhAAAAAAAAAJEAAAAAAAAAiQIoTAADXBAAAhgMAAAMBAAAyAAAAzczMzMzM7D9kDAID
FAEAAAAAAAAAAAAAAAAAAAAArM0/1JdAZDLwp/rp00EARvI3HIOGHUBESOvtSSBHQPsh
zMY2Y4hAAAAAAAAAJEAAAAAAAAAiQJ8PAADpAwAA2gIAAP8AAAAuAAAAzczMzMzM7D9k
DAIDFAEAAAAAAAAAAAAAAAAAAAAAtMZA5JdAaQ3LqPrp00EA/q5flJyGHUBFCCABTCBH
QJSuXctbaohAAAAAAAAAJEAAAAAAAAAiQJ4PAAADBAAA7wIAAP0AAAAvAAAAzczMzMzM
7D9kDAIDFAEAAAAAAAAAAAAAAAAAAAAA4N1q9JdAXVOrqfrp00EA2FBGrbaGHUAodoIN
TiBHQK6ftc8PcYhAAAAAAAAAJEAAAAAAAAAiQCoQAAALBAAA8gIAAP4AAAAxAAAAzczM
zMzM7D9kDAIDFAEAAAAAAAAAAAAAAAAAAAAAiLn0BJhAv/KMqvrp00EA4rKEgdCGHUAK
gYILUCBHQOhvQhpld4hAAAAAAAAAJEAAAAAAAAAiQBUPAAD4AwAA6QIAAP0AAAAwAAAA
zczMzMzM7D9kDAIDFAEAAAAAAAAAAAAAAAAAAAAAZFA9FJhAkMF/q/rp00EA7VbOI+uG
HUD/v5QrUiBHQLA2fmQ9fYhAAAAAAAAAJEAAAAAAAAAiQJkPAAAoBAAADgMAAAEBAAAw
AAAAzczMzMzM7D9kDAIDEwEAAAAAAAAAAAAAAAAAAAAAvOI5JJhA+D13rPrp00EAilVy
EQWHHUD4FFlSVCBHQD9uvJaVgohAAAAAAAAAJEAAAAAAAAAiQKEPAAAfBAAABgMAAAEB
AAAsAAAAzczMzMzM7D9kDAIDDwEAAAAAAAAAAAAAAAAAAAAAHAs6NJhAt3t3rfrp00EA
MXZDQyCHHUAQ1E1sViBHQLDGuhVziIhAAAAAAAAAJEAAAAAAAAAiQKkPAAAvBAAAEwMA
AAMBAAAvAAAAzczMzMzM7D9kDAIDDwEAAAAAAAAAAAAAAAAAAAAA6AtBRJhA8gd6rvrp
00EAf+e72TqHHUBI7i+PWCBHQOb/bLQnj4hAAAAAAAAAJEAAAAAAAAAiQJwPAAApBAAA
DwMAAAIBAAAuAAAAzczMzMzM7D9kDAIDDQEAAAAAAAAAAAAAAAAAAAAAJPFCVJhA3b14
r/rp00EAVOFnDFWHHUB93uukWiBHQOhyVmj2lYhAAAAAAAAAJEAAAAAAAAAiQJ0PAAAV
BAAA/gIAAAMBAAAtAAAAzczMzMzM7D9kDAIDCwEAAAAAAAAAAAAAAAAAAAAAWD47ZJhA
l0GDsPrp00EA0eh0n3CHHUA4EKHOXCBHQJVQZXQ6nIhAAAAAAAAAJEAAAAAAAAAiQKcP
AABFBAAAJQMAAAQBAAAuAAAAzczMzMzM7D9kDAIDBwEAAAAAAAAAAAAAAAAAAAAAPApH
dJhA7JiPsfrp00EAgOFj5IyHHUCZk+j1XiBHQPA0R9ntoYhAAAAAAAAAJEAAAAAAAAAi
QJsPAABSBAAAMQMAAAgBAAAtAAAAzczMzMzM7D9kDAIDBgEAAAAAAAAAAAAAAAAAAAAA
gLpBhJhA+9eMsvrp00EACqjGy6WHHUCCpnkwYSBHQEmeDhWfp4hAAAAAAAAAJEAAAAAA
AAAiQKMPAAAcBAAABAMAAAkBAAAsAAAAzczMzMzM7D9kDAIDBgEAAAAAAAAAAAAAAAAA
AAAAYI1DlJhALrKEs/rp00EAgpGoY7uHHUDGYQOYYyBHQLAxDzCRrohAAAAAAAAAJEAA
AAAAAAAiQKAPAAAKBAAA9QIAAAYBAAAnAAAAzczMzMzM7D9kDAIDBgEAAAAAAAAAAAAA
AAAAAAAAZNlDpJhAZN+EtPrp00EApNmIdNGHHUDBTC4bZiBHQAqQdKhvtohAAAAAAAAA
JEAAAAAAAAAiQKcPAAAvBAAAEwMAAAUBAAAmAAAAzczMzMzM7D9kDAIDBgEAAAAAAAAA
AAAAAAAAAAAAmEhJtJhA1aqAtfrp00EAbWELxeSHHUA+k2a4aCBHQNTXYuOavIhAAAAA
AAAAJEAAAAAAAAAiQJ4PAAAdBAAABQMAAAYBAAAjAAAAzczMzMzM7D9kDAIDBwEAAAAA
AAAAAAAAAAAAAAAAhHRIxJhAramAtvrp00EAoV7pqveHHUAy4c1tayBHQCPGPuoZwIhA
AAAAAAAAJEAAAAAAAAAiQJ0PAAAyBAAAFgMAAAQBAAAeAAAAzczMzMzM7D9kDAIDCAEA
AAAAAAAAAAAAAAAAAAAAFOtE1JhAlZtvt/rp00EA8ah2RQiIHUA1lnwJbiBHQLYbYR/J
wohAAAAAAAAAJEAAAAAAAAAiQJcPAADzAwAA4gIAAAEBAAAaAAAAzczMzMzM7D9kDAID
CAEAAAAAAAAAAAAAAAAAAAAAcDY95JhAqgRxuPrp00EAwcWmgxaIHUBtPcwHcSBHQPwd
46TXxYhAAAAAAAAAJEAAAAAAAAAiQJQTAABLBAAACQMAAPwAAAAWAAAAzczMzMzM7D9k
DAIDBgEAAAAAAAAAAAAAAAAAAAAAZNVH+JhAnxpnufrp00EAG1YIyiGIHUC8rUX3cyBH
QOZjMCxVyohAAAAAAAAAJEAAAAAAAAAiQKMPAAAaBAAAAgMAAPkAAAARAAAAzczMzMzM
7D9kDAIDBgEAAAAAAAAAAAAAAAAAAAAAgFtHCJlA3Cppuvrp00EAxOyCqC2IHUCmcNgE
dyBHQByt/tw70ohAAAAAAAAAJEAAAAAAAAAiQJwPAABGBAAAJgMAAPwAAAAOAAAAzczM
zMzM7D9kDAIDBwEAAAAAAAAAAAAAAAAAAAAA4HNHGJlApnRou/rp00EA6mwEnTmIHUB7
R4IGeiBHQD4Qx7Uc4YhAAAAAAAAAJEAAAAAAAAAiQJsPAAA4BAAAGwMAAPsAAAAPAAAA
zczMzMzM7D9kDAIDBwEAAAAAAAAAAAAAAAAAAAAAkOFBKJlAxBKIvPrp00EADTPuOUuI
HUCRPR5DfSBHQDIQheBS9YhAAAAAAAAAJEAAAAAAAAAiQJwPAAC/BAAAigMAAAEBAAAU
AAAAzczMzMzM7D9kDAIDCgEAAAAAAAAAAAAAAAAAAAAArHVCOJlAzfyZvfrp00EA3lcj
VlyIHUA9p11MgCBHQJsY7webBYlAAAAAAAAAJEAAAAAAAAAiQKEPAAB7BAAAUgMAAAUB
AAAXAAAAzczMzMzM7D9kDAIDCwEAAAAAAAAAAAAAAAAAAAAAyOhASJlAwGurvvrp00EA
lJ3zXG6IHUAKSTk6gyBHQC7Ht+RNDIlAAAAAAAAAJEAAAAAAAAAiQKIPAABnBAAAQQMA
AAoBAAAbAAAAzczMzMzM7D9kDAIDDAEAAAAAAAAAAAAAAAAAAAAAnN5FWJlAfYe7v/rp
00EAc4MXdYGIHUCSbxsKhiBHQHb3FfkhDYlAAAAAAAAAJEAAAAAAAAAiQJwPAABTBAAA
MgMAAAwBAAAcAAAAzczMzMzM7D9kDAIDDAEAAAAAAAAAAAAAAAAAAAAAJDlAaJlAk87D
wPrp00EA3M5DoJWIHUDlBZGqiCBHQAaEef8RDolAAAAAAAAAJEAAAAAAAAAiQKEPAAAv
BAAAEwMAAA4BAAAfAAAAzczMzMzM7D9kDAIDDAEAAAAAAAAAAAAAAAAAAAAARGxAeJlA
Cxfgwfrp00EAvBccGq6IHUAciRpViyBHQEaiqzskEolAAAAAAAAAJEAAAAAAAAAiQJAP
AACEBAAAWgMAAA4BAAAkAAAAzczMzMzM7D9kDAIDDgEAAAAAAAAAAAAAAAAAAAAAmGEz
iJlAbdz3wvrp00EAByUDDMeIHUD3VqfxjSBHQCD8GQRYF4lAAAAAAAAAJEAAAAAAAAAi
QK4PAAB+BAAAVAMAAA0BAAAoAAAAzczMzMzM7D9kDAIDEAEAAAAAAAAAAAAAAAAAAAAA
eG5BmJlApMr+w/rp00EALfz7vuCIHUDy4bpQkCBHQPqHUZXYGolAAAAAAAAAJEAAAAAA
AAAiQKQPAABPBAAALgMAAA4BAAApAAAAzczMzMzM7D9kDAIDEAEAAAAAAAAAAAAAAAAA
AAAATElGqJlAh7H1xPrp00EAn0A/A/uIHUBvQYltkiBHQNCSPz6iHIlAAAAAAAAAJEAA
AAAAAAAiQJ4PAAAdBAAABQMAAAwBAAAvAAAAzczMzMzM7D9kDAIDEAEAAAAAAAAAAAAA
AAAAAAAAmAZFuJlAjcnrxfrp00EABkyw6hWJHUDKVxyGlCBHQNAJ/AsFHolAAAAAAAAA
JEAAAAAAAAAiQJ4PAAAnBAAADQMAAAoBAAAvAAAAzczMzMzM7D9kDAIDEAEAAAAAAAAA
AAAAAAAAAAAAqL5DyJlA+RjXxvrp00EA/sprRzCJHUDN9w+AliBHQA0RqqMlIIlAAAAA
AAAAJEAAAAAAAAAiQJ4PAAAABAAA7QIAAAcBAAAvAAAAzczMzMzM7D9kDAIDEAEAAAAA
AAAAAAAAAAAAAAAA2AJC2JlAMwLxx/rp00EAta1haFKJHUDt7hKcmCBHQN7H+ildI4lA
AAAAAAAAJEAAAAAAAAAiQIcTAADPBAAAgAMAAAABAAA+AAAAzczMzMzM7D9kDAIDEgEA
AAAAAAAAAAAAAAAAAAAA6IdB7JlAu8rcyPrp00EAhqd2im+JHUBUni5KmiBHQJKWzWeV
J4lAAAAAAAAAJEAAAAAAAAAiQKMPAAAEBAAA8AIAAP0AAAA2AAAAzczMzMzM7D9kDAID
EgEAAAAAAAAAAAAAAAAAAAAAdDJI/JlAWrjwyfrp00EA8FmJw5GJHUBNSak9nCBHQMS2
CuzhLIlAAAAAAAAAJEAAAAAAAAAiQIcTAACzBAAAaAMAAPUAAAA6AAAAzczMzMzM7D9k
DAIDDwEAAAAAAAAAAAAAAAAAAAAA3JdDEJpAcrQAy/rp00EAXqGri7OJHUDBtsMjniBH
QByzYBtMM4lAAAAAAAAAJEAAAAAAAAAiQH4TAACfBAAAWAMAAOwAAAA4AAAAzczMzMzM
7D9kDAIDDQEAAAAAAAAAAAAAAAAAAAAAQIc5JJpAEW4PzPrp00EASjFvC9aJHUBA0Wza
nyBHQFKnP7S6OolAAAAAAAAAJEAAAAAAAAAiQJETAACQBAAASwMAAOcAAAA7AAAAzczM
zMzM7D9kDAIDBwEAAAAAAAAAAAAAAAAAAAAAgEFCOJpAjyQhzfrp00EAOe8/M/iJHUD7
x6ecoSBHQHwzkDW5QolAAAAAAAAAJEAAAAAAAAAiQIkTAACPBAAASgMAAOQAAAA7AAAA
zczMzMzM7D9kDAIDAwEAAAAAAAAAAAAAAAAAAAAAZEBGTJpA7/Myzvrp00EAK5rB9xmK
HUDhW/tSoyBHQPYy12Z7SolAAAAAAAAAFEAAAAAAAAAiQIQTAAB9BAAAPAMAAOIAAAA8
AAAAAAAAAAAA8D9kDAIDAAEAAAAAAAAAAAAAAAAAAAAAbAs/YJpAYOdLz/rp00EAS7Cb
IjuKHUAO0xkmpSBHQL3txfbAUYlAAAAAAAAAJEAAAAAAAAAiQIsTAACCBAAAPwMAAOQA
AAA6AAAAZmZmZmZm7j9kDAID/QAAAAAAAAAAAAAAAAAAAAAA2JxDdJpANO5i0Prp00EA
5X9kCluKHUAeyQj7piBHQIDBjOt8WIlAAAAAAAAAJEAAAAAAAAAiQIkTAABkBAAAJwMA
AOEAAAA5AAAAmZmZmZmZ7T9kDAID9gAAAAAAAAAAAAAAAAAAAAAA2D5EiJpAVW2U0frp
00EAlIbPd3mKHUDpa/pLqSBHQC4YBXtUX4lAAAAAAAAAFEAAAAAAAAAiQIUTAACmBAAA
XgMAAOIAAAAvAAAAMzMzMzMz7z9kDAID8wAAAAAAAAAAAAAAAAAAAAAAqJFGnJpARhXV
0vrp00EAs/eFH5OKHUA88KoZrCBHQPx1uuq0Z4lAAAAAAAAAFEAAAAAAAAAiQIQTAAC+
BAAAcQMAAOgAAAAlAAAAAAAAAAAA8D9kDAID8QAAAAAAAAAAAAAAAAAAAAAAlN9CsJpA
qP0j1Prp00EAF/C1caWKHUAQ+E9oryBHQFboUWsvcYlAAAAAAAAAFEAAAAAAAAAiQI0T
AADdBAAAiwMAAOsAAAAZAAAAAAAAAAAA8D9kDAID8AAAAAAAAAAAAAAAAAAAAAAAdPlG
xJpAjQB11frp00EAvYfNYbyKHUAtDKh3siBHQI99SmsceYlAAAAAAAAAFEAAAAAAAAAi
QIQTAADWBAAAhQMAAPAAAAAeAAAAAAAAAAAA8D9kDAID7wAAAAAAAAAAAAAAAAAAAAAA
NLY32ZpA/LXA1vrp00EAWbkgns2KHUBKX/+6tSBHQJB9nO7WfolAAAAAAAAAFEAAAAAA
AAAiQIITAADCBAAAdQMAAPEAAAAYAAAAAAAAAAAA8D9kDAID7wAAAAAAAAAAAAAAAAAA
AAAAqIk+7JpAn7cP2Prp00EAPdkqxeGKHUC0I77luCBHQM9Huv9khIlAAAAAAAAAFEAA
AAAAAAAiQJITAADLBAAAfAMAAPMAAAAcAAAAAAAAAAAA8D9kDAID7gAAAAAAAAAAAAAA
AAAAAAAATCRIAJtAWQYk2frp00EAIU5ABfeKHUBw01c6uyBHQG9orCnJiolAAAAAAAAA
FEAAAAAAAAAiQKEPAADwAwAA3wIAAPAAAAAkAAAAAAAAAAAA8D9kDAID7wAAAAAAAAAA
AAAAAAAAAAAAJJJIEJtA1Gtp2vrp00EAthnYPhaLHUBEYPWHvSBHQDhnW6clkYlAAAAA
AAAAFEAAAAAAAAAiQIUTAAC1BAAAagMAAO4AAAAuAAAAAAAAAAAA8D9kDAID7wAAAAAA
AAAAAAAAAAAAAAAALJZCJJtArWex2/rp00EAS3GlxDiLHUCAK+qhvyBHQEgbh4ocl4lA
AAAAAAAAFEAAAAAAAAAiQIoTAADXBAAAhgMAAPEAAAA1AAAAAAAAAAAA8D9kDAID8QAA
AAAAAAAAAAAAAAAAAAAARLrvOJtA1Trd3Prp00EA7Qs+FFuLHUDdnHxIwSBHQAGYhRWS
nYlAAAAAAAAAFEAAAAAAAAAiQIgTAACABAAAPgMAAO4AAAA9AAAAMzMzMzMz7z9kDAID
8AAAAAAAAAAAAAAAAAAAAAAAZBhHTJtAeMkY3vrp00EAV6My7n+LHUC2W3z9wiBHQIs7
7zOWpIlAAAAAAAAAFEAAAAAAAAAiQIQTAADLBAAAfAMAAO4AAAA+AAAAAAAAAAAA8D9k
DAID8gAAAAAAAAAAAAAAAAAAAAAAYA1HYJtA5ulW3/rp00EAGC0YXqWLHUDPOyy3xCBH
QNaZwBlhq4lAAAAAAAAAFEAAAAAAAAAiQHMTAADdBAAAjAMAAO8AAAA9AAAAAAAAAAAA
8D9kDAID8wAAAAAAAAAAAAAAAAAAAAAADNg1dJtAsiyV4Prp00EAxEVtp8KLHUAYD0Vb
xyBHQHiurOGCsYlAAAAAAAAAFEAAAAAAAAAiQJMTAADaBAAAiAMAAOwAAAAsAAAAAAAA
AAAA8D9kDAID9QAAAAAAAAAAAAAAAAAAAAAAgLE+iJtAUCXJ4frp00EAKv8eQNCLHUAB
BDupyiBHQNrMU9E4t4lAAAAAAAAAFEAAAAAAAAAiQH4TAACnBAAAXgMAAOsAAAATAAAA
AAAAAAAA8D9kDAID9QAAAAAAAAAAAAAAAAAAAAAAJPrsnJtAKX/b4vrp00EAiC6lJcOL
HUAjbYGUzSBHQMyGCR/FvYlAAAAAAAAAJEAAAAAAAAAiQJQTAAAnBAAA3AIAAOEAAABW
AQAAZmZmZmZm7j9kDAID8gAAAAAAAAABAAAAAAAAAAAAEJZBsJtAAF4O5Prp00EAA/GG
KqaLHUAcdxEH0CBHQMqtEh3xxYlAAAAAAAAAJEAM47tGgEAiQIYTAAClBAAAXQMAAN8A
AAA3AQAAZmZmZmZm7j9kDAID8gAAAAAAAAABAAAAAAAAAAAAIOc9xJtASC875frp00EA
80lUXYCLHUDoZfcC0SBHQFgjZelIz4lAAAAAAAAAJEAAAAAAAAAiQJ8PAACHBAAAXAMA
AOYAAAAgAQAAzczMzMzM7D9kDAID9QAAAAAAAAABAAAAAAAAAAAAvKg91JtAeMdx5vrp
00EAeMCEjVeLHUAlli4G0SBHQFzMZm2t24lAAAAAAAAAJEAAAAAAAAAiQKQPAACuBAAA
fAMAAO0AAAAMAQAAzczMzMzM7D9kDAID+QAAAAAAAAABAAAAAAAAAAAANINI5JtAxaWR
5/rp00EAPpCIfDOLHUCJd0IS0CBHQKwRd+hy6olAAAAAAAAAJEAAAAAAAAAiQJcPAABT
BAAAMQMAAPMAAAAAAQAAzczMzMzM7D9kDAID/AAAAAAAAAABAAAAAAAAAAAA1GA69JtA
jGyj6Prp00EAf0PAzBCLHUDLV69bzyBHQIpUX24D9olAAAAAAAAAFEAAAAAAAAAiQIoT
AAAWBAAAyAIAAPEAAAABAQAAMzMzMzMz7z9kDAID+AAAAAAAAAAAAAAAAAAAAAAA7OE7
CJxAmYfA6frp00EAhGfEbeyKHUB5KokIzyBHQFnYAj/v+4lAAAAAAAAAFEAAAAAAAAAi
QJgPAAAxBAAAFQMAAO0AAAAIAQAAmZmZmZmZ7T9kDAID+gAAAAAAAAAAAAAAAAAAAAAA
hEE5GJxACCXY6vrp00EAHhQVccmKHUDgpmvIziBHQNRKtQBg/4lAAAAAAAAAJEB4UPSo
SwEiQKgPAAAGBAAA8gIAAO4AAAAJAQAAZmZmZmZm7j9kDAID+wAAAAAAAAAAAAAAAAAA
AAAAyKM7KJxAUAjt6/rp00EAWBzwP6eKHUA1peGMziBHQKpWo3deBIpAAAAAAAAAFEAA
AAAAAAAiQKAPAADuAwAA3gIAAPEAAAAKAQAAAAAAAAAA8D9kDAID+wAAAAAAAAAAAAAA
AAAAAAAAvMA8OJxAtFoG7frp00EATxjV54OKHUDP5TRLziBHQFwYpGkGDIpAAAAAAAAA
JEAAAAAAAAAiQHgTAAARBAAAxAIAAOsAAAAJAQAAmZmZmZmZ7T9kDAID+gAAAAAAAAAA
AAAAAAAAAAAAsJx0TJxAA/ZA7vrp00EARnYM5FqKHUDGnO5jziBHQJJWcVKvE4pAAAAA
AAAAJEAAAAAAAAAiQK4PAAC0BAAAgQMAAO8AAAANAQAAzczMzMzM7D9kDAID/gAAAAAA
AAAAAAAAAAAAAAAARAw7XJxAWDli7/rp00EA5M4/fjSKHUACIBSXziBHQJFL2ygFGopA
AAAAAAAAJEAAAAAAAAAiQKMPAABpBAAAQwMAAPYAAAAPAQAAzczMzMzM7D9kDAIDAAEA
AAAAAAAAAAAAAAAAAAAAdHo+bJxAokp38Prp00EA+Jk3EBCKHUDkl6P/ziBHQARqUB2U
H4pAAAAAAAAAJEAAAAAAAAAiQJsPAAA2BAAAGgMAAPgAAAAQAQAAzczMzMzM7D9kDAID
AQEAAAAAAAAAAAAAAAAAAAAA+DRXfJxAvYeG8frp00EAO5nopuyJHUAE2MBUzyBHQEQ8
6BbEI4pAAAAAAAAAJEAAAAAAAAAiQJsPAAAVBAAA/gIAAPYAAAARAQAAzczMzMzM7D9k
DAIDAwEAAAAAAAAAAAAAAAAAAAAAuNpqjJxAFvao8vrp00EAw1RBlsaJHUCDqS+jzyBH
QBZNKnByJ4pAAAAAAAAAJECx1EKyDIIiQJITAABiBAAAJQMAAO8AAAAVAQAAzczMzMzM
7D9kDAIDBAEAAAAAAAAAAAAAAAAAAAAACKdFoJxA12S98/rp00EA0JIAZ6KJHUDMIw/t
zyBHQNGTPidTLYpAAAAAAAAAJECU+YyiTl4iQJ4PAAAqBAAAEAMAAPAAAAAVAQAAzczM
zMzM7D9kDAIDBAEAAAAAAAAAAAAAAAAAAAAAYAZDsJxAU3nl9Prp00EAjUzqRnyJHUDr
jCNUzyBHQCwKKHO6NIpAAAAAAAAAFEAAAAAAAAAiQIcTAABxBAAAMgMAAO0AAAANAQAA
ZmZmZmZm7j9kDAIDAgEAAAAAAAAAAAAAAAAAAAAAKKI/xJxAoYgP9vrp00EA+tT3HFWJ
HUD6afzQziBHQBQmzJoWP4pAAAAAAAAAFEAAAAAAAAAiQHoTAACLBAAARwMAAOwAAAAI
AQAAmZmZmZmZ7T9kDAID/QAAAAAAAAAAAAAAAAAAAAAAaG8w2JxARNMN9/rp00EAb2nO
nTKJHUDA0oKjziBHQGJFhs5qTopAAAAAAAAAJEBFPFvzTJciQK4PAAD2AwAA5AIAAOwA
AAALAQAAzczMzMzM7D9kDAID+wAAAAAAAAAAAAAAAAAAAAAARFFw6JxAk585+Prp00EA
Aigj8wmJHUDGFXheziBHQNCNCFamXYpAAAAAAAAAFEAAAAAAAAAiQIcTAACtBAAAYwMA
AO0AAAAMAQAAAAAAAAAA8D9kDAID/QAAAAAAAAAAAAAAAAAAAAAAxKdA/JxArctg+frp
00EAFfdNsuKIHUDBg1oHziBHQKZjIg5XZ4pAAAAAAAAAJEAAAAAAAAAiQIgTAACGBAAA
QwMAAOsAAAANAQAAMzMzMzMz7z9kDAID+wAAAAAAAAAAAAAAAAAAAAAAnAhCEJ1AN0+J
+vrp00EA4TYAjruIHUAqm4n6zSBHQA5+1WTqa4pAAAAAAAAAJEAAAAAAAAAiQJoPAAB9
BAAAVAMAAO8AAAAMAQAAzczMzMzM7D9kDAID/QAAAAAAAAAAAAAAAAAAAAAAqNykIJ1A
Cl2l+/rp00EA/CQZTZaIHUAyUnu+zSBHQBjDYlF/bYpAAAAAAAAAFEAAAAAAAAAiQIgT
AABIBAAABwMAAO0AAAAOAQAAAAAAAAAA8D9kDAID+gAAAAAAAAAAAAAAAAAAAAAAEL53
NJ1AR9Pn/Prp00EAA+oEum2IHUBWsX6xziBHQKneEjvUbopAAAAAAAAAFEAAAAAAAAAi
QI8TAADSBAAAgQMAAOwAAAAeAQAAMzMzMzMz7z9kDAID/QAAAAAAAAAAAAAAAAAAAAAA
YBdFSJ1Aud7w/frp00EAt/oehk+IHUCehHsh0CBHQBrhM6CGcIpAAAAAAAAAJEAAAAAA
AAAiQKEPAAD0AwAA4wIAAPAAAAAqAQAAmpmZmZmZ7T9kDAID+gAAAAAAAAAAAAAAAAAA
AAAA5FpEWJ1A/AQl//rp00EAGmCq/CuIHUANNg/A0SBHQJxYyIUtcopAAAAAAAAAFEAA
AAAAAAAiQKMPAACbBAAAbQMAAPcAAAAqAQAAMzMzMzMz7z9kDAID+wAAAAAAAAAAAAAA
AAAAAAAASFxHaJ1AVXJtAPvp00EADSj1uQiIHUDREgPW0yBHQAIzZZZedIpAAAAAAAAA
FEAAAAAAAAAiQJ8PAADmBAAAqwMAAP8AAAAuAQAAAAAAAAAA8D9kDAID/gAAAAAAAAAA
AAAAAAAAAAAAyKFFeJ1AnMR5Afvp00EAYenTsOyHHUBrf0yo1SBHQFwV/VMPeopAAAAA
AAAAJEAAAAAAAAAiQKYPAAAFBAAA8QIAAAQBAAA1AQAAMzMzMzMz7z9kDAID/QAAAAAA
AAAAAAAAAAAAAAAASLxMiJ1AYCKIAvvp00EADjbK29OHHUDyNi/Z1yBHQLAP/ffag4pA
AAAAAAAAJEAAAAAAAAAiQJcPAAARBAAA+wIAAAMBAAA8AQAAzczMzMzM7D9kDAIDAAEA
AAAAAAAAAAAAAAAAAAAAALxFmJ1ARnbFA/vp00EAqSzHuLuHHUAmpwbB2iBHQLwmr8vz
jIpAAAAAAAAAJEAAAAAAAAAiQIQTAAC/BAAAcgMAAPYAAABFAQAAzczMzMzM7D9kDAID
/gAAAAAAAAAAAAAAAAAAAAAAgE9DrJ1A+9nyBPvp00EAO+2jZ6uHHUDMB47d3SBHQGwJ
Ih5WkopAAAAAAAAAFEAAAAAAAAAiQJwPAACIBAAAXQMAAPcAAABNAQAAmZmZmZmZ7T9k
DAIDAwEAAAAAAAAAAAAAAAAAAAAASKQ9vJ1AEIMXBvvp00EArPJwMJ+HHUDfu9cb4SBH
QEwMWI48lopAAAAAAAAAFEAAAAAAAAAiQIwTAACGBAAAQwMAAPoAAABWAQAAZmZmZmZm
7j9kDAIDAwEAAAAAAAAAAAAAAAAAAAAAoNND0J1ARfhCB/vp00EAmi80oJWHHUBzf/+e
5CBHQIR9TgjsmYpAAAAAAAAAFEAAAAAAAAAiQIYTAADJBAAAewMAAPsAAABeAQAAMzMz
MzMz7z9kDAIDAgEAAAAAAAAAAAAAAAAAAAAAvNdA5J1AEdI1CPvp00EAVfw/uJOHHUB7
Cpia5yBHQMIHkEuvnIpAAAAAAAAAFEAAAAAAAAAiQKAPAAD2AwAA5QIAAP0AAABmAQAA
ZmZmZmZm7j9kDAIDAwEAAAAAAAAAAAAAAAAAAAAAkGVB9J1AvTsoCfvp00EAbDsgXJOH
HUB8GaGU6iBHQFTxnNlVnopAAAAAAAAAFEAAAAAAAAAiQJ8PAADzAwAA4gIAAAIBAAAF
AAAAMzMzMzMz7z9kDAIDBQEAAAAAAAAAAAAAAAAAAAAApAhABJ5AMPw4Cvvp00EAejFV
zpeHHUB2DfzV7SBHQNWp5wanoYpAAAAAAAAAJEAAAAAAAAAiQKEPAABZBAAANgMAAAQB
AAAHAAAAMzMzMzMz7z9kDAIDBAEAAAAAAAAAAAAAAAAAAAAAqONBFJ5AEeE/C/vp00EA
WpMx1Z2HHUAO9T7h8CBHQFbn0vNMqopAAAAAAAAAFEAAAAAAAAAiQJ4PAAAZBAAAAQMA
AAkBAAAKAAAAMzMzMzMz7z9kDAIDBwEAAAAAAAAAAAAAAAAAAAAAnFFDJJ5AsPVYDPvp
00EAIcPqAKSHHUDQPh0q9CBHQDS6/5rGt4pAAAAAAAAAJEAAAAAAAAAiQKAPAABqBAAA
RAMAAAsBAAAJAAAAmpmZmZmZ7T9kDAIDCAEAAAAAAAAAAAAAAAAAAAAAoLVCNJ5AWvFd
Dfvp00EALgHWeKuHHUAWbKA19yBHQBTgspcGxYpAAAAAAAAAFEAAAAAAAAAiQJ8PAAAh
BAAACAMAAAsBAAALAAAAAAAAAAAA8D9kDAIDCgEAAAAAAAAAAAAAAAAAAAAAfHxCRJ5A
vNVzDvvp00EA7v26PrGHHUDxHomA+iBHQNbDvVxfz4pAAAAAAAAAFEAAAAAAAAAiQKEP
AABrBAAARQMAAA0BAAAIAAAAZmZmZmZm7j9kDAIDDAEAAAAAAAAAAAAAAAAAAAAA+JRD
VJ5AH4OjD/vp00EApAQgY6+HHUCRd7Ev/iBHQNGTXrwo2IpAAAAAAAAAFEAAAAAAAAAi
QIUTAADkBAAAkQMAAAwBAABjAQAAMzMzMzMz7z9kDAIDCQEAAAAAAAAAAAAAAAAAAAAA
1NFBaJ5AbAvBEPvp00EAklj1nqiHHUAprmWpASFHQFb3mzSx34pAAAAAAAAAJEAAAAAA
AAAiQKEPAACtBAAAewMAABEBAABcAQAAmpmZmZmZ7T9kDAIDCAEAAAAAAAAAAAAAAAAA
AAAARBdEeJ5AcwG6Efvp00EAs5l+Mp6HHUAHWrykBCFHQIIUUUJb5YpAAAAAAAAAJEAA
AAAAAAAiQJ0PAAAiBAAACQMAAA8BAABPAQAAmpmZmZmZ7T9kDAIDCAEAAAAAAAAAAAAA
AAAAAAAAgLBDiJ5A+bTKEvvp00EAyYeTy5aHHUDNDloKCCFHQKQ4SyeQ6opAAAAAAAAA
FEAAAAAAAAAiQIcTAACWBAAAUAMAAAwBAABWAQAAmZmZmZmZ7T9kDAIDBgEAAAAAAAAA
AAAAAAAAAAAAkKhAnJ5ALO35E/vp00EAu+p5nI2HHUD9NZLRCyFHQNpOhgML8YpAAAAA
AAAAFEAAAAAAAAAiQKIPAAAfBQAA2gMAABoBAABcAQAAAAAAAAAA8D9kDAIDCgEAAAAA
AAAAAAAAAAAAAAAAUOJDrJ5A6V/qFPvp00EAqt1VXomHHUBj8yPeDiFHQEW4dbIQAItA
AAAAAAAAFEAAAAAAAAAiQLcLAAATBAAAFQMAABoBAAAAAAAAAAAAAAAA8D9kDAIDCgEA
AAAAAAAAAAAAAAAAAAAAhNNCuJ5Ac5UNFvvp00EAiS9FxY2HHUBs8uKTEiFHQJySEILb
GYtAAAAAAAAAFEAAAAAAAAAiQKEPAADyBAAAtQMAABMBAAANAAAAMzMzMzMz7z9kDAID
EAEAAAAAAAAAAAAAAAAAAAAAgIxAyJ5AsWEyF/vp00EAWuTypJyHHUCCOlchFiFHQLq9
/5kIMYtAAAAAAAAAFEAAAAAAAAAiQJoPAAADBQAAwwMAAA8BAAASAAAAMzMzMzMz7z9k
DAIDFAEAAAAAAAAAAAAAAAAAAAAA4MY92J5A+nFZGPvp00EAd8CADbOHHUDFqQ5pGSFH
QPZ5jcwcO4tAAAAAAAAAFEAAAAAAAAAiQKIPAAAOBQAAywMAAA8BAAAfAAAAAAAAAAAA
8D9kDAIDGwEAAAAAAAAAAAAAAAAAAAAABE9B6J5AYdBeGfvp00EA4ImbO8qHHUD7+2se
HCFHQFrJpOYHPItAAAAAAAAAFEAAAAAAAAAiQKEPAAB4BAAAUAMAABIBAAAmAAAAAAAA
AAAA8D9kDAIDHgEAAAAAAAAAAAAAAAAAAAAAbP4/+J5AVm5pGvvp00EAhul/BeWHHUC2
LHLCHiFHQP7RxBJOM4tAAAAAAAAAFEAAAAAAAAAiQJ8PAACpBAAAeAMAABUBAAApAAAA
AAAAAAAA8D9kDAIDIQEAAAAAAAAAAAAAAAAAAAAAFNE/CJ9A889aG/vp00EAwmvo8/2H
HUC5Jy8oISFHQFii+wF/IItAAAAAAAAAFEAAAAAAAAAiQKAPAABHBAAAJwMAABYBAAAp
AAAAAAAAAAAA8D9kDAIDIgEAAAAAAAAAAAAAAAAAAAAAgCBAGJ9AIsdIHPvp00EAppsQ
bBSIHUDgQI+dIyFHQNbB3WFmDotAAAAAAAAAFEAAAAAAAAAiQKAPAAAoBAAADgMAABYB
AAAlAAAAAAAAAAAA8D9kDAIDIgEAAAAAAAAAAAAAAAAAAAAASAZAKJ9AmalFHfvp00EA
UvUkeimIHUD6PiJYJiFHQNB8W7kmBotAAAAAAAAAFEAAAAAAAAAiQJEPAABaBAAANwMA
ABYBAAAhAAAAAAAAAAAA8D9kDAIDIQEAAAAAAAAAAAAAAAAAAAAAPLZlOJ9A5fc+Hvvp
00EAs1b+8zqIHUAwnI4xKSFHQBqsyqOABYtAAAAAAAAAFEAAAAAAAAAiQLAPAABHBAAA
JwMAABMBAAAZAAAAAAAAAAAA8D9kDAIDIgEAAAAAAAAAAAAAAAAAAAAA2K5ASJ9AWZhH
H/vp00EA1xluGE2IHUBgEgBELCFHQCBTar4NCYtAAAAAAAAAFEAAAAAAAAAiQKAPAACT
BAAAZgMAABUBAAAaAAAAAAAAAAAA8D9kDAIDIgEAAAAAAAAAAAAAAAAAAAAAKABGWJ9A
im8sIPvp00EAL5veAV2IHUAePJTxLiFHQLqw1jkyDotAAAAAAAAAFEAAAAAAAAAiQKcP
AAD+AwAA6wIAABMBAAAZAAAAAAAAAAAA8D9kDAIDJAEAAAAAAAAAAAAAAAAAAAAAbBFI
aJ9AkUAeIfvp00EArnSNhG2IHUB71zjOMSFHQK7b6u7XEotAAAAAAAAAFEAAAAAAAAAi
QJYPAAA+BAAAIAMAABABAAAaAAAAAAAAAAAA8D9kDAIDIgEAAAAAAAAAAAAAAAAAAAAA
5ANCeJ9AvGMQIvvp00EA8cKKnH+IHUBK1qCaNCFHQLEaHqq9GItAAAAAAAAAFEAAAAAA
AAAiQKIPAABBBAAAIgMAAA8BAAAcAAAAAAAAAAAA8D9kDAIDIgEAAAAAAAAAAAAAAAAA
AAAAxANKiJ9AOXkKI/vp00EAJf8FL5GIHUBb+n6LNyFHQIjv6FuBIYtAAAAAAAAAFEAA
AAAAAAAiQIUTAABkBAAAJwMAAAIBAAAeAAAAAAAAAAAA8D9kDAIDJAEAAAAAAAAAAAAA
AAAAAAAAzERBnJ9A3REbJPvp00EAe2gH66qIHUBLFLVcOiFHQAiGPbRbKotAAAAAAAAA
FEAAAAAAAAAiQIgTAADDBAAAdQMAAPYAAAAnAAAAAAAAAAAA8D9kDAIDHQEAAAAAAAAA
AAAAAAAAAAAAaLRFsJ9AMNL8JPvp00EAkFhAnsSIHUDYdotUPCFHQHhtg5CcMYtAAAAA
AAAAFEAAAAAAAAAiQJYPAADwAwAA3wIAAPQAAAAvAAAAAAAAAAAA8D9kDAIDFgEAAAAA
AAAAAAAAAAAAAAAAZEo7wJ9AsNUQJvvp00EAG8dZu+eIHUDEVthQPiFHQGBzHZMpOYtA
AAAAAAAAFEAAAAAAAAAiQIsTAADPBAAAgAMAAPIAAAA8AAAAAAAAAAAA8D9kDAIDEwEA
AAAAAAAAAAAAAAAAAAAAQJQ/1J9ABTkYJ/vp00EAayk7hAuJHUAT5vXKPyFHQI5WjwDt
QItAAAAAAAAAFEAAAAAAAAAiQI0TAACMBAAASAMAAO4AAABBAAAAAAAAAAAA8D9kDAID
DQEAAAAAAAAAAAAAAAAAAAAAiBRD6J9Aqy4lKPvp00EAb3ymDDGJHUBd95L/QCFHQMpa
EYhqR4tAAAAAAAAAFEAAAAAAAAAiQIkTAACXBAAAUQMAAPEAAABNAAAAAAAAAAAA8D9k
DAIDBgEAAAAAAAAAAAAAAAAAAAAARORE/J9AMNMWKfvp00EAJ0fKelOJHUD9mPekQSFH
QDvcn5QrTItAAAAAAAAAFEAAAAAAAAAiQIATAAAKBAAAugIAAO4AAABNAAAAAAAAAAAA
8D9kDAIDAQEAAAAAAAAAAAAAAAAAAAAAHEMgCKBAS888Kvvp00EAgVhCQnyJHUCEz8QA
QiFHQNW0WqJDUItAAAAAAAAAFEAAAAAAAAAiQI8TAACzBAAAaAMAAO8AAABTAAAAAAAA
AAAA8D9kDAID/QAAAAAAAAAAAAAAAAAAAAAA+iMkEqBA02dmK/vp00EADBJXT6SJHUBs
WmByQiFHQGBm4q1hVYtAAAAAAAAAFEAAAAAAAAAiQIUTAAChBAAAWQMAAPAAAABPAAAA
AAAAAAAA8D9kDAID/AAAAAAAAAAAAAAAAAAAAAAAnrchHKBAwvSOLPvp00EASJ2Uc8uJ
HUDSFTwKQyFHQDl2UpqHX4tAAAAAAAAAFEAAAAAAAAAiQIkTAACOBAAASgMAAO8AAABQ
AAAAAAAAAAAA8D9kDAID+AAAAAAAAAAAAAAAAAAAAAAA1CoiJqBA5jW9Lfvp00EAV8tw
cPOJHUAHYYs0QyFHQB6iKsJIb4tAAAAAAAAAFEAAAAAAAAAiQIUTAACXBAAAUQMAAO8A
AABWAAAAAAAAAAAA8D9kDAID8gAAAAAAAAAAAAAAAAAAAAAAXMIhMKBARnf3Lvvp00EA
Pzbp7hyKHUCaBmUmQyFHQBJi9SVHf4tAAAAAAAAAJEAAAAAAAAAiQIUTAADCBAAAdQMA
APIAAABaAAAAmpmZmZmZ7T9kDAID8QAAAAAAAAAAAAAAAAAAAAAALqMgOqBAHeIbMPvp
00EAiehhc0OKHUChiJ/sQiFHQNLLdNuLjYtAAAAAAAAAJEAAAAAAAAAiQIsTAABtBAAA
LgMAAPIAAABZAAAAzczMzMzM7D9kDAID7gAAAAAAAAAAAAAAAAAAAAAADLEiRKBAMhxN
Mfvp00EAFMUImWuKHUAASvXOQiFHQET2F4Csm4tAAAAAAAAAFEAAAAAAAAAiQIcTAACb
BAAAVAMAAPAAAABSAAAAAAAAAAAA8D9kDAID6wAAAAAAAAAAAAAAAAAAAAAAcAQhTqBA
WVl/Mvvp00EAGe+Tx5GKHUAwb8jxQyFHQK7FKtl/p4tAAAAAAAAAJEAAAAAAAAAiQKMP
AAChBAAAcgMAAPEAAABIAAAAMzMzMzMz7z9kDAID7QAAAAAAAAAAAAAAAAAAAAAAeA0i
VqBAHlmuM/vp00EAGbYVk7WKHUBcxp58RSFHQJQUyCLvrotAAAAAAAAAJEAAAAAAAAAi
QJMPAACWBAAAaQMAAPUAAABCAAAAzczMzMzM7D9kDAID8QAAAAAAAAAAAAAAAAAAAAAA
Di0aXqBANALQNPvp00EAyJ42uNOKHUA0lheERyFHQOA5gQc4sotAAAAAAAAAJEAAAAAA
AAAiQJ8PAABhBAAAPQMAAPkAAAA6AAAAZmZmZmZm7j9kDAID9AAAAAAAAAAAAAAAAAAA
AAAAxHgdZqBAsmn8Nfvp00EA8Nnii+mKHUBRmsBhSiFHQFriT0UGs4tAAAAAAAAAJEAA
AAAAAAAiQJETAACNBAAASQMAAPoAAAAlAAAAmZmZmZmZ7T9kDAID9gAAAAAAAAAAAAAA
AAAAAAAAuOkfcKBAwFE+N/vp00EAW9Ym1/yKHUD+3gmvTSFHQDA66xjqtItAAAAAAAAA
JEAAAAAAAAAiQKUPAADoBAAArAMAAAMBAAAYAAAAzczMzMzM7D9kDAID9QAAAAAAAAAA
AAAAAAAAAAAABgcjeKBAKL6JOPvp00EAnbsEDxOLHUDJu0D6UCFHQLwGxQ1kuYtAAAAA
AAAAJEAAAAAAAAAiQJ0PAAAPBQAAzQMAAA8BAAAWAAAAzczMzMzM7D9kDAID/wAAAAAA
AAAAAAAAAAAAAAAAGt0hgKBArcLNOfvp00EAsOJHQAyLHUD795WlVCFHQKAv9tYbvotA
AAAAAAAAJEAAAAAAAAAiQJ8PAADuBAAAsQMAABcBAABXAQAAzczMzMzM7D9kDAIDBgEA
AAAAAAAAAAAAAAAAAAAAqKUhiKBAtGneOvvp00EAhj/Vk/eKHUCCOKI8VyFHQMI2Vj7o
wYtAAAAAAAAAFEAAAAAAAAAiQLQLAAAsBAAAKgMAACABAAA9AQAAmZmZmZmZ7T9kDAID
CgEAAAAAAAAAAAAAAAAAAAAAVDcfjqBARG7bO/vp00EA8Qw+ueKKHUB2HESWWSFHQHjS
1/K0xotAAAAAAAAAJEAAAAAAAAAiQNMHAADuAwAADgMAADUBAAA8AQAAmZmZmZmZ7T9k
DAIDFAEAAAAAAAAAAAAAAAAAAAAAABYhkqBAMGlKPfvp00EA080gBsmKHUDn2/lTXSFH
QLQGAkwgzYtAAAAAAAAAJEAAAAAAAAAiQLYLAADGBQAAfAQAAD0BAABJAQAAmZmZmZmZ
7T9kDAIDKAEAAAAAAAAAAAAAAAAAAAAAasAgmKBAJ21QPvvp00EABh2d67uKHUCZhUxJ
YCFHQM+DjCHB1YtAAAAAAAAAJEAAAAAAAAAiQIcTAAA0BAAA7QIAACIBAABYAQAAzczM
zMzM7D9kDAIDJwEAAAAAAAAAAAAAAAAAAAAATA8ioqBAdC1jP/vp00EAL6GPsbCKHUAS
i+qZYyFHQN9C8oE54YtAAAAAAAAAFEAAAAAAAAAiQKQPAACVBAAAaAMAAC0BAABWAQAA
ZmZmZmZm7j9kDAIDKwEAAAAAAAAAAAAAAAAAAAAAbOkhqqBAJoKGQPvp00EAcSXILZuK
HUCS36TwZiFHQKNej3QJ7ItAAAAAAAAAFEAAAAAAAAAiQLYLAAASBQAA6AMAADcBAABQ
AQAAAAAAAAAA8D9kDAIDKwEAAAAAAAAAAAAAAAAAAAAAnh0gsKBAQ6aVQfvp00EAuOsc
MomKHUBC1dBWaiFHQFbub9r78YtAAAAAAAAAJEAAAAAAAAAiQLkLAAD1BAAA0AMAAEYB
AABWAQAAmpmZmZmZ7T9kDAIDNAEAAAAAAAAAAAAAAAAAAAAAyvMgtqBAeTSOQvvp00EA
WKRK2nmKHUCYYDHEbSFHQB6cFRir84tAAAAAAAAAJEAAAAAAAAAiQLULAADgBAAAvgMA
AFEBAABZAQAAzczMzMzM7D9kDAIDPwEAAAAAAAAAAAAAAAAAAAAAEvAjvKBA45qCQ/vp
00EAWRdlnmuKHUBVQQIUcSFHQJnWXHqE94tAAAAAAAAAJEAAAAAAAAAiQK4PAACwBAAA
fgMAAFkBAABZAQAAzczMzMzM7D9kDAIDSgEAAAAAAAAAAAAAAAAAAAAAgCctxKBATJWM
RPvp00EACIjpk1mKHUAztD2AdCFHQMygV7mBAYxAAAAAAAAAJEAAAAAAAAAiQJEPAAD9
BAAAvgMAAFUBAABYAQAAzczMzMzM7D9kDAIDSgEAAAAAAAAAAAAAAAAAAAAAArAhzKBA
0jR3Rfvp00EA4cY/1EiKHUAYuk2WdyFHQCqqS90qDoxAAAAAAAAAJEAAAAAAAAAiQMML
AACGBAAAcwMAAFoBAABWAQAAZmZmZmZm7j9kDAIDTQEAAAAAAAAAAAAAAAAAAAAAstUl
0qBA1gJBRvvp00EAMZbYIEGKHUCjYGeWeiFHQKR+YFc6IIxAAAAAAAAAJEAAAAAAAAAi
QL0LAAAUBAAAFQMAAE4BAABbAQAAzczMzMzM7D9kDAIDUwEAAAAAAAAAAAAAAAAAAAAA
2A8p2KBAZ8cBR/vp00EAQ+SG5UGKHUCvqM2jfSFHQPZ7izknOoxAAAAAAAAAFEAAAAAA
AAAiQKILAAANBAAAEAMAAEABAAADAAAAZmZmZmZm7j9kDAIDVgEAAAAAAAAAAAAAAAAA
AAAAopUj3qBA3MnQR/vp00EAJ5PdgEyKHUAG29bfgCFHQMFvKCkfUIxAAAAAAAAAFEAA
AAAAAAAiQJ8PAAB2BAAATgMAACgBAAAWAAAAMzMzMzMz7z9kDAIDWAEAAAAAAAAAAAAA
AAAAAAAAcMcj5qBAsqeqSPvp00EAGb0PQl+KHUBTCEwKhCFHQPsSjSxBWYxAAAAAAAAA
JEAAAAAAAAAiQJIPAAC4BAAAhQMAABEBAAAXAAAAzczMzMzM7D9kDAIDXQEAAAAAAAAB
AAAAAAAAAAAAQLga7qBA3KNkSfvp00EAGCpJz3KKHUChaNyRhiFHQOqeWzScT4xAAAAA
AAAAFEAAAAAAAAAiQG8XAAAJBAAAQAIAANkAAAA0AAAAmZmZmZmZ7T9kDAIDVAEAAAAA
AAAAAAAAAAAAAAAATusW+qBAmGomSvvp00EAlqzWtpaKHUB/yKMfhyFHQGA+nwCNMoxA
AAAAAAAAFEAAAAAAAAAiQHAXAAAuBAAAbwIAAMsAAAA3AAAAAAAAAAAA8D9kDAIDTgEA
AAAAAAAAAAAAAAAAAAAANKAWBqFALO8RS/vp00EAhdSDP6yKHUAinkVWiiFHQMzc8LfN
FIxAAAAAAAAAFEAAAAAAAAAiQHQXAADtBAAAXQMAANsAAAAnAAAAAAAAAAAA8D9kDAID
PwEAAAAAAAAAAAAAAAAAAAAA0hseEqFAB5ISTPvp00EA2V6e0ciKHUAJDCU2jSFHQJBA
NeKABoxAAAAAAAAAFEAAAAAAAAAiQMALAAAHBQAA3gMAAP0AAAAnAAAAAAAAAAAA8D9k
DAIDNwEAAAAAAAAAAAAAAAAAAAAAcAQhGKFAk7b7TPvp00EAmTi1R+KKHUDNuayEjyFH
QESQ/PAZBIxAAAAAAAAAFEAAAAAAAAAiQK0LAAA7BAAANgMAAAwBAAAqAAAAAAAAAAAA
8D9kDAIDQgEAAAAAAAAAAAAAAAAAAAAAZFUcHqFAl+H+Tfvp00EAfij30vuKHUD2/WK3
kSFHQBuCgETyA4xAAAAAAAAAFEAAAAAAAAAiQLYLAAAiBAAAIQMAABcBAAAtAAAAAAAA
AAAA8D9kDAIDRgEAAAAAAAAAAAAAAAAAAAAAlGsaJKFA7S0UT/vp00EA99fWWBmLHUBc
kapokyFHQEgfdwFUAIxAAAAAAAAAFEAAAAAAAAAiQLcLAAAQBAAAEgMAAB8BAAA9AAAA
AAAAAAAA8D9kDAIDRgEAAAAAAAAAAAAAAAAAAAAASP4YKqFA1ahCUPvp00EAyeZHGjWL
HUB4DdtBlSFHQEVJG4x1+4tAAAAAAAAAFEAAAAAAAAAiQLcLAAAEBAAACQMAACcBAAAt
AAAAAAAAAAAA8D9kDAIDQAEAAAAAAAAAAAAAAAAAAAAABkcZMKFAdiBrUfvp00EAKFOE
VECLHUAXrAoTmCFHQDEaRSrU+ItAAAAAAAAAFEAAAAAAAAAiQLgLAAD0AwAA+wIAAC4B
AAAMAAAAZmZmZmZm7j9kDAIDPAEAAAAAAAAAAAAAAAAAAAAAoE4ZNqFA5mF7Uvvp00EA
eixh/0GLHUAsIUUSmyFHQMDp0R0n+ItAAAAAAAAAFEAAAAAAAAAiQMILAAD7AwAAAQMA
ADUBAAAAAAAAAAAAAAAA8D9kDAIDOQEAAAAAAAAAAAAAAAAAAAAADHcePKFAOk2LU/vp
00EAV8MgIkmLHUAjHxVzniFHQFcv3Gc8+ItAAAAAAAAAFEAAAAAAAAAiQJ8PAACOBAAA
YgMAADcBAAAIAAAAZmZmZmZm7j9kDAIDOQEAAAAAAAAAAAAAAAAAAAAA6GMeRKFAIySF
VPvp00EAYbIxvk2LHUDaCN+/oSFHQD7XTONn+ItAAAAAAAAAJEAAAAAAAAAiQJwPAABp
BAAAQwMAAC0BAABkAQAAMzMzMzMz7z9kDAIDNwEAAAAAAAAAAAAAAAAAAAAAJsEbTKFA
T9CCVfvp00EAVTeTgEiLHUBKRMQ6pSFHQPm47oSC+ItAAAAAAAAAJEAAAAAAAAAiQIIT
AACoBAAAXwMAAB4BAABgAQAAzczMzMzM7D9kDAIDLQEAAAAAAAAAAAAAAAAAAAAA6BYa
VqFAfcxxVvvp00EADl746D6LHUC2oc6MqCFHQLT4lCM2/4tAAAAAAAAAJEAAAAAAAAAi
QKkPAACKBAAAXwMAABsBAABYAQAAzczMzMzM7D9kDAIDKgEAAAAAAAAAAAAAAAAAAAAA
rE4eXqFA94lHV/vp00EAVtusjDGLHUC+M7x1qyFHQNxs/nAyE4xAAAAAAAAAJEAAAAAA
AAAiQKIPAAAnBAAADQMAAA8BAABPAQAAzczMzMzM7D9kDAIDKAEAAAAAAAAAAAAAAAAA
AAAA5GMfZqFAKGUQWPvp00EAPUWa8iWLHUA2ZYM+riFHQFYTa3UOLoxAAAAAAAAAJEAA
AAAAAAAiQKEPAADtAwAA3QIAAAEBAABSAQAAzczMzMzM7D9kDAIDJAEAAAAAAAAAAAAA
AAAAAAAAwrohbqFAP3XgWPvp00EAv3gSNBOLHUAiwS3PsCFHQHFsV8TPRIxAAAAAAAAA
JEAAAAAAAAAiQIMTAAAGBAAAtQIAAOUAAAA+AQAAZmZmZmZm7j9kDAIDJgEAAAAAAAAA
AAAAAAAAAAAA3lIeeKFAfETwWfvp00EAnIRHz/WKHUAaAHylsyFHQH9kfejNVYxAAAAA
AAAAJEAAAAAAAAAiQJ8PAAANBQAAywMAAOkAAAA9AQAAzczMzMzM7D9kDAIDKwEAAAAA
AAAAAAAAAAAAAAAAIvUegKFAFmzWWvvp00EAyOuiLNyKHUANsY/gtSFHQMFVsRc/YoxA
AAAAAAAAJEAAAAAAAAAiQJ8PAAAsBAAAEQMAANsAAAA0AQAAzczMzMzM7D9kDAIDKwEA
AAAAAAAAAAAAAAAAAAAAZDgeiKFA5GrdW/vp00EA62Em6b6KHUB0wQhMuCFHQKzoR3xC
aYxAAAAAAAAAJEAAAAAAAAAiQJoPAAClBAAAdQMAANoAAAAtAQAAzczMzMzM7D9kDAID
MQEAAAAAAAAAAAAAAAAAAAAAmN0bkKFAejEJXfvp00EAVoKompqKHUC/sMh5uiFHQDAx
igf9aoxAAAAAAAAAJEAAAAAAAAAiQJ4PAAARBQAAzwMAAOAAAAAkAQAAzczMzMzM7D9k
DAIDJwEAAAAAAAAAAAAAAAAAAAAA3jMamKFAbD4wXvvp00EAT718DnaKHUDtXmbduyFH
QGKL22dnaYxAAAAAAAAAJEAAAAAAAAAiQKoPAACUBAAAZgMAAOIAAAAbAQAAzczMzMzM
7D9kDAIDJAEAAAAAAAAAAAAAAAAAAAAAthEfoKFAaMVMX/vp00EAWXtkbVOKHUDeAWjm
vCFHQJ0LVwgUZoxAAAAAAAAAJEAAAAAAAAAiQJ0PAAAzBAAAFwMAAOUAAAAbAQAAzczM
zMzM7D9kDAIDIAEAAAAAAAAAAAAAAAAAAAAAYu8dqKFAC0esYPvp00EAtQ6u6SuKHUBD
HKd+viFHQHuKzoskY4xAAAAAAAAAJEC0fo41TXciQJwPAAAABQAAwAMAAPAAAAAhAQAA
zczMzMzM7D9kDAIDHAEAAAAAAAAAAAAAAAAAAAAA7uYZsKFA2/IKYvvp00EAFFnydwGK
HUAx1FSRviFHQOKrZwfiYYxAAAAAAAAAJEBg6lwj1yAiQH4XAADeBAAASQMAAOQAAAAS
AQAAzczMzMzM7D9kDAIDGAEAAAAAAAAAAAAAAAAAAAAA3sIivKFAsexOY/vp00EAjAAo
gdmJHUAm2EGvviFHQBmw22vzZIxAAAAAAAAAJEAAAAAAAAAiQJ0PAACVBAAAaAMAAOYA
AAAYAQAAzczMzMzM7D9kDAIDEwEAAAAAAAAAAAAAAAAAAAAA3C0hxKFAYe14ZPvp00EA
esFDQLSJHUCuu3/yviFHQICbmjxBc4xAAAAAAAAAJEAAAAAAAAAiQKEPAABJBAAAKQMA
APEAAAAXAQAAzczMzMzM7D9kDAIDEQEAAAAAAAAAAAAAAAAAAAAA4HwizKFAQvajZfvp
00EARGZ6nI2JHUBbje3oviFHQDv7+TCqjIxAAAAAAAAAJEAAAAAAAAAiQJ0PAABuBAAA
SAMAAPgAAAATAQAAzczMzMzM7D9kDAIDEwEAAAAAAAAAAAAAAAAAAAAA9Cwg1KFAbUCz
Zvvp00EADdOMAGuJHUDS87B1viFHQLjBq8iXpIxAAAAAAAAAJEAAAAAAAAAiQKYPAAAD
BAAA7wIAAPkAAAATAQAAzczMzMzM7D9kDAIDEwEAAAAAAAAAAAAAAAAAAAAAei4j3KFA
wHPAZ/vp00EApqooEEmJHUDET0ghviFHQNk/IyPrsYxAAAAAAAAAJEAAAAAAAAAiQKAP
AADqAwAA2wIAAPcAAAATAQAAzczMzMzM7D9kDAIDEgEAAAAAAAAAAAAAAAAAAAAAMKEi
5KFAWiHSaPvp00EAwD2n7yWJHUApiX3CvSFHQAq5Ta/dtYxAAAAAAAAAJEAAAAAAAAAi
QJcPAAAOBAAA+QIAAPIAAAANAQAAzczMzMzM7D9kDAIDEgEAAAAAAAAAAAAAAAAAAAAA
GlAf7KFAG3vqafvp00EAZ2QKSQCJHUAbghjVvSFHQIRIOpkJs4xAAAAAAAAAJEAAAAAA
AAAiQKkPAABRBAAAMAMAAPQAAAAPAQAAzczMzMzM7D9kDAIDFQEAAAAAAAAAAAAAAAAA
AAAAXtAi9KFAaeAJa/vp00EAAZ725dmIHUBm5YEUvSFHQAYIpzaWrIxAAAAAAAAAJEAA
AAAAAAAiQJsPAACDBAAAWQMAAPoAAAAIAQAAzczMzMzM7D9kDAIDFQEAAAAAAAAAAAAA
AAAAAAAAokQj/KFAToMKbPvp00EA5+ULXLmIHUC04Yz0uyFHQEzlCyTKpoxAAAAAAAAA
JEAAAAAAAAAiQJkPAAAEBAAA8AIAAP0AAAADAQAAzczMzMzM7D9kDAIDFAEAAAAAAAAA
AAAAAAAAAAAAKEkfBKJAHSEebfvp00EAJ4bQrZaIHUCxU5rQuiFHQIqLNOwio4xAAAAA
AAAAJEAAAAAAAAAiQKEPAABBBAAAIgMAAPwAAAADAQAAzczMzMzM7D9kDAIDFAEAAAAA
AAAAAAAAAAAAAAAATBwhDKJAHAU5bvvp00EAf0M8gnGIHUA7DbAauiFHQD7JITJdoYxA
AAAAAAAAJEAAAAAAAAAiQJwPAABdBAAAOgMAAP0AAAAIAQAAzczMzMzM7D9kDAIDEAEA
AAAAAAAAAAAAAAAAAAAAXmgeFKJAWChkb/vp00EAmMY35UmIHUCH4sEuuSFHQFaV7ZBA
oYxAAAAAAAAAJEAAAAAAAAAiQKAPAAC0BAAAgQMAAAUBAAAFAQAAzczMzMzM7D9kDAID
EAEAAAAAAAAAAAAAAAAAAAAA9gYfHKJAZQtvcPvp00EAzLesSiaIHUCYyzxJuCFHQEj/
dmDioYxAAAAAAAAAJEAAAAAAAAAiQKMPAABABAAAIgMAAAYBAAADAQAAzczMzMzM7D9k
DAIDEAEAAAAAAAAAAAAAAAAAAAAAijQhJKJAbrGCcfvp00EA4OXH4QCIHUCCvWyNtyFH
QOA4lTRXpIxAAAAAAAAAJEAAAAAAAAAiQJwPAABmBAAAQQMAAAgBAAAFAQAAzczMzMzM
7D9kDAIDEAEAAAAAAAAAAAAAAAAAAAAAyk4fLKJAa5KUcvvp00EAkWpTUtyHHUBvPOt/
tiFHQIne9Mi4qYxAAAAAAAAAJEAAAAAAAAAiQKIPAABrBAAARQMAAAoBAAABAQAAzczM
zMzM7D9kDAIDDwEAAAAAAAAAAAAAAAAAAAAAhlkgNKJAPHePc/vp00EAmkjmuLmHHUDB
UrqotSFHQGRZi914r4xAAAAAAAAAJEAAAAAAAAAiQJ8PAAAfBAAABgMAAAwBAAACAQAA
zczMzMzM7D9kDAIDEwEAAAAAAAAAAAAAAAAAAAAALEcgPKJAJ9GZdPvp00EA7MBL0pSH
HUDeMa6xtCFHQHI0Fts0s4xAAAAAAAAAJEAAAAAAAAAiQJsPAABrBAAARgMAAA0BAAAB
AQAAzczMzMzM7D9kDAIDEQEAAAAAAAAAAAAAAAAAAAAAQMEdRKJAHJ+gdfvp00EAbX4W
c3CHHUAt0+iosyFHQHoFOdyBtYxAAAAAAAAAJEAAAAAAAAAiQKUPAABkBAAAPwMAAAsB
AAACAQAAzczMzMzM7D9kDAIDEgEAAAAAAAAAAAAAAAAAAAAA6C4hTKJA3KKMdvvp00EA
3RGsV1CHHUCkHdGIsiFHQL6ubIRbt4xAAAAAAAAAJEAAAAAAAAAiQJ4PAAD5AwAA5wIA
AAcBAAAAAQAAzczMzMzM7D9kDAIDEQEAAAAAAAAAAAAAAAAAAAAARmEfVKJA5BeOd/vp
00EA5ASxOC2HHUA27RNGsSFHQJbcZ9BcuYxAAAAAAAAAFEAAAAAAAAAiQKAPAABcBAAA
OQMAAAUBAAAFAQAAmZmZmZmZ7T9kDAIDEQEAAAAAAAAAAAAAAAAAAAAAVpMfXKJAbWWL
ePvp00EA2y4+MQiHHUBs8rXKsCFHQAcJOkoKvIxAAAAAAAAAJEAAAAAAAAAiQJwPAABL
BAAAKwMAAAYBAAAKAQAAMzMzMzMz7z9kDAIDEwEAAAAAAAAAAAAAAAAAAAAAVEwdZKJA
YRuSefvp00EAnVZPpOGGHUC3FXa9sCFHQG0D9jcYwYxAAAAAAAAAJEAAAAAAAAAiQKIP
AABrBAAARQMAAAgBAAANAQAAzczMzMzM7D9kDAIDFQEAAAAAAAAAAAAAAAAAAAAAEBke
bKJAJJmtevvp00EAXHCqvbiGHUDIitUUsSFHQO5r5f5EzIxAAAAAAAAAJEAAAAAAAAAi
QJcPAAC2BAAAgwMAAA4BAAAXAQAAzczMzMzM7D9kDAIDFgEAAAAAAAAAAAAAAAAAAAAA
ak0bdKJAW4efe/vp00EAVje/TJaGHUClrseSsSFHQKDZZwaC3IxAAAAAAAAAJEAAAAAA
AAAiQKoPAAAABAAA7QIAAAgBAAAcAQAAmZmZmZmZ7T9kDAIDFQEAAAAAAAAAAAAAAAAA
AAAACkwffKJA9jy6fPvp00EAk4gQp2+GHUDh+AO9siFHQFKqEvLp6YxAAAAAAAAAJEAA
AAAAAAAiQKMPAACxBAAAfwMAABABAAAmAQAAzczMzMzM7D9kDAIDFQEAAAAAAAAAAAAA
AAAAAAAA5KIihKJA1FvWffvp00EAgb3szkaGHUCALYR2syFHQFyTHZxC8oxAAAAAAAAA
FEAAAAAAAAAiQJ4PAADIBAAAkgMAABIBAAAcAQAAmZmZmZmZ7T9kDAIDGQEAAAAAAAAA
AAAAAAAAAAAAuqMfjKJAIDbJfvvp00EAcI4GvCSGHUD6VOFltCFHQIH5yCyV+oxAAAAA
AAAAFEAAAAAAAAAiQKEPAAAZBAAAAQMAAAwBAAAoAQAAZmZmZmZm7j9kDAIDGQEAAAAA
AAAAAAAAAAAAAAAAGHEhlKJANZm6f/vp00EASATSpAWGHUDv8JzntSFHQFcvLw6DBY1A
AAAAAAAAFEAAAAAAAAAiQJ8PAAAWBAAA/wIAAA4BAAAxAQAAMzMzMzMz7z9kDAIDFgEA
AAAAAAAAAAAAAAAAAAAA+GUgnKJA/EK1gPvp00EACrREF+OFHUBjT94vtyFHQGwXVRss
E41AAAAAAAAAJEAAAAAAAAAiQJsPAABPBAAALgMAAAgBAAAoAQAAmpmZmZmZ7T9kDAID
FgEAAAAAAAAAAAAAAAAAAAAA9EwfpKJAc3nHgfvp00EAW9RPRr2FHUBygu6PuCFHQJIJ
d/R+JY1AAAAAAAAAJEAAAAAAAAAiQKYPAAC0BAAAgQMAAA4BAAAoAQAAZmZmZmZm7j9k
DAIDFwEAAAAAAAAAAAAAAAAAAAAAfCUorKJAmE3Ogvvp00EA7hh/QJiFHUDJ8aKfuSFH
QG71CEBGOo1AAAAAAAAAJEAAAAAAAAAiQJkPAAB5BAAAUQMAAAcBAAAiAQAAZmZmZmZm
7j9kDAIDFwEAAAAAAAAAAAAAAAAAAAAAUrgetKJArubQg/vp00EAEs2b1nKFHUDKLNU9
uiFHQMbAqcZkSY1AAAAAAAAAJEAAAAAAAAAiQKEPAABeBAAAOgMAAP8AAAAbAQAAzczM
zMzM7D9kDAIDGQEAAAAAAAAAAAAAAAAAAAAAQPIevKJAH1DihPvp00EANiPLuUqFHUDg
BEODuiFHQKudB9VeT41AAAAAAAAAJEAAAAAAAAAiQHoTAACdBAAAVgMAAPUAAAAYAQAA
zczMzMzM7D9kDAIDGAEAAAAAAAAAAAAAAAAAAAAA3F0XxqJApNkAhvvp00EAxir9tyCF
HUB9NZCUuiFHQEjIpswBUI1AAAAAAAAAJEAAAAAAAAAiQJUTAADRBAAAgQMAAO0AAAAV
AQAAzczMzMzM7D9kDAIDFQEAAAAAAAAAAAAAAAAAAAAAbHcf0KJA/ekXh/vp00EAM9uy
GPmEHUCNSc12uiFHQM9VMnGMTY1AAAAAAAAAJEAAAAAAAAAiQJ0TAACLBAAARwMAAOoA
AAAPAQAAzczMzMzM7D9kDAIDFQEAAAAAAAAAAAAAAAAAAAAANnYp2qJAlkIyiPvp00EA
P5k3ZdKEHUB90TciuiFHQCKr1yZUSY1AAAAAAAAAJEAAAAAAAAAiQHwTAAB1BAAANQMA
AOQAAAARAQAAzczMzMzM7D9kDAIDEQEAAAAAAAAAAAAAAAAAAAAA6Jgj5KJA1MJtifvp
00EA1iHdnKiEHUAiKMVnuiFHQInWWu1jRY1AAAAAAAAAJEAAAAAAAAAiQIcTAADOBAAA
fgMAAOcAAAAbAQAAzczMzMzM7D9kDAIDDgEAAAAAAAAAAAAAAAAAAAAA8C8i7qJAssC5
ivvp00EAeE0pvH2EHUD6wjXAuiFHQOLNAq3gQo1AAAAAAAAAJEAAAAAAAAAiQIcTAADw
BAAAmgMAAOcAAAAWAQAAzczMzMzM7D9kDAIDCAEAAAAAAAAAAAAAAAAAAAAAjjUj+KJA
a4nXi/vp00EALoWJW1mEHUAqwwayuiFHQOhdCD0cQo1AAAAAAAAAFEAAAAAAAAAiQIcT
AAAsBAAA4wIAAOIAAAAdAQAAAAAAAAAA8D9kDAIDAQEAAAAAAAAAAAAAAAAAAAAACrYh
AqNAFvIbjfvp00EAktA8zjCEHUCGrS1CuyFHQEeENh/LQo1AAAAAAAAAFEAAAAAAAAAi
QIYTAAC1BAAAagMAAOEAAAAaAQAAmZmZmZmZ7T9kDAID/gAAAAAAAAAAAAAAAAAAAAAA
Th8hDKNAIXY/jvvp00EANW/00wyEHUAFaMILvCFHQOaVNUjBRo1AAAAAAAAAFEAAAAAA
AAAiQJkPAABBBAAAIwMAAOcAAAAZAQAAZmZmZmZm7j9kDAID/wAAAAAAAAAAAAAAAAAA
AAAAiIIhFKNAIjdXj/vp00EASwNf2OqDHUCPv73fvCFHQAN1s4OfT41AAAAAAAAAFEAA
AAAAAAAiQJ8PAAAMBAAA9wIAAOoAAAAbAQAAMzMzMzMz7z9kDAID/gAAAAAAAAAAAAAA
AAAAAAAAnsohHKNAYuR1kPvp00EA07ctl8mDHUB+iaEDviFHQMoFviR5WY1AAAAAAAAA
FEAAAAAAAAAiQJ8PAAAaBAAAAgMAAO0AAAAdAQAAMzMzMzMz7z9kDAID/QAAAAAAAAAA
AAAAAAAAAAAAZk4fJKNAhSKUkfvp00EAWGLvK6iDHUCagq8fvyFHQDJ0ay+yX41AAAAA
AAAAJEAAAAAAAAAiQJ8PAAAbBAAAAwMAAPAAAAAhAQAAMzMzMzMz7z9kDAID+wAAAAAA
AAAAAAAAAAAAAAAAEoAfLKNALUulkvvp00EAfzcfxIiDHUAzNO9rwCFHQBwFNA+vYo1A
AAAAAAAAFEAAAAAAAAAiQKMPAAD9AwAA6gIAAPAAAAAkAQAAAAAAAAAA8D9kDAID+AAA
AAAAAAAAAAAAAAAAAAAACLAgNKNAwyOxk/vp00EAP06swWqDHUAcs//qwSFHQJK7aQe2
Zo1AAAAAAAAAJEAAAAAAAAAiQG0XAAD5AwAALAIAANgAAABAAQAAzczMzMzM7D9kDAID
8gAAAAAAAAAAAAAAAAAAAAAAGt8fQKNAJaTalPvp00EARvCcVoCDHUDpK2q6xCFHQC+Q
rXegbo1AAAAAAAAAJEAAAAAAAAAiQCcjAAB5BAAASQIAALUAAAAnAAAAzczMzMzM7D9k
DAID6AAAAAAAAAAAAAAAAAAAAAAAGKkfUqNAPpHzlfvp00EAOAIpLKODHUCX3AHVxSFH
QG/aACPUd41AAAAAAAAAJEAAAAAAAAAiQIwTAABBBAAA/QIAAL8AAABAAAAAzczMzMzM
7D9kDAID6AAAAAAAAAAAAAAAAAAAAAAAhBEzXKNAzHgGl/vp00EAywHBNMODHUDOEX3z
xiFHQKoAECjKfo1AAAAAAAAAJEAAAAAAAAAiQJ4PAAD2AwAA5AIAAM0AAABBAAAAzczM
zMzM7D9kDAID6QAAAAAAAAAAAAAAAAAAAAAAfjggZKNAcwg4mPvp00EAtZnSH+SDHUAe
PX4ByCFHQKgR1e0Cg41AAAAAAAAAJEAAAAAAAAAiQJ8PAAAGBAAA8gIAANsAAABFAAAA
zczMzMzM7D9kDAID6gAAAAAAAAAAAAAAAAAAAAAAZhMgbKNAsxyVmfvp00EAMXh2LgeE
HUA0UdNRySFHQBggmuT5hY1AAAAAAAAAJEAAAAAAAAAiQIYTAABhBAAAJQMAANsAAABB
AAAAzczMzMzM7D9kDAID6AAAAAAAAAAAAAAAAAAAAAAAhuggdqNA7yD3mvvp00EAHbhN
uiiEHUCQJKaSyiFHQOxRSI9KiY1AAAAAAAAAFEAAAAAAAAAiQIsTAAAwBAAA6QIAANgA
AABDAAAAAAAAAAAA8D9kDAID6AAAAAAAAAAAAAAAAAAAAAAA6NMigKNArFYxnPvp00EA
FXzlTUmEHUBE18aiyyFHQGoxZ/tSjI1AAAAAAAAAJEAAAAAAAAAiQHoXAAD+AwAAMQIA
AM4AAABDAAAAmZmZmZmZ7T9kDAID3wAAAAAAAAAAAAAAAAAAAAAAVIZRjKNAtppynfvp
00EA1wQKkmyEHUD02lbgzCFHQGpWyWzWjo1AAAAAAAAAJEAAAAAAAAAiQF8XAABdBAAA
rAIAAMIAAABBAAAAMzMzMzMz7z9kDAID2QAAAAAAAAAAAAAAAAAAAAAAmrAdmKNAm8es
nvvp00EAqhVhPY6EHUCXWX9eziFHQKaZs24Dko1AAAAAAAAAFEAAAAAAAAAiQIcTAABW
BAAAGQMAAL8AAAA/AAAAAAAAAAAA8D9kDAID1QAAAAAAAAAAAAAAAAAAAAAA/NsdoqNA
pzron/vp00EABpxLpq2EHUAMFFMf0CFHQIOTvHH3mY1AAAAAAAAAFEAAAAAAAAAiQIwT
AABJBAAACAMAAL4AAAA9AAAAAAAAAAAA8D9kDAIDzgAAAAAAAAAAAAAAAAAAAAAANvog
rKNAuxQRofvp00EAj5M/tsmEHUAlXDjU0SFHQCa8S41/qI1AAAAAAAAAFEAAAAAAAAAi
QIsTAADvAwAAlwIAAL8AAAA5AAAAAAAAAAAA8D9kDAIDzQAAAAAAAAAAAAAAAAAAAAAA
7jwhtqNA2KF5ovvp00EAaU5VTOuEHUDltwep0yFHQGpvN7ujt41AAAAAAAAAJEAAAAAA
AAAiQGgXAACNBAAA5wIAALwAAAA7AAAAzczMzMzM7D9kDAIDzwAAAAAAAAAAAAAAAAAA
AAAAXIYfwqNAbS+8o/vp00EAGooDQAmFHUCnIvwW1SFHQBDnIXqgwY1AAAAAAAAAFEAA
AAAAAAAiQIsTAADsAwAAkwIAAL0AAAA6AAAAAAAAAAAA8D9kDAID1gAAAAAAAAAAAAAA
AAAAAAAAiocnzKNAmgo8pfvp00EArkp8MC2FHUDfdW+r1iFHQFADmHxUx41AAAAAAAAA
JEAAAAAAAAAiQHYXAACfBAAA/AIAALwAAAA5AAAAzczMzMzM7D9kDAID1AAAAAAAAAAA
AAAAAAAAAAAAMoki2KNAG7mLpvvp00EAeSkmmUmFHUAXPI532CFHQBYlet+Gyo1AAAAA
AAAAJEAAAAAAAAAiQH8TAAAJBAAAuQIAAL4AAAA2AAAAMzMzMzMz7z9kDAID0AAAAAAA
AAAAAAAAAAAAAAAAYto34qNAzg/Vp/vp00EAnQUv4GOFHUDAmyBi2iFHQDSynpTJzI1A
AAAAAAAAJEAAAAAAAAAiQIITAADxAwAAmgIAAL4AAAA1AAAAzczMzMzM7D9kDAIDywAA
AAAAAAAAAAAAAAAAAAAAjlwf7KNAtH0mqfvp00EAD9eDUICFHUAo6Qso3CFHQC7G0sZw
z41AAAAAAAAAJEAAAAAAAAAiQJATAAAFBAAAsgIAAMEAAAA1AAAAzczMzMzM7D9kDAID
ygAAAAAAAAAAAAAAAAAAAAAAhGEg9qNAhK1xqvvp00EAhMCGWJuFHUDxE0f/3SFHQJT2
jLV20o1AAAAAAAAAJEAAAAAAAAAiQIgTAADyAwAAmwIAAMAAAAAyAAAAzczMzMzM7D9k
DAIDyQAAAAAAAAAAAAAAAAAAAAAAuoMgAKRAC9T1q/vp00EARZr76LqFHUBsgIgw4CFH
QJTgxmog1Y1AAAAAAAAAJEAAAAAAAAAiQG8XAACkBAAAAwMAAMAAAAAzAAAAzczMzMzM
7D9kDAIDywAAAAAAAAAAAAAAAAAAAAAARn0iDKRAboI7rfvp00EAlDdyNNaFHUBhkQX4
4SFHQGIwKJ8p2I1AAAAAAAAAJEAAAAAAAAAiQIQTAADrAwAAkwIAAMAAAAAzAAAAzczM
zMzM7D9kDAIDzAAAAAAAAAAAAAAAAAAAAAAAOgQeFqRAoGaBrvvp00EArJJAZvCFHUDr
s6bm4yFHQFDJARdd3I1AAAAAAAAAJEAAAAAAAAAiQIkTAADzAwAAnAIAAMEAAAAyAAAA
zczMzMzM7D9kDAIDywAAAAAAAAAAAAAAAAAAAAAAriEgIKRAfXjTr/vp00EA+sNE+QyG
HUBGKp7F5SFHQAMkb71x4Y1AAAAAAAAAJEAAAAAAAAAiQIoTAAAcBAAAzwIAAMMAAAAy
AAAAzczMzMzM7D9kDAIDygAAAAAAAAAAAAAAAAAAAAAAdF0gKqRAteIasfvp00EAeWQL
TSmGHUC/yWd/5yFHQCqLWhc6541AAAAAAAAAJEAAAAAAAAAiQHwTAAD5AwAApQIAAMMA
AAAzAAAAzczMzMzM7D9kDAIDygAAAAAAAAAAAAAAAAAAAAAAzqYbNKRAsYmVsvvp00EA
+iAAf0mGHUACAbeQ6SFHQHYMqNft7I1AAAAAAAAAJEAAAAAAAAAiQHAXAACZBAAA9QIA
AMQAAAA3AAAAzczMzMzM7D9kDAIDygAAAAAAAAAAAAAAAAAAAAAAQH0bQKRAEyfds/vp
00EA7ngdEmaGHUCFFQRL6yFHQHG09WqW841AAAAAAAAAJEAAAAAAAAAiQIYTAAD/AwAA
rAIAAMUAAAA3AAAAzczMzMzM7D9kDAIDywAAAAAAAAAAAAAAAAAAAAAA4PAaSqRA6+In
tfvp00EA0anFV4SGHUBOG9zi7CFHQPRpzV2U/I1AAAAAAAAAJEAAAAAAAAAiQIYTAAAQ
BAAAwQIAAMUAAAA6AAAAzczMzMzM7D9kDAIDywAAAAAAAAAAAAAAAAAAAAAAbMYZVKRA
N15utvvp00EAi048C6OGHUCkxYVd7iFHQEbpO85NBY5AAAAAAAAAJEAAAAAAAAAiQIYT
AAAHBAAAtgIAAMMAAAA6AAAAzczMzMzM7D9kDAIDywAAAAAAAAAAAAAAAAAAAAAAtHAZ
XqRAZjDdt/vp00EA5i2iHMSGHUCTPuc/8CFHQPHsmY/BCo5AAAAAAAAAJEAAAAAAAAAi
QHMXAACKBAAA4gIAAL4AAAA9AAAAzczMzMzM7D9kDAIDywAAAAAAAAAAAAAAAAAAAAAA
7gQbaqRAa6o0ufvp00EAoywF1+aGHUC9R0Nq8SFHQDyu+CDYD45AAAAAAAAAJEAAAAAA
AAAiQHoXAABFBAAAigIAALkAAABBAAAAzczMzMzM7D9kDAIDyQAAAAAAAAAAAAAAAAAA
AAAA0A4gdqRAEdN5uvvp00EAG4EG9geHHUDqnqt08iFHQMrrTQcYGI5AAAAAAAAAJEAA
AAAAAAAiQIQTAAAKBAAAugIAAL0AAABEAAAAzczMzMzM7D9kDAIDyQAAAAAAAAAAAAAA
AAAAAAAACOAegKRAcPXKu/vp00EAtJVYeCqHHUCXmfFf8yFHQPbzqpQgI45AAAAAAAAA
JEAAAAAAAAAiQGsXAAAkBAAAYgIAAL8AAABEAAAAzczMzMzM7D9kDAIDxwAAAAAAAAAA
AAAAAAAAAAAANNgcjKRAmesRvfvp00EAT51kvUqHHUCH1Xxo9CFHQPhSNxSPL45AAAAA
AAAAJEAAAAAAAAAiQI0TAADyAwAAmgIAAMMAAABFAAAAzczMzMzM7D9kDAIDxwAAAAAA
AAAAAAAAAAAAAAAAhAgglqRA7jyUvvvp00EAT+ug2G6HHUBEgSHg9SFHQBjU3e/XPY5A
AAAAAAAAJEAAAAAAAAAiQIgTAACTBAAATgMAAMUAAABDAAAAzczMzMzM7D9kDAIDygAA
AAAAAAAAAAAAAAAAAAAAMLsfoKRArZnsv/vp00EAlrJqMJCHHUB4pOv69iFHQOC5hD3o
To5AAAAAAAAAJEAAAAAAAAAiQIcTAAAYBAAAygIAAMgAAABGAAAAzczMzMzM7D9kDAID
ygAAAAAAAAAAAAAAAAAAAAAAZigeqqRAUHhKwfvp00EAqJbOSLKHHUDW08It+CFHQLeM
r5DNYI5AAAAAAAAAJEAAAAAAAAAiQIkTAAA4BAAA8wIAAMgAAABEAAAAzczMzMzM7D9k
DAIDywAAAAAAAAAAAAAAAAAAAAAAMGIftKRATCSMwvvp00EAeazVa9KHHUAv7jM9+SFH
QCP0QZnWbY5AAAAAAAAAJEAAAAAAAAAiQIgTAADxAwAAmgIAAMcAAABFAAAAzczMzMzM
7D9kDAIDzAAAAAAAAAAAAAAAAAAAAAAArAMgvqRAGFP2w/vp00EA5skIafaHHUAeA8Gb
+iFHQARZ2bQKdI5AAAAAAAAAJEAAAAAAAAAiQHQXAACCBAAA1wIAAMQAAAA/AAAAzczM
zMzM7D9kDAIDywAAAAAAAAAAAAAAAAAAAAAAMAgkyqRANephxfvp00EAKdNELRqIHUB9
hrAl/CFHQLDq1m2gdo5AAAAAAAAAJEAAAAAAAAAiQIUTAACUBAAATwMAAMcAAABAAAAA
zczMzMzM7D9kDAIDzQAAAAAAAAAAAAAAAAAAAAAAgAgh1KRAwsGoxvvp00EAogbi5jmI
HUA0Kwae/SFHQMC75nWzd45AAAAAAAAAJEAAAAAAAAAiQIkTAAAgBAAA1QIAAMgAAAA9
AAAAzczMzMzM7D9kDAIDzQAAAAAAAAAAAAAAAAAAAAAAPlkh3qRAfugQyPvp00EA4cRL
N12IHUCFX9se/yFHQHyCZvWPeI5AAAAAAAAAJEAAAAAAAAAiQG8XAACDBAAA2QIAAMQA
AAA+AAAAzczMzMzM7D9kDAIDzQAAAAAAAAAAAAAAAAAAAAAAghom6qRAwf9ryfvp00EA
YGjokn2IHUDB7jrOACJHQOaOpIYMe45AAAAAAAAAFEAAAAAAAAAiQIYTAABVBAAAFwMA
AMQAAAA7AAAAAAAAAAAA8D9kDAID0AAAAAAAAAAAAAAAAAAAAAAAplkg9KRASzqmyvvp
00EADRX+n5iIHUCh66SkAiJHQFpLstkTf45AAAAAAAAAJEAAAAAAAAAiQIYTAADyAwAA
mwIAAMQAAAA0AAAAzczMzMzM7D9kDAID0AAAAAAAAAAAAAAAAAAAAAAA7jkg/qRACfPj
y/vp00EATNdIT7SIHUB9CSZ3BCJHQCKngbrIgo5AAAAAAAAAJEAAAAAAAAAiQIgTAAD9
AwAAqQIAAMUAAAAzAAAAzczMzMzM7D9kDAID0gAAAAAAAAAAAAAAAAAAAAAA0EQgCKVA
v6Eizfvp00EAyEoOQNCIHUCAAFk8BiJHQOLXRtLtho5AAAAAAAAAJEAAAAAAAAAiQIkT
AAD5AwAAowIAAMUAAAAzAAAAzczMzMzM7D9kDAID0gAAAAAAAAAAAAAAAAAAAAAAlngg
EqVAS1d1zvvp00EASrxRuO2IHUAua/4bCCJHQJQdOYLRjI5AAAAAAAAAJEAAAAAAAAAi
QIUTAAAyBAAA6wIAAMcAAAAzAAAAzczMzMzM7D9kDAID0QAAAAAAAAAAAAAAAAAAAAAA
6uUfHKVAmPu2z/vp00EA0kZSmwiJHUCP23UECiJHQH7TRGw2k45AAAAAAAAAJEAAAAAA
AAAiQIgTAAD9AwAAqQIAAMYAAAAyAAAAzczMzMzM7D9kDAID0AAAAAAAAAAAAAAAAAAA
AAAAmq4fJqVAXhT+0Pvp00EAy8setyGJHUDzW+guDCJHQDe/A+ckmY5AAAAAAAAAJEAA
AAAAAAAiQKIPAAARBAAA+wIAANMAAAAuAAAAzczMzMzM7D9kDAID1AAAAAAAAAAAAAAA
AAAAAAAA+DUiLqVAONJF0vvp00EAe/RhAzuJHUDV33lbDiJHQPQn5KCCn45AAAAAAAAA
JEAAAAAAAAAiQJ0PAAAXBAAAAAMAAOIAAAAsAAAAzczMzMzM7D9kDAID2AAAAAAAAAAA
AAAAAAAAAAAAvIsfNqVATYGS0/vp00EA3OFbSlOJHUByiriyECJHQJrGl+GJpo5AAAAA
AAAAJEAAAAAAAAAiQJ0PAAArBAAAEQMAAO4AAAAqAAAAzczMzMzM7D9kDAID3QAAAAAA
AAAAAAAAAAAAAAAAIokePqVAHdnZ1Pvp00EAaLG20muJHUCjWmoFEyJHQIpjwjiHrY5A
AAAAAAAAJEAAAAAAAAAiQKEPAAAsBAAAEQMAAPgAAAAqAAAAzczMzMzM7D9kDAID4wAA
AAAAAAAAAAAAAAAAAAAA0LIeRqVA4/8O1vvp00EAriw0bYOJHUCcDMlwFSJHQHbJoTIR
s45AAAAAAAAAFEAAAAAAAAAiQKIPAAAyBAAAFgMAAAABAAAqAAAAAAAAAAAA8D9kDAID
5QAAAAAAAAAAAAAAAAAAAAAA9uYfTqVAwjkg1/vp00EAgkwnapmJHUArv3HDFyJHQNck
WHg2to5AAAAAAAAAFEAAAAAAAAAiQJ8PAAD7AwAA6QIAAAIBAAApAAAAAAAAAAAA8D9k
DAID5wAAAAAAAAAAAAAAAAAAAAAAQH8hVqVAQnIh2Pvp00EAZIbRNK+JHUBgW6wPGiJH
QPNi8QZ3uI5AAAAAAAAAFEAAAAAAAAAiQJ8PAADxAwAA4AIAAAMBAAAnAAAAAAAAAAAA
8D9kDAID6gAAAAAAAAAAAAAAAAAAAAAAQEsfXqVAhUFY2fvp00EAgL/ZvsqJHUAjnWPx
HCJHQC3OlVnHu45AAAAAAAAAFEAAAAAAAAAiQIoTAAD1BAAAnwMAAAIBAAAoAAAAAAAA
AAAA8D9kDAID7gAAAAAAAAAAAAAAAAAAAAAAWkMhaKVAQYtl2vvp00EAdAbq1+OJHUB5
TkVuHyJHQGOtrEyUv45AAAAAAAAAFEAAAAAAAAAiQJwPAABhBAAAPQMAAAUBAAAoAAAA
AAAAAAAA8D9kDAID8wAAAAAAAAAAAAAAAAAAAAAAtkcfcKVAorp52/vp00EAqvxFsv6J
HUCkRtnqISJHQNq5KBSPw45AAAAAAAAAFEAAAAAAAAAiQKAPAACDBAAAWQMAAAoBAAAo
AAAAAAAAAAAA8D9kDAID+QAAAAAAAAAAAAAAAAAAAAAAoEgfeKVA76J83Pvp00EAu+e6
ohqKHUD4CzsAJCJHQMhPjDsuyI5AAAAAAAAAJEAAAAAAAAAiQJUPAAA7BAAAHgMAAAcB
AAAsAAAAMzMzMzMz7z9kDAID+gAAAAAAAAAAAAAAAAAAAAAAYG8agKVAzgaD3fvp00EA
algeRDOKHUBMPjV0JiJHQP6yg3KFzo5AAAAAAAAAFEAAAAAAAAAiQI4TAABPBAAADgMA
APcAAAApAAAAMzMzMzMz7z9kDAID+wAAAAAAAAAAAAAAAAAAAAAAvrYeiqVABnpv3vvp
00EAUiOHvUmKHUD1xh+zKCJHQLcktKw/2I5AAAAAAAAAFEAAAAAAAAAiQKEPAADwAwAA
3wIAAPMAAAApAAAAAAAAAAAA8D9kDAID/wAAAAAAAAAAAAAAAAAAAAAAQgQckqVALipy
3/vp00EAsrYiMWGKHUAe7I4/KyJHQES/2SwW445AAAAAAAAAFEAAAAAAAAAiQKMPAABS
BAAAMAMAAPUAAAAnAAAAMzMzMzMz7z9kDAIDAwEAAAAAAAAAAAAAAAAAAAAAGokgmqVA
P86c4Pvp00EA+t7fa3yKHUAT6bMCLiJHQI8SLcrV6o5AAAAAAAAAFEAAAAAAAAAiQIkT
AADQBAAAgAMAAPcAAAAoAAAAAAAAAAAA8D9kDAIDBQEAAAAAAAAAAAAAAAAAAAAAwi4i
pKVAs7mZ4fvp00EAgo/YbZOKHUDtXjg0MCJHQL5vsTo+745AAAAAAAAAFEAAAAAAAAAi
QJ4PAADtAwAA3QIAAPUAAAApAAAAAAAAAAAA8D9kDAIDBQEAAAAAAAAAAAAAAAAAAAAA
chEfrKVAd9+h4vvp00EAYCSD9aqKHUC25oKBMiJHQPLosYa28Y5AAAAAAAAAFEAAAAAA
AAAiQKIPAAATBAAA/AIAAPYAAAApAAAAAAAAAAAA8D9kDAIDBQEAAAAAAAAAAAAAAAAA
AAAAQgYitKVA9zye4/vp00EAmZIpBMKKHUCAgA+xNCJHQPiP53S68o5AAAAAAAAAFEAA
AAAAAAAiQKEPAADsAwAA3AIAAPYAAAApAAAAAAAAAAAA8D9kDAIDBAEAAAAAAAAAAAAA
AAAAAAAAQv4hvKVApJHW5Pvp00EAFqxjnt6KHUCK3q5kNyJHQPot3POQ9I5AAAAAAAAA
FEAAAAAAAAAiQIMTAADbBAAAigMAAPUAAAApAAAAAAAAAAAA8D9kDAIDAwEAAAAAAAAA
AAAAAAAAAAAAlKAfxqVAgFDT5fvp00EABf7unfWKHUBC15GVOSJHQMCyIzBm+o5AAAAA
AAAAFEAAAAAAAAAiQKEPAADsAwAA3AIAAPcAAAApAAAAAAAAAAAA8D9kDAIDAgEAAAAA
AAAAAAAAAAAAAAAAjO4gzqVAZFTy5vvp00EAzb6dGw+LHUAGrb0fPCJHQJL92qKQA49A
AAAAAAAAFEAAAAAAAAAiQIUTAAB2BAAANQMAAPMAAAAqAAAAAAAAAAAA8D9kDAIDAAEA
AAAAAAAAAAAAAAAAAAAAMqge2KVAfmsZ6Pvp00EA1Q7kWiqLHUCsk02lPiJHQFjHDzpO
DI9AAAAAAAAAFEAAAAAAAAAiQIkTAACUBAAATgMAAO0AAAAsAAAAMzMzMzMz7z9kDAID
/gAAAAAAAAAAAAAAAAAAAAAAAMIf4qVAaUxC6fvp00EAIUEqH0eLHUDWRasTQSJHQArt
bJpmEo9AAAAAAAAAFEAAAAAAAAAiQI0TAACdBAAAVgMAAOoAAAAtAAAAAAAAAAAA8D9k
DAID+wAAAAAAAAAAAAAAAAAAAAAAnNsk7KVAi1Bu6vvp00EA7fLT3mWLHUCCSvhaQyJH
QCiSEPl6Fo9AAAAAAAAAFEAAAAAAAAAiQIMTAAClBAAAXAMAAOgAAAAvAAAAAAAAAAAA
8D9kDAID+AAAAAAAAAAAAAAAAAAAAAAAINIf9qVApfCc6/vp00EAMoe2JISLHUB2t4Ce
RSJHQDw302flGY9AAAAAAAAAJEAAAAAAAAAiQIkTAACXBAAAUQMAAOcAAAAwAAAAzczM
zMzM7D9kDAID9QAAAAAAAAAAAAAAAAAAAAAAhNUgAKZAF5nH7Pvp00EAH2cH1KGLHUBe
+NfHRyJHQLhWeMPcHY9AAAAAAAAAFEAAAAAAAAAiQIoTAABzBAAAMwMAAOcAAAAxAAAA
AAAAAAAA8D9kDAID9QAAAAAAAAAAAAAAAAAAAAAA9pggCqZAV4EA7vvp00EACOQVnMCL
HUDnWikFSiJHQN/+7clsJI9AAAAAAAAAJEAAAAAAAAAiQIITAACdBAAAVgMAAOcAAAAy
AAAAMzMzMzMz7z9kDAID8gAAAAAAAAAAAAAAAAAAAAAA4EIeFKZAsnoy7/vp00EA+eLq
oN6LHUCapmUvTCJHQNXuQAb4LY9AAAAAAAAAFEAAAAAAAAAiQIwTAAB7BAAAOgMAAOYA
AAAzAAAAAAAAAAAA8D9kDAID8QAAAAAAAAAAAAAAAAAAAAAAeowiHqZAbb4+8Pvp00EA
8tA/qPiLHUDQgTQZTiJHQLBPzuL+N49AAAAAAAAAFEAAAAAAAAAiQJ4PAADrAwAA2wIA
AOcAAAAyAAAAAAAAAAAA8D9kDAID8QAAAAAAAAAAAAAAAAAAAAAA7qghJqZAb3968fvp
00EAnlN6ghiMHUAOTvw3UCJHQIYI4UPqP49AAAAAAAAAFEAAAAAAAAAiQIkTAACcBAAA
VQMAAOoAAAA0AAAAAAAAAAAA8D9kDAID7wAAAAAAAAAAAAAAAAAAAAAAYvAgMKZAdWrB
8vvp00EAOi4dBzqMHUCRes5YUiJHQLR3pDFkRY9AAAAAAAAAFEAAAAAAAAAiQIYTAADE
BAAAdwMAAOkAAAA1AAAAAAAAAAAA8D9kDAID7gAAAAAAAAAAAAAAAAAAAAAAGB0gOqZA
vUv58/vp00EAsuliLluMHUCuSsc5VCJHQGMasHAMSo9AAAAAAAAAJEAAAAAAAAAiQIkT
AACLBAAARwMAAOgAAAA4AAAAzczMzMzM7D9kDAID7QAAAAAAAAAAAAAAAAAAAAAAvD4j
RKZAPxo69fvp00EABq6i6XyMHUCm1sk/ViJHQIZVW6DjTo9AAAAAAAAAJEAAAAAAAAAi
QIcTAAC1BAAAagMAAOgAAAA3AAAAzczMzMzM7D9kDAID7AAAAAAAAAAAAAAAAAAAAAAA
qvQzTqZAyd519vvp00EAqMj2np6MHUDTbr01WCJHQP/FZXemU49AAAAAAAAAFEAAAAAA
AAAiQIMTAACoBAAAXwMAAOgAAAA4AAAAAAAAAAAA8D9kDAID7QAAAAAAAAAAAAAAAAAA
AAAA4hceWKZAOXqx9/vp00EAFeIjyMCMHUDs8fYWWiJHQFdrGyohWI9AAAAAAAAAJEAA
AAAAAAAiQIoTAACkBAAAXAMAAOcAAAA5AAAAzczMzMzM7D9kDAID7QAAAAAAAAAAAAAA
AAAAAAAA8DEgYqZAgtm8+Pvp00EA86hKb92MHUCNyZy0WyJHQMWBrOmiXI9AAAAAAAAA
FEAAAAAAAAAiQJ0PAADsAwAA3AIAAOkAAAA5AAAAZmZmZmZm7j9kDAID7gAAAAAAAAAA
AAAAAAAAAAAAwLEfaqZAQODQ+fvp00EA8RtIdvuMHUD9Wu1PXSJHQI92Va3DYY9AAAAA
AAAAFEAAAAAAAAAiQKEPAAAMBAAA9wIAAOwAAAA4AAAAMzMzMzMz7z9kDAID8AAAAAAA
AAAAAAAAAAAAAAAAjgYgcqZAfl0b+/vp00EA3ETlDR+NHUCQVbBGXyJHQNRUmZqEZ49A
AAAAAAAAJEAAAAAAAAAiQIkTAADXBAAAhgMAAOwAAAA4AAAAZmZmZmZm7j9kDAID8QAA
AAAAAAAAAAAAAAAAAAAAjugefKZAqD4o/Pvp00EAbUgNIzyNHUAYSqnbYCJHQL72mttT
bo9AAAAAAAAAJEAAAAAAAAAiQKIPAADwAwAA4AIAAO8AAAA5AAAAzczMzMzM7D9kDAID
8wAAAAAAAAAAAAAAAAAAAAAAxCYihKZAbhgz/fvp00EAZ2KzKFmNHUCyHndxYiJHQHrP
W4cdeI9AAAAAAAAAFEAAAAAAAAAiQKAPAADvAwAA3wIAAPIAAAA6AAAAAAAAAAAA8D9k
DAID9AAAAAAAAAAAAAAAAAAAAAAADqEyjKZAvBJA/vvp00EADqT7l3aNHUDK7/MPZCJH
QKr84r8+hI9AAAAAAAAAFEAAAAAAAAAiQJ0PAAAABAAA7QIAAPQAAAA6AAAAAAAAAAAA
8D9kDAID9QAAAAAAAAAAAAAAAAAAAAAAUmUglKZAuYyB//vp00EAvb9peJmNHUDFensT
ZiJHQDsEeDMUj49AAAAAAAAAJEAAAAAAAAAiQIcTAADPBAAAfwMAAPQAAAA3AAAAMzMz
MzMz7z9kDAID9gAAAAAAAAAAAAAAAAAAAAAAlv8gnqZA98q/APzp00EAnCpV1ryNHUCS
ErwIaCJHQD7CJhzxlo9AAAAAAAAAJEAAAAAAAAAiQHwTAADRBAAAgQMAAPQAAAA4AAAA
zczMzMzM7D9kDAID9gAAAAAAAAAAAAAAAAAAAAAA/oAfqKZAsrbvAfzp00EAktKH7N6N
HUCs6XPzaSJHQMdx870unY9AAAAAAAAAJEAAAAAAAAAiQIoTAACpBAAAYAMAAPQAAAA4
AAAAMzMzMzMz7z9kDAID9gAAAAAAAAAAAAAAAAAAAAAAXmYgsqZAcKgbA/zp00EAJBYD
cQCOHUCp1PTkayJHQFw7fsxdo49AAAAAAAAAFEAAAAAAAAAiQJMTAACgBAAAWQMAAPAA
AAA3AAAAAAAAAAAA8D9kDAID9gAAAAAAAAAAAAAAAAAAAAAAlGghvKZAFuxMBPzp00EA
6mdd/h+OHUBYuDgqbiJHQH4Soywvqo9AAAAAAAAAFEAAAAAAAAAiQIQTAAC1BAAAagMA
AOsAAAAwAAAAAAAAAAAA8D9kDAID9gAAAAAAAAAAAAAAAAAAAAAAIK8fxqZA3XpuBfzp
00EAVsdJHCyOHUBbsdpccSJHQBzYVYhAsY9AAAAAAAAAFEAAAAAAAAAiQIkTAAB3BAAA
NgMAAOAAAAATAAAAAAAAAAAA8D9kDAID9gAAAAAAAAAAAAAAAAAAAAAAQowf0KZAnhKZ
Bvzp00EAY8CKqxqOHUCVYw93dCJHQAShXwBPuI9AAAAAAAAAFEAAAAAAAAAiQIgTAACT
BAAATgMAANgAAABTAQAAAAAAAAAA8D9kDAID9QAAAAAAAAAAAAAAAAAAAAAATBQh2qZA
5ESvB/zp00EABfbQZPyNHUDMQmA/diJHQGoPMr5+v49AAAAAAAAAFEAAAAAAAAAiQJ0P
AAAzBAAAFwMAANwAAAAzAQAAMzMzMzMz7z9kDAID9wAAAAAAAAABAAAAAAAAAAAAvqEg
4qZA90bDCPzp00EAbYEB9dmNHUAlBsH9diJHQISXvduZxo9AAAAAAAAAFEAAAAAAAAAi
QJ4PAAARBAAA+wIAAOMAAAAcAQAAAAAAAAAA8D9kDAID+AAAAAAAAAABAAAAAAAAAAAA
SJ8e6qZAWwEDCvzp00EA1k1jobKNHUBELlaIdiJHQNau3gZxzY9AAAAAAAAAFEAAAAAA
AAAiQIwTAACMBAAASAMAAOsAAAANAQAAAAAAAAAA8D9kDAID9gAAAAAAAAABAAAAAAAA
AAAAjO4g9KZA7pxOC/zp00EAM8cmDYuNHUColF4AdiJHQKOC/7KJ049AAAAAAAAAFEAA
AAAAAAAiQIITAACXBAAAUQMAAOwAAAAMAQAAAAAAAAAA8D9kDAID9QAAAAAAAAAAAAAA
AAAAAAAA8L8d/qZAza6GDPzp00EArQJR4mSNHUCcKqP/dSJHQL6C+ogM2I9AAAAAAAAA
FEAAAAAAAAAiQKEPAABgBAAAPAMAAPAAAAANAQAAAAAAAAAA8D9kDAID9wAAAAAAAAAA
AAAAAAAAAAAAhCsgBqdAzvalDfzp00EAXiFwdECNHUBybyMIdiJHQPgg79qv249AAAAA
AAAAFEAAAAAAAAAiQJ0PAAAtBAAAEgMAAPMAAAALAQAAAAAAAAAA8D9kDAID+AAAAAAA
AAAAAAAAAAAAAAAA8u0dDqdAXXPgDvzp00EApAfEFRiNHUAcKdGfdSJHQAZJTPtD4o9A
AAAAAAAAFEAAAAAAAAAiQIUTAACpBAAAYAMAAPMAAAAIAQAAAAAAAAAA8D9kDAID9wAA
AAAAAAAAAAAAAAAAAAAAimscGKdADUTmD/zp00EACp7lCfaMHUAj1BxNdSJHQBTiqWHT
7I9AAAAAAAAAFEAAAAAAAAAiQKQPAADtAwAA3QIAAPQAAAAIAQAAAAAAAAAA8D9kDAID
9wAAAAAAAAAAAAAAAAAAAAAA4uQeIKdAkvsREfzp00EAwDznZ86MHUBFrXf/dCJHQNA5
LpFW9o9AAAAAAAAAFEAAAAAAAAAiQIMTAACPBAAASwMAAPEAAAAIAQAAAAAAAAAA8D9k
DAID9wAAAAAAAAAAAAAAAAAAAAAATgUcKqdAYntIEvzp00EAwrNp4qSMHUD0je7OdCJH
QGgcSs/d+o9AAAAAAAAAFEAAAAAAAAAiQIcTAADEBAAAdgMAAPAAAAAKAQAAAAAAAAAA
8D9kDAID9wAAAAAAAAAAAAAAAAAAAAAAkhsdNKdApyt2E/zp00EArd9mpXyMHUC1c65p
dCJHQFN0dgD8+49AAAAAAAAAFEAAAAAAAAAiQIwTAACkBAAAXAMAAPEAAAAIAQAAAAAA
AAAA8D9kDAID9wAAAAAAAAAAAAAAAAAAAAAANvwePqdAApmdFPzp00EAkks6XFWMHUDK
7+MQdCJHQKRni0qg/I9AAAAAAAAAFEAAAAAAAAAiQIcTAACHBAAARAMAAO4AAAAIAQAA
AAAAAAAA8D9kDAID9gAAAAAAAAAAAAAAAAAAAAAAbrodSKdAVKe2Ffzp00EAsVmdqDCM
HUCDNaF9cyJHQM5rI2pu/49AAAAAAAAAFEAAAAAAAAAiQIcTAABGBAAABQMAAOcAAAAD
AQAAAAAAAAAA8D9kDAID9QAAAAAAAAAAAAAAAAAAAAAAfK4eUqdAGLjLFvzp00EApbw+
pA2MHUCDM9yIciJHQKdisozWApBAAAAAAAAAFEAAAAAAAAAiQIgTAAA2BAAA8AIAAN4A
AAD9AAAAAAAAAAAA8D9kDAID8gAAAAAAAAAAAAAAAAAAAAAAsDMdXKdARUfZF/zp00EA
UBFtL+2LHUBZNdVBcSJHQBAU8Pb3BpBAAAAAAAAAFEAAAAAAAAAiQIkTAAAWBAAAyQIA
ANgAAAD2AAAAAAAAAAAA8D9kDAID7gAAAAAAAAAAAAAAAAAAAAAAljweZqdA/73iGPzp
00EA3Je9C8+LHUDtsLPDbyJHQMoA7mu3CpBAAAAAAAAAFEAAAAAAAAAiQH8TAAD7AwAA
qAIAANQAAADzAAAAAAAAAAAA8D9kDAID7AAAAAAAAAAAAAAAAAAAAAAAVP4lcKdAdPv0
Gfzp00EAg36XZ7GLHUDrpqwhbiJHQGY9HrOADZBAAAAAAAAAFEAAAAAAAAAiQI0TAAAH
BAAAtQIAANIAAADvAAAAAAAAAAAA8D9kDAID6gAAAAAAAAAAAAAAAAAAAAAAVPgbeqdA
VrcVG/zp00EAAZPTEJSLHUBD721YbCJHQFRr0K6kD5BAAAAAAAAAFEAAAAAAAAAiQIoT
AAAdBAAA0QIAANIAAADrAAAAAAAAAAAA8D9kDAID5AAAAAAAAAAAAAAAAAAAAAAAUPUb
hKdAacE8HPzp00EAXqylV3eLHUDGpCWIaiJHQJh5NrzIEZBAAAAAAAAAFEAAAAAAAAAi
QIQTAAAUBAAAxgIAANMAAADpAAAAAAAAAAAA8D9kDAID4AAAAAAAAAAAAAAAAAAAAAAA
TKkbjqdAMbBlHfzp00EAQJT/GVqLHUALM93caCJHQDGo92MxFJBAAAAAAAAAFEAAAAAA
AAAiQIkTAAAEBAAAsgIAANMAAADsAAAAAAAAAAAA8D9kDAID3QAAAAAAAAAAAAAAAAAA
AAAAci4dmKdAl8iZHvzp00EA2+UOFzuLHUB0ylxOZyJHQITNPS2hFpBAAAAAAAAAFEAA
AAAAAAAiQIkTAAAcBAAA0AIAANMAAADvAAAAAAAAAAAA8D9kDAID2QAAAAAAAAAAAAAA
AAAAAAAAzF4eoqdAoUjIH/zp00EA6nunbRyLHUBC6HjXZSJHQKWUaKUzGZBAAAAAAAAA
FEAAAAAAAAAiQIUTAAAEBAAAsgIAANIAAADvAAAAAAAAAAAA8D9kDAID1gAAAAAAAAAA
AAAAAAAAAAAAVEwdrKdA+2f8IPzp00EADezb5PqKHUDK5oXFZCJHQBu1NrVWHJBAAAAA
AAAAFEAAAAAAAAAiQIgTAAAZBAAAzAIAAM0AAAD6AAAAAAAAAAAA8D9kDAID1QAAAAAA
AAAAAAAAAAAAAAAAEmwctqdAk0IqIvzp00EA1I9lUtiKHUAW6itAZCJHQG95CunLH5BA
AAAAAAAAFEAAAAAAAAAiQIcTAAAGBAAAtAIAAMkAAAD+AAAAAAAAAAAA8D9kDAID0wAA
AAAAAAAAAAAAAAAAAAAAiPQbwKdArix2I/zp00EAHZOWt7GKHUCpfdUgZCJHQAR1kbUP
I5BAAAAAAAAAFEAAAAAAAAAiQIkTAABtBAAALwMAAMoAAAACAQAAAAAAAAAA8D9kDAID
0wAAAAAAAAAAAAAAAAAAAAAAxkgeyqdAv8WzJPzp00EAcWbT34yKHUBLHtn5YyJHQGiE
1UwjJpBAAAAAAAAAFEAAAAAAAAAiQIgTAAA6BAAA9QIAAMwAAAAGAQAAAAAAAAAA8D9k
DAID0gAAAAAAAAAAAAAAAAAAAAAAXvQd1KdA9HcEJvzp00EALbM6SGaKHUBScLETZCJH
QModUddDKpBAAAAAAAAAJEAAAAAAAAAiQHAXAABtBAAAvQIAAMMAAAARAQAAMzMzMzMz
7z9kDAID0AAAAAAAAAAAAAAAAAAAAAAAvoUd4KdAHnJTJ/zp00EAS4QytkCKHUDZOeYx
ZCJHQCKuZ0l+MJBAAAAAAAAAFEAAAAAAAAAiQIUTAABPBAAAEAMAAL0AAAAXAQAAMzMz
MzMz7z9kDAID0gAAAAAAAAAAAAAAAAAAAAAAcocd6qdA1R7EKPzp00EA6u+XzBeKHUAp
ZM9wZCJHQOCeV3zXN5BAAAAAAAAAFEAAAAAAAAAiQIMTAACzBAAAaQMAAMAAAAAQAQAA
AAAAAAAA8D9kDAID1QAAAAAAAAAAAAAAAAAAAAAA/kc29KdA46EZKvzp00EA0+jqB/KJ
HUDz64H7YyJHQLo0byKfP5BAAAAAAAAAFEAAAAAAAAAiQIkTAABfBAAAIwMAAMkAAAAO
AQAAAAAAAAAA8D9kDAID1gAAAAAAAAAAAAAAAAAAAAAAlowb/qdAklaQK/zp00EALd8D
iMmJHUCUBztkYyJHQLcvskFDR5BAAAAAAAAAFEAAAAAAAAAiQI0TAAC1BAAAagMAANgA
AAAMAQAAAAAAAAAA8D9kDAID2AAAAAAAAAAAAAAAAAAAAAAAmgEeCKhADTQRLfzp00EA
dOPkiaGJHUBOhcvCYiJHQHQyZavFTJBAAAAAAAAAFEAAAAAAAAAiQIYTAACpBAAAYAMA
AOUAAAAHAQAAAAAAAAAA8D9kDAID2wAAAAAAAAAAAAAAAAAAAAAAzHscEqhAfAtqLvzp
00EAxz3IvH2JHUB16jcXYiJHQLIPcPmST5BAAAAAAAAAFEAAAAAAAAAiQKAPAAAzBAAA
FwMAAO4AAAABAQAAAAAAAAAA8D9kDAID3wAAAAAAAAAAAAAAAAAAAAAAZHgcGqhAuyCq
L/zp00EAhbsq4luJHUAUk9kqYSJHQCugOlzaUJBAAAAAAAAAFEAAAAAAAAAiQJ8PAAAS
BAAA+wIAAPMAAAD/AAAAAAAAAAAA8D9kDAID4wAAAAAAAAAAAAAAAAAAAAAAvrgcIqhA
+JvVMPzp00EAXUBTxDyJHUDiVOW8XyJHQB4Op8Q8UZBAAAAAAAAAFEAAAAAAAAAiQKQP
AAAKBAAA9QIAAPcAAAD4AAAAAAAAAAAA8D9kDAID5wAAAAAAAAAAAAAAAAAAAAAAboIf
KqhA8WMLMvzp00EAxKHDShyJHUBPKFTwXSJHQMgq6HwpUZBAAAAAAAAAFEAAAAAAAAAi
QIcTAABsBAAALQMAAPAAAADwAAAAAAAAAAAA8D9kDAID6AAAAAAAAAAAAAAAAAAAAAAA
YFgeNKhAURk/M/zp00EAvU99MPuIHUBZGPD4WyJHQGYxHR8RUZBAAAAAAAAAFEAAAAAA
AAAiQIYTAACbBAAAVAMAAOoAAADuAAAAAAAAAAAA8D9kDAID6gAAAAAAAAAAAAAAAAAA
AAAAWOEePqhA6CFyNPzp00EAkKz4QdmIHUDI0Aj0WSJHQDKhfK9jUZBAAAAAAAAAFEAA
AAAAAAAiQIUTAAC5BAAAbQMAAOQAAADtAAAAAAAAAAAA8D9kDAID7AAAAAAAAAAAAAAA
AAAAAAAABFMdSKhAQwKJNfzp00EA09z08rqIHUD/x/0LWCJHQPzYEKOKUpBAAAAAAAAA
FEAAAAAAAAAiQIUTAABMBAAADAMAANsAAADqAAAAMzMzMzMz7z9kDAID7AAAAAAAAAAA
AAAAAAAAAAAAEmwcUqhAFACbNvzp00EA0aMJw5yIHUAQa+pTViJHQMTSdHOyVJBAAAAA
AAAAFEAAAAAAAAAiQJQTAAAlBAAA2QIAANQAAADsAAAAMzMzMzMz7z9kDAID7gAAAAAA
AAAAAAAAAAAAAAAAlGAhXKhAnDO0N/zp00EAR7LOon6IHUCzbXmUVCJHQGxhGEZFV5BA
AAAAAAAAFEAAAAAAAAAiQIcTAAApBAAA4AIAANAAAADsAAAAAAAAAAAA8D9kDAID7QAA
AAAAAAAAAAAAAAAAAAAAahEhZqhAnQ7KOPzp00EAqTz9c2KIHUDtC/3IUiJHQKNEOfa6
WZBAAAAAAAAAFEAAAAAAAAAiQIgTAAADBAAAsQIAAM0AAADsAAAAAAAAAAAA8D9kDAID
6gAAAAAAAAAAAAAAAAAAAAAA8pghcKhAYszkOfzp00EA8f1QkkWIHUAewRwjUSJHQCEf
kDOuXJBAAAAAAAAAFEAAAAAAAAAiQIUTAAD3AwAAogIAAMsAAADrAAAAAAAAAAAA8D9k
DAID6QAAAAAAAAAAAAAAAAAAAAAANt8geqhAHYodO/zp00EAzK1jGyaIHUB510Z0TyJH
QGWZVyWfYJBAAAAAAAAAFEAAAAAAAAAiQIwTAAA+BAAA+QIAAMkAAADsAAAAAAAAAAAA
8D9kDAID5wAAAAAAAAAAAAAAAAAAAAAAbosihKhAOWtdPPzp00EA3zpVhQaIHUBJVkrM
TSJHQJze58kEZZBAAAAAAAAAFEAAAAAAAAAiQIcTAAA8BAAA+AIAAMoAAADtAAAAAAAA
AAAA8D9kDAID5QAAAAAAAAAAAAAAAAAAAAAA+MQijqhA+V2QPfzp00EAlt6UgOmHHUAT
9k8fTCJHQNGMzh6waZBAAAAAAAAAFEAAAAAAAAAiQIQTAAAABAAArQIAAM0AAADtAAAA
AAAAAAAA8D9kDAID4AAAAAAAAAAAAAAAAAAAAAAACgwhmKhAfuDKPvzp00EAjPVdaMuH
HUD4NL+ESiJHQJZMuc4pbpBAAAAAAAAAFEAAAAAAAAAiQH8TAAANBAAAvgIAAM8AAADw
AAAAAAAAAAAA8D9kDAID3AAAAAAAAAAAAAAAAAAAAAAAFoUdoqhAuCX+P/zp00EAsPrE
Aq2HHUCFQG8pSSJHQMTAM5WTcZBAAAAAAAAAFEAAAAAAAAAiQI0TAADsAwAAkwIAAMsA
AADzAAAAAAAAAAAA8D9kDAID1wAAAAAAAAAAAAAAAAAAAAAACBkgrKhAVixJQfzp00EA
O5vRsIqHHUC+c6UCSCJHQIHkEoTIdJBAAAAAAAAAFEAAAAAAAAAiQIETAAA4BAAA9AIA
AMkAAAD3AAAAAAAAAAAA8D9kDAID1wAAAAAAAAAAAAAAAAAAAAAAyqYctqhAQy+lQvzp
00EAPhPFymOHHUA0HuGmRyJHQK1PZCgheZBAAAAAAAAAFEAAAAAAAAAiQIsTAAB8BAAA
OgMAAMkAAAAGAQAAAAAAAAAA8D9kDAID1AAAAAAAAAAAAAAAAAAAAAAAlNMewKhAEM3z
Q/zp00EAIFqAAz6HHUDNWI37RyJHQOA7ERohfpBAAAAAAAAAJEAAAAAAAAAiQIUTAABa
BAAAHgMAAM0AAAAPAQAAZmZmZmZm7j9kDAID1QAAAAAAAAAAAAAAAAAAAAAAUg0byqhA
LE42Rfzp00EAM5xTuBmHHUB1RYoaSCJHQN4y+OZ2gpBAAAAAAAAAJEAAAAAAAAAiQIcT
AAAqBAAA4QIAAM4AAAAQAQAAMzMzMzMz7z9kDAID1QAAAAAAAAAAAAAAAAAAAAAAft4c
1KhAk0iIRvzp00EACK7pF/aGHUBE2E8RRyJHQGB5YlxMhZBAAAAAAAAAFEAAAAAAAAAi
QIITAABPBAAAEAMAAM0AAAAKAQAAAAAAAAAA8D9kDAID1QAAAAAAAAAAAAAAAAAAAAAA
7sws3qhAKI28R/zp00EA12PcQ9SGHUCr8IeaRiJHQDKcmeSvhpBAAAAAAAAAFEAAAAAA
AAAiQJATAADtAwAAlAIAAMkAAAAKAQAAAAAAAAAA8D9kDAID1AAAAAAAAAAAAAAAAAAA
AAAAnG8c6KhATEQUSfzp00EA2auH2K2GHUDtWD1DRiJHQBKKsLPIh5BAAAAAAAAAFEAA
AAAAAAAiQHEXAABtBAAAvgIAAMIAAAAMAQAAMzMzMzMz7z9kDAID1AAAAAAAAAAAAAAA
AAAAAAAAaAgf9KhAVmhTSvzp00EAp9Q1tYmGHUA0aZEmRiJHQJYZ0XEUipBAAAAAAAAA
FEAAAAAAAAAiQIETAAAlBAAA3AIAAL0AAAAMAQAAAAAAAAAA8D9kDAID0wAAAAAAAAAA
AAAAAAAAAAAA7N4a/qhAR9KoS/zp00EAVL16OWOGHUAas7U8RiJHQH5b1OXNjZBAAAAA
AAAAJEAAAAAAAAAiQIcTAABqBAAAKwMAAMAAAAARAQAAMzMzMzMz7z9kDAID1AAAAAAA
AAAAAAAAAAAAAAAAGqgcCKlAojX9TPzp00EA8NVwoT2GHUCqRG0NRiJHQO0kLXRMkpBA
AAAAAAAAJEAAAAAAAAAiQHQXAABRBAAAmgIAALwAAAARAQAAzczMzMzM7D9kDAID0gAA
AAAAAAAAAAAAAAAAAAAAAj4fFKlADzZLTvzp00EAg2KirRmGHUBu/q7URSJHQKdYAiQo
mJBAAAAAAAAAFEAAAAAAAAAiQIQTAAAiBAAA1wIAAL4AAAAQAQAAMzMzMzMz7z9kDAID
0wAAAAAAAAAAAAAAAAAAAAAAkJ8dHqlAh2aST/zp00EAv07COfeFHUDbgXb4RSJHQH6Q
6YEGn5BAAAAAAAAAFEAAAAAAAAAiQIgTAAD0AwAAnQIAALwAAAASAQAAAAAAAAAA8D9k
DAID0wAAAAAAAAAAAAAAAAAAAAAAkjYdKKlAn+v7UPzp00EAxtVBmdGFHUA8ttxiRiJH
QGoDeBxmpJBAAAAAAAAAFEAAAAAAAAAiQIsTAABZBAAAHAMAALwAAAAWAQAAAAAAAAAA
8D9kDAID0wAAAAAAAAAAAAAAAAAAAAAA8DYfMqlA9u56Uvzp00EAUXRK56mFHUB9JX/V
RiJHQLKU8QKep5BAAAAAAAAAFEAAAAAAAAAiQIMTAACXBAAAUQMAAMEAAAAXAQAAMzMz
MzMz7z9kDAID1AAAAAAAAAAAAAAAAAAAAAAAYoAcPKlAsoPaU/zp00EAWMGIj4WFHUCz
VlI5RyJHQDKfkYg7qpBAAAAAAAAAFEAAAAAAAAAiQIwTAAAzBAAA6wIAAMcAAAAcAQAA
AAAAAAAA8D9kDAID0wAAAAAAAAAAAAAAAAAAAAAALOseRqlARwpGVfzp00EAL+2PLWqF
HUCu8Dh4SSJHQECY6Ri+rJBAAAAAAAAAFEAAAAAAAAAiQGsXAABUBAAAngIAAMUAAAA/
AQAAAAAAAAAA8D9kDAID0QAAAAAAAAAAAAAAAAAAAAAAdFwdUqlAoJutVvzp00EAVzW+
93OFHUBQwLibTCJHQILzj8Uur5BAAAAAAAAAFEAAAAAAAAAiQHEXAABQBAAAmQIAAL8A
AAASAAAAAAAAAAAA8D9kDAIDzgAAAAAAAAAAAAAAAAAAAAAAMPUbXqlAROTtV/zp00EA
6ZWShY+FHUCGQwlkTiJHQFD+ayKosZBAAAAAAAAAFEAAAAAAAAAiQKIPAADyAwAA4QIA
ANEAAAAuAAAAAAAAAAAA8D9kDAID0gAAAAAAAAABAAAAAAAAAAAAAvUeZqlA/XQqWfzp
00EAzl8guK6FHUDNsx+qTyJHQPC3MGYOtJBAAAAAAAAAFEAAAAAAAAAiQJ8PAAD0AwAA
4wIAAOEAAAA9AAAAAAAAAAAA8D9kDAID1wAAAAAAAAABAAAAAAAAAAAAlEwebqlAs5aq
Wvzp00EAbsDxENaFHUAnCa3FUCJHQG91hSLTtpBAAAAAAAAAFEAAAAAAAAAiQIsTAAC+
BAAAcQMAAO0AAABFAAAAAAAAAAAA8D9kDAID2gAAAAAAAAAAAAAAAAAAAAAA0sUeeKlA
MaIIXPzp00EAexhzBvuFHUDv9LiZUSJHQKrpFJhYupBAAAAAAAAAFEAAAAAAAAAiQIsT
AABgBAAAJAMAAO0AAABJAAAAAAAAAAAA8D9kDAID2gAAAAAAAAAAAAAAAAAAAAAA7Lgh
gqlAjytUXfzp00EASUSMVyGGHUAfyXx5UiJHQATtOV6evZBAAAAAAAAAFEAAAAAAAAAi
QIITAACLBAAARwMAAO4AAABIAAAAAAAAAAAA8D9kDAID3gAAAAAAAAAAAAAAAAAAAAAA
tI0fjKlAseaRXvzp00EA01rTnkiGHUB/rapbUyJHQN4dYTfIv5BAAAAAAAAAFEAAAAAA
AAAiQIMTAACnBAAAXgMAAO8AAABJAAAAAAAAAAAA8D9kDAID3wAAAAAAAAAAAAAAAAAA
AAAAkNEZlqlAS3XOX/zp00EAM9ALMnCGHUAE9XRmVCJHQNKq0LtEwpBAAAAAAAAAFEAA
AAAAAAAiQIsTAAC+BAAAcQMAAO4AAABIAAAAAAAAAAAA8D9kDAID4wAAAAAAAAAAAAAA
AAAAAAAACKggoKlAu0oRYfzp00EAg1x0apiGHUCxwLWIVSJHQI3+6Zhlx5BAAAAAAAAA
FEAAAAAAAAAiQIMTAADZBAAAiAMAAPEAAABIAAAAAAAAAAAA8D9kDAID5QAAAAAAAAAA
AAAAAAAAAAAAarkbqqlAcApIYvzp00EA3qCbv7+GHUAeIzJ9ViJHQB8EsVO+zpBAAAAA
AAAAFEAAAAAAAAAiQIoTAACvBAAAZQMAAPIAAABIAAAAAAAAAAAA8D9kDAID5gAAAAAA
AAAAAAAAAAAAAAAAmh8ftKlAxvCNY/zp00EAJhzv2eiGHUBS/6yKVyJHQFyS4Ic+1ZBA
AAAAAAAAFEAAAAAAAAAiQIoTAADqBAAAlgMAAPMAAABIAAAAAAAAAAAA8D9kDAID6AAA
AAAAAAAAAAAAAAAAAAAAFk0fvqlAbEXGZPzp00EAwXCbLw+HHUAzKSHcWCJHQG1yuUPG
2JBAAAAAAAAAFEAAAAAAAAAiQIkTAAC7BAAAbgMAAPMAAABEAAAAAAAAAAAA8D9kDAID
6gAAAAAAAAAAAAAAAAAAAAAA5kAfyKlA7ivkZfzp00EAtfcowDKHHUBeuDkJWiJHQDkD
BdDj2pBAAAAAAAAAFEAAAAAAAAAiQIYTAABdBAAAIQMAAPEAAABCAAAAAAAAAAAA8D9k
DAID7QAAAAAAAAAAAAAAAAAAAAAAjJce0qlAM979Zvzp00EAi/mc+FKHHUD634q4WyJH
QAi2sSDW3ZBAAAAAAAAAFEAAAAAAAAAiQJ0PAABRBAAAMAMAAPIAAAA+AAAAAAAAAAAA
8D9kDAID9AAAAAAAAAAAAAAAAAAAAAAA6E0d2qlAnmUraPzp00EANV5Ts3OHHUAruZzD
XSJHQL7guJB24ZBAAAAAAAAAFEAAAAAAAAAiQIgTAAChBAAAWQMAAPEAAAA4AAAAAAAA
AAAA8D9kDAID8wAAAAAAAAAAAAAAAAAAAAAAFiwd5KlAaQY1afzp00EAbdxH64+HHUDw
oC6fXyJHQOiKBbkm5ZBAAAAAAAAAFEAAAAAAAAAiQKEPAAARBAAA+wIAAPAAAAA0AAAA
AAAAAAAA8D9kDAID8wAAAAAAAAAAAAAAAAAAAAAA6IMd7KlAZIFAavzp00EAEVS6gaqH
HUAyjDasYSJHQBw54oeA6JBAAAAAAAAAFEAAAAAAAAAiQKEPAAAWBAAA/wIAAO8AAAAw
AAAAAAAAAAAA8D9kDAID9QAAAAAAAAAAAAAAAAAAAAAACHQe9KlAcslua/zp00EAOfwg
/cWHHUD3N3o2ZCJHQL5OUx+r6pBAAAAAAAAAFEAAAAAAAAAiQIQTAACdBAAAVgMAAOwA
AAAsAAAAAAAAAAAA8D9kDAID9gAAAAAAAAAAAAAAAAAAAAAAXmIc/qlA2KV8bPzp00EA
dlhwtNuHHUBdlNStZiJHQIppFNIL7JBAAAAAAAAAFEAAAAAAAAAiQIwTAAAcBAAAzwIA
AN8AAAAoAAAAAAAAAAAA8D9kDAID9AAAAAAAAAAAAAAAAAAAAAAAnPcfCKpA1aCJbfzp
00EAaLx9rvCHHUB79pcpaSJHQBmPjpKM7ZBAAAAAAAAAFEAAAAAAAAAiQIUTAAAUBAAA
xgIAANUAAAAkAAAAAAAAAAAA8D9kDAID8gAAAAAAAAAAAAAAAAAAAAAAPLUqEqpAIRan
bvzp00EAXldo1AWIHUD6T0jWayJHQBtGutoQ75BAAAAAAAAAFEAAAAAAAAAiQG4XAABM
BAAAlAIAAMoAAAAiAAAAAAAAAAAA8D9kDAID7QAAAAAAAAAAAAAAAAAAAAAAprYcHqpA
TazGb/zp00EAdCdEcB2IHUDVLilMbiJHQPkZKh0J8JBAAAAAAAAAJEAAAAAAAAAiQG4X
AAA9BAAAggIAAMEAAAAhAAAAMzMzMzMz7z9kDAID6AAAAAAAAAAAAAAAAAAAAAAAECMc
KqpABqjlcPzp00EA3qMZZTSIHUCjp1ekcCJHQLLwlk+58JBAAAAAAAAAFEAAAAAAAAAi
QHEXAAATBAAATAIAALsAAAAhAAAAMzMzMzMz7z9kDAID4wAAAAAAAAAAAAAAAAAAAAAA
hJ4dNqpAMCwWcvzp00EA8ghkm0qIHUCDDSgXcyJHQNfcJKQB9JBAAAAAAAAAFEAAAAAA
AAAiQKEPAAAgBAAABwMAALoAAAAkAAAAAAAAAAAA8D9kDAID5AAAAAAAAAAAAAAAAAAA
AAAAZLEdPqpAJOlXc/zp00EAMv9mtGGIHUASqkWKdSJHQHmwvv98/JBAAAAAAAAAFEAA
AAAAAAAiQKIPAAAxBAAAFQMAAMAAAAAjAAAAAAAAAAAA8D9kDAID5gAAAAAAAAAAAAAA
AAAAAAAA+kQeRqpA7/fMdPzp00EAyC4pJXuIHUDVKD5DeCJHQP95m/X5BpFAAAAAAAAA
FEAAAAAAAAAiQGoXAACkBAAAAwMAAMAAAAAnAAAAAAAAAAAA8D9kDAID5AAAAAAAAAAA
AAAAAAAAAAAAwkwbUqpAmdoWdvzp00EA2IexFomIHUCeBOr+eiJHQC2RKb5WDpFAAAAA
AAAAFEAAAAAAAAAiQIkTAAD2AwAAoAIAAL4AAAAjAAAAAAAAAAAA8D9kDAID3gAAAAAA
AAAAAAAAAAAAAAAAcEMcXKpA1a5pd/zp00EAl9jeEZuIHUDusR6WfSJHQATocqH0EZFA
AAAAAAAAFEAAAAAAAAAiQIgTAAACBAAArwIAALwAAAAiAAAAAAAAAAAA8D9kDAID2AAA
AAAAAAAAAAAAAAAAAAAACuseZqpANgH6ePzp00EAcmAuRrSIHUBqe1h+gCJHQHiD6Ol5
E5FAAAAAAAAAFEAAAAAAAAAiQG4XAADSBAAAPAMAAL8AAAAhAAAAAAAAAAAA8D9kDAID
1AAAAAAAAAAAAAAAAAAAAAAAwqMdcqpAjWNoevzp00EAZU74Lc2IHUBN/o0NgyJHQAGF
kwveE5FAAAAAAAAAFEAAAAAAAAAiQIsTAABvBAAAMAMAAMMAAAAjAAAAAAAAAAAA8D9k
DAID0wAAAAAAAAAAAAAAAAAAAAAAevQefKpAGR/ee/zp00EA/1PBs+eIHUDLcw6JhSJH
QAByNYTtE5FAAAAAAAAAFEAAAAAAAAAiQG8XAAB7BAAA0AIAAL4AAAAkAAAAAAAAAAAA
8D9kDAID0QAAAAAAAAAAAAAAAAAAAAAAMhkeiKpAaVVLffzp00EAGKZMcf6IHUCqeTYu
iCJHQJcjzgLJFJFAAAAAAAAAFEAAAAAAAAAiQIwTAABfBAAAIwMAAMAAAAAlAAAAAAAA
AAAA8D9kDAID0gAAAAAAAAAAAAAAAAAAAAAAOAogkqpA4kyffvzp00EAVR44hxOJHUBe
dJWziiJHQBzXG0bQFpFAAAAAAAAAFEAAAAAAAAAiQIwTAAAgBAAA1AIAAMQAAAAlAAAA
AAAAAAAA8D9kDAID1QAAAAAAAAAAAAAAAAAAAAAAUq8jnKpAqJL5f/zp00EAo/U3GymJ
HUCRGXJGjSJHQL6WVEr8GJFAAAAAAAAAFEAAAAAAAAAiQH4TAAA3BAAA8wIAAMYAAAAl
AAAAAAAAAAAA8D9kDAID2AAAAAAAAAAAAAAAAAAAAAAAPE0epqpAdetIgfzp00EA8K1Z
ekGJHUB1GK5+jyJHQKgT/pONGpFAAAAAAAAAFEAAAAAAAAAiQIoTAAAPBAAAvwIAAMQA
AAAoAAAAAAAAAAAA8D9kDAID2gAAAAAAAAAAAAAAAAAAAAAAbEEfsKpArYbAgvzp00EA
jNgeblyJHUBIM8EMkiJHQGDEm/GmG5FAAAAAAAAAFEAAAAAAAAAiQHIXAACWBAAA8QIA
AMIAAAAoAAAAAAAAAAAA8D9kDAID1QAAAAAAAAAAAAAAAAAAAAAAZK8fvKpAnLgJhPzp
00EAHn6pXnSJHUAQhV1WlCJHQFjCgzhTHZFAAAAAAAAAFEAAAAAAAAAiQIYTAAAXBAAA
ygIAAMQAAAAoAAAAAAAAAAAA8D9kDAID0AAAAAAAAAAAAAAAAAAAAAAABKofxqpASehc
hfzp00EAWdfMyoyJHUCRX/S4liJHQCJpl0UlIZFAAAAAAAAAFEAAAAAAAAAiQIETAAA5
BAAA9QIAAMkAAAAnAAAAAAAAAAAA8D9kDAID0QAAAAAAAAAAAAAAAAAAAAAASn050KpA
1wu0hvzp00EAS9CkzqaJHUBZlFn8mCJHQAciTeSSJpFAAAAAAAAAFEAAAAAAAAAiQIsT
AAA7BAAA9gIAAM4AAAArAAAAAAAAAAAA8D9kDAID0wAAAAAAAAAAAAAAAAAAAAAAfuEd
2qpA0bwDiPzp00EAMvncsL6JHUCtWzdTmyJHQAQvjZA9K5FAAAAAAAAAFEAAAAAAAAAi
QIsTAAAjBAAA2AIAANEAAAArAAAAAAAAAAAA8D9kDAID0wAAAAAAAAAAAAAAAAAAAAAA
vk0f5KpAVslPifzp00EAXqmvEtiJHUATC6CQnSJHQD3jWJuTLpFAAAAAAAAAFEAAAAAA
AAAiQIYTAAAoBAAA3wIAANEAAAAsAAAAAAAAAAAA8D9kDAID1AAAAAAAAAAAAAAAAAAA
AAAAkpIe7qpAbuyXivzp00EAnuhtxvKJHUAZb+K+nyJHQNbuxR42MZFAAAAAAAAAFEAA
AAAAAAAiQIUTAAA2BAAA8QIAANIAAAAuAAAAAAAAAAAA8D9kDAID0wAAAAAAAAAAAAAA
AAAAAAAA1GEd+KpAHpjSi/zp00EAciw8RQuKHUAA0hkFoiJHQJBtWbhuM5FAAAAAAAAA
FEAAAAAAAAAiQIgTAAAfBAAA0wIAANIAAAArAAAAAAAAAAAA8D9kDAID1AAAAAAAAAAA
AAAAAAAAAAAAdm8dAqtAHGETjfzp00EAb31sexuKHUDOWiTjpCJHQOwymaeTNZFAAAAA
AAAAFEAAAAAAAAAiQHYXAAA8BAAAfwIAAMwAAAAVAAAAAAAAAAAA8D9kDAID0QAAAAAA
AAAAAAAAAAAAAAAAprcfDqtAm0+Djvzp00EAL9qBNhCKHUB+B3ZtqCJHQGBK7ffrN5FA
AAAAAAAAFEAAAAAAAAAiQIITAADfBAAAjQMAAMwAAABeAQAAAAAAAAAA8D9kDAID1AAA
AAAAAAAAAAAAAAAAAAAAVikdGKtA6TPYj/zp00EAu5eBw/eJHUCJsQkZqyJHQKya3T2U
OpFAAAAAAAAAFEAAAAAAAAAiQKAPAACEBAAAWgMAAM4AAAA+AQAAAAAAAAAA8D9kDAID
2gAAAAAAAAABAAAAAAAAAAAApDUeIKtAB78Rkfzp00EA+B3JAtSJHUBAaXZDqyJHQLz4
WMoHP5FAAAAAAAAAFEAAAAAAAAAiQKQPAAAaBAAAAgMAANUAAAAYAQAAAAAAAAAA8D9k
DAID3wAAAAAAAAABAAAAAAAAAAAAqDYgKKtA3UpEkvzp00EAM6XXfLGJHUD8wFtOqyJH
QHCtX1V4RZFAAAAAAAAAFEAAAAAAAAAiQJoPAAD1AwAA5AIAAOwAAAATAQAAAAAAAAAA
8D9kDAID4QAAAAAAAAAAAAAAAAAAAAAAksUdMKtAhJO0k/zp00EAzBLY2YeJHUCmLdoE
qyJHQOXeLHsiS5FAAAAAAAAAFEAAAAAAAAAiQIkTAADKBAAAewMAAOsAAAAPAQAAAAAA
AAAA8D9kDAID5QAAAAAAAAAAAAAAAAAAAAAA7rQdOqtAYjkYlfzp00EA4yo/rl2JHUAh
5CJ3qyJHQEhPwIP/TZFAAAAAAAAAFEAAAAAAAAAiQIcTAADfBAAAjAMAAOwAAAATAQAA
AAAAAAAA8D9kDAID6AAAAAAAAAAAAAAAAAAAAAAAUrUdRKtAYAcrlvzp00EAJZayrTuJ
HUAgGiY9rCJHQMjZH42JTpFAAAAAAAAAFEAAAAAAAAAiQKAPAAAIBAAA8wIAAOwAAAAY
AQAAAAAAAAAA8D9kDAID6wAAAAAAAAAAAAAAAAAAAAAAtqIdTKtAvPZKl/zp00EAv3k6
IhmJHUCvkOR4rSJHQGkFT6YJTpFAAAAAAAAAFEAAAAAAAAAiQIMTAABJBAAACAMAAOcA
AAAiAQAAAAAAAAAA8D9kDAID6wAAAAAAAAAAAAAAAAAAAAAApmIbVqtAQP2CmPzp00EA
EHGlAvWIHUDgKm4QryJHQI76cRXPTZFAAAAAAAAAFEAAAAAAAAAiQIoTAACmBAAAXQMA
AOYAAAAnAQAAAAAAAAAA8D9kDAID7QAAAAAAAAAAAAAAAAAAAAAATs0dYKtAfzTHmfzp
00EAEfQYIdGIHUB4T8btsCJHQBh+a4dJTpFAAAAAAAAAFEAAAAAAAAAiQIcTAADNBAAA
fQMAAOUAAAAtAQAAAAAAAAAA8D9kDAID8AAAAAAAAAAAAAAAAAAAAAAA1oQcaqtA/F8K
m/zp00EAf1gsQbCIHUDz1goUsyJHQBBJhzopT5FAAAAAAAAAFEAAAAAAAAAiQIcTAAC6
BAAAbgMAAOUAAAAxAQAAAAAAAAAA8D9kDAID8gAAAAAAAAAAAAAAAAAAAAAAijgddKtA
H9dBnPzp00EA7sagDI6IHUCYDBDItCJHQI1RBZpFUJFAAAAAAAAAFEAAAAAAAAAiQHUX
AACGBAAA3QIAAOEAAAAxAQAAAAAAAAAA8D9kDAID8QAAAAAAAAAAAAAAAAAAAAAAcv4e
gKtA1gJWnfzp00EAALoQFXGIHUDjmRB2tiJHQJp2NEFGUpFAAAAAAAAAFEAAAAAAAAAi
QIYTAAAABAAArAIAANIAAAArAQAAAAAAAAAA8D9kDAID8gAAAAAAAAAAAAAAAAAAAAAA
uMMeiqtAoQOQnvzp00EA+cXgoU+IHUDay7dEuCJHQCg5NMXtVZFAAAAAAAAAFEAAAAAA
AAAiQIcTAACGBAAAQwMAAMwAAAAnAQAAAAAAAAAA8D9kDAID8QAAAAAAAAAAAAAAAAAA
AAAAUpUelKtAVbXZn/zp00EAqiKXUi6IHUAcgXRJuiJHQJLrildMWpFAAAAAAAAAFEAA
AAAAAAAiQHEXAACqBAAACQMAAMcAAAAtAQAAAAAAAAAA8D9kDAID6gAAAAAAAAAAAAAA
AAAAAAAAMA4eoKtAeccuofzp00EAX2VQogqIHUA0Dz3guyJHQP+oiCkkX5FAAAAAAAAA
FEAAAAAAAAAiQHIXAACaBAAA9gIAAMAAAAAqAQAAAAAAAAAA8D9kDAID4wAAAAAAAAAA
AAAAAAAAAAAACkQfrKtA4miZovzp00EA7I0sG+SHHUBlzfgNvSJHQBA4LuM4ZZFAAAAA
AAAAFEAAAAAAAAAiQHEXAACvBAAAEAMAAMEAAAAiAQAAMzMzMzMz7z9kDAID3wAAAAAA
AAAAAAAAAAAAAAAAZBsguKtApBfuo/zp00EA+4i7bL+HHUDpgbCxvSJHQNBZfwxUa5FA
AAAAAAAAFEAAAAAAAAAiQI0TAABKBAAACAMAAMQAAAAYAQAAAAAAAAAA8D9kDAID3QAA
AAAAAAAAAAAAAAAAAAAAuG4iwqtAz/1Cpfzp00EAf+5o+ZqHHUCSz+T5vSJHQIs1gGe6
b5FAAAAAAAAAJEAAAAAAAAAiQH8TAAAyBAAA7AIAAMoAAAATAQAAzczMzMzM7D9kDAID
2QAAAAAAAAAAAAAAAAAAAAAA4F0ezKtAi82Lpvzp00EAyLzMEniHHUDZEHwdviJHQDT1
YPPLcpFAAAAAAAAAFEAAAAAAAAAiQIcTAAABBAAArgIAAMsAAAAXAQAAMzMzMzMz7z9k
DAID2AAAAAAAAAAAAAAAAAAAAAAA7DMf1qtAS7P+p/zp00EAxz1gY1CHHUC5L4KIviJH
QCEJI4dPdZFAAAAAAAAAFEAAAAAAAAAiQIcTAACVBAAATwMAAM0AAAAVAQAAAAAAAAAA
8D9kDAID2AAAAAAAAAAAAAAAAAAAAAAAHv0f4KtANhJGqfzp00EAx7i0iiyHHUBmaaTj
viJHQHje9tvLd5FAAAAAAAAAFEAAAAAAAAAiQIYTAAAjBAAA2AIAANAAAAAZAQAAAAAA
AAAA8D9kDAID1QAAAAAAAAAAAAAAAAAAAAAAHEAf6qtA+9Oaqvzp00EArChVgQeHHUC6
o2utvyJHQC6YrdqrepFAAAAAAAAAFEAAAAAAAAAiQIYTAABfBAAAIwMAANQAAAAbAQAA
AAAAAAAA8D9kDAID0wAAAAAAAAAAAAAAAAAAAAAAdv0a9KtAv1MYrPzp00EA3lp/l+CG
HUDIMhRJwSJHQIpklOCTfpFAAAAAAAAAJEAAAAAAAAAiQIkTAADyBAAAnAMAANsAAAAm
AQAAZmZmZmZm7j9kDAID2AAAAAAAAAAAAAAAAAAAAAAAakYe/qtAZP9nrfzp00EApio7
2L2GHUDCeSy7wiJHQCWIDaYZhJFAAAAAAAAAFEAAAAAAAAAiQIsTAABsBAAALQMAAN4A
AAAmAQAAZmZmZmZm7j9kDAID2gAAAAAAAAAAAAAAAAAAAAAAfEMhCKxAzN/Frvzp00EA
BBGv5ZuGHUAb0/G9xCJHQGYlW1RCipFAAAAAAAAAFEAAAAAAAAAiQIUTAAC4BAAAbAMA
ANsAAAAqAQAAAAAAAAAA8D9kDAID2wAAAAAAAAAAAAAAAAAAAAAA7BAfEqxATOQBsPzp
00EAu5c1eHmGHUBRrWAoxiJHQCmFWHMTkJFAAAAAAAAAFEAAAAAAAAAiQI0TAABfBAAA
IgMAANEAAAApAQAAAAAAAAAA8D9kDAID3QAAAAAAAAAAAAAAAAAAAAAADDUiHKxAj0VE
sfzp00EAtPaTqlWGHUBa/jeJxyJHQFAf5/lJl5FAAAAAAAAAFEAAAAAAAAAiQGwXAAB+
BAAA0wIAAMgAAAAmAQAAAAAAAAAA8D9kDAID3QAAAAAAAAAAAAAAAAAAAAAAeuIhKKxA
gQlqsvzp00EA8gJTPTqGHUDILOdrySJHQD4SXWFyoJFAAAAAAAAAFEAAAAAAAAAiQKQP
AAAEBAAA8AIAAMMAAAAsAQAAAAAAAAAA8D9kDAID4QAAAAAAAAAAAAAAAAAAAAAADHEk
MKxAXvChs/zp00EAAW9VySGGHUDIznCwyyJHQHsjM3MeqZFAAAAAAAAAFEAAAAAAAAAi
QIITAAAcBAAA0QIAAL4AAAA7AQAAAAAAAAAA8D9kDAID4AAAAAAAAAAAAAAAAAAAAAAA
lN4fOqxAsLrTtPzp00EAJvKwPg2GHUDtSm0KziJHQHgH3GdMr5FAAAAAAAAAFEAAAAAA
AAAiQJ4PAADoAwAA2QIAAMcAAAA/AQAAAAAAAAAA8D9kDAID4wAAAAAAAAAAAAAAAAAA
AAAASNgfQqxA7GI3tvzp00EACed2/OqFHUCdz95+zyJHQBAIzDlpspFAAAAAAAAAFEAA
AAAAAAAiQIsTAABgBAAAIwMAAM0AAAAmAQAAAAAAAAAA8D9kDAID4wAAAAAAAAAAAAAA
AAAAAAAAJDwhTKxA2g+Et/zp00EAEGKm7MqFHUDVb8rR0CJHQLaQBxhxspFAAAAAAAAA
FEAAAAAAAAAiQJsPAAATBAAA/AIAANoAAAAnAQAAMzMzMzMz7z9kDAID6AAAAAAAAAAA
AAAAAAAAAAAAGFUeVKxAf5TRuPzp00EAFqHS6qyFHUBFVFSv0iJHQEJWHIuPsJFAAAAA
AAAAFEAAAAAAAAAiQJ4PAAA9BAAAHwMAAOYAAAAwAQAAAAAAAAAA8D9kDAID6gAAAAAA
AAAAAAAAAAAAAAAAKhgdXKxA/XQzuvzp00EAhMhV+oqFHUDcyo3E1CJHQDT3F4NxrpFA
AAAAAAAAFEAAAAAAAAAiQIsTAADFBAAAdwMAAOsAAAAyAQAAAAAAAAAA8D9kDAID7QAA
AAAAAAAAAAAAAAAAAAAAJLceZqxA5Txou/zp00EAjj7FPGyFHUC+D67N1iJHQOVjt1yY
rJFAAAAAAAAAFEAAAAAAAAAiQIQTAABwBAAAMQMAAOoAAAAzAQAAAAAAAAAA8D9kDAID
7QAAAAAAAAAAAAAAAAAAAAAA0toccKxAhNqjvPzp00EA0dksd0uFHUAatiff2CJHQMQ+
H5mxqpFAAAAAAAAAFEAAAAAAAAAiQIYTAACnBAAAXgMAAOUAAAA0AQAAAAAAAAAA8D9k
DAID7AAAAAAAAAAAAAAAAAAAAAAASGsceqxA7TzLvfzp00EAILMLNi2FHUC6FRnd2iJH
QAzBq1hEqZFAAAAAAAAAFEAAAAAAAAAiQI8TAABcBAAAHwMAAN8AAAAvAQAAAAAAAAAA
8D9kDAID7AAAAAAAAAAAAAAAAAAAAAAA0hQhhKxA+Dvrvvzp00EAf0Obcw2FHUDj5WJu
3CJHQDgTH2G8qJFAAAAAAAAAJEAAAAAAAAAiQIgTAAAxBAAA6gIAANYAAAArAQAAMzMz
MzMz7z9kDAID6gAAAAAAAAAAAAAAAAAAAAAAmgohjqxAzvoNwPzp00EA8vnIFOyEHUCk
n8yd3SJHQJtkDWxxqZFAAAAAAAAAJEAAAAAAAAAiQIITAAAjBAAA2QIAANQAAAAlAQAA
zczMzMzM7D9kDAID6QAAAAAAAAAAAAAAAAAAAAAA4LkfmKxARP0/wfzp00EAub47aMeE
HUCZyTvi3SJHQMQD8356q5FAAAAAAAAAJEAAAAAAAAAiQJITAAA4BAAA8QIAANIAAAAZ
AQAAzczMzMzM7D9kDAID6wAAAAAAAAAAAAAAAAAAAAAAULwioqxAKkyHwvzp00EAMdbO
AqGEHUAcE3/S3SJHQMQgUo4YrpFAAAAAAAAAFEAAAAAAAAAiQIUTAABnBAAAKQMAANUA
AAAUAQAAAAAAAAAA8D9kDAID6AAAAAAAAAAAAAAAAAAAAAAAkJshrKxAhrjaw/zp00EA
QYA2inmEHUCzBie23SJHQE7rBfylsJFAAAAAAAAAFEAAAAAAAAAiQIYTAACHBAAARAMA
ANoAAAAUAQAAAAAAAAAA8D9kDAID6gAAAAAAAAAAAAAAAAAAAAAAZFkgtqxAkWYtxfzp
00EAtnJELlKEHUAnkh8h3iJHQCLzBOqxspFAAAAAAAAAFEAAAAAAAAAiQIsTAACLBAAA
RwMAAN8AAAAVAQAAAAAAAAAA8D9kDAID6AAAAAAAAAAAAAAAAAAAAAAABuokwKxAZ1pj
xvzp00EAFlIANi6EHUDykAng3iJHQD7DF7BjtJFAAAAAAAAAFEAAAAAAAAAiQIQTAAA9
BAAA+gIAAN8AAAAaAQAAAAAAAAAA8D9kDAID6AAAAAAAAAAAAAAAAAAAAAAA3L2UyqxA
W8Crx/zp00EA0v9z+QmEHUCNeyBY4CJHQDJDExhDt5FAAAAAAAAAFEAAAAAAAAAiQIcT
AACWBAAAUQMAAN4AAAAiAQAAAAAAAAAA8D9kDAID4gAAAAAAAAAAAAAAAAAAAAAAonwh
1KxA0ZnxyPzp00EAeq/Z7uuDHUAcGUKi4iJHQAZMllcOvJFAAAAAAAAAFEAAAAAAAAAi
QIkTAACXBAAAUQMAANoAAAAzAQAAAAAAAAAA8D9kDAID4gAAAAAAAAAAAAAAAAAAAAAA
BOEi3qxAXdUqyvzp00EAwFw2Ls+DHUAS2yfT5CJHQKjHGGBIwZFAAAAAAAAAFEAAAAAA
AAAiQIYTAABlBAAAKAMAAN8AAAA1AQAAAAAAAAAA8D9kDAID4gAAAAAAAAAAAAAAAAAA
AAAAZI8g6KxAT7t4y/zp00EAM1J8ILKDHUBvaitE5yJHQJws2wfwxJFAAAAAAAAAFEAA
AAAAAAAiQG4XAAClBAAABAMAANkAAABAAQAAAAAAAAAA8D9kDAID3gAAAAAAAAAAAAAA
AAAAAAAAIjkh9KxAfBWuzPzp00EAeQlaYZ6DHUDJMB8I6iJHQO8G+vVvx5FAAAAAAAAA
FEAAAAAAAAAiQIoTAABPBAAAEAMAANkAAABNAQAAAAAAAAAA8D9kDAID3gAAAAAAAAAA
AAAAAAAAAAAAvmwj/qxAGbjazfzp00EAWUH0gpGDHUCzJiL77CJHQLTfNjEGy5FAAAAA
AAAAFEAAAAAAAAAiQHwTAAAuBAAA6AIAANcAAABWAQAAAAAAAAAA8D9kDAID3gAAAAAA
AAAAAAAAAAAAAAAAgLNUCK1AidQLz/zp00EAeqpXdYmDHUBTFLgP8CJHQJqo+BoK0pFA
AAAAAAAAFEAAAAAAAAAiQHwXAAAwBAAAcAIAAMYAAABbAQAAAAAAAAAA8D9kDAID2wAA
AAAAAAAAAAAAAAAAAAAAEvskFK1ApgxP0Pzp00EA+9q4OIODHUCBfHVY8yJHQL/GwSzr
3ZFAAAAAAAAAFEAAAAAAAAAiQIcTAABqBAAALAMAAL8AAABeAQAAAAAAAAAA8D9kDAID
3AAAAAAAAAAAAAAAAAAAAAAAUpsgHq1AIVmi0fzp00EA85947YCDHUAF4D6x9iJHQGj4
y0Yw7JFAAAAAAAAAFEAAAAAAAAAiQIYTAAByBAAAMwMAAMIAAABiAQAAMzMzMzMz7z9k
DAID3AAAAAAAAAAAAAAAAAAAAAAALlUhKK1AA78U0/zp00EAxnMMbX2DHUBC700n+iJH
QMk8nSwx+ZFAAAAAAAAAFEAAAAAAAAAiQIcTAACcBAAAVQMAAMkAAABjAQAAAAAAAAAA
8D9kDAID3QAAAAAAAAAAAAAAAAAAAAAAGCMiMq1Ag5KD1Pzp00EAMsvW7nmDHUCrLE+D
/SJHQBApAurDA5JAAAAAAAAAJEAAAAAAAAAiQIYTAAB5BAAAOQMAANIAAABhAQAAzczM
zMzM7D9kDAID3AAAAAAAAAAAAAAAAAAAAAAAkjcgPK1AeYUA1vzp00EAPe1VFXaDHUAM
6nkdASNHQHhcNI33CpJAAAAAAAAAFEAAAAAAAAAiQIgTAADMBAAAfQMAANgAAABgAQAA
MzMzMzMz7z9kDAID3wAAAAAAAAAAAAAAAAAAAAAAskIhRq1ANv1e1/zp00EAT8TMWHGD
HUBAvFqQBCNHQBWy3RS6DpJAAAAAAAAAFEAAAAAAAAAiQIcTAACbBAAAVQMAANoAAABe
AQAAMzMzMzMz7z9kDAID3wAAAAAAAAAAAAAAAAAAAAAAZqIgUK1AjB2e2Pzp00EAPogj
TGqDHUC7mCvEByNHQDwXhEO6EJJAAAAAAAAAFEAAAAAAAAAiQIgTAABTBAAAFAMAANYA
AABdAQAAMzMzMzMz7z9kDAID3gAAAAAAAAAAAAAAAAAAAAAAPkEiWq1Ac8vS2fzp00EA
Ch4mXl6DHUAN3O7HCiNHQAYgH+DaEZJAAAAAAAAAJEAAAAAAAAAiQG4XAAA6BAAAfgIA
AMkAAABUAQAAzczMzMzM7D9kDAID2gAAAAAAAAAAAAAAAAAAAAAAijciZq1AYrYj2/zp
00EA+9lseEuDHUD1Jl7JDSNHQCbYFYXTEpJAAAAAAAAAFEAAAAAAAAAiQG8XAACJBAAA
4QIAAMEAAABPAQAAMzMzMzMz7z9kDAID2gAAAAAAAAAAAAAAAAAAAAAAlskgcq1Aw3+S
3Pzp00EA0PFL9jaDHUDZmuDjECNHQAK9UIXjFJJAAAAAAAAAFEAAAAAAAAAiQHMXAAC+
BAAAIgMAAMAAAABLAQAAAAAAAAAA8D9kDAID2AAAAAAAAAAAAAAAAAAAAAAAaogifq1A
HLvl3fzp00EAZ/eh6iCDHUAYvIltEyNHQKG829LaGJJAAAAAAAAAFEAAAAAAAAAiQIYT
AAA1BAAA8AIAAMMAAABDAQAAAAAAAAAA8D9kDAID2AAAAAAAAAAAAAAAAAAAAAAAakoi
iK1AyFo63/zp00EAYm2U2QeDHUCKpyWuFSNHQLRiFuXwHZJAAAAAAAAAFEAAAAAAAAAi
QIkTAAAlBAAA2wIAAMYAAAA7AQAAAAAAAAAA8D9kDAID2wAAAAAAAAAAAAAAAAAAAAAA
vighkq1AXxuN4Pzp00EAtoNh3eqCHUAwLtWNFyNHQMZzg3MfIpJAAAAAAAAAFEAAAAAA
AAAiQGoXAAAmBAAAZQIAAMIAAAAxAQAAAAAAAAAA8D9kDAID1wAAAAAAAAAAAAAAAAAA
AAAAFqYfnq1APMbY4fzp00EAB8qayMqCHUBrB2rzGCNHQLDevIItJJJAAAAAAAAAFEAA
AAAAAAAiQHEXAAAeBAAAWgIAALwAAAAoAQAAMzMzMzMz7z9kDAID0gAAAAAAAAAAAAAA
AAAAAAAAwFsgqq1Ah1oW4/zp00EA4jrgbauCHUBLbYgnGiNHQC57XxCIJJJAAAAAAAAA
FEAAAAAAAAAiQIYTAADvAwAAlwIAAMAAAAAnAQAAAAAAAAAA8D9kDAID0AAAAAAAAAAA
AAAAAAAAAAAAaHcgtK1A9RNk5Pzp00EAboXwLYyCHUBz4GGOGyNHQMBQibd4JJJAAAAA
AAAAFEAAAAAAAAAiQJoTAAAJBAAAtgIAAMQAAAApAQAAAAAAAAAA8D9kDAIDygAAAAAA
AAAAAAAAAAAAAAAAXrQnvq1A0/235fzp00EAj2tRLG6CHUAeK344HSNHQFJnjpIxJJJA
AAAAAAAAFEAAAAAAAAAiQGUXAAAWBAAAUgIAAMQAAAAuAQAAAAAAAAAA8D9kDAIDxAAA
AAAAAAAAAAAAAAAAAAAAglIkyq1AQ6I95/zp00EAg6Zz80yCHUCQ9C1hHyNHQDjWVDgg
I5JAAAAAAAAAFEAAAAAAAAAiQG8XAADEBAAAKgMAAMYAAAA0AQAAAAAAAAAA8D9kDAID
wwAAAAAAAAAAAAAAAAAAAAAAKIAi1q1AL/Oi6Pzp00EAyC0s6DKCHUATKH7XISNHQGYE
LzKlIZJAAAAAAAAAFEAAAAAAAAAiQIgTAABtBAAALgMAAMsAAAA9AQAAAAAAAAAA8D9k
DAIDxwAAAAAAAAAAAAAAAAAAAAAAjCoj4K1AFaPp6fzp00EAjqtOtyCCHUB/w555JCNH
QPnu9Ke2IJJAAAAAAAAAFEAAAAAAAAAiQIUTAAARBAAAwwIAAMwAAABFAQAAAAAAAAAA
8D9kDAIDyAAAAAAAAAAAAAAAAAAAAAAA8GUi6q1Axdg26/zp00EAhVXnOA6CHUBGCTs3
JyNHQCTlPSq9IJJAAAAAAAAAFEAAAAAAAAAiQIwTAAA1BAAA7wIAANIAAABMAQAAMzMz
MzMz7z9kDAIDygAAAAAAAAAAAAAAAAAAAAAABtYh9K1AsFp87Pzp00EARKdKkAKCHUDo
qWcyKiNHQPQsT9ezIZJAAAAAAAAAFEAAAAAAAAAiQGYXAAAtBAAAbgIAAM8AAABZAQAA
AAAAAAAA8D9kDAIDyAAAAAAAAAAAAAAAAAAAAAAAGKwgAK5AZR+27fzp00EA2UNM0vuB
HUB7wl86LSNHQEYeijH4IpJAAAAAAAAAFEAAAAAAAAAiQIYTAAAYBAAAywIAAM4AAABe
AQAAAAAAAAAA8D9kDAIDxwAAAAAAAAAAAAAAAAAAAAAAHmseCq5AHlPs7vzp00EA3Ona
l/yBHUBHE1lOMCNHQPANYUBEJpJAAAAAAAAAFEAAAAAAAAAiQHMXAAAVBAAATwIAANAA
AAAAAAAAAAAAAAAA8D9kDAIDxgAAAAAAAAAAAAAAAAAAAAAA3o4gFq5ALxkf8Pzp00EA
puPgCwGCHUCipxRQMyNHQAibIwMCLpJAAAAAAAAAFEAAAAAAAAAiQJwPAAAFBAAA8QIA
ANMAAAAEAAAAAAAAAAAA8D9kDAIDywAAAAAAAAAAAAAAAAAAAAAALhkfHq5AsCR38fzp
00EAQbCdYwaCHUDLW7WrNiNHQHw+jurvOJJAAAAAAAAAFEAAAAAAAAAiQIsTAAB/BAAA
PQMAANcAAAAHAAAAAAAAAAAA8D9kDAIDzwAAAAAAAAAAAAAAAAAAAAAABp0gKK5AmMSx
8vzp00EAICI/PwqCHUD/+F3FOSNHQOqr0c4GQ5JAAAAAAAAAFEAAAAAAAAAiQIgTAAAj
BAAA2AIAANcAAAAGAAAAAAAAAAAA8D9kDAID0AAAAAAAAAAAAAAAAAAAAAAAvFggMq5A
5zPt8/zp00EA4uWNGRCCHUA6xUHpPCNHQF8A9eyiSZJAAAAAAAAAFEAAAAAAAAAiQIUT
AAA4BAAA8wIAANYAAAAHAAAAAAAAAAAA8D9kDAID0QAAAAAAAAAAAAAAAAAAAAAAYrwe
PK5AZsdA9fzp00EA3RpBOxiCHUASWhtOQCNHQDYdjpkeTZJAAAAAAAAAJEAAAAAAAAAi
QIcTAACZBAAAUwMAANkAAAAIAAAAzczMzMzM7D9kDAID1gAAAAAAAAAAAAAAAAAAAAAA
8sodRq5A/QqJ9vzp00EAIY+hMB6CHUBJLHOfQyNHQEQEP9NkT5JAAAAAAAAAFEAAAAAA
AAAiQIoTAAB0BAAANAMAANwAAAAIAAAAZmZmZmZm7j9kDAID2AAAAAAAAAAAAAAAAAAA
AAAActYfUK5A3Pu69/zp00EAAtiC+iGCHUAT6Ce+RiNHQJX/8RHuUJJAAAAAAAAAFEAA
AAAAAAAiQIkTAAApBAAA4AIAANsAAAAIAAAAAAAAAAAA8D9kDAID1wAAAAAAAAAAAAAA
AAAAAAAAtl0gWq5AuNXa+Pzp00EA0RQh5ySCHUDmB8C2SSNHQMi1lanyUZJAAAAAAAAA
FEAAAAAAAAAiQIkTAAD0AwAAngIAANgAAAAIAAAAAAAAAAAA8D9kDAID1gAAAAAAAAAA
AAAAAAAAAAAA0k8gZK5AQaEf+vzp00EAj1U7KymCHUBJlx8VTSNHQCw3iMD1UpJAAAAA
AAAAJEAAAAAAAAAiQGsXAAB/BAAA1AIAAM4AAAAJAAAAzczMzMzM7D9kDAID1AAAAAAA
AAAAAAAAAAAAAAAAoEsgcK5ACSZM+/zp00EAD0Dtqy6CHUAevHgsUCNHQDnrLFVmVJJA
AAAAAAAAFEAAAAAAAAAiQEUfAAAmBAAAGQIAALoAAAAIAAAAAAAAAAAA8D9kDAID0QAA
AAAAAAAAAAAAAAAAAAAAEM8igK5A0i6t/Pzp00EAdrtVFC2CHUAMkjDFUyNHQIl3f3+K
V5JAAAAAAAAAFEAAAAAAAAAiQGwXAADGBAAALgMAAL0AAABmAQAAAAAAAAAA8D9kDAID
0AAAAAAAAAAAAAAAAAAAAAAAQIQgjK5ATpLl/fzp00EAzqN8eyaCHUB/gvvEViNHQMiT
sClyX5JAAAAAAAAAJEAAAAAAAAAiQHMXAAANBAAARQIAALgAAABeAQAAzczMzMzM7D9k
DAIDzAAAAAAAAAAAAAAAAAAAAAAAyDwimK5AcwJm//zp00EAmUW5PhWCHUBvvyUJWiNH
QDUbMzZvbpJAAAAAAAAAJEAAAAAAAAAiQG0XAADDBAAAKgMAALIAAABNAQAAzczMzMzM
7D9kDAIDyQAAAAAAAAAAAAAAAAAAAAAAIFkgpK5AmhPnAP3p00EAWuGnqQSCHUDgheIq
XSNHQFYK0lpogZJAAAAAAAAAFEAAAAAAAAAiQIYTAACRBAAATAMAALgAAABJAQAAMzMz
MzMz7z9kDAIDywAAAAAAAAAAAAAAAAAAAAAAOLchrq5AgC1uAv3p00EAUpnj++mBHUCn
C9vEXyNHQMrqa3M0kZJAAAAAAAAAJEAAAAAAAAAiQHYXAACcBAAA+AIAALgAAAA8AQAA
MzMzMzMz7z9kDAIDyQAAAAAAAAAAAAAAAAAAAAAAdmw0uq5A0GrGA/3p00EA+sWWi86B
HUBEdRiOYSNHQEqrkp8OmpJAAAAAAAAAFEAAAAAAAAAiQIQTAADwAwAAmQIAALwAAAA0
AQAAAAAAAAAA8D9kDAIDxgAAAAAAAAAAAAAAAAAAAAAABBosxK5Ab743Bf3p00EAy0wQ
lK+BHUABYchJYyNHQIMKnH1inZJAAAAAAAAAFEAAAAAAAAAiQIYTAAA6BAAA9gIAAMEA
AAAuAQAAAAAAAAAA8D9kDAIDxQAAAAAAAAAAAAAAAAAAAAAAfEgozq5A90SoBv3p00EA
tytaaI+BHUANZ1rvZCNHQKiDytOVnpJAAAAAAAAAFEAAAAAAAAAiQHoXAABJBAAAjwIA
AL0AAAArAQAAAAAAAAAA8D9kDAIDwgAAAAAAAAAAAAAAAAAAAAAALCUr2q5AxtQXCP3p
00EAznOBsW+BHUC83VO2ZiNHQAf6Y4zqn5JAAAAAAAAAJEAAAAAAAAAiQIMTAABVBAAA
GAMAAL8AAAArAQAAzczMzMzM7D9kDAIDxAAAAAAAAAAAAAAAAAAAAAAA1M8j5K5AlpFl
Cf3p00EAuqz1lVGBHUAScABFaCNHQAclsbBLoZJAAAAAAAAAFEAAAAAAAAAiQKEPAAAF
BAAA8QIAAMMAAAAqAQAAZmZmZmZm7j9kDAIDygAAAAAAAAAAAAAAAAAAAAAAOAsj7K5A
MLvICv3p00EAayxFxDGBHUD1DPn2aSNHQMrAhbSEo5JAAAAAAAAAFEAAAAAAAAAiQIcT
AABJBAAACAMAAMYAAAApAQAAMzMzMzMz7z9kDAIDzAAAAAAAAAAAAAAAAAAAAAAAwtog
9q5AB3wfDP3p00EA/wmVXhOBHUBpN2WhayNHQNs2asvup5JAAAAAAAAAFEAAAAAAAAAi
QI0TAAAgBAAA1AIAAMcAAAAsAQAAAAAAAAAA8D9kDAID0gAAAAAAAAAAAAAAAAAAAAAA
eFwkAK9AhO+RDf3p00EATXo2efiAHUD2ZO4obiNHQHZ51qaprJJAAAAAAAAAFEAAAAAA
AAAiQIYTAACOBAAASgMAAMMAAAA8AQAAAAAAAAAA8D9kDAID1QAAAAAAAAAAAAAAAAAA
AAAABFgkCq9ApLPNDv3p00EA/myW0vWAHUDMIjIfcSNHQEI80J46r5JAAAAAAAAAFEAA
AAAAAAAiQIcTAADxAwAAmQIAAL8AAABfAQAAAAAAAAAA8D9kDAID1wAAAAAAAAAAAAAA
AAAAAAAA7lUjFK9AHd4hEP3p00EAD0y/IRGBHUCFYCVKcyNHQBiimTSLr5JAAAAAAAAA
FEAAAAAAAAAiQGMXAABABAAAhwIAALsAAAAuAAAAAAAAAAAA8D9kDAID1QAAAAAAAAAB
AAAAAAAAAAAA1M4gIK9ATpd3Ef3p00EAMlbILjWBHUATt4rgcyNHQJS1GAbArZJAAAAA
AAAAFEAAAAAAAAAiQIoTAAA0BAAA7gIAAMgAAABQAAAAAAAAAAAA8D9kDAID1AAAAAAA
AAABAAAAAAAAAAAAvK8iKq9AOVrUEv3p00EAr+R6XVmBHUCfo1RncyNHQFZiygGKqpJA
AAAAAAAAFEAAAAAAAAAiQIkTAAAyBAAA6gIAANUAAABhAAAAMzMzMzMz7z9kDAID1QAA
AAAAAAABAAAAAAAAAAAAiGchNK9AVmFEFP3p00EA465p6X6BHUAl0OuHciNHQOg2xGfN
p5JAAAAAAAAAJEAAAAAAAAAiQIMTAAB1BAAANQMAAN0AAABmAAAAmpmZmZmZ7T9kDAID
1wAAAAAAAAAAAAAAAAAAAAAAGr4dPq9APG+MFf3p00EACAbL46KBHUBuIRzycSNHQJJF
1yXdpZJAAAAAAAAAJEAAAAAAAAAiQIgTAAAyBAAA6wIAANoAAABjAAAAzczMzMzM7D9k
DAID1wAAAAAAAAAAAAAAAAAAAAAAfOweSK9ArUDXFv3p00EA305mrciBHUAcvEsZcSNH
QIlMPkmMo5JAAAAAAAAAJEAAAAAAAAAiQIsTAAB5BAAAOAMAANYAAABnAAAAzczMzMzM
7D9kDAID2AAAAAAAAAAAAAAAAAAAAAAAbvkgUq9APnICGP3p00EABXi5HeuBHUA3rvIq
cCNHQI6BZaIxopJAAAAAAAAAJEAAAAAAAAAiQJ4PAAAjBAAACQMAANgAAABnAAAAzczM
zMzM7D9kDAID3wAAAAAAAAAAAAAAAAAAAAAA5lYgWq9Ac1owGf3p00EAZmsqKQ6CHUAU
06BkbyNHQHa12+51o5JAAAAAAAAAJEAAAAAAAAAiQIgTAAAlBAAA2wIAANQAAABkAAAA
zczMzMzM7D9kDAID3gAAAAAAAAAAAAAAAAAAAAAAVl0fZK9AwZaBGv3p00EAJc4n4jSC
HUDunXiDbiNHQMCLY1XvpZJAAAAAAAAAJEAAAAAAAAAiQIYTAACXBAAAUQMAANcAAABo
AAAAzczMzMzM7D9kDAID3AAAAAAAAAAAAAAAAAAAAAAAZmEfbq9Ai1XgG/3p00EAKKPH
KlqCHUDkpSv1bCNHQFqLNoiyp5JAAAAAAAAAJEDOGApIzREiQIMTAAC/BAAAcgMAAOAA
AABoAAAAzczMzMzM7D9kDAID3gAAAAAAAAAAAAAAAAAAAAAAhmt1eK9AYJ8oHf3p00EA
V5f2b3eCHUAlasnGaiNHQDsoHqOSqJJAAAAAAAAAJEC0hYHKz1kiQKQPAABuBAAASAMA
AOIAAABuAAAAzczMzMzM7D9kDAID5AAAAAAAAAAAAAAAAAAAAAAA1sAegK9AJQxvHv3p
00EAvzXTmpmCHUAxQ6sPaSNHQIEXhMWtqpJAAAAAAAAAJEAWGNVkKUUiQKQPAACHBAAA
XAMAAOsAAABuAAAAzczMzMzM7D9kDAID6AAAAAAAAAAAAAAAAAAAAAAAamIhiK9A5jSa
H/3p00EAIZoUrbWCHUCpnNfxZiNHQP6CFFrcr5JAAAAAAAAAFEAAAAAAAAAiQLILAABF
BAAAPgMAAPkAAAB4AAAAZmZmZmZm7j9kDAID6AAAAAAAAAAAAAAAAAAAAAAAzroejq9A
od3oIP3p00EA1LT7iNGCHUBbDJ0TZCNHQL2qIrX0tZJAAAAAAAAAJEAAAAAAAAAiQKIP
AAD3BAAAuQMAAAgBAACDAAAAmpmZmZmZ7T9kDAID9AAAAAAAAAAAAAAAAAAAAAAACIof
lq9AQ/8XIv3p00EA8PTBl+uCHUCBkskxYSNHQACAbmiGupJAAAAAAAAAFEAAAAAAAAAi
QJ8PAADaBAAAoQMAABIBAACKAAAAMzMzMzMz7z9kDAID+QAAAAAAAAAAAAAAAAAAAAAA
yEMfnq9AjGk8I/3p00EAOH6laAaDHUBtVpVCXiNHQLlslwe7vZJAAAAAAAAAJEAAAAAA
AAAiQKAPAAD2BAAAuAMAABUBAACMAAAAZmZmZmZm7j9kDAIDAgEAAAAAAAAAAAAAAAAA
AAAAzoogpq9AGSk5JP3p00EAvWAMSBuDHUBA5Vp5WyNHQGCyTIn+v5JAAAAAAAAAJEAA
AAAAAAAiQKAPAABnBAAAQgMAABcBAACSAAAAzczMzMzM7D9kDAIDCAEAAAAAAAAAAAAA
AAAAAAAAgM0hrq9ApkkZJf3p00EAW64ayiuDHUAGmLveWCNHQB0hsqqBwZJAAAAAAAAA
JEAAAAAAAAAiQLULAADwAwAA+AIAAB0BAACSAAAAzczMzMzM7D9kDAIDDgEAAAAAAAAA
AAAAAAAAAAAA/AEftK9A7okrJv3p00EAttzn7ECDHUCXLpCoVSNHQHcapJ1jwpJAAAAA
AAAAFEAAAAAAAAAiQJ4PAADnBAAAqwMAACEBAACMAAAAZmZmZmZm7j9kDAIDFQEAAAAA
AAAAAAAAAAAAAAAAqhAfvK9A+as8J/3p00EAfKM7bV2DHUDmYeXTUiNHQL6aODifwpJA
AAAAAAAAFEAAAAAAAAAiQKMPAAD6BAAAuwMAACYBAACCAAAAMzMzMzMz7z9kDAIDGAEA
AAAAAAAAAAAAAAAAAAAAyPAgxK9AS9NRKP3p00EAOKq8FYGDHUBaysJ5UCNHQOADKUBw
wpJAAAAAAAAAFEAAAAAAAAAiQKAPAAAkBQAA3gMAACwBAAB7AAAAAAAAAAAA8D9kDAID
HgEAAAAAAAAAAAAAAAAAAAAAJJ0hzK9ANZRRKf3p00EAeS+dBqWDHUD6JGCSTiNHQIKZ
5yoJwpJAAAAAAAAAFEAAAAAAAAAiQKEPAADVBAAAnQMAADABAAByAAAAAAAAAAAA8D9k
DAIDJgEAAAAAAAAAAAAAAAAAAAAA5gMi1K9Aa9tRKv3p00EAbetHtsuDHUAYX+r7TCNH
QNg6pwAEwpJAAAAAAAAAFEAAAAAAAAAiQJ0PAADpBAAArQMAADIBAABvAAAAAAAAAAAA
8D9kDAIDKAEAAAAAAAAAAAAAAAAAAAAA8Psf3K9At9RWK/3p00EAKWxgmvSDHUA9EUKS
SyNHQLwCPdDUwpJAAAAAAAAAFEAAAAAAAAAiQJ8PAAAMBQAAygMAADUBAABuAAAAMzMz
MzMz7z9kDAIDLwEAAAAAAAAAAAAAAAAAAAAA+n0f5K9A09wnLP3p00EAcfV+mhOEHUCR
PbQaSiNHQCZGsy94xJJAAAAAAAAAFEAAAAAAAAAiQLcLAAANBAAAEAMAACwBAAByAAAA
AAAAAAAA8D9kDAIDNgEAAAAAAAAAAAAAAAAAAAAAgowg6q9AuDEPLf3p00EAxvE+OTmE
HUC7g7BWSSNHQEA2ZamCxpJAAAAAAAAAFEAAAAAAAAAiQKAPAABuBAAASAMAAC4BAABx
AAAAAAAAAAAA8D9kDAIDOgEAAAAAAAAAAAAAAAAAAAAAsDEf8q9Aqfz6Lf3p00EAQSlb
q16EHUDxQvlQSCNHQJS0IGUXyJJAAAAAAAAAFEAAAAAAAAAiQL8LAACABAAAbwMAADIB
AABqAAAAAAAAAAAA8D9kDAIDOwEAAAAAAAAAAAAAAAAAAAAAYDYh+K9AMenOLv3p00EA
wNKvSH6EHUD95VLjRiNHQI1BOeCyyJJAAAAAAAAAFEAAAAAAAAAiQLgLAAAXBAAAGAMA
ADQBAAByAAAAAAAAAAAA8D9kDAIDQAEAAAAAAAAAAAAAAAAAAAAA8FIi/q9AyfKeL/3p
00EAcJPJz5uEHUAP1kA3RSNHQOdqdttyyJJAAAAAAAAAFEAAAAAAAAAiQK8LAAAMBAAA
DwMAADUBAAB0AAAAAAAAAAAA8D9kDAIDQAEAAAAAAAAAAAAAAAAAAAAAC34PArBAH2aK
MP3p00EAy7NQWL+EHUDruiqnQyNHQMaIBducx5JAAAAAAAAAFEAAAAAAAAAiQKEPAACS
BAAAZQMAADABAABsAAAAAAAAAAAA8D9kDAIDQwEAAAAAAAAAAAAAAAAAAAAAuAAQBrBA
1quCMf3p00EAWt1KUuiEHUBDdIz1QiNHQDxXdY7MxpJAAAAAAAAAFEAAAAAAAAAiQJwP
AADJBAAAkwMAADABAABfAAAAAAAAAAAA8D9kDAIDPwEAAAAAAAAAAAAAAAAAAAAAj2sP
CrBAbE+AMv3p00EAir8I8xKFHUDWYOgWQyNHQBJQf+VsxpJAAAAAAAAAFEAAAAAAAAAi
QKMPAADjBAAAqQMAADMBAABRAAAAAAAAAAAA8D9kDAIDPwEAAAAAAAAAAAAAAAAAAAAA
c4QQDrBAC4KLM/3p00EA9DibJECFHUBtMTzqQiNHQGKPVq9Nx5JAAAAAAAAAFEAAAAAA
AAAiQKAPAAAvBQAA5wMAADUBAABaAAAAAAAAAAAA8D9kDAIDQQEAAAAAAAAAAAAAAAAA
AAAAV60QErBAV3xcNP3p00EAb/BLoGOFHUCHnDMiQyNHQCCtTz8YypJAAAAAAAAAFEAA
AAAAAAAiQLgLAAAUBAAAFQMAADYBAABUAAAAAAAAAAAA8D9kDAIDRQEAAAAAAAAAAAAA
AAAAAAAAUpsQFbBAqgFnNf3p00EAGlunGpCFHUAlxXEERCNHQK/FP+2XzpJAAAAAAAAA
FEAAAAAAAAAiQJ8PAAA7BQAA8QMAADgBAABSAAAAAAAAAAAA8D9kDAIDRQEAAAAAAAAA
AAAAAAAAAAAAmx4QGbBA3wVxNv3p00EASOPAWb2FHUC6xhSPRCNHQPyBGXSs05JAAAAA
AAAAFEAAAAAAAAAiQJ0PAAA8BQAA8gMAADcBAABQAAAAAAAAAAAA8D9kDAIDRgEAAAAA
AAAAAAAAAAAAAAAAmE4PHbBAJBBBN/3p00EAHu3nGOGFHUBXsgbORCNHQHxpLJyW15JA
AAAAAAAAFEAAAAAAAAAiQLgLAAAcBAAAHAMAADsBAABOAAAAAAAAAAAA8D9kDAIDSAEA
AAAAAAAAAAAAAAAAAAAAolsPILBADO8LOP3p00EAo0aVFQSGHUAm1qsvRSNHQOh7+JLY
2ZJAAAAAAAAAFEAAAAAAAAAiQLkLAAALBAAADgMAAD0BAABLAAAAAAAAAAAA8D9kDAID
SgEAAAAAAAAAAAAAAAAAAAAA6uUPI7BAkefcOP3p00EA8cBqkCiGHUBSrE5yRSNHQMAI
sI9s25JAAAAAAAAAJEAAAAAAAAAiQLcLAAAyBAAALgMAAD8BAABMAAAAZmZmZmZm7j9k
DAIDSgEAAAAAAAAAAAAAAAAAAAAAI01EJrBAydLROf3p00EACxArZFOGHUB+yFy6RSNH
QOr0VreE3JJAAAAAAAAAFEAAAAAAAAAiQKAPAADsBAAAsAMAAD0BAABNAAAAMzMzMzMz
7z9kDAIDSgEAAAAAAAAAAAAAAAAAAAAAX+4PKrBAtGfEOv3p00EAgVeCWH2GHUB49HEv
RiNHQPWRJ/GQ3ZJAAAAAAAAAFEAAAAAAAAAiQKEPAADZBAAAoAMAADsBAABMAAAAAAAA
AAAA8D9kDAIDSgEAAAAAAAAAAAAAAAAAAAAAUG0QLrBACe2RO/3p00EAOaSw66CGHUCZ
IKiTRiNHQB50cMUY35JAAAAAAAAAFEAAAAAAAAAiQLgLAAAcBAAAHAMAAD4BAABQAAAA
AAAAAAAA8D9kDAIDSwEAAAAAAAAAAAAAAAAAAAAAroIQMbBAIJJXPP3p00EAhU1gNsOG
HUBikhToRiNHQFBZTy9+4JJAAAAAAAAAFEAAAAAAAAAiQLYLAAD0AwAA+wIAADsBAABS
AAAAAAAAAAAA8D9kDAIDTAEAAAAAAAAAAAAAAAAAAAAAl3AQNLBAKKY1Pf3p00EAbht9
R+mGHUBFemZ9RyNHQNYkl/p54ZJAAAAAAAAAJEAAAAAAAAAiQLgLAABuBAAAYAMAADwB
AABPAAAAZmZmZmZm7j9kDAIDTwEAAAAAAAAAAAAAAAAAAAAAQXwQN7BACikJPv3p00EA
k4Ms4w2HHUB65tzjRyNHQPr9D8544pJAAAAAAAAAPkAAAAAAAAA+QLoLAAA7BAAANgMA
AD0BAABOAAAAMzMzMzMz7T9kDAIDUQEAAAAAAAAAAAAAAAAAAAAADOkQOrBAcYsDP/3p
00EAF7ElTjmHHUDSLYiFRyNHQFG1RLj/45JAAAAAAAAAFEAAAAAAAAAiQJoPAAAABQAA
wAMAADwBAABPAAAAAAAAAAAA8D9kDAIDTgEAAAAAAAAAAAAAAAAAAAAAS6kPPrBAayv3
P/3p00EA2ywUCmOHHUCnvfWhRyNHQALn4lAs5pJAAAAAAAAAFEAAAAAAAAAiQKMPAADJ
BAAAkwMAADIBAABIAAAAAAAAAAAA8D9kDAIDTAEAAAAAAAAAAAAAAAAAAAAABtMQQrBA
Il7FQP3p00EA9VQ58YOHHUB9paOiSCNHQKzeQHAU6JJAAAAAAAAAFEAAAAAAAAAiQL4L
AAAABAAABQMAADMBAABGAAAAAAAAAAAA8D9kDAIDTwEAAAAAAAAAAAAAAAAAAAAAzqgR
RbBAkT3EQf3p00EAytKH4qyHHUB+P5b0SSNHQMVcSOfk6JJAAAAAAAAAFEAAAAAAAAAi
QJcPAAACBQAAwgMAADoBAABJAAAAAAAAAAAA8D9kDAIDUAEAAAAAAAAAAAAAAAAAAAAA
UUoQSbBA84jLQv3p00EAaJ5/YdeHHUA+cfhrSyNHQGqfaMpM6ZJAAAAAAAAAFEAAAAAA
AAAiQKEPAAA/BQAA9AMAADwBAABEAAAAAAAAAAAA8D9kDAIDUQEAAAAAAAAAAAAAAAAA
AAAANpIQTbBAL5+TQ/3p00EA0UB53/eHHUDR1wyQTCNHQHyFKxUU6pJAAAAAAAAAFEAA
AAAAAAAiQLYLAAAFBAAACQMAAD8BAABFAAAAAAAAAAAA8D9kDAIDUQEAAAAAAAAAAAAA
AAAAAAAA9+IPULBA9ZmRRP3p00EAeXG0qiGIHUD5b/3tTSNHQDbDqH3t65JAAAAAAAAA
FEAAAAAAAAAiQKQPAAAfBQAA2gMAAEABAABDAAAAAAAAAAAA8D9kDAIDUQEAAAAAAAAA
AAAAAAAAAAAAWTARVLBA0CuFRf3p00EAAujIJEqIHUB5eJADTyNHQNDuuoL37pJAAAAA
AAAAFEAAAAAAAAAiQJwPAADbBAAAogMAADkBAABIAAAAMzMzMzMz7z9kDAIDUAEAAAAA
AAAAAAAAAAAAAAAAFK4PWLBAzfVhRv3p00EAD9lAxW2IHUBd/OfzTyNHQMLYHJ4w8pJA
AAAAAAAAFEAAAAAAAAAiQKAPAABFBAAAJgMAACsBAABLAAAAAAAAAAAA8D9kDAIDTgEA
AAAAAAAAAAAAAAAAAAAABB4QXLBA/mVLR/3p00EAQHPU2ZKIHUCo/BiuUCNHQPJgasr7
9JJAAAAAAAAAJEAAAAAAAAAiQKMPAABcBAAAOAMAACMBAABOAAAAzczMzMzM7D9kDAID
SQEAAAAAAAAAAAAAAAAAAAAADfwQYLBAwdI7SP3p00EA1E9oibiIHUADVDJIUSNHQCZC
pDG895JAAAAAAAAAFEAAAAAAAAAiQK4PAABkBAAAPwMAAB0BAABPAAAAMzMzMzMz7z9k
DAIDRQEAAAAAAAAAAAAAAAAAAAAAx9YTZLBAaQY/Sf3p00EAylR60uCIHUCarxp+USNH
QIS1AirL+5JAAAAAAAAAFEAAAAAAAAAiQJ4PAACgBAAAcQMAABUBAABQAAAAAAAAAAAA
8D9kDAIDQQEAAAAAAAAAAAAAAAAAAAAAO1ATaLBAdbFPSv3p00EAyq6NzQmJHUBMqHVs
USNHQEY3kci/AZNAAAAAAAAAFEAAAAAAAAAiQIgTAACzBAAAaAMAAAkBAABYAAAAAAAA
AAAA8D9kDAIDPwEAAAAAAAAAAAAAAAAAAAAA/icTbbBA/h1OS/3p00EAYqj7Ky+JHUCA
IqBzUSNHQJjMVclvB5NAAAAAAAAAFEAAAAAAAAAiQJsPAABIBAAAKQMAAAYBAABOAAAA
AAAAAAAA8D9kDAIDOwEAAAAAAAAAAAAAAAAAAAAAPewRcbBAgd1dTP3p00EAcXMyNVaJ
HUDdOrXuUSNHQEJdZ5n7CpNAAAAAAAAAFEAAAAAAAAAiQKQPAACFBAAAWgMAAAgBAABH
AAAAAAAAAAAA8D9kDAIDNgEAAAAAAAAAAAAAAAAAAAAA3BATdbBAbAiATf3p00EAdArK
5X6JHUDy2iXnUiNHQAp0nebLDJNAAAAAAAAAFEAAAAAAAAAiQJsPAADWBAAAngMAAAgB
AABAAAAAAAAAAAAA8D9kDAIDLgEAAAAAAAAAAAAAAAAAAAAAuoESebBAKRp/Tv3p00EA
/5o3qqCJHUDyOds2VCNHQDnzsKFtDZNAAAAAAAAAFEAAAAAAAAAiQKMPAAA+BAAAIAMA
AAYBAAA8AAAAAAAAAAAA8D9kDAIDLAEAAAAAAAAAAAAAAAAAAAAAtrcTfbBAR7qdT/3p
00EAFZni/MSJHUA3qSTdVSNHQGqiq70xDpNAAAAAAAAAFEAAAAAAAAAiQIcTAAC0BAAA
aQMAAAABAAA1AAAAMzMzMzMz7z9kDAIDKgEAAAAAAAAAAAAAAAAAAAAAkSkTgrBAFESS
UP3p00EAMCIiHeCJHUCwY2WtVyNHQM4j+hWaEJNAAAAAAAAAFEAAAAAAAAAiQJ8PAADu
AwAA3gIAAPgAAAAwAAAAAAAAAAAA8D9kDAIDIwEAAAAAAAAAAAAAAAAAAAAA7ukShrBA
fNmSUf3p00EAtRL9+/uJHUBgISB7WSNHQPoUiMX0E5NAAAAAAAAAFEAAAAAAAAAiQJ4P
AAD+AwAA6wIAAO4AAAAwAAAAAAAAAAAA8D9kDAIDHwEAAAAAAAAAAAAAAAAAAAAAJ9kS
irBAmnu0Uv3p00EAoq47chuKHUCeG+49WyNHQMp30rxOFpNAAAAAAAAAFEAAAAAAAAAi
QIUTAABMBAAADAMAAOAAAAA3AAAAZmZmZmZm7j9kDAIDGQEAAAAAAAAAAAAAAAAAAAAA
EFsSj7BA/5EDVP3p00EAxbbiwj2KHUAvtOlPXSNHQKQrn7weF5NAAAAAAAAAJEAAAAAA
AAAiQH8TAADMBAAAfQMAAOAAAAA0AAAAZmZmZmZm7j9kDAIDDQEAAAAAAAAAAAAAAAAA
AAAA7WAQlLBA0p8YVf3p00EAzZ5n71qKHUDC74DbXiNHQNZOmfvAF5NAAAAAAAAAFEAA
AAAAAAAiQLIPAADsAwAA3AIAAOAAAAA0AAAAmZmZmZmZ7T9kDAIDCQEAAAAAAAAAAAAA
AAAAAAAAtmUUmLBAo7BlVv3p00EAUaA2vn2KHUBaSw7UYCNHQNZUHxJUGpNAAAAAAAAA
FEAAAAAAAAAiQIgTAADFBAAAdwMAAOcAAAA5AAAAAAAAAAAA8D9kDAIDCAEAAAAAAAAA
AAAAAAAAAAAAsaQUnbBAZWKMV/3p00EAgCVLaZ+KHUDUA3o+YiNHQAs0SjInH5NAAAAA
AAAAFEAAAAAAAAAiQIYTAABLBAAACgMAAOgAAABAAAAAAAAAAAAA8D9kDAIDBQEAAAAA
AAAAAAAAAAAAAAAACoITorBAjCivWP3p00EAD54Sw8KKHUAxiU44YyNHQKWdJCu/JJNA
AAAAAAAAFEAAAAAAAAAiQIETAABBBAAA/gIAAOcAAABIAAAAAAAAAAAA8D9kDAIDAQEA
AAAAAAAAAAAAAAAAAAAAyooRp7BAFlTNWf3p00EAjCEy6OaKHUCVzER8YyNHQBSQfrWa
KZNAAAAAAAAAFEAAAAAAAAAiQIoTAAAoBAAA3wIAAOIAAABPAAAAMzMzMzMz7z9kDAID
/AAAAAAAAAAAAAAAAAAAAAAA+Z0SrLBAWVsKW/3p00EASSbzyQ2LHUAxIScSZCNHQGC4
/TncLZNAAAAAAAAAFEAAAAAAAAAiQIoTAACGBAAAQwMAANwAAABKAAAAZmZmZmZm7j9k
DAID9wAAAAAAAAAAAAAAAAAAAAAAGTkTsbBAlhtRXP3p00EA/f6hjDKLHUB0LsdRZSNH
QITJxLApMpNAAAAAAAAAFEAAAAAAAAAiQIYTAACHBAAARAMAANMAAABBAAAAAAAAAAAA
8D9kDAID8gAAAAAAAAAAAAAAAAAAAAAAswYTtrBAZ5iXXf3p00EABXx6VVWLHUDEBei/
ZiNHQPqmRF+fNpNAAAAAAAAAFEAAAAAAAAAiQKUPAABqBAAARAMAANYAAAA9AAAAAAAA
AAAA8D9kDAID7wAAAAAAAAAAAAAAAAAAAAAAW18UurBA6jzyXv3p00EAERglh3WLHUAC
bB7raCNHQBXdqr2fO5NAAAAAAAAAFEAAAAAAAAAiQIITAACuBAAAZAMAANYAAAAzAAAA
AAAAAAAA8D9kDAID7gAAAAAAAAAAAAAAAAAAAAAAA+kSv7BAxqsxYP3p00EA8Hlcd5KL
HUAtJEwEayNHQNT9I9ghQZNAAAAAAAAAFEAAAAAAAAAiQIYTAABUBAAAFgMAANcAAAAv
AAAAAAAAAAAA8D9kDAID7wAAAAAAAAAAAAAAAAAAAAAAKlESxLBA7EZ4Yf3p00EAutwH
1bCLHUAYTY8ebSNHQJbO3YfMRZNAAAAAAAAAFEAAAAAAAAAiQIYTAAB2BAAANQMAANoA
AAAyAAAAAAAAAAAA8D9kDAID6wAAAAAAAAAAAAAAAAAAAAAAh8ARybBAt7K9Yv3p00EA
wt47bc6LHUBrcCRabyNHQFmNOKjnSJNAAAAAAAAAFEAAAAAAAAAiQIwTAACBBAAAPgMA
AN0AAAAxAAAAAAAAAAAA8D9kDAID6gAAAAAAAAAAAAAAAAAAAAAAPzQTzrBA+8X9Y/3p
00EAkYPNH+uLHUDyTomecSNHQOWtbD1cSpNAAAAAAAAAFEAAAAAAAAAiQIYTAAB1BAAA
NQMAANwAAAAwAAAAAAAAAAAA8D9kDAID6wAAAAAAAAAAAAAAAAAAAAAAtTAT07BAznk3
Zf3p00EAs0ptsQeMHUCzOuO7cyNHQLkBSRGvSpNAAAAAAAAAFEAAAAAAAAAiQIkTAABQ
BAAAEAMAANYAAAAwAAAAAAAAAAAA8D9kDAID6QAAAAAAAAAAAAAAAAAAAAAAs18T2LBA
NLSZZv3p00EAmqXYmSiMHUCLx874dSNHQKhiTPDxSpNAAAAAAAAAFEAAAAAAAAAiQGsX
AADNBAAANgMAANYAAAAxAAAAAAAAAAAA8D9kDAID5AAAAAAAAAAAAAAAAAAAAAAAEoQT
3rBAfov2Z/3p00EAwL8dYEmMHUAc3QA4eCNHQMBUOk5ATJNAAAAAAAAAFEAAAAAAAAAi
QIoTAADLBAAAfAMAAN8AAAAyAAAAAAAAAAAA8D9kDAID5QAAAAAAAAAAAAAAAAAAAAAA
eLMS47BAXD86af3p00EAbW/UdGSMHUDKHv3IeiNHQAwtt6AmT5NAAAAAAAAAFEAAAAAA
AAAiQIoTAACbBAAAVAMAAOYAAAAsAAAAMzMzMzMz7z9kDAID5wAAAAAAAAAAAAAAAAAA
AAAAu5cT6LBA1olkav3p00EAv5Nl3oKMHUAo8mCyfCNHQLrEdpYeU5NAAAAAAAAAFEAA
AAAAAAAiQIkTAABPBAAAEAMAAOQAAAAyAAAAMzMzMzMz7z9kDAID6AAAAAAAAAAAAAAA
AAAAAAAAchgU7bBA6VaHa/3p00EAIhxsoJ+MHUBUNOGTfiNHQK1KfXrGVpNAAAAAAAAA
FEAAAAAAAAAiQIcTAAAiBAAA1wIAANsAAAAxAAAAAAAAAAAA8D9kDAID6AAAAAAAAAAA
AAAAAAAAAAAAoj8U8rBAHJPEbP3p00EAYSwQJruMHUBLK4DegCNHQKIFFkU6WZNAAAAA
AAAAFEAAAAAAAAAiQIUTAABhBAAAJQMAANUAAAAwAAAAAAAAAAAA8D9kDAID5wAAAAAA
AAAAAAAAAAAAAAAAxksT97BAYygebv3p00EAFJFWp9mMHUDJb+MygyNHQDXLAywPW5NA
AAAAAAAAFEAAAAAAAAAiQIQTAACqBAAAYQMAANQAAAAxAAAAAAAAAAAA8D9kDAID5QAA
AAAAAAAAAAAAAAAAAAAALh4S/LBAf71db/3p00EA0X87nfWMHUAPEehMhSNHQExQfGCw
XZNAAAAAAAAAFEAAAAAAAAAiQIwTAAA/BAAA+wIAAM8AAAAuAAAAAAAAAAAA8D9kDAID
4QAAAAAAAAAAAAAAAAAAAAAAy58TAbFAdaWkcP3p00EA7ifr2w6NHUB82xKohyNHQPgE
1NApYZNAAAAAAAAAFEAAAAAAAAAiQGkXAABCBAAAiQIAAMsAAAAoAAAAMzMzMzMz7z9k
DAID4gAAAAAAAAAAAAAAAAAAAAAASZsSB7FArk/kcf3p00EAJgVSNSiNHUBwl63GiSNH
QNpgJMouZJNAAAAAAAAAFEAAAAAAAAAiQHYXAAALBAAAQgIAAL4AAAAoAAAAAAAAAAAA
8D9kDAID3gAAAAAAAAAAAAAAAAAAAAAA/z4TDbFAP0Uoc/3p00EAqauILD2NHUD2C9gm
jCNHQDIJqhkEZ5NAAAAAAAAAFEAAAAAAAAAiQJ4PAAD2AwAA5QIAALsAAAAnAAAAAAAA
AAAA8D9kDAID2gAAAAAAAAAAAAAAAAAAAAAAEDsTEbFAJxuEdP3p00EA6AS9gVSNHUC2
BDGIjiNHQDmvyg48bJNAAAAAAAAAFEAAAAAAAAAiQH0TAAAjBAAA2gIAAL0AAAAnAAAA
AAAAAAAA8D9kDAID3AAAAAAAAAAAAAAAAAAAAAAAVRZZFrFAWkUEdv3p00EAJhba1HGN
HUA6vtH0kCNHQKaJFZgedZNAAAAAAAAAFEAAAAAAAAAiQI8TAACnBAAAXgMAAMUAAAAn
AAAAAAAAAAAA8D9kDAID2wAAAAAAAAAAAAAAAAAAAAAA19gRG7FA0LQ7d/3p00EANTtd
L4iNHUDYNFAxkyNHQLuiisxuf5NAAAAAAAAAFEAAAAAAAAAiQIcTAADrAwAAkwIAAMsA
AAAlAAAAAAAAAAAA8D9kDAID3gAAAAAAAAAAAAAAAAAAAAAA74wSILFANoymeP3p00EA
tsN7DKSNHUArRzyslSNHQC5DHxyLh5NAAAAAAAAAFEAAAAAAAAAiQHUXAACWBAAA8AIA
AMUAAAAnAAAAAAAAAAAA8D9kDAID2QAAAAAAAAAAAAAAAAAAAAAAEp8TJrFAc47kef3p
00EANQo5LbqNHUAjKEvslyNHQAD/0ozni5NAAAAAAAAAFEAAAAAAAAAiQIQTAADrAwAA
kgIAAL4AAAAlAAAAAAAAAAAA8D9kDAID1QAAAAAAAAAAAAAAAAAAAAAAsFUSK7FA0kk8
e/3p00EA3JeOJdGNHUBSa8tCmiNHQO+2t+2JjZNAAAAAAAAAFEAAAAAAAAAiQG4XAAAR
BAAASwIAALUAAAAjAAAAAAAAAAAA8D9kDAID1AAAAAAAAAAAAAAAAAAAAAAA9Q8SMbFA
HAaxfP3p00EAoEMSruaNHUBX6r/bnCNHQAYwTfbujZNAAAAAAAAAFEAAAAAAAAAiQHUX
AAA9BAAAgQIAAK4AAAAfAAAAAAAAAAAA8D9kDAID0QAAAAAAAAAAAAAAAAAAAAAA9fIT
N7FA6l1Zfv3p00EA8muY9f+NHUC2/2OmnyNHQPhjWaXhjZNAAAAAAAAAJEAImRv8WA0i
QGcXAAC0BAAAFwMAAK8AAAAiAAAAzczMzMzM7D9kDAIDygAAAAAAAAAAAAAAAAAAAAAA
AP4RPbFAE3buf/3p00EAyaik0hiOHUDfb0E8oiNHQA6PeSZgj5NAAAAAAAAAFEAAAAAA
AAAiQHIXAAB1BAAAyAIAAK0AAAAlAAAAAAAAAAAA8D9kDAIDyAAAAAAAAAAAAAAAAAAA
AAAACwcSQ7FAl2t4gf3p00EA/h4fpC+OHUCqLALapCNHQAwX41Lyk5NAAAAAAAAAFEAA
AAAAAAAiQIgTAABYBAAAGwMAALAAAAAiAAAAAAAAAAAA8D9kDAIDywAAAAAAAAAAAAAA
AAAAAAAAoBcSSLFAwVYHg/3p00EAA6yfG0uOHUCMZY42pyNHQGFGpOpdmZNAAAAAAAAA
FEAAAAAAAAAiQHIXAABxBAAAwgIAALEAAAAlAAAAAAAAAAAA8D9kDAIDyAAAAAAAAAAA
AAAAAAAAAAAAr80STrFAaLF3hP3p00EACn7fw2SOHUASPL4/qSNHQCsUGfMTnZNAAAAA
AAAAFEAAAAAAAAAiQFUbAAD+AwAA+gEAAKYAAAAiAAAAAAAAAAAA8D9kDAIDwgAAAAAA
AAAAAAAAAAAAAAAAfjYSVbFAQ7Q0hv3p00EAz3jelX6OHUAwlRz9qyNHQLjn7DH+n5NA
AAAAAAAAFEAAAAAAAAAiQHEXAACwBAAAEQMAAKYAAAAjAAAAmZmZmZmZ7T9kDAIDvwAA
AAAAAAAAAAAAAAAAAAAASdUSW7FAzerJh/3p00EAU8WHk5aOHUBwshl3riNHQA7AH0LW
o5NAAAAAAAAAFEAAAAAAAAAiQIkTAABJBAAABwMAAKgAAAAmAAAAMzMzMzMz7z9kDAID
wQAAAAAAAAAAAAAAAAAAAAAAFVUTYLFArEVUif3p00EAD3HeArCOHUBs1Qu+sCNHQEdg
4eSZqJNAAAAAAAAAFEAAAAAAAAAiQGsXAAAzBAAAdQIAAKkAAAAnAAAAAAAAAAAA8D9k
DAIDwAAAAAAAAAAAAAAAAAAAAAAAKxcSZrFA95Xyiv3p00EAdPw/08uOHUA5H/wTsyNH
QHiHGQeDrZNAAAAAAAAAFEAAAAAAAAAiQHMXAAByBAAAwwIAAKgAAAAoAAAAAAAAAAAA
8D9kDAIDvgAAAAAAAAAAAAAAAAAAAAAAHw0TbLFAvjp7jP3p00EAodTK7eaOHUDYCYdl
tSNHQGdtVoL0sZNAAAAAAAAAFEAAAAAAAAAiQIkTAABfBAAAIwMAALEAAAArAAAAAAAA
AAAA8D9kDAIDwwAAAAAAAAAAAAAAAAAAAAAAWI8TcbFA9K7Tjf3p00EA0o7h4f6OHUCI
Y6+PtyNHQJHYHpBQtpNAAAAAAAAAFEAAAAAAAAAiQIcTAAD5AwAApAIAALYAAAAoAAAA
AAAAAAAA8D9kDAIDxgAAAAAAAAAAAAAAAAAAAAAAl+UTdrFAqagjj/3p00EApkEMthaP
HUCQxiu7uSNHQC4m/MaHu5NAAAAAAAAAFEAAAAAAAAAiQIsTAAD4AwAAogIAALoAAAAo
AAAAAAAAAAAA8D9kDAIDxQAAAAAAAAAAAAAAAAAAAAAAcjMUe7FAiaqWkP3p00EATCuC
MTGPHUBdCUUuvCNHQCAxfrSGwZNAAAAAAAAAFEAAAAAAAAAiQIQTAAByBAAAMwMAAL4A
AAAmAAAAAAAAAAAA8D9kDAIDyAAAAAAAAAAAAAAAAAAAAAAAo5ETgLFAJwQNkv3p00EA
uw+AVEyPHUAIl8aiviNHQBg0A2Ykx5NAAAAAAAAAFEAAAAAAAAAiQGwXAACBBAAA1wIA
AL4AAAAnAAAAAAAAAAAA8D9kDAIDxgAAAAAAAAAAAAAAAAAAAAAAy6AShrFAxsmDk/3p
00EAdAiqumOPHUAesI9nwSNHQKT0lrJMy5NAAAAAAAAAFEAAAAAAAAAiQHEXAACMBAAA
5AIAAL8AAAAmAAAAAAAAAAAA8D9kDAIDxgAAAAAAAAAAAAAAAAAAAAAANhsTjLFAcdbt
lP3p00EAKccwJ3qPHUC3bosnxCNHQMj8DGKCzZNAAAAAAAAAFEAAAAAAAAAiQHIXAAB2
BAAAyQIAAMIAAAAjAAAAAAAAAAAA8D9kDAIDygAAAAAAAAAAAAAAAAAAAAAAi9wTkrFA
MDg3lv3p00EAbKPGpI2PHUBGyNnBxiNHQDI0oHWPzpNAAAAAAAAAFEAAAAAAAAAiQIwT
AAAdBAAA0AIAAMYAAAAfAAAAAAAAAAAA8D9kDAIDywAAAAAAAAAAAAAAAAAAAAAAwAUV
l7FA592Sl/3p00EAlXVAoJaPHUAd0lj3ySNHQPOWJ89tz5NAAAAAAAAAFEAAAAAAAAAi
QGoXAABhBAAArwIAAMYAAAAQAAAAAAAAAAAA8D9kDAIDyAAAAAAAAAAAAAAAAAAAAAAA
TfYTnbFAIEn4mP3p00EAbxvYRJaPHUB2GLhjzSNHQOA0Qefb0JNAAAAAAAAAFEAAAAAA
AAAiQHIXAACLBAAA4gIAAMoAAAACAAAAAAAAAAAA8D9kDAIDyQAAAAAAAAAAAAAAAAAA
AAAAhzIUo7FA6V1cmv3p00EAPiAM8YyPHUAlF8az0CNHQK33JCWR05NAAAAAAAAAFEAA
AAAAAAAiQGwXAACGBAAA3QIAAMoAAABcAQAAAAAAAAAA8D9kDAIDygAAAAAAAAABAAAA
AAAAAAAAS60TqbFAucW5m/3p00EAvcGlynyPHUB4kYm10yNHQFUgN77b15NAAAAAAAAA
FEAAAAAAAAAiQHAXAABmBAAAtAIAAMYAAABPAQAAAAAAAAAA8D9kDAIDxgAAAAAAAAAB
AAAAAAAAAAAAGXMTr7FAEuETnf3p00EAnMVIGWmPHUAgkPp/1iNHQJhXUwM83ZNAAAAA
AAAAFEAAAAAAAAAiQIUTAABWBAAAGAMAAMYAAABKAQAAAAAAAAAA8D9kDAIDyAAAAAAA
AAAAAAAAAAAAAAAA5+MStLFA0a9Wnv3p00EACOcJKFOPHUCpADXm2CNHQENJrIAi4pNA
AAAAAAAAFEAAAAAAAAAiQIoTAAAOBAAAvgIAAMcAAAA9AQAAAAAAAAAA8D9kDAIDyQAA
AAAAAAAAAAAAAAAAAAAAnKITubFA8oKVn/3p00EAxxZXUzWPHUB59I1z2iNHQAzbEdl0
5ZNAAAAAAAAAFEAAAAAAAAAiQIkTAAD9AwAAqQIAAMcAAAAuAQAAAAAAAAAA8D9kDAID
xgAAAAAAAAAAAAAAAAAAAAAA1A0UvrFA3CkEof3p00EA12qcgRGPHUDGtpTS2yNHQGpd
b6Se55NAAAAAAAAAFEAAAAAAAAAiQGUXAAB9BAAA0wIAAMMAAAAjAQAAAAAAAAAA8D9k
DAIDxgAAAAAAAAAAAAAAAAAAAAAA/MYTxLFAwZldov3p00EAPK0kbO+OHUBX96Cn3CNH
QDLkx5hP6ZNAAAAAAAAAFEAAAAAAAAAiQHUXAAAPBAAARwIAALcAAAAXAQAAAAAAAAAA
8D9kDAIDxQAAAAAAAAAAAAAAAAAAAAAAEeMRyrFAVEPbo/3p00EAdaNW7MqOHUCDcM1v
3SNHQKC+pniw6pNAAAAAAAAAJEAAAAAAAAAiQHAXAABPBAAAmAIAALAAAAATAQAAZmZm
ZmZm7j9kDAIDxAAAAAAAAAAAAAAAAAAAAAAAmloS0LFAaNBzpf3p00EAQJpoH6OOHUCu
Mfq43SNHQEuChdiV65NAAAAAAAAAFEAAAAAAAAAiQHAXAACUBAAA7gIAALEAAAARAQAA
MzMzMzMz7z9kDAIDwwAAAAAAAAAAAAAAAAAAAAAA+DUS1rFAQ3YDp/3p00EA2Bl3cXyO
HUA/3x3s3CNHQMjwle3E65NAAAAAAAAAFEAAAAAAAAAiQHIXAACPBAAA6AIAALUAAAAO
AQAAAAAAAAAA8D9kDAIDwwAAAAAAAAAAAAAAAAAAAAAAct8S3LFAvqKMqP3p00EA1kZb
RVWOHUCDEUo83CNHQLRoqoDR65NAAAAAAAAAFEAAAAAAAAAiQHEXAACVBAAA7wIAALkA
AAAJAQAAAAAAAAAA8D9kDAIDwwAAAAAAAAAAAAAAAAAAAAAABDoT4rFADNwRqv3p00EA
VzoZDS2OHUAiT9kO3CNHQBrBLlZS7JNAAAAAAAAAFEAAAAAAAAAiQGsXAACdBAAA+wIA
ALwAAAAMAQAAMzMzMzMz7z9kDAIDxAAAAAAAAAAAAAAAAAAAAAAAesIS6LFAkrCCq/3p
00EAKx4n+wWOHUB9/bPz2yNHQNb9stCc7ZNAAAAAAAAAFEAAAAAAAAAiQHQXAAB7BAAA
zgIAAL4AAAAPAQAAAAAAAAAA8D9kDAIDxAAAAAAAAAAAAAAAAAAAAAAAVBcU7rFA4vHY
rP3p00EAAGZ/sd+NHUARG8PU2yNHQD4sUvJF8JNAAAAAAAAAFEAAAAAAAAAiQIcTAABk
BAAAJwMAAMwAAAAOAQAAAAAAAAAA8D9kDAIDxAAAAAAAAAAAAAAAAAAAAAAA4A8T87FA
QjQhrv3p00EACamVSrmNHUCwEfBo2yNHQPyuv3Jn9JNAAAAAAAAAFEAAAAAAAAAiQIoT
AABwBAAAMAMAANYAAAAOAQAAAAAAAAAA8D9kDAIDxgAAAAAAAAAAAAAAAAAAAAAAUdYT
+LFAN7J1r/3p00EAKhRFIJCNHUAx3jrd2yNHQFKba/AV+ZNAAAAAAAAAFEAAAAAAAAAi
QIcTAADBBAAAdAMAAN4AAAATAQAAAAAAAAAA8D9kDAIDygAAAAAAAAAAAAAAAAAAAAAA
3lkT/bFAiqmksP3p00EAG3UOFmuNHUDluCg03CNHQAxh7ucR/ZNAAAAAAAAAFEAAAAAA
AAAiQIkTAABFBAAAAgMAAOAAAAATAQAAAAAAAAAA8D9kDAIDzAAAAAAAAAAAAAAAAAAA
AAAAuyoUArJAcaLTsf3p00EAI/PVQ0aNHUAB/jye3CNHQCrpC4IbAJRAAAAAAAAAFEAA
AAAAAAAiQIYTAABBBAAA/wIAAN4AAAAZAQAAAAAAAAAA8D9kDAID0AAAAAAAAAAAAAAA
AAAAAAAA3A8UB7JA53cJs/3p00EAlXVpUCKNHUDrcgei3SNHQJ6+MS1JA5RAAAAAAAAA
FEAAAAAAAAAiQIkTAABVBAAAFwMAAN0AAAAfAQAAAAAAAAAA8D9kDAID1AAAAAAAAAAA
AAAAAAAAAAAAVkYXDLJAEjJOtP3p00EAN9F0y/2MHUDOCEn03iNHQK4KG40SB5RAAAAA
AAAAFEAAAAAAAAAiQIMTAACJBAAARgMAAN0AAAAjAQAAAAAAAAAA8D9kDAID1QAAAAAA
AAAAAAAAAAAAAAAAA5QSEbJA9MCJtf3p00EAfhBCdtqMHUDZQZBK4CNHQIDcm0YxC5RA
AAAAAAAAFEAAAAAAAAAiQIsTAABsBAAALQMAAN0AAAAlAQAAAAAAAAAA8D9kDAID2AAA
AAAAAAAAAAAAAAAAAAAAqboTFrJAPD2ftv3p00EA55h1+rqMHUA8l0F34SNHQFauGV12
D5RAAAAAAAAAFEAAAAAAAAAiQKEPAADuAwAA3gIAAOAAAAAlAQAAAAAAAAAA8D9kDAID
3QAAAAAAAAAAAAAAAAAAAAAA3c0TGrJAqSPPt/3p00EAevNVYJeMHUCtPT9+4iNHQIM+
HO8zE5RAAAAAAAAAFEAAAAAAAAAiQI4TAABNBAAADAMAAOIAAAAjAQAAAAAAAAAA8D9k
DAID3wAAAAAAAAAAAAAAAAAAAAAA3XdMH7JA9av+uP3p00EAD1Xq+XaMHUCBC98M5CNH
QOSxWov7FZRAAAAAAAAAFEAAAAAAAAAiQHsTAABABAAA/gIAANwAAAAlAQAAAAAAAAAA
8D9kDAID3gAAAAAAAAAAAAAAAAAAAAAA/fYRJLJATTRTuv3p00EA+MYGm06MHUAUvLHO
5CNHQPhlFkYmGZRAAAAAAAAAFEAAAAAAAAAiQIUTAAC8BAAAcAMAANwAAAAcAQAAMzMz
MzMz7z9kDAID4gAAAAAAAAAAAAAAAAAAAAAAzFsRKbJA4u+fu/3p00EAygywKyaMHUD9
5ESI5CNHQJz3/kiqHZRAAAAAAAAAJEAAAAAAAAAiQJATAACmBAAAXQMAANwAAAAMAQAA
zczMzMzM7D9kDAID5QAAAAAAAAAAAAAAAAAAAAAA2XkTLrJAZkrbvP3p00EA6inkdv+L
HUApukA05CNHQLJxhYUII5RAAAAAAAAAFEAAAAAAAAAiQIkTAAB1BAAANQMAAOAAAAAI
AQAAZmZmZmZm7j9kDAID5gAAAAAAAAAAAAAAAAAAAAAAx7cTM7JADMoovv3p00EAYKjP
ddeLHUBa3CE64yNHQDCASuMZKJRAAAAAAAAAFEAAAAAAAAAiQIETAADEBAAAdgMAAOIA
AAD/AAAAAAAAAAAA8D9kDAID5wAAAAAAAAAAAAAAAAAAAAAAaOoROLJAd9xev/3p00EA
ruaEMLKLHUBJ6Bs+4iNHQOC6bIPxK5RAAAAAAAAAFEAAAAAAAAAiQIoTAAB3BAAANwMA
AOQAAAD9AAAAMzMzMzMz7z9kDAID5gAAAAAAAAAAAAAAAAAAAAAA7iMTPbJARDRtwP3p
00EAYUSgw5KLHUBbnc0S4SNHQH72ZhhoLpRAAAAAAAAAFEAAAAAAAAAiQKUPAADsAwAA
3AIAAOUAAAD9AAAAAAAAAAAA8D9kDAID6AAAAAAAAAAAAAAAAAAAAAAAmfATQbJAwQR4
wf3p00EAjIz/JXSLHUCOJHPF3yNHQHOx5rPaL5RAAAAAAAAAFEAAAAAAAAAiQJAPAADp
AwAA2gIAAOcAAAD5AAAAAAAAAAAA8D9kDAID6wAAAAAAAAAAAAAAAAAAAAAAdy0RRbJA
Mz66wv3p00EAk+hDq1CLHUD3I6Px3SNHQFjYx6egMJRAAAAAAAAAFEAAAAAAAAAiQIET
AAC8BAAAcAMAAOoAAAD2AAAAAAAAAAAA8D9kDAID7QAAAAAAAAAAAAAAAAAAAAAAt5gP
SrJAS7vlw/3p00EAq+NtMC2LHUAlwEy13CNHQL4T2wz/MZRAAAAAAAAAFEAAAAAAAAAi
QI0TAABiBAAAJQMAAOcAAAD6AAAAAAAAAAAA8D9kDAID7AAAAAAAAAAAAAAAAAAAAAAA
c9kQT7JA67Ixxf3p00EA6rGbMwWLHUDB1NiJ2yNHQJpaA2y7NJRAAAAAAAAAFEAAAAAA
AAAiQIgTAADXBAAAhgMAAOcAAAD7AAAAAAAAAAAA8D9kDAID7gAAAAAAAAAAAAAAAAAA
AAAAbF4RVLJASWhsxv3p00EAvUE0leCKHUDbs/Yn2iNHQCm0hUYsOJRAAAAAAAAAFEAA
AAAAAAAiQIkTAACUBAAATwMAAOYAAAD5AAAAAAAAAAAA8D9kDAID7AAAAAAAAAAAAAAA
AAAAAAAA2xIRWbJAmM6rx/3p00EAYjGQ9LqKHUB0bW/Y2CNHQHLHj+A6O5RAAAAAAAAA
FEAAAAAAAAAiQIcTAACmBAAAXgMAAOYAAAD6AAAAAAAAAAAA8D9kDAID7gAAAAAAAAAA
AAAAAAAAAAAAmSkRXrJALvThyP3p00EA1an1wJWKHUAZbyq11yNHQHBU5g+xPZRAAAAA
AAAAFEAAAAAAAAAiQIgTAACGBAAAQwMAAOcAAAD7AAAAAAAAAAAA8D9kDAID7wAAAAAA
AAAAAAAAAAAAAAAAgxMRY7JANg8dyv3p00EACXCoMnCKHUDkkrZ41iNHQDzPwnOGQJRA
AAAAAAAAFEAAAAAAAAAiQIgTAACbBAAAVAMAAOcAAAD5AAAAAAAAAAAA8D9kDAID7gAA
AAAAAAAAAAAAAAAAAAAA1a4RaLJAtKdQy/3p00EAO4rZR0qKHUCA2J2X1SNHQJ6wx/e2
RJRAAAAAAAAAFEAAAAAAAAAiQIoTAACABAAAPgMAAOgAAAD9AAAAAAAAAAAA8D9kDAID
7gAAAAAAAAAAAAAAAAAAAAAA6ZoRbbJA6ECHzP3p00EA8x49IiSKHUCOY7us1CNHQCQl
eWSTSZRAAAAAAAAAFEAAAAAAAAAiQIYTAACKBAAARgMAAOcAAAD9AAAAAAAAAAAA8D9k
DAID7gAAAAAAAAAAAAAAAAAAAAAADtgRcrJAvDy+zf3p00EAIr/ARf2JHUA84zwG1CNH
QM4+WpS8TZRAAAAAAAAAFEAAAAAAAAAiQIcTAACJBAAARgMAAOcAAAAAAQAAAAAAAAAA
8D9kDAID7QAAAAAAAAAAAAAAAAAAAAAAWKwRd7JAx5Pxzv3p00EAhVhM1NaJHUD7/l9y
0yNHQKQugqjdUJRAAAAAAAAAFEAAAAAAAAAiQIgTAAB5BAAAOAMAAOYAAAACAQAAAAAA
AAAA8D9kDAID7QAAAAAAAAAAAAAAAAAAAAAABtYRfLJAbmgq0P3p00EAiWqteK+JHUB2
XBUJ0yNHQPik7lWCU5RAAAAAAAAAFEAAAAAAAAAiQIMTAACLBAAARwMAAOYAAAAGAQAA
AAAAAAAA8D9kDAID7AAAAAAAAAAAAAAAAAAAAAAA3esQgbJA/xpc0f3p00EAL2DfX4mJ
HUAy1Qhy0iNHQHdBy9AWVpRAAAAAAAAAFEAAAAAAAAAiQIwTAABvBAAAMAMAAOUAAAAE
AQAAAAAAAAAA8D9kDAID6QAAAAAAAAAAAAAAAAAAAAAAg9wRhrJAxByS0v3p00EAc0DI
d2KJHUB6WesA0iNHQBK3zRq7WJRAAAAAAAAAFEAAAAAAAAAiQIYTAAB/BAAAPQMAAOYA
AAAEAQAAAAAAAAAA8D9kDAID6gAAAAAAAAAAAAAAAAAAAAAAZAMRi7JAe2/H0/3p00EA
YrA8XzuJHUAJnmDt0SNHQBJqGHBXW5RAAAAAAAAAFEAAAAAAAAAiQIcTAAB7BAAAOgMA
AOUAAAALAQAAAAAAAAAA8D9kDAID6AAAAAAAAAAAAAAAAAAAAAAAV3oRkLJA1W0A1f3p
00EA4BGoLRSJHUDCeWaX0SNHQNhwNrUfXpRAAAAAAAAAFEAAAAAAAAAiQIUTAACDBAAA
QQMAAOQAAAAJAQAAAAAAAAAA8D9kDAID6AAAAAAAAAAAAAAAAAAAAAAAPsoQlbJAH6c1
1v3p00EA4O+mme2IHUDLU5BS0SNHQGKx41oFYZRAAAAAAAAAFEAAAAAAAAAiQIsTAABv
BAAAMAMAAOIAAAAMAQAAAAAAAAAA8D9kDAID5wAAAAAAAAAAAAAAAAAAAAAAGokQmrJA
nyhz1/3p00EA/qw78MWIHUBEWtxc0SNHQPCsUtyUY5RAAAAAAAAAFEAAAAAAAAAiQIQT
AACMBAAASAMAAOMAAAAOAQAAAAAAAAAA8D9kDAID5wAAAAAAAAAAAAAAAAAAAAAAb2YQ
n7JAt4my2P3p00EA8BO7o56IHUA9j/0E0iNHQNo3CguNZpRAAAAAAAAAJEAAAAAAAAAi
QI0TAACWBAAAUAMAAOMAAAAZAQAAZmZmZmZm7j9kDAID5wAAAAAAAAAAAAAAAAAAAAAA
TYARpLJAmWH32f3p00EA7AWA9HeIHUBEfyor0yNHQFVOOZuQapRAAAAAAAAAFEAAAAAA
AAAiQIYTAACwBAAAZgMAAOUAAAAhAQAAMzMzMzMz7z9kDAID6AAAAAAAAAAAAAAAAAAA
AAAAoGsXqbJAo0sz2/3p00EAAYQAIVOIHUDoBi571CNHQLyO8j6mbpRAAAAAAAAAFEAA
AAAAAAAiQJATAACRBAAATAMAAOYAAAAjAQAAZmZmZmZm7j9kDAID6AAAAAAAAAAAAAAA
AAAAAAAAtJETrrJAfFVf3P3p00EAGaMGMDKIHUCCeFsC1iNHQCbY9lXycZRAAAAAAAAA
FEAAAAAAAAAiQGQXAABJBAAAkgIAAN4AAAAhAQAAAAAAAAAA8D9kDAID5AAAAAAAAAAA
AAAAAAAAAAAANZQStLJA7TV/3f3p00EAgE57qhKIHUDIGLxU1yNHQG40triEdJRAAAAA
AAAAFEAAAAAAAAAiQKEPAAAEBAAA8AIAANsAAAAnAQAAAAAAAAAA8D9kDAID5gAAAAAA
AAAAAAAAAAAAAAAAQX8RuLJACCKi3v3p00EA7K3lefCHHUCoSw8d2CNHQN4ZJ5xnd5RA
AAAAAAAAFEAAAAAAAAAiQJ8PAAAOBAAA+AIAAN0AAAAnAQAAAAAAAAAA8D9kDAID6AAA
AAAAAAAAAAAAAAAAAAAAaeIRvLJAs6+83/3p00EAK6IPCM+HHUAUmBTu2CNHQFcy9GBf
fZRAAAAAAAAAFEAAAAAAAAAiQKEPAAD8AwAA6QIAAOEAAAAlAQAAAAAAAAAA8D9kDAID
6gAAAAAAAAAAAAAAAAAAAAAA4NYRwLJAlrnU4P3p00EA3/Wjd66HHUDhWqfi2SNHQErj
BTFJhpRAAAAAAAAAFEAAAAAAAAAiQIATAADxAwAAmgIAAN4AAAApAQAAAAAAAAAA8D9k
DAID6AAAAAAAAAAAAAAAAAAAAAAA3GQQxbJAcjII4v3p00EAqmMTFJCHHUAT5hKx2yNH
QGLnxhCajpRAAAAAAAAAFEAAAAAAAAAiQJATAAA6BAAA9AIAANYAAAAyAQAAAAAAAAAA
8D9kDAID5wAAAAAAAAAAAAAAAAAAAAAAu+4RyrJAZI864/3p00EAjZpk0HeHHUBJvXz6
3SNHQKKbqwiHlJRAAAAAAAAAFEAAAAAAAAAiQIcTAAAdBAAA0QIAANMAAABBAQAAAAAA
AAAA8D9kDAID5QAAAAAAAAAAAAAAAAAAAAAAeokRz7JA0Hh+5P3p00EAfg7/TWiHHUDM
q6L04CNHQMrlol6amJRAAAAAAAAAFEAAAAAAAAAiQIYTAABVBAAAFwMAANQAAABPAQAA
AAAAAAAA8D9kDAID5QAAAAAAAAABAAAAAAAAAAAAN24R1LJAUdmo5f3p00EAiytaqV6H
HUA/71vh4yNHQJSxkDD7mpRAAAAAAAAAFEAAAAAAAAAiQIkTAAAJBAAAtwIAANgAAABZ
AQAAAAAAAAAA8D9kDAID4wAAAAAAAAAAAAAAAAAAAAAASzsR2bJAXjr95v3p00EAZRRe
OluHHUA0GMFg5yNHQD3DegJPnZRAAAAAAAAAFEAAAAAAAAAiQGwXAACoBAAACAMAANkA
AABnAQAAAAAAAAAA8D9kDAID4QAAAAAAAAAAAAAAAAAAAAAAg4cR37JAgSg36P3p00EA
dVymhFyHHUBuPiGi6iNHQFR7W9BloZRAAAAAAAAAFEAAAAAAAAAiQI8TAABSBAAAEgMA
ANsAAAABAAAAAAAAAAAA8D9kDAID4AAAAAAAAAAAAAAAAAAAAAAA6C0S5LJAlI9z6f3p
00EAfSLEIWGHHUBpJ4Tm7SNHQIjFtpWqp5RAAAAAAAAAFEAAAAAAAAAiQIQTAABeBAAA
IgMAANoAAAAEAAAAAAAAAAAA8D9kDAID3gAAAAAAAAAAAAAAAAAAAAAAQ/4R6bJANdCi
6v3p00EA84aJ32eHHUCVWPr78CNHQBRzZUQBsJRAAAAAAAAAFEAAAAAAAAAiQIgTAAAq
BAAA4QIAANgAAAAHAAAAAAAAAAAA8D9kDAID3QAAAAAAAAAAAAAAAAAAAAAAc4MR7rJA
9qvs6/3p00EAAAt6ZW6HHUBqXwNZ9CNHQPmqNGXhuJRAAAAAAAAAFEAAAAAAAAAiQIIT
AACGBAAAQwMAANoAAAAGAAAAAAAAAAAA8D9kDAID4AAAAAAAAAAAAAAAAAAAAAAAPzoR
87JAqYNA7f3p00EAsw09N3SHHUDW98zD9yNHQB5JfW0bv5RAAAAAAAAAFEAAAAAAAAAi
QHMXAACVBAAA7wIAAM8AAAAGAAAAAAAAAAAA8D9kDAID2AAAAAAAAAAAAAAAAAAAAAAA
AIoR+bJAwV6r7v3p00EAPk3xFnOHHUAxs2JH+yNHQIxc/fexwZRAAAAAAAAAFEAAAAAA
AAAiQFAbAACqBAAAkwIAAMAAAAAAAAAAMzMzMzMz7z9kDAID0QAAAAAAAAAAAAAAAAAA
AAAABp0QALNAxjQh8P3p00EArGn/e2+HHUAH5Ce4/iNHQDXAh0hrwpRAAAAAAAAAFEAA
AAAAAAAiQHUXAACVBAAA7wIAALgAAABfAQAAAAAAAAAA8D9kDAID0QAAAAAAAAAAAAAA
AAAAAAAAttgRBrNA+g198f3p00EA7l7lOGOHHUCMmMaaASRHQA6300A4w5RAAAAAAAAA
FEAAAAAAAAAiQIcTAAAUBAAAxQIAALQAAABUAQAAAAAAAAAA8D9kDAID0AAAAAAAAAAA
AAAAAAAAAAAApS0SC7NAMa/38v3p00EAGQU3/VGHHUBmeZN/BCRHQGSDrpc/xZRAAAAA
AAAAFEAAAAAAAAAiQHEXAABRBAAAmgIAALIAAABJAQAAAAAAAAAA8D9kDAIDzQAAAAAA
AAAAAAAAAAAAAAAAQIISEbNASR2T9P3p00EAHV7Jbz2HHUBlHPl/ByRHQMsuDNlLyZRA
AAAAAAAAFEAAAAAAAAAiQG4XAACgBAAA/gIAALAAAABAAQAAAAAAAAAA8D9kDAIDzAAA
AAAAAAAAAAAAAAAAAAAAjscQF7NAe3D89f3p00EANl1TmCiHHUB+Btf4CSRHQOqtG913
zpRAAAAAAAAAFEAAAAAAAAAiQIITAAAOBAAAvwIAALQAAABBAQAAAAAAAAAA8D9kDAID
zQAAAAAAAAAAAAAAAAAAAAAA1m8SHLNAil+R9/3p00EAi1RbOxGHHUAFw9rRDCRHQG76
QEEK05RAAAAAAAAAFEAAAAAAAAAiQHoXAAChBAAA/gIAALgAAABEAQAAMzMzMzMz7z9k
DAIDygAAAAAAAAAAAAAAAAAAAAAAEmYSIrNAhVnr+P3p00EAvi+nU/+GHUDFfW5uDyRH
QF8O5ciL1pRAAAAAAAAAFEAAAAAAAAAiQIMTAAAHBAAAtgIAALoAAABGAQAAAAAAAAAA
8D9kDAIDyQAAAAAAAAAAAAAAAAAAAAAAtaUSJ7NAV/JT+v3p00EApCZJ2u2GHUDRSYQ+
EiRHQOr5EoBO2ZRAAAAAAAAAFEAAAAAAAAAiQIkTAAA8BAAA+AIAALoAAABBAQAAAAAA
AAAA8D9kDAIDyQAAAAAAAAAAAAAAAAAAAAAArwgSLLNAc0Gm+/3p00EA1nJzKtKGHUA9
16QMFCRHQFHgiaH125RAAAAAAAAAFEAAAAAAAAAiQIUTAAD6AwAApQIAALoAAAA0AQAA
AAAAAAAA8D9kDAIDxwAAAAAAAAAAAAAAAAAAAAAA2zERMbNA8hIn/f3p00EAvF07Oq6G
HUDJY2GCFSRHQO4OLjjt3pRAAAAAAAAAJEAAAAAAAAAiQIkTAACNBAAASQMAALwAAAAq
AQAAzczMzMzM7D9kDAIDygAAAAAAAAAAAAAAAAAAAAAAn3URNrNA3vFw/v3p00EAnSwf
qY2GHUBnt1piFiRHQNi2f8Yl4pRAAAAAAAAAJEAAAAAAAAAiQIkTAADoAwAAjwIAALwA
AAAfAQAAzczMzMzM7D9kDAIDygAAAAAAAAAAAAAAAAAAAAAAiPIRO7NACH/a//3p00EA
rew30GiGHUAdYVNwFiRHQOgzj7h85ZRAAAAAAAAAJEAAAAAAAAAiQHQXAAA5BAAAfAIA
ALYAAAAQAQAAzczMzMzM7D9kDAIDywAAAAAAAAAAAAAAAAAAAAAAsVESQbNAsL9OAf7p
00EAvHiaAkOGHUAL0Do+FiRHQDzG+0pM6JRAAAAAAAAAJEAAAAAAAAAiQOETAABXBAAA
DwMAALkAAAAMAQAAzczMzMzM7D9kDAIDzQAAAAAAAAAAAAAAAAAAAAAAksvTRrNAHhOx
Av7p00EAmVzeSx6GHUBmVnUTFiRHQMS60IOC6pRAAAAAAAAAJEAAAAAAAAAiQCQTAAA2
BAAA/QIAAL4AAAANAQAAzczMzMzM7D9kDAIDzQAAAAAAAAAAAAAAAAAAAAAA308RS7NA
SecgBP7p00EAeHkpbPiFHUBwT2V9FiRHQJb49+h+7JRAAAAAAAAAJEAAAAAAAAAiQHMX
AABgBAAArQIAALwAAAATAQAAzczMzMzM7D9kDAIDzgAAAAAAAAAAAAAAAAAAAAAAz0cR
UbNAACGaBf7p00EAd0+r2dGFHUAjGlx7FiRHQPBBT+Hk7ZRAAAAAAAAAFEAAAAAAAAAi
QHMXAABsBAAAuwIAALkAAAAWAQAAAAAAAAAA8D9kDAIDzQAAAAAAAAAAAAAAAAAAAAAA
gxYSV7NAo6cnB/7p00EAXONjG6qFHUC14TC3FiRHQPpTc1ul7pRAAAAAAAAAJEAAAAAA
AAAiQHMXAACRBAAA6gIAALUAAAAVAQAAzczMzMzM7D9kDAIDzAAAAAAAAAAAAAAAAAAA
AAAAkLkSXbNAnunFCP7p00EAnXEq+YKFHUC227KdFiRHQOROiIYw75RAAAAAAAAAJEAA
AAAAAAAiQGoXAAB9BAAA0gIAALEAAAAeAQAAZmZmZmZm7j9kDAIDywAAAAAAAAAAAAAA
AAAAAAAA4JwRY7NA8Y5bCv7p00EArz72zHmFHUBIVm97GSRHQOPXWm0f8JRAAAAAAAAA
FEAAAAAAAAAiQGIbAADyAwAA9QEAAIwAAAABAAAAMzMzMzMz7z9kDAIDxAAAAAAAAAAA
AAAAAAAAAAAAjSkUarNAvAAVDP7p00EAYegFMJ2FHUCGynBxGSRHQCpltuFm8pRAAAAA
AAAAJEAAAAAAAAAiQFsbAAAOBAAAAAIAAI8AAABfAAAAZmZmZmZm7j9kDAIDvwAAAAAA
AAAAAAAAAAAAAAAA4UAUcbNARHvYDf7p00EAP2FYFMaFHUDuclocGSRHQI4Zg11n+JRA
AAAAAAAAJEAAAAAAAAAiQHAXAAC1BAAAGAMAAK0AAABgAAAAzczMzMzM7D9kDAIDuwAA
AAAAAAAAAAAAAAAAAAAALlIUd7NA2CllD/7p00EAiVptFe2FHUAND95PGSRHQO66/z8Q
ApVAAAAAAAAAJEAAAAAAAAAiQHEXAAB6BAAAzgIAALQAAABXAAAAZmZmZmZm7j9kDAID
vAAAAAAAAAAAAAAAAAAAAAAASBUVfbNA6U/LEP7p00EA6+5G3hCGHUANLfpXGSRHQM5k
cw2DCpVAAAAAAAAAJEAAAAAAAAAiQG4XAAAaBAAAVQIAALYAAABQAAAAMzMzMzMz7z9k
DAIDuAAAAAAAAAAAAAAAAAAAAAAAvTY7g7NAJpg9Ev7p00EAIaAXCDWGHUCWZyPJGSRH
QKhsvi+PD5VAAAAAAAAAFEAAAAAAAAAiQG4XAAAvBAAAcQIAALUAAABBAAAAMzMzMzMz
7z9kDAIDtAAAAAAAAAAAAAAAAAAAAAAAwDwUibNA5/2tE/7p00EAxpjMVFOGHUDAncFg
GyRHQNRaN6H9E5VAAAAAAAAAFEAAAAAAAAAiQD4fAAAQBAAAEQIAAKgAAAArAAAAMzMz
MzMz7z9kDAIDrgAAAAAAAAAAAAAAAAAAAAAAVIsUkbNALEgtFv7p00ECxpjMVFOGHUDA
ncFgGyRHQE78fupaGJVAAAAAAAAAFEAAAAAAAAAiQAQnAAAAAAAAAAAAAAAAAAAyAAAA
AAAAAAAA8D9kDQIDrgAAAAAAAAAAAAAAAAAAAAAAawwSm7NAEOqtMv7p00EBxpjMVFOG
HUDAncFgGyRHQN9DbtlfGpVAAAAAAAAAFEAAAAAAAAAiQGhkAQAAAAAAAAAAAAAAAAAs
AAAAMzMzMzMz7z9kDQIDYQAAAAAAAAAAAAAAAAAAAAAAgbATDbRAEOqtMv7p00EAzfmC
kn6GHUByHfF2ICRHQDdzObV/G5VAAAAAAAAAFEA7thTv+fAiQAAAAABfCAAAAAAAAF4A
AAAsAAAAMzMzMzMz7z9kDAIDYQAAAAAAAAAAAAAAAAAAAAAAokMgDbRAZKTmNP7p00EA
y2xgx5+GHUBJTI00IiRHQKX4FmH7HpVAAAAAAAAAJEAAAAAAAAAiQG4XAABzBAAAxgIA
AH8AAAA2AAAAMzMzMzMz7z9kDAIDgAAAAAAAAAAAAAAAAAAAAAAAaLITE7RAGxCVNv7p
00EAioan9MGGHUB9INigIyRHQGa8rh9UJZVAAAAAAAAAFEAAAAAAAAAiQIMTAABZBAAA
HAMAAJoAAAA4AAAAAAAAAAAA8D9kDAIDmAAAAAAAAAAAAAAAAAAAAAAA/igSGLRA6a/3
N/7p00EA8LCg1uGGHUDo8jXqJCRHQKKjDRUkLZVAAAAAAAAAFEAAAAAAAAAiQIgTAAAI
BAAAtwIAAKoAAAA9AAAAAAAAAAAA8D9kDAIDowAAAAAAAAAAAAAAAAAAAAAA5xYSHbRA
CHhHOf7p00EARhqxk/+GHUD1vg1xJiRHQOjajJz/M5VAAAAAAAAAFEAAAAAAAAAiQIsT
AAD3AwAAoAIAALUAAAA+AAAAAAAAAAAA8D9kDAIDqgAAAAAAAAAAAAAAAAAAAAAAKnMT
IrRATKOtOv7p00EAT2pZMCGHHUCnFfLZJyRHQBbe9wQuOpVAAAAAAAAAFEAAAAAAAAAi
QGsXAABIBAAAkAIAALYAAAA/AAAAAAAAAAAA8D9kDAIDqwAAAAAAAAAAAAAAAAAAAAAA
Mv4RKLRAVsMJPP7p00EAknHSe0OHHUDRuNAEKSRHQKGuufa8QpVAAAAAAAAAFEAAAAAA
AAAiQHIXAAA5BAAAfQIAALoAAABAAAAAAAAAAAAA8D9kDAIDrQAAAAAAAAAAAAAAAAAA
AAAAlrASLrRAWW5WPf7p00EABhTF9WOHHUC6u4tAKiRHQKVGz0cPTJVAAAAAAAAAFEAA
AAAAAAAiQIoTAAARBAAAwQIAALwAAABAAAAAMzMzMzMz7z9kDAIDsQAAAAAAAAAAAAAA
AAAAAAAAxHYTM7RADs6ZPv7p00EAp4sqT4OHHUBlpj+EKyRHQIqDwqj3UpVAAAAAAAAA
FEAAAAAAAAAiQIQTAAD3AwAAoQIAALwAAABAAAAAZmZmZmZm7j9kDAIDswAAAAAAAAAA
AAAAAAAAAAAA8PkROLRAQwvtP/7p00EAN62F4KOHHUDuZ+/mLCRHQGNLytCzV5VAAAAA
AAAAFEAAAAAAAAAiQIsTAAApBAAA3wIAAL0AAABAAAAAMzMzMzMz7z9kDAIDtgAAAAAA
AAAAAAAAAAAAAAAA6gETPbRAfRBmQf7p00EAK3wp/seHHUA/6bFYLiRHQFVXt2fXWpVA
AAAAAAAAFEAAAAAAAAAiQGwXAACQBAAA6QIAALwAAABAAAAAMzMzMzMz7z9kDAIDxwAA
AAAAAAAAAAAAAAAAAAAAaTcSQ7RAn5PZQv7p00EA0i0lOuyHHUBfkjGHLyRHQCQRwba4
XJVAAAAAAAAAFEAAAAAAAAAiQGIbAABwBAAASQIAALcAAAA+AAAAAAAAAAAA8D9kDAID
xQAAAAAAAAAAAAAAAAAAAAAAQZwXSrRATdY7RP7p00EAKJjIFg6IHUDpVhezMCRHQL2x
2hwJXpVAAAAAAAAAFEAAAAAAAAAiQHkTAAAuBAAA6AIAALYAAABBAAAAAAAAAAAA8D9k
DAIDxgAAAAAAAAAAAAAAAAAAAAAAHw8RT7RAgBK6Rf7p00EAcbsRGDKIHUAk5lUJMiRH
QITcVxfFX5VAAAAAAAAAFEAAAAAAAAAiQHIXAAB+BAAA0gIAALQAAABAAAAAAAAAAAAA
8D9kDAIDxAAAAAAAAAAAAAAAAAAAAAAAveESVbRAa3ktR/7p00EA2gAXYFWIHUBn7wpV
MyRHQFQo6KKcY5VAAAAAAAAAFEAAAAAAAAAiQHYXAABlBAAAsgIAALUAAAA9AAAAAAAA
AAAA8D9kDAIDwwAAAAAAAAAAAAAAAAAAAAAAIJQTW7RA+gF7SP7p00EAaFURPHOIHUBr
bxfZNCRHQCTWpiRraZVAAAAAAAAAFEAAAAAAAAAiQIcTAAD4AwAAowIAALgAAAA7AAAA
AAAAAAAA8D9kDAIDwwAAAAAAAAAAAAAAAAAAAAAAhhwTYLRA7ErJSf7p00EAnwiyppCI
HUCpvh1vNiRHQFOhRopSbpVAAAAAAAAAFEAAAAAAAAAiQHEXAAD5AwAALAIAALYAAAA7
AAAAAAAAAAAA8D9kDAIDwQAAAAAAAAAAAAAAAAAAAAAAgcsTZrRAtUlPS/7p00EAEZPk
B7SIHUAtxx4oOCRHQBK+b+K3cJVAAAAAAAAAFEAAAAAAAAAiQHAXAACnBAAABwMAALcA
AAA7AAAAAAAAAAAA8D9kDAIDwwAAAAAAAAAAAAAAAAAAAAAASKUUbLRAap3CTP7p00EA
QoeGt9aIHUBV5W60OSRHQA9Ol3LbcpVAAAAAAAAAFEAAAAAAAAAiQGoXAAB5BAAAzgIA
ALkAAAA6AAAAAAAAAAAA8D9kDAIDwgAAAAAAAAAAAAAAAAAAAAAANxcTcrRArnAaTv7p
00EAlP6f2fWIHUABEzlaOyRHQJfBNYnodpVAAAAAAAAAFEAAAAAAAAAiQIYTAAAvBAAA
6AIAALsAAAA2AAAAAAAAAAAA8D9kDAIDwwAAAAAAAAAAAAAAAAAAAAAALGASd7RA8A17
T/7p00EAcmUYnxWJHUA87WgMPSRHQKoiQEBte5VAAAAAAAAAFEAAAAAAAAAiQHoXAABI
BAAAjQIAALwAAAA4AAAAAAAAAAAA8D9kDAIDwAAAAAAAAAAAAAAAAAAAAAAABmMUfbRA
yIvfUP7p00EARu8mYDSJHUDA07TaPiRHQI6DoQR9fpVAAAAAAAAAFEAAAAAAAAAiQGkX
AABDBAAAiQIAALgAAAA1AAAAAAAAAAAA8D9kDAIDvwAAAAAAAAAAAAAAAAAAAAAALxUT
g7RAR3QuUv7p00EAa9/XOVKJHUCnmDBSQCRHQLo8d9KOgJVAAAAAAAAAFEAAAAAAAAAi
QG4XAADvAwAAIAIAALMAAAA1AAAAAAAAAAAA8D9kDAIDvwAAAAAAAAAAAAAAAAAAAAAA
Dw0TibRAEoGZU/7p00EAbhm4tHKJHUCRFVLZQSRHQCR09S3RgpVAAAAAAAAAFEAAAAAA
AAAiQHEXAAA9BAAAgQIAALMAAAA3AAAAAAAAAAAA8D9kDAIDvAAAAAAAAAAAAAAAAAAA
AAAACB4Tj7RADo/9VP7p00EAUQP6NpGJHUDKltGZQyRHQDq7Y3rWhZVAAAAAAAAAFEAA
AAAAAAAiQG8XAAAzBAAAdQIAALYAAAA2AAAAAAAAAAAA8D9kDAIDuwAAAAAAAAAAAAAA
AAAAAAAAjfASlbRAsZdVVv7p00EAniGj662JHUBA0bJ5RSRHQGDoNlC3ipVAAAAAAAAA
FEAAAAAAAAAiQIUTAAAgBAAA1AIAALoAAAA2AAAAAAAAAAAA8D9kDAIDvQAAAAAAAAAA
AAAAAAAAAAAAGmwSmrRAxjWzV/7p00EA2BTiL8qJHUAgolR6RyRHQIGTQb5lkpVAAAAA
AAAAFEAAAAAAAAAiQHIXAAAwBAAAcQIAALgAAAA1AAAAAAAAAAAA8D9kDAIDuwAAAAAA
AAAAAAAAAAAAAAAAPzQToLRAnXIqWf7p00EAxbDv7+WJHUBcR8rESSRHQIYvvwP2mpVA
AAAAAAAAFEAAAAAAAAAiQHEXAABmBAAAtQIAALEAAAAwAAAAAAAAAAAA8D9kDAIDvQAA
AAAAAAAAAAAAAAAAAAAAAHETprRAK5ymWv7p00EANoEkDweKHUAzAdZ7SyRHQMAjjesb
oZVAAAAAAAAAJEAAAAAAAAAiQG4XAABtBAAAvQIAALQAAAAuAAAAZmZmZmZm7j9kDAID
vAAAAAAAAAAAAAAAAAAAAAAAbK4SrLRAXJYKXP7p00EAPjrpCCKKHUD0VcepTSRHQDYz
WH/4pJVAAAAAAAAAJEAAAAAAAAAiQIgTAAA7BAAA9wIAALcAAAAuAAAAMzMzMzMz7z9k
DAIDvgAAAAAAAAAAAAAAAAAAAAAAy0YTsbRAY6d8Xf7p00EAhXdaLD6KHUCDgc0EUCRH
QMTbvvwyqJVAAAAAAAAAFEAAAAAAAAAiQG4XAAB9BAAA0gIAAL0AAAAtAAAAAAAAAAAA
8D9kDAIDvAAAAAAAAAAAAAAAAAAAAAAAwHQSt7RA9WvJXv7p00EATwcAsFeKHUAd2uQl
UiRHQCSkMmkOq5VAAAAAAAAAFEAAAAAAAAAiQHQXAAARBAAASQIAALsAAAAuAAAAAAAA
AAAA8D9kDAIDuwAAAAAAAAAAAAAAAAAAAAAAFEEUvbRA+QcnYP7p00EAfVILlm+KHUDk
4S2UVCRHQDCxpi1FrZVAAAAAAAAAFEAAAAAAAAAiQHQXAAA7BAAAfgIAALkAAAAlAAAA
AAAAAAAA8D9kDAIDuwAAAAAAAAAAAAAAAAAAAAAArfUVw7RAYm+FYf7p00EAjIhYdYaK
HUBHJUsVVyRHQHSn4eOdr5VAAAAAAAAAFEAAAAAAAAAiQH0TAAA7BAAA+AIAALoAAAAj
AAAAAAAAAAAA8D9kDAIDvwAAAAAAAAAAAAAAAAAAAAAA6EgSyLRAIGXjYv7p00EAxRsh
YZ6KHUBIC9mGWSRHQIoeI5GSs5VAAAAAAAAAFEAAAAAAAAAiQHEXAAA/BAAAgwIAALsA
AAAnAAAAAAAAAAAA8D9kDAIDvwAAAAAAAAAAAAAAAAAAAAAAC+sSzrRAFgJAZP7p00EA
g8Pso7OKHUDhAwsgXCRHQOycctBLuZVAAAAAAAAAFEAAAAAAAAAiQHQXAAA4BAAAewIA
ALkAAAAhAAAAAAAAAAAA8D9kDAIDwAAAAAAAAAAAAAAAAAAAAAAArIoU1LRAf4qEZf7p
00EAZzhgH8mKHUB1byxsXiRHQGBE7xGNvpVAAAAAAAAAFEAAAAAAAAAiQIcTAADrAwAA
kgIAALoAAAAjAAAAAAAAAAAA8D9kDAIDvwAAAAAAAAAAAAAAAAAAAAAAIAgU2bRA3ubM
Zv7p00EAuvVqqd+KHUBxc5O5YCRHQPLRYmUhwpVAAAAAAAAAJEAAAAAAAAAiQIwTAAAA
BAAArAIAAL0AAAAmAAAAmpmZmZmZ7T9kDAIDwQAAAAAAAAAAAAAAAAAAAAAARUgV3rRA
PuAmaP7p00EA03/eo/eKHUDDeHEzYyRHQJRVXhVAxZVAAAAAAAAAFEAAAAAAAAAiQGoX
AABIBAAAkAIAAMAAAAAlAAAAAAAAAAAA8D9kDAIDwQAAAAAAAAAAAAAAAAAAAAAAvRYU
5LRAl8Fgaf7p00EA/5nnjQ+LHUCovp5XZSRHQGrAat6CyJVAAAAAAAAAFEAAAAAAAAAi
QIcTAADyAwAAmwIAAMQAAAAmAAAAAAAAAAAA8D9kDAIDwgAAAAAAAAAAAAAAAAAAAAAA
j8AT6bRAvgaTav7p00EAJSfkoCOLHUAZr6G5ZyRHQPLp0qoTy5VAAAAAAAAAFEAAAAAA
AAAiQIkTAADpAwAAjwIAAMYAAAAkAAAAZmZmZmZm7j9kDAIDwAAAAAAAAAAAAAAAAAAA
AAAA/tUT7rRA0jXja/7p00EAWO5sfziLHUCw4pFtaiRHQE5WBUUjzZVAAAAAAAAAFEAA
AAAAAAAiQGoXAABPBAAAmQIAAMQAAAAhAAAAAAAAAAAA8D9kDAIDwAAAAAAAAAAAAAAA
AAAAAAAAwLIS9LRAfzsvbf7p00EAxXoV+U+LHUB7SNPWbCRHQMNn7BhX0JVAAAAAAAAA
FEAAAAAAAAAiQF0bAAAuBAAADQIAALoAAAAmAAAAAAAAAAAA8D9kDAIDvgAAAAAAAAAA
AAAAAAAAAAAAURQU+7RAhDCXbv7p00EA2jBm2WaLHUCf4m1+byRHQOQSuEub1JVAAAAA
AAAAFEAAAAAAAAAiQDofAABkBAAAMQIAAKwAAAAfAAAAmZmZmZmZ7T9kDAIDugAAAAAA
AAAAAAAAAAAAAAAAwaoSA7VAR1slcP7p00EAFBZVYoWLHUAWucnJcSRHQI5SDJds2JVA
AAAAAAAAPkAAAAAAAAA+QHUXAACjBAAAAQMAAKwAAAAmAAAAZmZmZmZm6j9kDAIDuAAA
AAAAAAAAAAAAAAAAAAAAk/0TCbVAFD+bcf7p00EAAYteI6GLHUAWvQfXcyRHQJIpNEB8
3ZVAAAAAAAAAFEAAAAAAAAAiQGsXAAAwBAAAcQIAAK8AAAApAAAAMzMzMzMz7z9kDAID
uAAAAAAAAAAAAAAAAAAAAAAA8iMSD7VAYMchc/7p00EAXm27Hr+LHUAiLKfrdSRHQDj/
Gw0+5pVAAAAAAAAAFEC6FdR9qRIiQIoTAABoBAAAKgMAALIAAAAsAAAAmZmZmZmZ7T9k
DAIDvAAAAAAAAAAAAAAAAAAAAAAAICQTFLVAkd2odP7p00EAUP9pw92LHUDKd9wIeCRH
QIBGDyUX8ZVAAAAAAAAAFEAAAAAAAAAiQHAXAAB+BAAA0wIAALEAAAAvAAAAAAAAAAAA
8D9kDAIDuwAAAAAAAAAAAAAAAAAAAAAAw+8SGrVA+qcHdv7p00EAO0aXd/mLHUC+thru
eSRHQF9td01q/ZVAAAAAAAAAFEAAAAAAAAAiQG8XAAANBAAARQIAALIAAAAuAAAAmZmZ
mZmZ7T9kDAIDuQAAAAAAAAAAAAAAAAAAAAAAu5cTILVA8Ul3d/7p00EAG51ejxSMHUBU
5D4cfCRHQM5Y7ex8C5ZAAAAAAAAAFEAAAAAAAAAiQG0XAAA+BAAAgwIAAKcAAAAsAAAA
AAAAAAAA8D9kDAIDtwAAAAAAAAAAAAAAAAAAAAAAw2QSJrVAvsLUeP7p00EAbG6OADGM
HUDa4OLBfSRHQBQpreHJGJZAAAAAAAAAFEAAAAAAAAAiQKQPAADsAwAA3AIAAK4AAAAw
AAAAAAAAAAAA8D9kDAIDvQAAAAAAAAAAAAAAAAAAAAAANqoTKrVANPU7ev7p00EA98TM
Y02MHUBrFh2GfyRHQGKeUKqVI5ZAAAAAAAAAFEAAAAAAAAAiQG8XAAACBAAAOAIAAK8A
AAAxAAAAMzMzMzMz7z9kDAIDugAAAAAAAAAAAAAAAAAAAAAA7ZsTMLVALIfJe/7p00EA
XtBYTW6MHUDeL2xrgSRHQJvJHaHFK5ZAAAAAAAAAFEAAAAAAAAAiQHEXAACIBAAA4AIA
ALQAAAAwAAAAAAAAAAAA8D9kDAIDuwAAAAAAAAAAAAAAAAAAAAAAxF4UNrVAdD81ff7p
00EAFl87doqMHUDqRcR0gyRHQELQCtPYMZZAAAAAAAAAFEAAAAAAAAAiQF0bAAA1BAAA
DwIAALIAAAAzAAAAAAAAAAAA8D9kDAIDuwAAAAAAAAAAAAAAAAAAAAAAHaoVPbVApWDF
fv7p00EAd9H3WqiMHUAozNfXhSRHQDCmjm26N5ZAAAAAAAAAFEAAAAAAAAAiQIETAACq
BAAAYQMAALoAAAAvAAAAAAAAAAAA8D9kDAIDxAAAAAAAAAAAAAAAAAAAAAAAQSwTQrVA
sLlLgP7p00EA1a50gsuMHUCOPKSYhyRHQK73vR1nP5ZAAAAAAAAAJEAAAAAAAAAiQGwX
AACnBAAABgMAALwAAAAwAAAAmpmZmZmZ7T9kDAIDxAAAAAAAAAAAAAAAAAAAAAAA9swS
SLVAS8PBgf7p00EA9I4KRO2MHUCDsKhpiSRHQLkyOHI1SZZAAAAAAAAAJEAAAAAAAAAi
QHIXAACPBAAA5wIAAL0AAAAwAAAAzczMzMzM7D9kDAIDxgAAAAAAAAAAAAAAAAAAAAAA
4VwTTrVAivw9g/7p00EAh7/R2AyNHUArrxKjiyRHQBqyTV9+U5ZAAAAAAAAAJEAAAAAA
AAAiQHUXAACrBAAACwMAAL4AAAAvAAAAMzMzMzMz7z9kDAIDwwAAAAAAAAAAAAAAAAAA
AAAAIAsVVLVAzv+JhP7p00EAv5Kh0ieNHUApQ/OpjSRHQG4vj5wzXJZAAAAAAAAAFEAA
AAAAAAAiQJsPAAAZBAAAAQMAAMIAAAAtAAAAmZmZmZmZ7T9kDAIDygAAAAAAAAAAAAAA
AAAAAAAA48QTWLVARILohf7p00EA/ONW6UaNHUBZFcagjyRHQGBkFRISYpZAAAAAAAAA
JEAAAAAAAAAiQIcTAABqBAAALAMAAMcAAAAyAAAAZmZmZmZm7j9kDAIDzgAAAAAAAAAA
AAAAAAAAAAAAEyoUXbVAZK4bh/7p00EAIeE+gF+NHUBmzDu0kSRHQFxuNFXQZJZAAAAA
AAAAFEAAAAAAAAAiQIkTAADwAwAAmQIAAMUAAAAyAAAAMzMzMzMz7z9kDAID0AAAAAAA
AAAAAAAAAAAAAAAAIuETYrVA33qDiP7p00EAv46eSX+NHUBpbqXTkyRHQOKbvd5oZpZA
AAAAAAAAFEAAAAAAAAAiQG0XAACbBAAA9wIAAMEAAAAuAAAAAAAAAAAA8D9kDAIDywAA
AAAAAAAAAAAAAAAAAAAAAHETaLVA4KnZif7p00EAlfQStJ2NHUAgT2+/lSRHQApsJfNl
aJZAAAAAAAAAFEAAAAAAAAAiQHIXAABRBAAAmwIAAL4AAAAuAAAAAAAAAAAA8D9kDAID
zQAAAAAAAAAAAAAAAAAAAAAAOiEUbrVA+UZAi/7p00EAVkymJbiNHUC0DRQ2mCRHQChI
dNYwapZAAAAAAAAAFEAAAAAAAAAiQIQTAAB1BAAANQMAAL0AAAAqAAAAmZmZmZmZ7T9k
DAID0AAAAAAAAAAAAAAAAAAAAAAAjSYTc7VATkuCjP7p00EAvK/0hdKNHUAymtcnmiRH
QEH8Mo//apZAAAAAAAAAJEAAAAAAAAAiQKIPAAD5AwAA5wIAAL8AAAAsAAAAMzMzMzMz
7z9kDAID1AAAAAAAAAAAAAAAAAAAAAAAtpwTd7VATqbijf7p00EA6RP7KfKNHUDJ64cB
nCRHQKqXcEIYa5ZAAAAAAAAAFEAAAAAAAAAiQH8TAABhBAAAJAMAAMEAAAAuAAAAMzMz
MzMz7z9kDAID2QAAAAAAAAAAAAAAAAAAAAAAFkoSfLVAFM8jj/7p00EAcGxv3A+OHUCS
/b2fnSRHQH5eEtW7a5ZAAAAAAAAAJEAAAAAAAAAiQJETAAAGBAAAswIAAMEAAAAyAAAA
ZmZmZmZm7j9kDAID1wAAAAAAAAAAAAAAAAAAAAAAq1wUgbVA89dikP7p00EAEPmehiqO
HUA1gNqYnyRHQMx6PghLbpZAAAAAAAAAFEAAAAAAAAAiQIwTAAAGBAAAswIAAMQAAAAx
AAAAZmZmZmZm7j9kDAID1wAAAAAAAAAAAAAAAAAAAAAA06MVhrVAPoeYkf7p00EAIWGy
bUeOHUBrp1wxoSRHQNL83zIAcpZAAAAAAAAAJEAAAAAAAAAiQIMTAADuAwAAlwIAAMMA
AAA1AAAAZmZmZmZm7j9kDAID2AAAAAAAAAAAAAAAAAAAAAAAdEMTi7VAdMfwkv7p00EA
LRQi8miOHUAgLvC+oiRHQBLv3bqPdJZAAAAAAAAAJEAAAAAAAAAiQG0XAABcBAAAqAIA
AMEAAAA3AAAAzczMzMzM7D9kDAID1wAAAAAAAAAAAAAAAAAAAAAAsOQSkbVAiW5glP7p
00EA4SzQXYiOHUA8LIjhpCRHQAZuKgwxdZZAAAAAAAAAFEAAAAAAAAAiQFobAACVBAAA
eAIAALkAAAAzAAAAAAAAAAAA8D9kDAIDzwAAAAAAAAAAAAAAAAAAAAAAnX8TmLVAtNfA
lf7p00EAZFIGlqWOHUCS4h3qpiRHQGMpeI3OdJZAAAAAAAAAFEAAAAAAAAAiQHAXAABN
BAAAlQIAALUAAAAzAAAAMzMzMzMz7z9kDAIDywAAAAAAAAAAAAAAAAAAAAAATYITnrVA
9jYll/7p00EADEXC+byOHUBZtD1hqSRHQHeAlox3dJZAAAAAAAAAFEAAAAAAAAAiQJ8P
AAA6BAAAHQMAALAAAAAsAAAAMzMzMzMz7z9kDAID0QAAAAAAAAAAAAAAAAAAAAAA9l4U
orVAwdKYmP7p00EAZwyMotiOHUAdcqSbqyRHQCS9q16PdJZAAAAAAAAAFEAAAAAAAAAi
QJ8PAABVBAAAMwMAALgAAAAsAAAAAAAAAAAA8D9kDAID2AAAAAAAAAAAAAAAAAAAAAAA
hH0TprVAVLbxmf7p00EAR3LqnPaOHUASN4darSRHQLTHRxK6dJZAAAAAAAAAFEAAAAAA
AAAiQKAPAAAkBAAACwMAALwAAAAsAAAAAAAAAAAA8D9kDAID3AAAAAAAAAAAAAAAAAAA
AAAAXmYUqrVAmsJJm/7p00EABh+oOw+PHUB91Ba1ryRHQASpsjaWdJZAAAAAAAAAFEAA
AAAAAAAiQIcTAAA1BAAA7wIAALwAAAAmAAAAMzMzMzMz7z9kDAID3gAAAAAAAAAAAAAA
AAAAAAAAiskTr7VARSqinP7p00EAdafQbCSPHUA5+ipHsiRHQBioxlo8dJZAAAAAAAAA
FEAAAAAAAAAiQIcTAAAwBAAA6AIAALsAAAAiAAAAMzMzMzMz7z9kDAID2gAAAAAAAAAA
AAAAAAAAAAAAJjMatLVAj2n5nf7p00EAUAn9Yz+PHUC6GDpPtCRHQGrGZq2fcpZAAAAA
AAAAFEAAAAAAAAAiQFcbAAAZBAAABQIAALQAAAAgAAAAAAAAAAAA8D9kDAID1AAAAAAA
AAAAAAAAAAAAAAAAV5MTu7VAxGKEn/7p00EAhT8wPlqPHUC6+9rbtiRHQLwXv9rhbpZA
AAAAAAAAJEBC6ZXGx0oiQFYbAACSBAAAdQIAAK4AAAAaAAAAZmZmZmZm7j9kDAID0QAA
AAAAAAAAAAAAAAAAAAAASfASwrVAz1jcoP7p00EAJbCwUXCPHUDZ2G0guSRHQPADzGbZ
apZAAAAAAAAAFEAAAAAAAAAiQIwTAADuAwAAlgIAALAAAAAhAAAAAAAAAAAA8D9kDAID
0QAAAAAAAAAAAAAAAAAAAAAAswUUx7VAjqJgov7p00EA4/AixIePHUAthVTUuyRHQArW
g0qtaJZAAAAAAAAAFEAAAAAAAAAiQG0XAAB7BAAAzwIAALQAAAAdAAAAAAAAAAAA8D9k
DAID0QAAAAAAAAAAAAAAAAAAAAAA8gcTzbVA4mbIo/7p00EAy+4RUp6PHUARB8daviRH
QBMNP6hvaJZAAAAAAAAAJEAAAAAAAAAiQHEXAAA7BAAAfwIAALcAAAAfAAAAZmZmZmZm
7j9kDAIDzwAAAAAAAAAAAAAAAAAAAAAAGToW07VA7CYxpf7p00EAmGljj7SPHUC4LmXn
wCRHQL9IyBCJapZAAAAAAAAAFEAAAAAAAAAiQFkbAAA8BAAAEgIAALEAAAAeAAAAAAAA
AAAA8D9kDAID0AAAAAAAAAAAAAAAAAAAAAAAATIU2rVAdPKGpv7p00EAdpaXUMWPHUCG
UQKHwyRHQBQZYhvMb5ZAAAAAAAAAFEAAAAAAAAAiQFkbAAD5AwAA+AEAALEAAAAbAAAA
AAAAAAAA8D9kDAIDxQAAAAAAAAAAAAAAAAAAAAAA6xcU4bVAaAEdqP7p00EAu9I28tuP
HUAlgyV2xiRHQDb6TYOUd5ZAAAAAAAAAFEAAAAAAAAAiQG4XAACtBAAADgMAALEAAAAc
AAAAAAAAAAAA8D9kDAIDtgAAAAAAAAAAAAAAAAAAAAAAXYUU57VA0whyqf7p00EA6l8X
jfKPHUAL7lexyCRHQOC7ILSUgZZAAAAAAAAAFEAAAAAAAAAiQJcPAADvAwAA3wIAALQA
AAAeAAAAMzMzMzMz7z9kDAIDvAAAAAAAAAAAAAAAAAAAAAAA0a8Z67VAIH4Fq/7p00EA
ek3icBCQHUAaFEYoyyRHQMC8F3RRjpZAAAAAAAAAFEAAAAAAAAAiQJMTAAC8BAAAbwMA
ALgAAAAhAAAAAAAAAAAA8D9kDAIDvAAAAAAAAAAAAAAAAAAAAAAA9BgV8LVA97lMrP7p
00EAW4Tj2yiQHUAmBxc6zSRHQITzLA8GnpZAAAAAAAAAJEAAAAAAAAAiQIQTAADrAwAA
kwIAALoAAAAgAAAAZmZmZmZm7j9kDAIDvgAAAAAAAAAAAAAAAAAAAAAANVwU9bVAZBau
rf7p00EAcFrAL0CQHUDn5f28zyRHQLj0etf9rpZAAAAAAAAAFEAAAAAAAAAiQHEXAABF
BAAAjAIAALoAAAAiAAAAAAAAAAAA8D9kDAIDwQAAAAAAAAAAAAAAAAAAAAAARNwU+7VA
Ex30rv7p00EA0+xcZ1OQHUDcNDcw0iRHQLyh3QblvJZAAAAAAAAAJEAAAAAAAAAiQIgT
AADtAwAAlQIAALcAAAAgAAAAzczMzMzM7D9kDAIDxAAAAAAAAAAAAAAAAAAAAAAA4bAU
ALZAVLBHsP7p00EAiDsRv2WQHUCy/jbN1CRHQOAdpmjbxJZAAAAAAAAAJEAAAAAAAAAi
QHAXAAAOBAAARgIAALcAAAAWAAAAzczMzMzM7D9kDAIDwQAAAAAAAAAAAAAAAAAAAAAA
ndYVBrZA8xzcsf7p00EAb33CrG2QHUDObQI+2CRHQOiluC8TyJZAAAAAAAAAJEAAAAAA
AAAiQFUbAACnBAAAjwIAAKIAAABVAQAAzczMzMzM7D9kDAIDvwAAAAAAAAAAAAAAAAAA
AAAAvjEUDbZA84ZHs/7p00EAwpPet1qQHUD2NFHL2iRHQOolyOuWyJZAAAAAAAAAJEAA
AAAAAAAiQKAPAAAGBAAA8QIAAKwAAAA3AQAAzczMzMzM7D9kDAIDxgAAAAAAAAAAAAAA
AAAAAAAAZRYVEbZARzSrtP7p00EAfFYnazmQHUDz8x952yRHQAR9hDSyx5ZAAAAAAAAA
JEAAAAAAAAAiQG8XAADsAwAAHAIAAKkAAAAFAQAAzczMzMzM7D9kDAIDxwAAAAAAAAAB
AAAAAAAAAAAAN1AUF7ZAaBNmtv7p00EAU1AWmRKQHUBiFowc2iRHQEAYQNSfwpZAAAAA
AAAAJEAAAAAAAAAiQFYbAADNBAAAvgIAAKEAAAD2AAAAzczMzMzM7D9kDAIDygAAAAAA
AAABAAAAAAAAAAAA0zAUHrZAV0YXuP7p00EAgwEI5++PHUCELLYu2CRHQJvx6YHHt5ZA
AAAAAAAAJEAAAAAAAAAiQKEPAAC6BAAAhwMAAK4AAAD2AAAAzczMzMzM7D9kDAID0gAA
AAAAAAABAAAAAAAAAAAArtcUIrZApZeVuf7p00EAhjY7cs2PHUCoHkOd1iRHQOb7H1wR
q5ZAAAAAAAAAJEAAAAAAAAAiQIcTAAB2BAAANgMAALYAAAD5AAAAzczMzMzM7D9kDAID
0QAAAAAAAAAAAAAAAAAAAAAAFqUUJ7ZApFzvuv7p00EAnxPEA62PHUDyoH1Q1SRHQDIf
4uLHoJZAAAAAAAAAJEAAAAAAAAAiQJ8PAAAZBAAAAQMAALgAAAD5AAAAzczMzMzM7D9k
DAID1gAAAAAAAAAAAAAAAAAAAAAA8l8UK7ZAAppavP7p00EAz0ybsYqPHUBWa+cF1CRH
QC52vHu0mpZAAAAAAAAAJEAAAAAAAAAiQHMXAABKBAAAkQIAALMAAAD6AAAAzczMzMzM
7D9kDAID0QAAAAAAAAAAAAAAAAAAAAAAKAwWMbZAwkq8vf7p00EA/oSSfWmPHUAUoFqs
0iRHQDjLDMgFmZZAAAAAAAAAJEAAAAAAAAAiQIUTAAA0BAAA7gIAALgAAAD2AAAAzczM
zMzM7D9kDAID0gAAAAAAAAAAAAAAAAAAAAAAWoIUNrZApDQlv/7p00EAvMZ/qkaPHUBZ
NVV10SRHQETwwtB+mZZAAAAAAAAAJEAAAAAAAAAiQFkbAABOBAAAHwIAALcAAAD3AAAA
zczMzMzM7D9kDAID0AAAAAAAAAAAAAAAAAAAAAAAz9cUPbZAfnyrwP7p00EAnj6KVyKP
HUAsmq76zyRHQGzfgJVWmpZAAAAAAAAAJEAAAAAAAAAiQGwXAACaBAAA9gIAALcAAADz
AAAAzczMzMzM7D9kDAID0wAAAAAAAAAAAAAAAAAAAAAAyHgUQ7ZAnKo2wv7p00EAJEyT
U/6OHUBMBvSZziRHQOYYUr9inJZAAAAAAAAAJEAAAAAAAAAiQF4bAACDBAAAYQIAAKwA
AAD1AAAAzczMzMzM7D9kDAID0gAAAAAAAAAAAAAAAAAAAAAAMdAVSrZA3xzcw/7p00EA
jdyxatiOHUAnqSyUzSRHQIJdgQ3koZZAAAAAAAAAJEAAAAAAAAAiQGsXAACNBAAA5gIA
AKEAAAD8AAAAzczMzMzM7D9kDAIDzAAAAAAAAAAAAAAAAAAAAAAAkXkUULZAPZWTxf7p
00EA+fGsrLKOHUBIaK4IzCRHQFp4szu/qZZAAAAAAAAAJEAAAAAAAAAiQIoTAADJBAAA
egMAAKgAAAD3AAAAzczMzMzM7D9kDAID0wAAAAAAAAAAAAAAAAAAAAAACkoVVbZAYhcJ
x/7p00EAfkQmII+OHUBDhVxGyyRHQAUDad3nsZZAAAAAAAAAJEAAAAAAAAAiQIMTAAAy
BAAA7AIAAKwAAAADAQAAzczMzMzM7D9kDAID1wAAAAAAAAAAAAAAAAAAAAAAS1cUWrZA
qReAyP7p00EAlyM0pmyOHUBPPzrjySRHQNJVvuO7uZZAAAAAAAAAJEAAAAAAAAAiQIwT
AABcBAAAHwMAAK8AAAD7AAAAzczMzMzM7D9kDAID0AAAAAAAAAAAAAAAAAAAAAAAT8kV
X7ZANVjIyf7p00EAUoyqVUyOHUDTXO7hyCRHQBgksRVFv5ZAAAAAAAAAJEAAAAAAAAAi
QIgTAADvAwAAmAIAALcAAAD9AAAAzczMzMzM7D9kDAIDzQAAAAAAAAAAAAAAAAAAAAAA
TS4WZLZAk94sy/7p00EAT+WJQyiOHUAnn0jkxyRHQNPyVfUgwpZAAAAAAAAAJEAAAAAA
AAAiQIMTAABWBAAAGQMAALkAAAD9AAAAzczMzMzM7D9kDAIDygAAAAAAAAAAAAAAAAAA
AAAAu2AUabZA/iZ+zP7p00EAIVJakwWOHUCmBCL9xiRHQIamz+lqxJZAAAAAAAAAJEAA
AAAAAAAiQIkTAAAnBAAA3QIAALwAAAACAQAAzczMzMzM7D9kDAIDzAAAAAAAAAAAAAAA
AAAAAAAAs5gUbrZAXbDEzf7p00EAPnutpuONHUBr8NQpxiRHQNZC2S9AxpZAAAAAAAAA
JEAAAAAAAAAiQIYTAAAKBAAAuQIAAL4AAAAAAQAAzczMzMzM7D9kDAIDzAAAAAAAAAAA
AAAAAAAAAAAAsOYUc7ZADWAMz/7p00EAokox1MGNHUDVl9E4xSRHQCq3SkhxxpZAAAAA
AAAAJEAAAAAAAAAiQIgTAAASBAAAwwIAAL4AAAD+AAAAzczMzMzM7D9kDAIDzAAAAAAA
AAAAAAAAAAAAAAAAGM8UeLZAZU9F0P7p00EAZr1qCKGNHUD3g2NcxCRHQGedWNWbxZZA
AAAAAAAAJEAAAAAAAAAiQIcTAADtAwAAlQIAAL8AAAD7AAAAmZmZmZmZ7T9kDAID0AAA
AAAAAAAAAAAAAAAAAAAA09YUfbZAGBN50f7p00EAZhORLYCNHUAbGCmMwyRHQKet0bGV
xZZAAAAAAAAAJEAAAAAAAAAiQI0TAADqAwAAkQIAAMEAAAD9AAAAzczMzMzM7D9kDAID
0AAAAAAAAAAAAAAAAAAAAAAAZmgcgrZAMmay0v7p00EAgTT83F2NHUCdAPLvwiRHQDBk
idzxxpZAAAAAAAAAJEAAAAAAAAAiQIMTAAAEBAAAsgIAAMUAAAACAQAAzczMzMzM7D9k
DAID0wAAAAAAAAAAAAAAAAAAAAAA+MIUh7ZA9q7o0/7p00EA7AidtDuNHUA+eLdhwiRH
QF+6P+I8yZZAAAAAAAAAFEAAAAAAAAAiQIcTAAD7AwAApwIAAMUAAAAEAQAAmZmZmZmZ
7T9kDAID1AAAAAAAAAAAAAAAAAAAAAAAfeYUjLZARFkg1f7p00EAL1zAqhiNHUDgzM82
wiRHQOjNozL6y5ZAAAAAAAAAJEAAAAAAAAAiQIcTAAAFBAAAswIAAMUAAAAIAQAAZmZm
ZmZm7j9kDAID1AAAAAAAAAAAAAAAAAAAAAAAl6oUkbZA9HNs1v7p00EAsKS1N/OMHUBm
U5vewSRHQE5syMBDz5ZAAAAAAAAAJEAAAAAAAAAiQIgTAABRBAAAEgMAAMcAAAANAQAA
zczMzMzM7D9kDAID0QAAAAAAAAAAAAAAAAAAAAAAIToUlrZAavya1/7p00EAx8NmudCM
HUAZ3vf1wSRHQHPBbnxt05ZAAAAAAAAAJEAAAAAAAAAiQIcTAAD0AwAAngIAAMgAAAAM
AQAAzczMzMzM7D9kDAID0QAAAAAAAAAAAAAAAAAAAAAA1y8Um7ZAze7t2P7p00EAjzrD
0KqMHUAbEaWKwiRHQBaOdYhG15ZAAAAAAAAAJEAAAAAAAAAiQIcTAABpBAAAKwMAAMoA
AAASAQAAzczMzMzM7D9kDAID0QAAAAAAAAAAAAAAAAAAAAAASQ4UoLZAlVde2v7p00EA
3LvlAoKMHUB3EC3BwiRHQCb5eJH82ZZAAAAAAAAAJEAAAAAAAAAiQHIXAACvBAAAEAMA
AMYAAAASAQAAzczMzMzM7D9kDAID0AAAAAAAAAAAAAAAAAAAAAAA4SQVprZAR5Cn2/7p
00EAVQAfIF+MHUBxpdYPwiRHQMRjCmWa3JZAAAAAAAAAJEAAAAAAAAAiQIQTAAAaBAAA
zQIAAMIAAAAHAQAAzczMzMzM7D9kDAID0AAAAAAAAAAAAAAAAAAAAAAAvoIUq7ZAN6sf
3f7p00EAkPI+rDmMHUDMAErJwCRHQKDR5WtA4JZAAAAAAAAAJEAAAAAAAAAiQGQXAACd
BAAA+wIAAL0AAAD7AAAAzczMzMzM7D9kDAIDzwAAAAAAAAAAAAAAAAAAAAAAkJ4SsbZA
o9tu3v7p00EAK/BOPhuMHUDQWZdbvyRHQK1vKbb55JZAAAAAAAAAJEAAAAAAAAAiQJMT
AAD4AwAAoQIAAL4AAAD2AAAAzczMzMzM7D9kDAIDzgAAAAAAAAAAAAAAAAAAAAAAyCIV
trZAMr3b3/7p00EA5i9WpyuMHUD/vi1KwiRHQIBhVewp6ZZAAAAAAAAAJEAAAAAAAAAi
QIE+AABSBAAApwIAAK4AAAA+AAAAzczMzMzM7D9kDAIDwgAAAAAAAAAAAAAAAAAAAAAA
MXgUxrZAJ0tn4f7p00EAMIfIQVOMHUDp7+QywyRHQA4iGSzC65ZAAAAAAAAAJEAAAAAA
AAAiQHAXAACyBAAAFAMAAMEAAABGAAAAzczMzMzM7D9kDAIDwgAAAAAAAAAAAAAAAAAA
AAAAnNsUzLZAmm3G4v7p00EAbDlMGneMHUDwug4MxCRHQEZrTJ+E7ZZAAAAAAAAAJEAA
AAAAAAAiQIgTAABCBAAA/wIAAMUAAABHAAAAzczMzMzM7D9kDAIDwwAAAAAAAAAAAAAA
AAAAAAAAaRkV0bZAf+EU5P7p00EAyR8Sw5mMHUA8lVZHxSRHQASZKD598JZAAAAAAAAA
JEAAAAAAAAAiQKAPAABLBAAAKwMAANAAAABFAAAAzczMzMzM7D9kDAIDyAAAAAAAAAAA
AAAAAAAAAAAAPUYV1bZAZoBR5f7p00EAsP2TQb2MHUD8Ie1GxiRHQNWtXDuW9ZZAAAAA
AAAAJEAAAAAAAAAiQIATAABHBAAABgMAANkAAABHAAAAmZmZmZmZ6z9kDAIDygAAAAAA
AAAAAAAAAAAAAAAArkkT2rZAmA6a5v7p00EAaFNshuGMHUAy1dPHxyRHQETTZxaT+pZA
AAAAAAAAJEAAAAAAAAAiQI0TAACcBAAAVQMAANwAAABDAAAAzczMzMzM7D9kDAIDywAA
AAAAAAAAAAAAAAAAAAAANEkU37ZA5GLj5/7p00EApgGh0QaNHUAXyxJMySRHQGr356p2
/ZZAAAAAAAAAJEAAAAAAAAAiQIcTAAC5BAAAbQMAAOAAAAA+AAAAZmZmZmZm7D9kDAID
zwAAAAAAAAAAAAAAAAAAAAAA+64U5LZAluIY6f7p00EACH8i6iuNHUDlWBFlyiRHQGiP
gtap/5ZAAAAAAAAAJEAAAAAAAAAiQIgTAAB+BAAAPAMAAOAAAAA7AAAAzczMzMzM7D9k
DAID0QAAAAAAAAAAAAAAAAAAAAAAucEU6bZAMiVN6v7p00EAtwNyH1CNHUDfCbKxyyRH
QDZUupigApdAAAAAAAAAPkAAAAAAAAA+QIgTAAB+BAAAPAMAAOAAAAA6AAAAAAAAAAAA
7D9kDAID1AAAAAAAAAAAAAAAAAAAAAAAyw4V7rZAd9976/7p00EA5a7ZOXGNHUDYTdJg
zSRHQF7goRgaBpdAAAAAAAAAFEAAAAAAAAAiQIkTAABnBAAAKQMAAN4AAAA2AAAAZmZm
ZmZm7j9kDAID1wAAAAAAAAAAAAAAAAAAAAAA66YU87ZAb3Wp7P7p00EAu/l2+pONHUDM
Wu24ziRHQIoi+OshCZdAAAAAAAAAJEAAAAAAAAAiQIYTAABdBAAAIQMAAN0AAAA0AAAA
MzMzMzMz7z9kDAID1wAAAAAAAAAAAAAAAAAAAAAA6WEU+LZApMjK7f7p00EAsjcXnrGN
HUAGfFiJ0CRHQJ/Gf5OGDJdAAAAAAAAAFEAAAAAAAAAiQIgTAAApBAAA4AIAANsAAAAw
AAAAAAAAAAAA8D9kDAID1wAAAAAAAAAAAAAAAAAAAAAAY9EU/bZASf7e7v7p00EAZ0Mq
5cqNHUCNWkiO0iRHQHiCe+4dEZdAAAAAAAAAFEAAAAAAAAAiQIUTAADyAwAAmwIAANgA
AAArAAAAMzMzMzMz7z9kDAID1gAAAAAAAAAAAAAAAAAAAAAAXdoUArdAXJYS8P7p00EA
k2O8S+WNHUCOV/fo1CRHQCA+vcvkF5dAAAAAAAAAFEAAAAAAAAAiQIcTAABZBAAAHAMA
ANcAAAAqAAAAAAAAAAAA8D9kDAID4gAAAAAAAAAAAAAAAAAAAAAAE+wTB7dAiaQ58f7p
00EAlWNu9fyNHUAptXlD1yRHQMzITeN2IZdAAAAAAAAAFEAAAAAAAAAiQHQXAAAiBAAA
YAIAAM4AAAAlAAAAmZmZmZmZ7T9kDAID4QAAAAAAAAAAAAAAAAAAAAAAXJAVDbdAX5Fq
8v7p00EAd/XzsRSOHUBs7CGn2SRHQIgKRmImLpdAAAAAAAAAJEAAAAAAAAAiQI0TAAAt
BAAA5AIAAMYAAAAkAAAAmZmZmZmZ7T9kDAID3AAAAAAAAAAAAAAAAAAAAAAACp4WErdA
nfWx8/7p00EAA7c35jCOHUBonxDW2yRHQOWQ+L35PJdAAAAAAAAAJEDHU1frbUUiQJYP
AABXBAAANQMAAMgAAAAmAAAAmZmZmZmZ7T9kDAID4AAAAAAAAAAAAAAAAAAAAAAABRYU
FrdAkdkQ9f7p00EAd0qWRlCOHUBd2r/03SRHQHCiFJ5ySpdAAAAAAAAAFEAAAAAAAAAi
QJETAACQBAAASwMAAM0AAAAqAAAAAAAAAAAA8D9kDAID4AAAAAAAAAAAAAAAAAAAAAAA
3owWG7dAMpFJ9v7p00EAbeg9mGmOHUDOGRQr4CRHQACMz0tVU5dAAAAAAAAAJEAAAAAA
AAAiQJ0PAAAgBAAABwMAAM4AAAArAAAAZmZmZmZm7j9kDAID4wAAAAAAAAAAAAAAAAAA
AAAA4QgWH7dAipiu9/7p00EAv0tamYGOHUCkuUMd4yRHQLjmjBHGWJdAAAAAAAAAFEAA
AAAAAAAiQIMTAADHBAAAeQMAAM4AAAAlAAAAMzMzMzMz7z9kDAID5AAAAAAAAAAAAAAA
AAAAAAAA6gcVJLdAdyQT+f7p00EAsrvcpKKOHUDzfrZS5SRHQA/2UJNxXJdAAAAAAAAA
JEDMM+v1tQoiQKAPAADKBAAAkwMAANAAAAAwAAAAmpmZmZmZ7T9kDAID6QAAAAAAAAAA
AAAAAAAAAAAAdtwUKLdAu6xS+v7p00EACPLrUsOOHUCIxOf85iRHQDxg8xrBXpdAAAAA
AAAAFEAAAAAAAAAiQIcTAABZBAAAHAMAANQAAAAwAAAAAAAAAAAA8D9kDAID6QAAAAAA
AAAAAAAAAAAAAAAAVp4ULbdAmjyJ+/7p00EAkYTK8t+OHUBfp4EG6SRHQFyRozpyX5dA
AAAAAAAAJEAAAAAAAAAiQIkTAABABAAA/AIAANEAAAAtAAAAmZmZmZmZ6z9kDAID6AAA
AAAAAAAAAAAAAAAAAAAALQQVMrdAhAPB/P7p00EAztEf1fyOHUChB2wG6yRHQHaC/Ub0
X5dAAAAAAAAAFEAAAAAAAAAiQIcTAAA+BAAA+gIAANAAAAArAAAAMzMzMzMz7z9kDAID
6AAAAAAAAAAAAAAAAAAAAAAA2y4UN7dAX2wN/v7p00EAi8e1rR2PHUCKXXjq7CRHQBrb
Srk7YpdAAAAAAAAAFEAAAAAAAAAiQIkTAACGBAAAQwMAANMAAAAwAAAAmZmZmZmZ7T9k
DAID6QAAAAAAAAAAAAAAAAAAAAAA9YAVPLdAPL9g//7p00EABxphYz+PHUD8vmbd7iRH
QELZiO5gZZdAAAAAAAAAPkAAAAAAAAA+QIcTAACmBAAAXQMAANMAAAAwAAAAMzMzMzMz
7T9kDAID7AAAAAAAAAAAAAAAAAAAAAAAIvsUQbdAgs+lAP/p00EAEXcmKVmPHUA7ZNtY
8SRHQHHzqxRSZ5dAAAAAAAAAJEAAAAAAAAAiQGwXAABsBAAAvQIAAM4AAAAqAAAAZmZm
ZmZm7D9kDAID6QAAAAAAAAAAAAAAAAAAAAAASpYTR7dAbUHKAf/p00EAyZtfY3OPHUCZ
mGhF8yRHQKGBg3/iZ5dAAAAAAAAAFEAAAAAAAAAiQK4PAADxAwAA4AIAAM4AAAArAAAA
ZmZmZmZm7j9kDAID7wAAAAAAAAAAAAAAAAAAAAAA5pEXS7dAr54jA//p00EA883XhI6P
HUAOFAHh9SRHQOo1R/LUZ5dAAAAAAAAAFEAAAAAAAAAiQH0TAACnBAAAXgMAANEAAAAm
AAAAAAAAAAAA8D9kDAID8QAAAAAAAAAAAAAAAAAAAAAAxwsVULdAIjJMBP/p00EAnPB/
LKSPHUAX2UVK+CRHQMi1dQwQaZdAAAAAAAAAFEAAAAAAAAAiQIgTAAAMBAAAvAIAANQA
AAAlAAAAMzMzMzMz7z9kDAID7AAAAAAAAAAAAAAAAAAAAAAAUb4UVbdABIeKBf/p00EA
dxhrBruPHUDi+Bfr+iRHQFjI3+DvbZdAAAAAAAAAJEAKX7la8y4iQG8XAABcBAAAqAIA
ANEAAAAgAAAAZmZmZmZm7j9kDAID6AAAAAAAAAAAAAAAAAAAAAAAXCAVW7dA/QHrBv/p
00EA6GxIC9KPHUB8J+vo/SRHQBSq3htheJdAAAAAAAAAJEAAAAAAAAAiQG8XAADEBAAA
KgMAAMoAAAAfAAAAzczMzMzM7D9kDAID4gAAAAAAAAAAAAAAAAAAAAAAn8sUYbdAcXRG
CP/p00EAROUeTOWPHUCLamL1ACVHQHqoyZhoh5dAAAAAAAAAFEAAAAAAAAAiQIETAACb
BAAAVQMAAMkAAAAeAAAAMzMzMzMz7z9kDAID3AAAAAAAAAAAAAAAAAAAAAAAIcoTZrdA
bR2BCf/p00EA/EBrjvyPHUDj6ntfAyVHQPd4YIKylZdAAAAAAAAAFEAAAAAAAAAiQKAP
AAArBAAAEAMAANMAAAAhAAAAMzMzMzMz7z9kDAID4AAAAAAAAAAAAAAAAAAAAAAATbgT
ardAfsPQCv/p00EAuZhh/heQHUBWo8bnBSVHQBKiABg9oJdAAAAAAAAAJEAAAAAAAAAi
QIwTAACaBAAAUwMAANcAAAAiAAAAzczMzMzM7D9kDAID4QAAAAAAAAAAAAAAAAAAAAAA
sBwVb7dAcDwLDP/p00EAA3ZcbTSQHUCXVr8DCCVHQFZ8vhMeqZdAAAAAAAAAJEAAAAAA
AAAiQIgTAABLBAAACwMAAMoAAAAmAAAAzczMzMzM7D9kDAID4QAAAAAAAAAAAAAAAAAA
AAAAYDoVdLdAUFx+Df/p00EARRYtZVSQHUB2DGtjCiVHQJAFIU9xsJdAAAAAAAAAJEAH
+fvjy0IiQKEPAADVBAAAnAMAAMEAAAAqAAAAzczMzMzM7D9kDAID6AAAAAAAAAAAAAAA
AAAAAAAAKhsWeLdAEALQDv/p00EAmpbFKW2QHUAIQnOyDCVHQMKx2xxNtJdAAAAAAAAA
JEAAAAAAAAAiQIYTAAAtBAAA5QIAALwAAAAnAAAAmZmZmZmZ7T9kDAID5gAAAAAAAAAA
AAAAAAAAAAAA7QoVfbdAK5MxEP/p00EAwAzQZoiQHUCO2D7qDiVHQHYivRLrtJdAAAAA
AAAAJEAAAAAAAAAiQG0XAABKBAAAkgIAALkAAAApAAAAmpmZmZmZ7T9kDAID5QAAAAAA
AAAAAAAAAAAAAAAAU1kUg7dAigOvEf/p00EAy0vErqGQHUAjdSmNESVHQDMtGWqvs5dA
AAAAAAAAJEAAAAAAAAAiQIYTAACKBAAARwMAALUAAAAoAAAAmZmZmZmZ7T9kDAID5AAA
AAAAAAAAAAAAAAAAAAAA4QYUiLdAbokME//p00EA7PPjZrqQHUDOmg/UEyVHQDBS4QvG
sZdAAAAAAAAAJEAAAAAAAAAiQIoTAAAkBAAA2QIAALgAAAAnAAAAzczMzMzM7D9kDAID
4gAAAAAAAAAAAAAAAAAAAAAA0qgUjbdAWTl3FP/p00EAhlBti9WQHUCqOpv9FSVHQHNF
6gBNsJdAAAAAAAAAJEAAAAAAAAAiQIATAAA7BAAA9wIAALIAAAApAAAAzczMzMzM7D9k
DAID4gAAAAAAAAAAAAAAAAAAAAAA278SkrdABl/RFf/p00EAcr4YEuyQHUDkvqM7GCVH
QPgneQ+2r5dAAAAAAAAAJEAAAAAAAAAiQJETAADwAwAAmAIAAK8AAAAkAAAAzczMzMzM
7D9kDAID5AAAAAAAAAAAAAAAAAAAAAAAzokVl7dA2vNUF//p00EAzP7jcwKRHUDsamnj
GiVHQKKSOFuIr5dAAAAAAAAAFEAAAAAAAAAiQFYbAABbBAAAMAIAAKsAAAAhAAAAMzMz
MzMz7z9kDAID4AAAAAAAAAAAAAAAAAAAAAAA158UnrdA9YjxGP/p00EA5M2u+xuRHUBY
b1CcHSVHQL2ZUcZKrpdAAAAAAAAAJEAAAAAAAAAiQIwTAACmBAAAXQMAAK0AAAAiAAAA
zczMzMzM7D9kDAID4AAAAAAAAAAAAAAAAAAAAAAAibAVo7dASItaGv/p00EANeipozKR
HUAqBhoKICVHQA+oh71iq5dAAAAAAAAAJEAAAAAAAAAiQIgTAAAjBAAA2AIAALAAAAAe
AAAAmpmZmZmZ7T9kDAID2wAAAAAAAAAAAAAAAAAAAAAAaHUWqLdAIcPVG//p00EA9epq
G0yRHUBzND+gIiVHQEtKDP91qJdAAAAAAAAAJEAAAAAAAAAiQIUTAACBBAAAPwMAALIA
AAAlAAAAzczMzMzM7D9kDAID2wAAAAAAAAAAAAAAAAAAAAAAE5o8rbdANQISHf/p00EA
eaHz92KRHUDbhPTaJCVHQC5FvA3PppdAAAAAAAAAJEAAAAAAAAAiQJ4PAADzAwAA4gIA
ALwAAAAhAAAAzczMzMzM7D9kDAID3gAAAAAAAAAAAAAAAAAAAAAA8dcUsbdAQ4RrHv/p
00EArpy0KnyRHUCbRC5cJyVHQOc56QcdpZdAAAAAAAAAJEAAAAAAAAAiQIgTAABnBAAA
KQMAAMMAAAAgAAAAzczMzMzM7D9kDAID1wAAAAAAAAAAAAAAAAAAAAAAoGkVtrdAPzSw
H//p00EA57MDqJeRHUCyyqVrKSVHQOTkizgyo5dAAAAAAAAAJEAAAAAAAAAiQIgTAAAs
BAAA4wIAAMQAAAAmAAAAmpmZmZmZ7T9kDAID1wAAAAAAAAAAAAAAAAAAAAAA8uoUu7dA
GTIbIf/p00EABvrzhLaRHUCZTam5KyVHQANifRaPopdAAAAAAAAAJEAAAAAAAAAiQHEX
AACtBAAADQMAAMcAAAAkAAAAzczMzMzM7D9kDAID2AAAAAAAAAAAAAAAAAAAAAAA5IQV
wbdAxK1gIv/p00EAcri/1NKRHUB12e6nLSVHQDjPWoc2o5dAAAAAAAAAFEAAAAAAAAAi
QG0XAAAiBAAAYAIAAMUAAAAmAAAAmZmZmZmZ7T9kDAID1AAAAAAAAAAAAAAAAAAAAAAA
TrMUx7dAQPXDI//p00EA8gjl3e+RHUDAgObaLyVHQLemRuvio5dAAAAAAAAAJEDiKA6J
kAwiQG8XAABtBAAAvQIAAMEAAAAqAAAAZmZmZmZm7j9kDAID0gAAAAAAAAAAAAAAAAAA
AAAAN6UUzbdAS0o1Jf/p00EAzLBV7QmSHUB7TEZqMiVHQLr9rBk9ppdAAAAAAAAAFEAA
AAAAAAAiQIgTAACGBAAAQwMAALwAAAAnAAAAZmZmZmZm7j9kDAID0wAAAAAAAAAAAAAA
AAAAAAAAPUIV0rdAPJiOJv/p00EAwgeG7CKSHUC78JG3NCVHQJKXCtbjq5dAAAAAAAAA
JEAAAAAAAAAiQJITAAAwBAAA5wIAALwAAAAqAAAAzczMzMzM7D9kDAID1AAAAAAAAAAA
AAAAAAAAAAAAdyoY17dAC8gNKP/p00EAPQJTPTySHUBKR9FxNyVHQBbe7ygTspdAAAAA
AAAAJEAAAAAAAAAiQHwTAACjBAAAWwMAALkAAAArAAAAzczMzMzM7D9kDAID2gAAAAAA
AAAAAAAAAAAAAAAAIuAU3LdAyQpZKf/p00EA6VLphVWSHUCFc3aVOSVHQGCJ7MRstZdA
AAAAAAAAJEAAAAAAAAAiQIsTAAAOBAAAvgIAALoAAAAsAAAAzczMzMzM7D9kDAID2AAA
AAAAAAAAAAAAAAAAAAAAeysW4bdAiKSyKv/p00EA80rMqm2SHUDMknkJPCVHQNBhrYku
tpdAAAAAAAAAJEAAAAAAAAAiQIITAABFBAAABAMAAL0AAAAqAAAAzczMzMzM7D9kDAID
2AAAAAAAAAAAAAAAAAAAAAAADKsU5rdAIhsCLP/p00EA4zDFNomSHUCCz5wcPiVHQO20
n3gjtZdAAAAAAAAAFEAAAAAAAAAiQHUXAAAwBAAAcAIAAL4AAAArAAAAZmZmZmZm7j9k
DAID1AAAAAAAAAAAAAAAAAAAAAAAcVUV7LdAIyxPLf/p00EAFgaWBaOSHUDgW3dZQCVH
QN6S4snzsZdAAAAAAAAAFEAAAAAAAAAiQIYTAAAxBAAA6QIAAMEAAAApAAAAAAAAAAAA
8D9kDAID0QAAAAAAAAAAAAAAAAAAAAAAXp8V8bdAJDuPLv/p00EANLbHlrqSHUCnZe2i
QiVHQG2YYFVnrZdAAAAAAAAAFEAAAAAAAAAiQIkTAAAQBAAAwAIAAMEAAAAnAAAAMzMz
MzMz7z9kDAIDzwAAAAAAAAAAAAAAAAAAAAAA8QwW9rdATmLDL//p00EAiy5HudCSHUB9
/jrpRCVHQGQd9nnsqZdAAAAAAAAAJEAAAAAAAAAiQIQTAADxAwAAmgIAAMQAAAAjAAAA
zczMzMzM7D9kDAIDzwAAAAAAAAAAAAAAAAAAAAAArtcU+7dAP7QnMf/p00EA+oMk1OqS
HUBBf6yJRyVHQOhrVP6RqZdAAAAAAAAAJEAAAAAAAAAiQG0XAACXBAAA8wIAAMUAAAAj
AAAAZmZmZmZm7j9kDAIDzgAAAAAAAAAAAAAAAAAAAAAArS0UAbhAPrBzMv/p00EAKqG4
cP+SHUDBPQZISiVHQIJMSJt/rJdAAAAAAAAAFEAAAAAAAAAiQHcXAABXBAAAoQIAAMcA
AAAZAAAAAAAAAAAA8D9kDAIDzwAAAAAAAAAAAAAAAAAAAAAAaagVB7hAhlTOM//p00EA
vfO3EQyTHUBav2SMTSVHQFAtI8HAsZdAAAAAAAAAFEAAAAAAAAAiQGwXAACSBAAA7AIA
AMsAAAATAAAAAAAAAAAA8D9kDAIDzwAAAAAAAAAAAAAAAAAAAAAAW0MVDbhA528FNf/p
00EAO8+QERiTHUDPjcF9UCVHQDb+Fp22uJdAAAAAAAAAFEAAAAAAAAAiQGYXAAAjBAAA
YwIAAMsAAAAQAAAAZmZmZmZm7D9kDAIDywAAAAAAAAAAAAAAAAAAAAAA3SIUE7hA0hM4
Nv/p00EA7++bJyKTHUA6SPp6UyVHQMJabYCBwZdAAAAAAAAAFEAAAAAAAAAiQJQTAAAh
BAAA1QIAAM8AAAANAAAAMzMzMzMz7z9kDAIDxwAAAAAAAAAAAAAAAAAAAAAA3/kVGLhA
wXBqN//p00EAwqz/oyqTHUBil5KIViVHQA23BgiAypdAAAAAAAAAFEAAAAAAAAAiQHwT
AAAqBAAA4wIAANEAAAAMAAAAZmZmZmZm7D9kDAIDyQAAAAAAAAAAAAAAAAAAAAAAKAsT
HbhAMtKcOP/p00EAc14Hry6THUCFSXipWSVHQGKu6xA/0pdAAAAAAAAAJEAAAAAAAAAi
QJATAAAtBAAA5AIAANIAAAAFAAAAZmZmZmZm6j9kDAIDyAAAAAAAAAAAAAAAAAAAAAAA
JNQUIrhAzp/wOf/p00EAj7KRPjCTHUAuiTshXSVHQHja9/o+2ZdAAAAAAAAAJEAAAAAA
AAAiQGwXAACaBAAA9wIAANEAAAAEAAAAZmZmZmZm6j9kDAIDxwAAAAAAAAAAAAAAAAAA
AAAAcM8TKLhABGw6O//p00EAbHDK4TCTHUAtXXJyYCVHQOyDCSYp35dAAAAAAAAAJEAA
AAAAAAAiQGkXAABnBAAAtgIAAMsAAAAAAAAAzczMzMzM7D9kDAIDxwAAAAAAAAAAAAAA
AAAAAAAAqvIRLrhAHU94PP/p00EAhJuymDKTHUA/5wOaYyVHQHKKtUFj4pdAAAAAAAAA
JEAAAAAAAAAiQHMXAAAwBAAAcQIAAMoAAAAAAAAAmZmZmZmZ7T9kDAIDxAAAAAAAAAAA
AAAAAAAAAAAAtMgSNLhA2RzcPf/p00EAACJTWzOTHUCievQfZyVHQCqcPAiR45dAAAAA
AAAAJEAAAAAAAAAiQGoXAACtBAAADgMAAMoAAAABAAAAmZmZmZmZ7T9kDAIDxAAAAAAA
AAAAAAAAAAAAAAAAwF0SOrhAsyYhP//p00EAxUi4ajSTHUAxEFhIaiVHQJAT4hhg5ZdA
AAAAAAAAJEAAAAAAAAAiQHYXAAAxBAAAcQIAAMIAAABjAQAAzczMzMzM7D9kDAIDwgAA
AAAAAAAAAAAAAAAAAAAAWyITQLhAxlqfQP/p00EAYCY28zeTHUAtxcTrbSVHQChshShB
6pdAAAAAAAAAFEAAAAAAAAAiQIQTAADYBAAAhwMAAMIAAAAAAAAAAAAAAAAA8D9kDAID
yAAAAAAAAAAAAAAAAAAAAAAAi20SRbhAaEneQf/p00EAbjhbpD+THUBohejjcCVHQPil
G36D8ZdAAAAAAAAAJECkpf/tHgIiQG4XAAAJBAAAQQIAAMMAAAAHAAAAMzMzMzMz7z9k
DAIDxgAAAAAAAAAAAAAAAAAAAAAA0TkTS7hAaVUWQ//p00EA7kOjPkuTHUCaryStcyVH
QAw/zG+Z+JdAAAAAAAAAJEAAAAAAAAAiQHQXAADtAwAAHQIAAL8AAAAOAAAAzczMzMzM
7D9kDAIDxQAAAAAAAAAAAAAAAAAAAAAA9YITUbhAXsyCRP/p00EAqthXnleTHUDuY2zl
diVHQIQVHqOP/pdAAAAAAAAAFEAAAAAAAAAiQGoXAACABAAA1gIAALgAAAANAAAAAAAA
AAAA7j9kDAIDwwAAAAAAAAAAAAAAAAAAAAAA0AwSV7hAsmsBRv/p00EAI6KkWGaTHUC5
Gb0leiVHQFgrPYaeBJhAAAAAAAAAFEAAAAAAAAAiQIUTAACiBAAAWgMAALoAAAAUAAAA
AAAAAAAA8D9kDAIDxgAAAAAAAAAAAAAAAAAAAAAAsfkQXLhAnWRpR//p00EArCvDSm+T
HUDJl5xgfSVHQGbWqVm8C5hAAAAAAAAAJEAAAAAAAAAiQI0TAABoBAAAKgMAAMEAAAAO
AAAAzczMzMzM7D9kDAIDxwAAAAAAAAAAAAAAAAAAAAAAXMUSYbhA0UWmSP/p00EAIzPm
M3uTHUBEHNk4gCVHQKAUi/FmEphAAAAAAAAAFEAAAAAAAAAiQJ4PAAADBAAA7wIAAMcA
AAAOAAAAmZmZmZmZ7T9kDAIDzAAAAAAAAAAAAAAAAAAAAAAALm8SZbhAHFPVSf/p00EA
zDtChoWTHUALj1UWgyVHQJncAv9CFphAAAAAAAAAFEAAAAAAAAAiQJ0PAAD7AwAA6AIA
AMwAAAAMAAAAMzMzMzMz7z9kDAID0AAAAAAAAAAAAAAAAAAAAAAAXOURabhA4ogKS//p
00EA4XEc/YyTHUCr4qYjhiVHQD45P7tDF5hAAAAAAAAAJEAAAAAAAAAiQIgTAAAjBAAA
2QIAAM8AAAAQAAAAzczMzMzM7D9kDAID0gAAAAAAAAAAAAAAAAAAAAAASYQSbrhAfuUz
TP/p00EAhHTYB5uTHUBEaUnniCVHQEWi7d1SFZhAAAAAAAAAJEAAAAAAAAAiQI4TAAAB
BAAArQIAAM8AAAAWAAAAzczMzMzM7D9kDAID1QAAAAAAAAAAAAAAAAAAAAAAn44Tc7hA
B7xoTf/p00EAFJ526LOTHUC1f0EoiyVHQBKVcn2fEJhAAAAAAAAAJEAAAAAAAAAiQIAT
AAAhBAAA1wIAAMwAAAAkAAAAzczMzMzM7D9kDAID1gAAAAAAAAAAAAAAAAAAAAAABHMU
eLhAgxmXTv/p00EAlWWUwtOTHUAx8UuLjCVHQFFtqMELDJhAAAAAAAAAFEAAAAAAAAAi
QKUPAAAWBAAA/wIAANEAAAA1AAAAMzMzMzMz7z9kDAID2QAAAAAAAAABAAAAAAAAAAAA
XBoTfLhANI3AT//p00EArFB4k/aTHUC8f6yUjSVHQMd9doXxCZhAAAAAAAAAJEAAAAAA
AAAiQJ0PAAA4BAAAGwMAAN4AAAA9AAAAZmZmZmZm7j9kDAID4AAAAAAAAAAAAAAAAAAA
AAAAPgcSgLhAjUT7UP/p00EAm/yh6ByUHUCGjf6djiVHQII71sSWCphAAAAAAAAAFEAA
AAAAAAAiQIYTAACaBAAAVAMAAOMAAABDAAAAAAAAAAAA8D9kDAID3wAAAAAAAAAAAAAA
AAAAAAAAaycShbhAGhUNUv/p00EAirz5CTyUHUBqjh/+jyVHQFiGaubJDZhAAAAAAAAA
FEAAAAAAAAAiQI0TAAACBAAArgIAAOAAAAA3AAAAAAAAAAAA8D9kDAID4gAAAAAAAAAA
AAAAAAAAAAAA/YQTirhAtKdTU//p00EAWVEs2lqUHUBykQhUkiVHQDRRhVSVEphAAAAA
AAAAJEAookwgDzAiQGwXAACyBAAAFQMAANoAAAArAAAAMzMzMzMz7z9kDAID5AAAAAAA
AAAAAAAAAAAAAAAA+l8SkLhA/J6eVP/p00EAiLtEFHWUHUB+DfzxlCVHQBxm2GeAGJhA
AAAAAAAAFEB4ouvMnBsiQIUTAACXBAAAUQMAAM8AAAAlAAAAZmZmZmZm7j9kDAID6AAA
AAAAAAAAAAAAAAAAAAAA1H4TlbhA3OHdVf/p00EAwKuWWYeUHUDVAWGnlyVHQEHHQr3a
IphAAAAAAAAAFEAAAAAAAAAiQHkXAAAoBAAAZwIAAMAAAAAXAAAAMzMzMzMz7z9kDAID
4wAAAAAAAAAAAAAAAAAAAAAA1sIUm7hAzasfV//p00EA38DB0piUHUBjD95QmiVHQN66
zsL0MZhAAAAAAAAAFEAAAAAAAAAiQHAXAAAPBAAASAIAAMAAAAAZAAAAAAAAAAAA8D9k
DAID3AAAAAAAAAAAAAAAAAAAAAAApuwUobhAcaeQWP/p00EA709m+qeUHUDO4meHnSVH
QKIXQ5S3PphAAAAAAAAAFEAAAAAAAAAiQHYXAACaBAAA9QIAAL8AAAAXAAAAAAAAAAAA
7j9kDAID1wAAAAAAAAAAAAAAAAAAAAAA/UsWp7hAi+nwWf/p00EAydlmLa6UHUBSrgHG
oCVHQIR4AjA3RJhAAAAAAAAAJEAAAAAAAAAiQIUTAABdBAAAIQMAALwAAAAPAAAAzczM
zMzM7D9kDAID2AAAAAAAAAAAAAAAAAAAAAAA+IcVrLhALM5oW//p00EAH595H86UHUD6
3tlaoiVHQIAfJ7/RRJhAAAAAAAAAFEAAAAAAAAAiQD4fAAA4BAAAIAIAAIwAAAAsAAAA
MzMzMzMz7T9kDAID0gAAAAAAAAAAAAAAAAAAAAAAWU8VtLhAUtitXf/p00EA2ZOsOv6U
HUAMjF5KoyVHQNawxBILRZhAAAAAAAAAFEAAAAAAAAAiQIATAACmBQAAMgQAAIcAAABG
AAAAAAAAAAAA8D9kDAID1QAAAAAAAAAAAAAAAAAAAAAA8GgTubhA8patYf/p00EC2ZOs
Ov6UHUAMjF5KoyVHQGPZBAiER5hAAAAAAAAAFEAAAAAAAAAiQHw+AAAAAAAAAAAAAAAA
AABTAAAAmZmZmZmZ7T9kDQID1QAAAAAAAAAAAAAAAAAAAAAAtB4SybhAAp+tZP/p00EC
2ZOsOv6UHUAMjF5KoyVHQHdy/dKlSphAAAAAAAAAFEAAAAAAAAAiQEgvAAA5AgAAmgEA
AAAAAABTAAAAAAAAAAAA8D9kDYID1QAAAAAAAAAAAAAAAAAAAAAA8rIq1bhA
</bin>
</fpdata>
</extensions>
</gpx>
